<?xml version="1.0" encoding="UTF-8" standalone="no" ?>
<gpx xmlns="http://www.topografix.com/GPX/1/1" xmlns:xsi="http://www.w3.org/2001/XMLSchema-instance" xsi:schemaLocation="http://www.topografix.com/GPX/1/1 http://www.topografix.com/GPX/1/1/gpx.xsd" version="1.1" creator="VisuGPX - https://www.visugpx.com">
  <metadata>
    <name>Course à pied matinale</name>
  </metadata>
  <trk>
    <name><![CDATA[Course à pied matinale]]></name>
    <trkseg>
      <trkpt lat="43.17802" lon="2.36845">
        <ele>156.6</ele>
        <time>1970-01-01T00:00:00.000Z</time>
      </trkpt>
      <trkpt lat="43.17801" lon="2.3685">
        <ele>156.7</ele>
        <time>1970-01-01T00:00:02.000Z</time>
      </trkpt>
      <trkpt lat="43.178" lon="2.36851">
        <ele>156.7</ele>
        <time>1970-01-01T00:00:03.000Z</time>
      </trkpt>
      <trkpt lat="43.178" lon="2.36853">
        <ele>156.7</ele>
        <time>1970-01-01T00:00:04.000Z</time>
      </trkpt>
      <trkpt lat="43.178" lon="2.36854">
        <ele>156.7</ele>
        <time>1970-01-01T00:00:05.000Z</time>
      </trkpt>
      <trkpt lat="43.17799" lon="2.36856">
        <ele>156.7</ele>
        <time>1970-01-01T00:00:06.000Z</time>
      </trkpt>
      <trkpt lat="43.17798" lon="2.36859">
        <ele>156.8</ele>
        <time>1970-01-01T00:00:08.000Z</time>
      </trkpt>
      <trkpt lat="43.17797" lon="2.36862">
        <ele>156.8</ele>
        <time>1970-01-01T00:00:09.000Z</time>
      </trkpt>
      <trkpt lat="43.17797" lon="2.36864">
        <ele>156.8</ele>
        <time>1970-01-01T00:00:10.000Z</time>
      </trkpt>
      <trkpt lat="43.17796" lon="2.36867">
        <ele>156.8</ele>
        <time>1970-01-01T00:00:11.000Z</time>
      </trkpt>
      <trkpt lat="43.17793" lon="2.36872">
        <ele>156.9</ele>
        <time>1970-01-01T00:00:13.000Z</time>
      </trkpt>
      <trkpt lat="43.17792" lon="2.36876">
        <ele>156.9</ele>
        <time>1970-01-01T00:00:15.000Z</time>
      </trkpt>
      <trkpt lat="43.1779" lon="2.36881">
        <ele>157</ele>
        <time>1970-01-01T00:00:16.000Z</time>
      </trkpt>
      <trkpt lat="43.1779" lon="2.36883">
        <ele>157</ele>
        <time>1970-01-01T00:00:17.000Z</time>
      </trkpt>
      <trkpt lat="43.17787" lon="2.36888">
        <ele>157</ele>
        <time>1970-01-01T00:00:19.000Z</time>
      </trkpt>
      <trkpt lat="43.17786" lon="2.36891">
        <ele>157.1</ele>
        <time>1970-01-01T00:00:20.000Z</time>
      </trkpt>
      <trkpt lat="43.17785" lon="2.36893">
        <ele>157.1</ele>
        <time>1970-01-01T00:00:21.000Z</time>
      </trkpt>
      <trkpt lat="43.17783" lon="2.36898">
        <ele>157.2</ele>
        <time>1970-01-01T00:00:23.000Z</time>
      </trkpt>
      <trkpt lat="43.17781" lon="2.36902">
        <ele>157.2</ele>
        <time>1970-01-01T00:00:24.000Z</time>
      </trkpt>
      <trkpt lat="43.17779" lon="2.36905">
        <ele>157.3</ele>
        <time>1970-01-01T00:00:25.000Z</time>
      </trkpt>
      <trkpt lat="43.17778" lon="2.3691">
        <ele>157.4</ele>
        <time>1970-01-01T00:00:26.000Z</time>
      </trkpt>
      <trkpt lat="43.17777" lon="2.36913">
        <ele>157.4</ele>
        <time>1970-01-01T00:00:27.000Z</time>
      </trkpt>
      <trkpt lat="43.17776" lon="2.36917">
        <ele>157.5</ele>
        <time>1970-01-01T00:00:29.000Z</time>
      </trkpt>
      <trkpt lat="43.17774" lon="2.3692">
        <ele>157.6</ele>
        <time>1970-01-01T00:00:30.000Z</time>
      </trkpt>
      <trkpt lat="43.17773" lon="2.36924">
        <ele>157.6</ele>
        <time>1970-01-01T00:00:31.000Z</time>
      </trkpt>
      <trkpt lat="43.17771" lon="2.36929">
        <ele>157.7</ele>
        <time>1970-01-01T00:00:33.000Z</time>
      </trkpt>
      <trkpt lat="43.17771" lon="2.3693">
        <ele>157.7</ele>
        <time>1970-01-01T00:00:34.000Z</time>
      </trkpt>
      <trkpt lat="43.17769" lon="2.36936">
        <ele>157.8</ele>
        <time>1970-01-01T00:00:36.000Z</time>
      </trkpt>
      <trkpt lat="43.17767" lon="2.3694">
        <ele>157.9</ele>
        <time>1970-01-01T00:00:37.000Z</time>
      </trkpt>
      <trkpt lat="43.17766" lon="2.36941">
        <ele>157.9</ele>
        <time>1970-01-01T00:00:38.000Z</time>
      </trkpt>
      <trkpt lat="43.17765" lon="2.36947">
        <ele>158</ele>
        <time>1970-01-01T00:00:40.000Z</time>
      </trkpt>
      <trkpt lat="43.17764" lon="2.36949">
        <ele>158</ele>
        <time>1970-01-01T00:00:41.000Z</time>
      </trkpt>
      <trkpt lat="43.17763" lon="2.36952">
        <ele>158</ele>
        <time>1970-01-01T00:00:42.000Z</time>
      </trkpt>
      <trkpt lat="43.17762" lon="2.36958">
        <ele>158.2</ele>
        <time>1970-01-01T00:00:44.000Z</time>
      </trkpt>
      <trkpt lat="43.17761" lon="2.36959">
        <ele>158.2</ele>
        <time>1970-01-01T00:00:45.000Z</time>
      </trkpt>
      <trkpt lat="43.1776" lon="2.36961">
        <ele>158.2</ele>
        <time>1970-01-01T00:00:46.000Z</time>
      </trkpt>
      <trkpt lat="43.17759" lon="2.36966">
        <ele>158.3</ele>
        <time>1970-01-01T00:00:48.000Z</time>
      </trkpt>
      <trkpt lat="43.17758" lon="2.36968">
        <ele>158.4</ele>
        <time>1970-01-01T00:00:49.000Z</time>
      </trkpt>
      <trkpt lat="43.17758" lon="2.3697">
        <ele>158.4</ele>
        <time>1970-01-01T00:00:50.000Z</time>
      </trkpt>
      <trkpt lat="43.17757" lon="2.36972">
        <ele>158.5</ele>
        <time>1970-01-01T00:00:51.000Z</time>
      </trkpt>
      <trkpt lat="43.17756" lon="2.36975">
        <ele>158.5</ele>
        <time>1970-01-01T00:00:53.000Z</time>
      </trkpt>
      <trkpt lat="43.17755" lon="2.36979">
        <ele>158.6</ele>
        <time>1970-01-01T00:00:54.000Z</time>
      </trkpt>
      <trkpt lat="43.17754" lon="2.36981">
        <ele>158.6</ele>
        <time>1970-01-01T00:00:55.000Z</time>
      </trkpt>
      <trkpt lat="43.17753" lon="2.36985">
        <ele>158.7</ele>
        <time>1970-01-01T00:00:57.000Z</time>
      </trkpt>
      <trkpt lat="43.17753" lon="2.36987">
        <ele>158.7</ele>
        <time>1970-01-01T00:00:58.000Z</time>
      </trkpt>
      <trkpt lat="43.17751" lon="2.36991">
        <ele>158.8</ele>
        <time>1970-01-01T00:00:59.000Z</time>
      </trkpt>
      <trkpt lat="43.17751" lon="2.36993">
        <ele>158.9</ele>
        <time>1970-01-01T00:01:00.000Z</time>
      </trkpt>
      <trkpt lat="43.1775" lon="2.36997">
        <ele>158.9</ele>
        <time>1970-01-01T00:01:01.000Z</time>
      </trkpt>
      <trkpt lat="43.1775" lon="2.36998">
        <ele>158.9</ele>
        <time>1970-01-01T00:01:02.000Z</time>
      </trkpt>
      <trkpt lat="43.17748" lon="2.37003">
        <ele>159</ele>
        <time>1970-01-01T00:01:04.000Z</time>
      </trkpt>
      <trkpt lat="43.17748" lon="2.37005">
        <ele>159</ele>
        <time>1970-01-01T00:01:05.000Z</time>
      </trkpt>
      <trkpt lat="43.17747" lon="2.37008">
        <ele>159.1</ele>
        <time>1970-01-01T00:01:06.000Z</time>
      </trkpt>
      <trkpt lat="43.17746" lon="2.37012">
        <ele>159.1</ele>
        <time>1970-01-01T00:01:08.000Z</time>
      </trkpt>
      <trkpt lat="43.17745" lon="2.37016">
        <ele>159.2</ele>
        <time>1970-01-01T00:01:09.000Z</time>
      </trkpt>
      <trkpt lat="43.17744" lon="2.37021">
        <ele>159.2</ele>
        <time>1970-01-01T00:01:10.000Z</time>
      </trkpt>
      <trkpt lat="43.17743" lon="2.37022">
        <ele>159.3</ele>
        <time>1970-01-01T00:01:11.000Z</time>
      </trkpt>
      <trkpt lat="43.17742" lon="2.37027">
        <ele>159.3</ele>
        <time>1970-01-01T00:01:13.000Z</time>
      </trkpt>
      <trkpt lat="43.17741" lon="2.37028">
        <ele>159.3</ele>
        <time>1970-01-01T00:01:14.000Z</time>
      </trkpt>
      <trkpt lat="43.17739" lon="2.3703">
        <ele>159.4</ele>
        <time>1970-01-01T00:01:15.000Z</time>
      </trkpt>
      <trkpt lat="43.17736" lon="2.37031">
        <ele>159.4</ele>
        <time>1970-01-01T00:01:17.000Z</time>
      </trkpt>
      <trkpt lat="43.17733" lon="2.37032">
        <ele>159.5</ele>
        <time>1970-01-01T00:01:18.000Z</time>
      </trkpt>
      <trkpt lat="43.1773" lon="2.37032">
        <ele>159.5</ele>
        <time>1970-01-01T00:01:20.000Z</time>
      </trkpt>
      <trkpt lat="43.17726" lon="2.37033">
        <ele>159.6</ele>
        <time>1970-01-01T00:01:21.000Z</time>
      </trkpt>
      <trkpt lat="43.17723" lon="2.37033">
        <ele>159.6</ele>
        <time>1970-01-01T00:01:22.000Z</time>
      </trkpt>
      <trkpt lat="43.17722" lon="2.37033">
        <ele>159.6</ele>
        <time>1970-01-01T00:01:23.000Z</time>
      </trkpt>
      <trkpt lat="43.17719" lon="2.37033">
        <ele>159.7</ele>
        <time>1970-01-01T00:01:25.000Z</time>
      </trkpt>
      <trkpt lat="43.17716" lon="2.37034">
        <ele>159.7</ele>
        <time>1970-01-01T00:01:26.000Z</time>
      </trkpt>
      <trkpt lat="43.17712" lon="2.37033">
        <ele>159.8</ele>
        <time>1970-01-01T00:01:28.000Z</time>
      </trkpt>
      <trkpt lat="43.17709" lon="2.37033">
        <ele>159.9</ele>
        <time>1970-01-01T00:01:30.000Z</time>
      </trkpt>
      <trkpt lat="43.17707" lon="2.37033">
        <ele>159.9</ele>
        <time>1970-01-01T00:01:31.000Z</time>
      </trkpt>
      <trkpt lat="43.17703" lon="2.37033">
        <ele>160</ele>
        <time>1970-01-01T00:01:33.000Z</time>
      </trkpt>
      <trkpt lat="43.177" lon="2.37033">
        <ele>160</ele>
        <time>1970-01-01T00:01:34.000Z</time>
      </trkpt>
      <trkpt lat="43.17699" lon="2.37033">
        <ele>160.1</ele>
        <time>1970-01-01T00:01:35.000Z</time>
      </trkpt>
      <trkpt lat="43.17698" lon="2.37032">
        <ele>160.1</ele>
        <time>1970-01-01T00:01:36.000Z</time>
      </trkpt>
      <trkpt lat="43.17695" lon="2.3703">
        <ele>160.1</ele>
        <time>1970-01-01T00:01:38.000Z</time>
      </trkpt>
      <trkpt lat="43.17692" lon="2.37026">
        <ele>160.2</ele>
        <time>1970-01-01T00:01:40.000Z</time>
      </trkpt>
      <trkpt lat="43.1769" lon="2.37025">
        <ele>160.3</ele>
        <time>1970-01-01T00:01:41.000Z</time>
      </trkpt>
      <trkpt lat="43.17689" lon="2.37023">
        <ele>160.3</ele>
        <time>1970-01-01T00:01:42.000Z</time>
      </trkpt>
      <trkpt lat="43.17686" lon="2.3702">
        <ele>160.4</ele>
        <time>1970-01-01T00:01:44.000Z</time>
      </trkpt>
      <trkpt lat="43.17684" lon="2.37019">
        <ele>160.4</ele>
        <time>1970-01-01T00:01:45.000Z</time>
      </trkpt>
      <trkpt lat="43.17683" lon="2.37019">
        <ele>160.4</ele>
        <time>1970-01-01T00:01:46.000Z</time>
      </trkpt>
      <trkpt lat="43.1768" lon="2.37019">
        <ele>160.5</ele>
        <time>1970-01-01T00:01:48.000Z</time>
      </trkpt>
      <trkpt lat="43.17677" lon="2.37023">
        <ele>160.5</ele>
        <time>1970-01-01T00:01:50.000Z</time>
      </trkpt>
      <trkpt lat="43.17677" lon="2.37024">
        <ele>160.5</ele>
        <time>1970-01-01T00:01:51.000Z</time>
      </trkpt>
      <trkpt lat="43.17675" lon="2.37028">
        <ele>160.5</ele>
        <time>1970-01-01T00:01:52.000Z</time>
      </trkpt>
      <trkpt lat="43.17675" lon="2.3703">
        <ele>160.5</ele>
        <time>1970-01-01T00:01:53.000Z</time>
      </trkpt>
      <trkpt lat="43.17674" lon="2.37034">
        <ele>160.6</ele>
        <time>1970-01-01T00:01:54.000Z</time>
      </trkpt>
      <trkpt lat="43.17673" lon="2.37036">
        <ele>160.6</ele>
        <time>1970-01-01T00:01:55.000Z</time>
      </trkpt>
      <trkpt lat="43.17672" lon="2.37039">
        <ele>160.6</ele>
        <time>1970-01-01T00:01:57.000Z</time>
      </trkpt>
      <trkpt lat="43.17671" lon="2.37042">
        <ele>160.6</ele>
        <time>1970-01-01T00:01:58.000Z</time>
      </trkpt>
      <trkpt lat="43.1767" lon="2.37045">
        <ele>160.6</ele>
        <time>1970-01-01T00:02:00.000Z</time>
      </trkpt>
      <trkpt lat="43.17669" lon="2.37049">
        <ele>160.7</ele>
        <time>1970-01-01T00:02:01.000Z</time>
      </trkpt>
      <trkpt lat="43.17667" lon="2.37055">
        <ele>160.7</ele>
        <time>1970-01-01T00:02:03.000Z</time>
      </trkpt>
      <trkpt lat="43.17666" lon="2.37057">
        <ele>160.8</ele>
        <time>1970-01-01T00:02:04.000Z</time>
      </trkpt>
      <trkpt lat="43.17666" lon="2.37059">
        <ele>160.8</ele>
        <time>1970-01-01T00:02:05.000Z</time>
      </trkpt>
      <trkpt lat="43.17664" lon="2.37063">
        <ele>160.8</ele>
        <time>1970-01-01T00:02:07.000Z</time>
      </trkpt>
      <trkpt lat="43.17664" lon="2.37066">
        <ele>160.9</ele>
        <time>1970-01-01T00:02:08.000Z</time>
      </trkpt>
      <trkpt lat="43.17662" lon="2.3707">
        <ele>160.9</ele>
        <time>1970-01-01T00:02:10.000Z</time>
      </trkpt>
      <trkpt lat="43.17661" lon="2.37073">
        <ele>160.9</ele>
        <time>1970-01-01T00:02:11.000Z</time>
      </trkpt>
      <trkpt lat="43.1766" lon="2.37076">
        <ele>161</ele>
        <time>1970-01-01T00:02:13.000Z</time>
      </trkpt>
      <trkpt lat="43.17658" lon="2.37081">
        <ele>161</ele>
        <time>1970-01-01T00:02:14.000Z</time>
      </trkpt>
      <trkpt lat="43.17658" lon="2.37083">
        <ele>161</ele>
        <time>1970-01-01T00:02:15.000Z</time>
      </trkpt>
      <trkpt lat="43.17657" lon="2.37086">
        <ele>161</ele>
        <time>1970-01-01T00:02:16.000Z</time>
      </trkpt>
      <trkpt lat="43.17656" lon="2.37089">
        <ele>161</ele>
        <time>1970-01-01T00:02:18.000Z</time>
      </trkpt>
      <trkpt lat="43.17655" lon="2.37093">
        <ele>161</ele>
        <time>1970-01-01T00:02:19.000Z</time>
      </trkpt>
      <trkpt lat="43.17655" lon="2.37094">
        <ele>161</ele>
        <time>1970-01-01T00:02:20.000Z</time>
      </trkpt>
      <trkpt lat="43.17654" lon="2.37096">
        <ele>161.1</ele>
        <time>1970-01-01T00:02:21.000Z</time>
      </trkpt>
      <trkpt lat="43.17653" lon="2.371">
        <ele>161.1</ele>
        <time>1970-01-01T00:02:23.000Z</time>
      </trkpt>
      <trkpt lat="43.17651" lon="2.37103">
        <ele>161.1</ele>
        <time>1970-01-01T00:02:24.000Z</time>
      </trkpt>
      <trkpt lat="43.1765" lon="2.37107">
        <ele>161.2</ele>
        <time>1970-01-01T00:02:25.000Z</time>
      </trkpt>
      <trkpt lat="43.1765" lon="2.37109">
        <ele>161.2</ele>
        <time>1970-01-01T00:02:26.000Z</time>
      </trkpt>
      <trkpt lat="43.17648" lon="2.37115">
        <ele>161.3</ele>
        <time>1970-01-01T00:02:28.000Z</time>
      </trkpt>
      <trkpt lat="43.17647" lon="2.37117">
        <ele>161.3</ele>
        <time>1970-01-01T00:02:29.000Z</time>
      </trkpt>
      <trkpt lat="43.17646" lon="2.37119">
        <ele>161.3</ele>
        <time>1970-01-01T00:02:30.000Z</time>
      </trkpt>
      <trkpt lat="43.17645" lon="2.37123">
        <ele>161.4</ele>
        <time>1970-01-01T00:02:32.000Z</time>
      </trkpt>
      <trkpt lat="43.17645" lon="2.37126">
        <ele>161.5</ele>
        <time>1970-01-01T00:02:33.000Z</time>
      </trkpt>
      <trkpt lat="43.17644" lon="2.37129">
        <ele>161.6</ele>
        <time>1970-01-01T00:02:35.000Z</time>
      </trkpt>
      <trkpt lat="43.17643" lon="2.37134">
        <ele>161.7</ele>
        <time>1970-01-01T00:02:36.000Z</time>
      </trkpt>
      <trkpt lat="43.17642" lon="2.37138">
        <ele>161.7</ele>
        <time>1970-01-01T00:02:38.000Z</time>
      </trkpt>
      <trkpt lat="43.17642" lon="2.3714">
        <ele>161.8</ele>
        <time>1970-01-01T00:02:39.000Z</time>
      </trkpt>
      <trkpt lat="43.17641" lon="2.37144">
        <ele>161.8</ele>
        <time>1970-01-01T00:02:41.000Z</time>
      </trkpt>
      <trkpt lat="43.1764" lon="2.37148">
        <ele>161.9</ele>
        <time>1970-01-01T00:02:42.000Z</time>
      </trkpt>
      <trkpt lat="43.1764" lon="2.37153">
        <ele>162</ele>
        <time>1970-01-01T00:02:43.000Z</time>
      </trkpt>
      <trkpt lat="43.17639" lon="2.37154">
        <ele>162</ele>
        <time>1970-01-01T00:02:44.000Z</time>
      </trkpt>
      <trkpt lat="43.17639" lon="2.37158">
        <ele>162</ele>
        <time>1970-01-01T00:02:46.000Z</time>
      </trkpt>
      <trkpt lat="43.17638" lon="2.37161">
        <ele>162.1</ele>
        <time>1970-01-01T00:02:47.000Z</time>
      </trkpt>
      <trkpt lat="43.17637" lon="2.37166">
        <ele>162.2</ele>
        <time>1970-01-01T00:02:49.000Z</time>
      </trkpt>
      <trkpt lat="43.17636" lon="2.37169">
        <ele>162.2</ele>
        <time>1970-01-01T00:02:50.000Z</time>
      </trkpt>
      <trkpt lat="43.17635" lon="2.37172">
        <ele>162.2</ele>
        <time>1970-01-01T00:02:52.000Z</time>
      </trkpt>
      <trkpt lat="43.17634" lon="2.37176">
        <ele>162.3</ele>
        <time>1970-01-01T00:02:53.000Z</time>
      </trkpt>
      <trkpt lat="43.17633" lon="2.3718">
        <ele>162.4</ele>
        <time>1970-01-01T00:02:54.000Z</time>
      </trkpt>
      <trkpt lat="43.17632" lon="2.37181">
        <ele>162.4</ele>
        <time>1970-01-01T00:02:55.000Z</time>
      </trkpt>
      <trkpt lat="43.17631" lon="2.37184">
        <ele>162.5</ele>
        <time>1970-01-01T00:02:56.000Z</time>
      </trkpt>
      <trkpt lat="43.1763" lon="2.37188">
        <ele>162.5</ele>
        <time>1970-01-01T00:02:58.000Z</time>
      </trkpt>
      <trkpt lat="43.17629" lon="2.37191">
        <ele>162.6</ele>
        <time>1970-01-01T00:02:59.000Z</time>
      </trkpt>
      <trkpt lat="43.17628" lon="2.37194">
        <ele>162.7</ele>
        <time>1970-01-01T00:03:01.000Z</time>
      </trkpt>
      <trkpt lat="43.17627" lon="2.37199">
        <ele>162.8</ele>
        <time>1970-01-01T00:03:02.000Z</time>
      </trkpt>
      <trkpt lat="43.17627" lon="2.372">
        <ele>162.8</ele>
        <time>1970-01-01T00:03:03.000Z</time>
      </trkpt>
      <trkpt lat="43.17626" lon="2.37204">
        <ele>162.8</ele>
        <time>1970-01-01T00:03:04.000Z</time>
      </trkpt>
      <trkpt lat="43.17625" lon="2.37206">
        <ele>162.9</ele>
        <time>1970-01-01T00:03:05.000Z</time>
      </trkpt>
      <trkpt lat="43.17625" lon="2.3721">
        <ele>162.9</ele>
        <time>1970-01-01T00:03:07.000Z</time>
      </trkpt>
      <trkpt lat="43.17624" lon="2.37213">
        <ele>163</ele>
        <time>1970-01-01T00:03:08.000Z</time>
      </trkpt>
      <trkpt lat="43.17623" lon="2.37215">
        <ele>163</ele>
        <time>1970-01-01T00:03:09.000Z</time>
      </trkpt>
      <trkpt lat="43.17622" lon="2.37219">
        <ele>163.1</ele>
        <time>1970-01-01T00:03:11.000Z</time>
      </trkpt>
      <trkpt lat="43.1762" lon="2.37223">
        <ele>163.2</ele>
        <time>1970-01-01T00:03:12.000Z</time>
      </trkpt>
      <trkpt lat="43.17619" lon="2.37225">
        <ele>163.2</ele>
        <time>1970-01-01T00:03:13.000Z</time>
      </trkpt>
      <trkpt lat="43.17616" lon="2.3723">
        <ele>163.3</ele>
        <time>1970-01-01T00:03:15.000Z</time>
      </trkpt>
      <trkpt lat="43.17615" lon="2.37231">
        <ele>163.4</ele>
        <time>1970-01-01T00:03:16.000Z</time>
      </trkpt>
      <trkpt lat="43.17614" lon="2.37233">
        <ele>163.4</ele>
        <time>1970-01-01T00:03:17.000Z</time>
      </trkpt>
      <trkpt lat="43.17612" lon="2.37236">
        <ele>163.5</ele>
        <time>1970-01-01T00:03:19.000Z</time>
      </trkpt>
      <trkpt lat="43.17611" lon="2.37238">
        <ele>163.5</ele>
        <time>1970-01-01T00:03:20.000Z</time>
      </trkpt>
      <trkpt lat="43.17608" lon="2.37242">
        <ele>163.6</ele>
        <time>1970-01-01T00:03:22.000Z</time>
      </trkpt>
      <trkpt lat="43.17606" lon="2.37246">
        <ele>163.7</ele>
        <time>1970-01-01T00:03:24.000Z</time>
      </trkpt>
      <trkpt lat="43.17605" lon="2.37247">
        <ele>163.8</ele>
        <time>1970-01-01T00:03:25.000Z</time>
      </trkpt>
      <trkpt lat="43.17604" lon="2.37251">
        <ele>163.8</ele>
        <time>1970-01-01T00:03:26.000Z</time>
      </trkpt>
      <trkpt lat="43.17603" lon="2.37252">
        <ele>163.8</ele>
        <time>1970-01-01T00:03:27.000Z</time>
      </trkpt>
      <trkpt lat="43.17602" lon="2.37257">
        <ele>163.9</ele>
        <time>1970-01-01T00:03:29.000Z</time>
      </trkpt>
      <trkpt lat="43.17602" lon="2.37258">
        <ele>163.9</ele>
        <time>1970-01-01T00:03:30.000Z</time>
      </trkpt>
      <trkpt lat="43.17601" lon="2.37262">
        <ele>164</ele>
        <time>1970-01-01T00:03:31.000Z</time>
      </trkpt>
      <trkpt lat="43.176" lon="2.37266">
        <ele>164.1</ele>
        <time>1970-01-01T00:03:33.000Z</time>
      </trkpt>
      <trkpt lat="43.17599" lon="2.3727">
        <ele>164.1</ele>
        <time>1970-01-01T00:03:34.000Z</time>
      </trkpt>
      <trkpt lat="43.17599" lon="2.37271">
        <ele>164.1</ele>
        <time>1970-01-01T00:03:35.000Z</time>
      </trkpt>
      <trkpt lat="43.17599" lon="2.37273">
        <ele>164.1</ele>
        <time>1970-01-01T00:03:36.000Z</time>
      </trkpt>
      <trkpt lat="43.17599" lon="2.37277">
        <ele>164.2</ele>
        <time>1970-01-01T00:03:38.000Z</time>
      </trkpt>
      <trkpt lat="43.17598" lon="2.37281">
        <ele>164.2</ele>
        <time>1970-01-01T00:03:39.000Z</time>
      </trkpt>
      <trkpt lat="43.17598" lon="2.37283">
        <ele>164.2</ele>
        <time>1970-01-01T00:03:40.000Z</time>
      </trkpt>
      <trkpt lat="43.17597" lon="2.37287">
        <ele>164.2</ele>
        <time>1970-01-01T00:03:42.000Z</time>
      </trkpt>
      <trkpt lat="43.17597" lon="2.37288">
        <ele>164.3</ele>
        <time>1970-01-01T00:03:43.000Z</time>
      </trkpt>
      <trkpt lat="43.17596" lon="2.37293">
        <ele>164.3</ele>
        <time>1970-01-01T00:03:44.000Z</time>
      </trkpt>
      <trkpt lat="43.17595" lon="2.37294">
        <ele>164.3</ele>
        <time>1970-01-01T00:03:45.000Z</time>
      </trkpt>
      <trkpt lat="43.17595" lon="2.37297">
        <ele>164.3</ele>
        <time>1970-01-01T00:03:47.000Z</time>
      </trkpt>
      <trkpt lat="43.17594" lon="2.37301">
        <ele>164.3</ele>
        <time>1970-01-01T00:03:48.000Z</time>
      </trkpt>
      <trkpt lat="43.17593" lon="2.37304">
        <ele>164.4</ele>
        <time>1970-01-01T00:03:49.000Z</time>
      </trkpt>
      <trkpt lat="43.17593" lon="2.37308">
        <ele>164.4</ele>
        <time>1970-01-01T00:03:51.000Z</time>
      </trkpt>
      <trkpt lat="43.17593" lon="2.37311">
        <ele>164.4</ele>
        <time>1970-01-01T00:03:52.000Z</time>
      </trkpt>
      <trkpt lat="43.17592" lon="2.37315">
        <ele>164.5</ele>
        <time>1970-01-01T00:03:54.000Z</time>
      </trkpt>
      <trkpt lat="43.17592" lon="2.3732">
        <ele>164.5</ele>
        <time>1970-01-01T00:03:55.000Z</time>
      </trkpt>
      <trkpt lat="43.17592" lon="2.37321">
        <ele>164.5</ele>
        <time>1970-01-01T00:03:56.000Z</time>
      </trkpt>
      <trkpt lat="43.17592" lon="2.37325">
        <ele>164.6</ele>
        <time>1970-01-01T00:03:57.000Z</time>
      </trkpt>
      <trkpt lat="43.17592" lon="2.37326">
        <ele>164.6</ele>
        <time>1970-01-01T00:03:58.000Z</time>
      </trkpt>
      <trkpt lat="43.17591" lon="2.37331">
        <ele>164.6</ele>
        <time>1970-01-01T00:04:00.000Z</time>
      </trkpt>
      <trkpt lat="43.17591" lon="2.37332">
        <ele>164.7</ele>
        <time>1970-01-01T00:04:01.000Z</time>
      </trkpt>
      <trkpt lat="43.17591" lon="2.37336">
        <ele>164.7</ele>
        <time>1970-01-01T00:04:02.000Z</time>
      </trkpt>
      <trkpt lat="43.1759" lon="2.37343">
        <ele>164.8</ele>
        <time>1970-01-01T00:04:04.000Z</time>
      </trkpt>
      <trkpt lat="43.1759" lon="2.37345">
        <ele>164.8</ele>
        <time>1970-01-01T00:04:05.000Z</time>
      </trkpt>
      <trkpt lat="43.1759" lon="2.37347">
        <ele>164.8</ele>
        <time>1970-01-01T00:04:06.000Z</time>
      </trkpt>
      <trkpt lat="43.17589" lon="2.37351">
        <ele>164.9</ele>
        <time>1970-01-01T00:04:07.000Z</time>
      </trkpt>
      <trkpt lat="43.17589" lon="2.37352">
        <ele>164.9</ele>
        <time>1970-01-01T00:04:08.000Z</time>
      </trkpt>
      <trkpt lat="43.17588" lon="2.37356">
        <ele>165</ele>
        <time>1970-01-01T00:04:10.000Z</time>
      </trkpt>
      <trkpt lat="43.17588" lon="2.37358">
        <ele>165</ele>
        <time>1970-01-01T00:04:11.000Z</time>
      </trkpt>
      <trkpt lat="43.17587" lon="2.37362">
        <ele>165.1</ele>
        <time>1970-01-01T00:04:12.000Z</time>
      </trkpt>
      <trkpt lat="43.17587" lon="2.37364">
        <ele>165.1</ele>
        <time>1970-01-01T00:04:13.000Z</time>
      </trkpt>
      <trkpt lat="43.17586" lon="2.37368">
        <ele>165.2</ele>
        <time>1970-01-01T00:04:15.000Z</time>
      </trkpt>
      <trkpt lat="43.17584" lon="2.37373">
        <ele>165.3</ele>
        <time>1970-01-01T00:04:17.000Z</time>
      </trkpt>
      <trkpt lat="43.17584" lon="2.37374">
        <ele>165.3</ele>
        <time>1970-01-01T00:04:18.000Z</time>
      </trkpt>
      <trkpt lat="43.17583" lon="2.37378">
        <ele>165.4</ele>
        <time>1970-01-01T00:04:19.000Z</time>
      </trkpt>
      <trkpt lat="43.17582" lon="2.37381">
        <ele>165.5</ele>
        <time>1970-01-01T00:04:21.000Z</time>
      </trkpt>
      <trkpt lat="43.17581" lon="2.37385">
        <ele>165.6</ele>
        <time>1970-01-01T00:04:22.000Z</time>
      </trkpt>
      <trkpt lat="43.1758" lon="2.37389">
        <ele>165.7</ele>
        <time>1970-01-01T00:04:23.000Z</time>
      </trkpt>
      <trkpt lat="43.17578" lon="2.37394">
        <ele>165.8</ele>
        <time>1970-01-01T00:04:25.000Z</time>
      </trkpt>
      <trkpt lat="43.17577" lon="2.37396">
        <ele>165.9</ele>
        <time>1970-01-01T00:04:26.000Z</time>
      </trkpt>
      <trkpt lat="43.17576" lon="2.37398">
        <ele>165.9</ele>
        <time>1970-01-01T00:04:27.000Z</time>
      </trkpt>
      <trkpt lat="43.17575" lon="2.37401">
        <ele>166</ele>
        <time>1970-01-01T00:04:28.000Z</time>
      </trkpt>
      <trkpt lat="43.17574" lon="2.37405">
        <ele>166.1</ele>
        <time>1970-01-01T00:04:30.000Z</time>
      </trkpt>
      <trkpt lat="43.17573" lon="2.37408">
        <ele>166.1</ele>
        <time>1970-01-01T00:04:31.000Z</time>
      </trkpt>
      <trkpt lat="43.17572" lon="2.37412">
        <ele>166.2</ele>
        <time>1970-01-01T00:04:33.000Z</time>
      </trkpt>
      <trkpt lat="43.17571" lon="2.37415">
        <ele>166.2</ele>
        <time>1970-01-01T00:04:34.000Z</time>
      </trkpt>
      <trkpt lat="43.1757" lon="2.37419">
        <ele>166.3</ele>
        <time>1970-01-01T00:04:36.000Z</time>
      </trkpt>
      <trkpt lat="43.17569" lon="2.37423">
        <ele>166.4</ele>
        <time>1970-01-01T00:04:37.000Z</time>
      </trkpt>
      <trkpt lat="43.17568" lon="2.37426">
        <ele>166.4</ele>
        <time>1970-01-01T00:04:38.000Z</time>
      </trkpt>
      <trkpt lat="43.17568" lon="2.37429">
        <ele>166.5</ele>
        <time>1970-01-01T00:04:40.000Z</time>
      </trkpt>
      <trkpt lat="43.17567" lon="2.37434">
        <ele>166.5</ele>
        <time>1970-01-01T00:04:41.000Z</time>
      </trkpt>
      <trkpt lat="43.17566" lon="2.37435">
        <ele>166.6</ele>
        <time>1970-01-01T00:04:42.000Z</time>
      </trkpt>
      <trkpt lat="43.17566" lon="2.3744">
        <ele>166.7</ele>
        <time>1970-01-01T00:04:43.000Z</time>
      </trkpt>
      <trkpt lat="43.17565" lon="2.37441">
        <ele>166.7</ele>
        <time>1970-01-01T00:04:44.000Z</time>
      </trkpt>
      <trkpt lat="43.17565" lon="2.37446">
        <ele>166.8</ele>
        <time>1970-01-01T00:04:46.000Z</time>
      </trkpt>
      <trkpt lat="43.17564" lon="2.37447">
        <ele>166.8</ele>
        <time>1970-01-01T00:04:47.000Z</time>
      </trkpt>
      <trkpt lat="43.17563" lon="2.37452">
        <ele>166.9</ele>
        <time>1970-01-01T00:04:48.000Z</time>
      </trkpt>
      <trkpt lat="43.17563" lon="2.37453">
        <ele>166.9</ele>
        <time>1970-01-01T00:04:49.000Z</time>
      </trkpt>
      <trkpt lat="43.17562" lon="2.37455">
        <ele>166.9</ele>
        <time>1970-01-01T00:04:50.000Z</time>
      </trkpt>
      <trkpt lat="43.17561" lon="2.37459">
        <ele>167</ele>
        <time>1970-01-01T00:04:52.000Z</time>
      </trkpt>
      <trkpt lat="43.1756" lon="2.37463">
        <ele>167.1</ele>
        <time>1970-01-01T00:04:53.000Z</time>
      </trkpt>
      <trkpt lat="43.17559" lon="2.37467">
        <ele>167.1</ele>
        <time>1970-01-01T00:04:54.000Z</time>
      </trkpt>
      <trkpt lat="43.17558" lon="2.37468">
        <ele>167.1</ele>
        <time>1970-01-01T00:04:55.000Z</time>
      </trkpt>
      <trkpt lat="43.17558" lon="2.37471">
        <ele>167.2</ele>
        <time>1970-01-01T00:04:56.000Z</time>
      </trkpt>
      <trkpt lat="43.17557" lon="2.37474">
        <ele>167.2</ele>
        <time>1970-01-01T00:04:58.000Z</time>
      </trkpt>
      <trkpt lat="43.17556" lon="2.37479">
        <ele>167.3</ele>
        <time>1970-01-01T00:05:00.000Z</time>
      </trkpt>
      <trkpt lat="43.17556" lon="2.37483">
        <ele>167.4</ele>
        <time>1970-01-01T00:05:01.000Z</time>
      </trkpt>
      <trkpt lat="43.17555" lon="2.37485">
        <ele>167.4</ele>
        <time>1970-01-01T00:05:02.000Z</time>
      </trkpt>
      <trkpt lat="43.17555" lon="2.37489">
        <ele>167.4</ele>
        <time>1970-01-01T00:05:04.000Z</time>
      </trkpt>
      <trkpt lat="43.17554" lon="2.37493">
        <ele>167.5</ele>
        <time>1970-01-01T00:05:05.000Z</time>
      </trkpt>
      <trkpt lat="43.17553" lon="2.37495">
        <ele>167.5</ele>
        <time>1970-01-01T00:05:06.000Z</time>
      </trkpt>
      <trkpt lat="43.17552" lon="2.375">
        <ele>167.6</ele>
        <time>1970-01-01T00:05:08.000Z</time>
      </trkpt>
      <trkpt lat="43.17552" lon="2.37508">
        <ele>167.7</ele>
        <time>1970-01-01T00:05:10.000Z</time>
      </trkpt>
      <trkpt lat="43.17552" lon="2.37511">
        <ele>167.8</ele>
        <time>1970-01-01T00:05:12.000Z</time>
      </trkpt>
      <trkpt lat="43.17551" lon="2.37513">
        <ele>167.8</ele>
        <time>1970-01-01T00:05:13.000Z</time>
      </trkpt>
      <trkpt lat="43.17551" lon="2.37516">
        <ele>167.9</ele>
        <time>1970-01-01T00:05:14.000Z</time>
      </trkpt>
      <trkpt lat="43.1755" lon="2.3752">
        <ele>167.9</ele>
        <time>1970-01-01T00:05:15.000Z</time>
      </trkpt>
      <trkpt lat="43.17549" lon="2.37521">
        <ele>167.9</ele>
        <time>1970-01-01T00:05:16.000Z</time>
      </trkpt>
      <trkpt lat="43.17548" lon="2.37526">
        <ele>168</ele>
        <time>1970-01-01T00:05:18.000Z</time>
      </trkpt>
      <trkpt lat="43.17547" lon="2.37527">
        <ele>168.1</ele>
        <time>1970-01-01T00:05:19.000Z</time>
      </trkpt>
      <trkpt lat="43.17546" lon="2.37531">
        <ele>168.1</ele>
        <time>1970-01-01T00:05:20.000Z</time>
      </trkpt>
      <trkpt lat="43.17545" lon="2.37532">
        <ele>168.2</ele>
        <time>1970-01-01T00:05:21.000Z</time>
      </trkpt>
      <trkpt lat="43.17544" lon="2.37537">
        <ele>168.2</ele>
        <time>1970-01-01T00:05:23.000Z</time>
      </trkpt>
      <trkpt lat="43.17543" lon="2.37539">
        <ele>168.3</ele>
        <time>1970-01-01T00:05:24.000Z</time>
      </trkpt>
      <trkpt lat="43.17541" lon="2.37543">
        <ele>168.4</ele>
        <time>1970-01-01T00:05:25.000Z</time>
      </trkpt>
      <trkpt lat="43.17541" lon="2.37544">
        <ele>168.4</ele>
        <time>1970-01-01T00:05:26.000Z</time>
      </trkpt>
      <trkpt lat="43.1754" lon="2.37548">
        <ele>168.5</ele>
        <time>1970-01-01T00:05:28.000Z</time>
      </trkpt>
      <trkpt lat="43.17539" lon="2.3755">
        <ele>168.5</ele>
        <time>1970-01-01T00:05:29.000Z</time>
      </trkpt>
      <trkpt lat="43.17538" lon="2.37554">
        <ele>168.6</ele>
        <time>1970-01-01T00:05:30.000Z</time>
      </trkpt>
      <trkpt lat="43.17538" lon="2.37555">
        <ele>168.6</ele>
        <time>1970-01-01T00:05:31.000Z</time>
      </trkpt>
      <trkpt lat="43.17537" lon="2.37558">
        <ele>168.7</ele>
        <time>1970-01-01T00:05:33.000Z</time>
      </trkpt>
      <trkpt lat="43.17536" lon="2.3756">
        <ele>168.8</ele>
        <time>1970-01-01T00:05:34.000Z</time>
      </trkpt>
      <trkpt lat="43.17535" lon="2.37564">
        <ele>168.9</ele>
        <time>1970-01-01T00:05:36.000Z</time>
      </trkpt>
      <trkpt lat="43.17534" lon="2.37567">
        <ele>169</ele>
        <time>1970-01-01T00:05:37.000Z</time>
      </trkpt>
      <trkpt lat="43.17533" lon="2.37572">
        <ele>169.1</ele>
        <time>1970-01-01T00:05:39.000Z</time>
      </trkpt>
      <trkpt lat="43.17532" lon="2.37574">
        <ele>169.1</ele>
        <time>1970-01-01T00:05:40.000Z</time>
      </trkpt>
      <trkpt lat="43.17531" lon="2.37578">
        <ele>169.2</ele>
        <time>1970-01-01T00:05:41.000Z</time>
      </trkpt>
      <trkpt lat="43.17531" lon="2.3758">
        <ele>169.3</ele>
        <time>1970-01-01T00:05:42.000Z</time>
      </trkpt>
      <trkpt lat="43.17531" lon="2.37581">
        <ele>169.3</ele>
        <time>1970-01-01T00:05:43.000Z</time>
      </trkpt>
      <trkpt lat="43.1753" lon="2.37585">
        <ele>169.3</ele>
        <time>1970-01-01T00:05:45.000Z</time>
      </trkpt>
      <trkpt lat="43.17529" lon="2.37589">
        <ele>169.4</ele>
        <time>1970-01-01T00:05:46.000Z</time>
      </trkpt>
      <trkpt lat="43.17527" lon="2.37595">
        <ele>169.5</ele>
        <time>1970-01-01T00:05:48.000Z</time>
      </trkpt>
      <trkpt lat="43.17527" lon="2.37597">
        <ele>169.6</ele>
        <time>1970-01-01T00:05:50.000Z</time>
      </trkpt>
      <trkpt lat="43.17526" lon="2.37599">
        <ele>169.6</ele>
        <time>1970-01-01T00:05:51.000Z</time>
      </trkpt>
      <trkpt lat="43.17525" lon="2.37601">
        <ele>169.6</ele>
        <time>1970-01-01T00:05:52.000Z</time>
      </trkpt>
      <trkpt lat="43.17524" lon="2.37606">
        <ele>169.7</ele>
        <time>1970-01-01T00:05:53.000Z</time>
      </trkpt>
      <trkpt lat="43.17523" lon="2.37608">
        <ele>169.7</ele>
        <time>1970-01-01T00:05:54.000Z</time>
      </trkpt>
      <trkpt lat="43.17522" lon="2.37612">
        <ele>169.8</ele>
        <time>1970-01-01T00:05:56.000Z</time>
      </trkpt>
      <trkpt lat="43.17522" lon="2.37613">
        <ele>169.8</ele>
        <time>1970-01-01T00:05:57.000Z</time>
      </trkpt>
      <trkpt lat="43.17521" lon="2.37616">
        <ele>169.9</ele>
        <time>1970-01-01T00:05:58.000Z</time>
      </trkpt>
      <trkpt lat="43.17519" lon="2.3762">
        <ele>170</ele>
        <time>1970-01-01T00:06:00.000Z</time>
      </trkpt>
      <trkpt lat="43.17518" lon="2.37626">
        <ele>170.1</ele>
        <time>1970-01-01T00:06:02.000Z</time>
      </trkpt>
      <trkpt lat="43.17517" lon="2.37628">
        <ele>170.1</ele>
        <time>1970-01-01T00:06:03.000Z</time>
      </trkpt>
      <trkpt lat="43.17517" lon="2.3763">
        <ele>170.1</ele>
        <time>1970-01-01T00:06:04.000Z</time>
      </trkpt>
      <trkpt lat="43.17516" lon="2.37633">
        <ele>170.2</ele>
        <time>1970-01-01T00:06:05.000Z</time>
      </trkpt>
      <trkpt lat="43.17516" lon="2.37636">
        <ele>170.2</ele>
        <time>1970-01-01T00:06:07.000Z</time>
      </trkpt>
      <trkpt lat="43.17515" lon="2.37641">
        <ele>170.3</ele>
        <time>1970-01-01T00:06:08.000Z</time>
      </trkpt>
      <trkpt lat="43.17514" lon="2.37642">
        <ele>170.3</ele>
        <time>1970-01-01T00:06:09.000Z</time>
      </trkpt>
      <trkpt lat="43.17513" lon="2.37646">
        <ele>170.3</ele>
        <time>1970-01-01T00:06:10.000Z</time>
      </trkpt>
      <trkpt lat="43.17512" lon="2.37647">
        <ele>170.4</ele>
        <time>1970-01-01T00:06:11.000Z</time>
      </trkpt>
      <trkpt lat="43.1751" lon="2.37652">
        <ele>170.4</ele>
        <time>1970-01-01T00:06:13.000Z</time>
      </trkpt>
      <trkpt lat="43.1751" lon="2.37653">
        <ele>170.4</ele>
        <time>1970-01-01T00:06:14.000Z</time>
      </trkpt>
      <trkpt lat="43.17508" lon="2.37657">
        <ele>170.5</ele>
        <time>1970-01-01T00:06:15.000Z</time>
      </trkpt>
      <trkpt lat="43.17508" lon="2.37658">
        <ele>170.5</ele>
        <time>1970-01-01T00:06:16.000Z</time>
      </trkpt>
      <trkpt lat="43.17506" lon="2.37663">
        <ele>170.5</ele>
        <time>1970-01-01T00:06:18.000Z</time>
      </trkpt>
      <trkpt lat="43.17505" lon="2.37666">
        <ele>170.5</ele>
        <time>1970-01-01T00:06:19.000Z</time>
      </trkpt>
      <trkpt lat="43.17504" lon="2.3767">
        <ele>170.6</ele>
        <time>1970-01-01T00:06:21.000Z</time>
      </trkpt>
      <trkpt lat="43.17503" lon="2.37675">
        <ele>170.6</ele>
        <time>1970-01-01T00:06:22.000Z</time>
      </trkpt>
      <trkpt lat="43.17502" lon="2.37676">
        <ele>170.6</ele>
        <time>1970-01-01T00:06:23.000Z</time>
      </trkpt>
      <trkpt lat="43.175" lon="2.37682">
        <ele>170.7</ele>
        <time>1970-01-01T00:06:25.000Z</time>
      </trkpt>
      <trkpt lat="43.175" lon="2.37684">
        <ele>170.7</ele>
        <time>1970-01-01T00:06:26.000Z</time>
      </trkpt>
      <trkpt lat="43.17499" lon="2.37686">
        <ele>170.7</ele>
        <time>1970-01-01T00:06:27.000Z</time>
      </trkpt>
      <trkpt lat="43.17498" lon="2.37688">
        <ele>170.7</ele>
        <time>1970-01-01T00:06:28.000Z</time>
      </trkpt>
      <trkpt lat="43.17497" lon="2.37693">
        <ele>170.7</ele>
        <time>1970-01-01T00:06:30.000Z</time>
      </trkpt>
      <trkpt lat="43.17496" lon="2.37698">
        <ele>170.7</ele>
        <time>1970-01-01T00:06:31.000Z</time>
      </trkpt>
      <trkpt lat="43.17496" lon="2.37699">
        <ele>170.7</ele>
        <time>1970-01-01T00:06:32.000Z</time>
      </trkpt>
      <trkpt lat="43.17495" lon="2.37703">
        <ele>170.7</ele>
        <time>1970-01-01T00:06:34.000Z</time>
      </trkpt>
      <trkpt lat="43.17495" lon="2.37706">
        <ele>170.7</ele>
        <time>1970-01-01T00:06:35.000Z</time>
      </trkpt>
      <trkpt lat="43.17494" lon="2.37711">
        <ele>170.8</ele>
        <time>1970-01-01T00:06:37.000Z</time>
      </trkpt>
      <trkpt lat="43.17494" lon="2.37716">
        <ele>170.8</ele>
        <time>1970-01-01T00:06:38.000Z</time>
      </trkpt>
      <trkpt lat="43.17493" lon="2.37717">
        <ele>170.8</ele>
        <time>1970-01-01T00:06:39.000Z</time>
      </trkpt>
      <trkpt lat="43.17492" lon="2.3772">
        <ele>170.8</ele>
        <time>1970-01-01T00:06:40.000Z</time>
      </trkpt>
      <trkpt lat="43.17492" lon="2.37724">
        <ele>170.8</ele>
        <time>1970-01-01T00:06:42.000Z</time>
      </trkpt>
      <trkpt lat="43.17491" lon="2.37727">
        <ele>170.8</ele>
        <time>1970-01-01T00:06:43.000Z</time>
      </trkpt>
      <trkpt lat="43.1749" lon="2.37732">
        <ele>170.8</ele>
        <time>1970-01-01T00:06:45.000Z</time>
      </trkpt>
      <trkpt lat="43.17489" lon="2.37735">
        <ele>170.8</ele>
        <time>1970-01-01T00:06:46.000Z</time>
      </trkpt>
      <trkpt lat="43.17488" lon="2.37739">
        <ele>170.9</ele>
        <time>1970-01-01T00:06:48.000Z</time>
      </trkpt>
      <trkpt lat="43.17487" lon="2.37743">
        <ele>170.9</ele>
        <time>1970-01-01T00:06:49.000Z</time>
      </trkpt>
      <trkpt lat="43.17486" lon="2.37745">
        <ele>170.9</ele>
        <time>1970-01-01T00:06:50.000Z</time>
      </trkpt>
      <trkpt lat="43.17486" lon="2.37748">
        <ele>171</ele>
        <time>1970-01-01T00:06:51.000Z</time>
      </trkpt>
      <trkpt lat="43.17484" lon="2.37752">
        <ele>171</ele>
        <time>1970-01-01T00:06:53.000Z</time>
      </trkpt>
      <trkpt lat="43.17484" lon="2.37756">
        <ele>171</ele>
        <time>1970-01-01T00:06:54.000Z</time>
      </trkpt>
      <trkpt lat="43.17483" lon="2.37758">
        <ele>171.1</ele>
        <time>1970-01-01T00:06:55.000Z</time>
      </trkpt>
      <trkpt lat="43.17482" lon="2.37762">
        <ele>171.1</ele>
        <time>1970-01-01T00:06:57.000Z</time>
      </trkpt>
      <trkpt lat="43.17482" lon="2.37763">
        <ele>171.1</ele>
        <time>1970-01-01T00:06:58.000Z</time>
      </trkpt>
      <trkpt lat="43.17482" lon="2.37767">
        <ele>171.2</ele>
        <time>1970-01-01T00:06:59.000Z</time>
      </trkpt>
      <trkpt lat="43.17481" lon="2.3777">
        <ele>171.2</ele>
        <time>1970-01-01T00:07:00.000Z</time>
      </trkpt>
      <trkpt lat="43.17481" lon="2.37774">
        <ele>171.2</ele>
        <time>1970-01-01T00:07:02.000Z</time>
      </trkpt>
      <trkpt lat="43.1748" lon="2.37778">
        <ele>171.3</ele>
        <time>1970-01-01T00:07:03.000Z</time>
      </trkpt>
      <trkpt lat="43.1748" lon="2.37782">
        <ele>171.3</ele>
        <time>1970-01-01T00:07:05.000Z</time>
      </trkpt>
      <trkpt lat="43.17479" lon="2.37786">
        <ele>171.4</ele>
        <time>1970-01-01T00:07:06.000Z</time>
      </trkpt>
      <trkpt lat="43.17478" lon="2.37788">
        <ele>171.4</ele>
        <time>1970-01-01T00:07:07.000Z</time>
      </trkpt>
      <trkpt lat="43.17476" lon="2.37793">
        <ele>171.5</ele>
        <time>1970-01-01T00:07:09.000Z</time>
      </trkpt>
      <trkpt lat="43.17475" lon="2.37795">
        <ele>171.5</ele>
        <time>1970-01-01T00:07:10.000Z</time>
      </trkpt>
      <trkpt lat="43.17474" lon="2.37797">
        <ele>171.5</ele>
        <time>1970-01-01T00:07:11.000Z</time>
      </trkpt>
      <trkpt lat="43.17473" lon="2.37799">
        <ele>171.5</ele>
        <time>1970-01-01T00:07:12.000Z</time>
      </trkpt>
      <trkpt lat="43.17471" lon="2.37801">
        <ele>171.7</ele>
        <time>1970-01-01T00:07:14.000Z</time>
      </trkpt>
      <trkpt lat="43.17467" lon="2.37802">
        <ele>171.8</ele>
        <time>1970-01-01T00:07:15.000Z</time>
      </trkpt>
      <trkpt lat="43.17466" lon="2.37802">
        <ele>171.9</ele>
        <time>1970-01-01T00:07:16.000Z</time>
      </trkpt>
      <trkpt lat="43.17464" lon="2.37802">
        <ele>171.9</ele>
        <time>1970-01-01T00:07:17.000Z</time>
      </trkpt>
      <trkpt lat="43.1746" lon="2.378">
        <ele>172</ele>
        <time>1970-01-01T00:07:19.000Z</time>
      </trkpt>
      <trkpt lat="43.17457" lon="2.37799">
        <ele>172.2</ele>
        <time>1970-01-01T00:07:21.000Z</time>
      </trkpt>
      <trkpt lat="43.17455" lon="2.37798">
        <ele>172.2</ele>
        <time>1970-01-01T00:07:22.000Z</time>
      </trkpt>
      <trkpt lat="43.17452" lon="2.37797">
        <ele>172.3</ele>
        <time>1970-01-01T00:07:23.000Z</time>
      </trkpt>
      <trkpt lat="43.17451" lon="2.37797">
        <ele>172.3</ele>
        <time>1970-01-01T00:07:24.000Z</time>
      </trkpt>
      <trkpt lat="43.17448" lon="2.37795">
        <ele>172.4</ele>
        <time>1970-01-01T00:07:26.000Z</time>
      </trkpt>
      <trkpt lat="43.17446" lon="2.37794">
        <ele>172.5</ele>
        <time>1970-01-01T00:07:27.000Z</time>
      </trkpt>
      <trkpt lat="43.17444" lon="2.37793">
        <ele>172.6</ele>
        <time>1970-01-01T00:07:29.000Z</time>
      </trkpt>
      <trkpt lat="43.1744" lon="2.37792">
        <ele>172.7</ele>
        <time>1970-01-01T00:07:30.000Z</time>
      </trkpt>
      <trkpt lat="43.17439" lon="2.37791">
        <ele>172.7</ele>
        <time>1970-01-01T00:07:31.000Z</time>
      </trkpt>
      <trkpt lat="43.17435" lon="2.37791">
        <ele>172.8</ele>
        <time>1970-01-01T00:07:33.000Z</time>
      </trkpt>
      <trkpt lat="43.17433" lon="2.37791">
        <ele>172.9</ele>
        <time>1970-01-01T00:07:34.000Z</time>
      </trkpt>
      <trkpt lat="43.17432" lon="2.3779">
        <ele>172.9</ele>
        <time>1970-01-01T00:07:35.000Z</time>
      </trkpt>
      <trkpt lat="43.17427" lon="2.37789">
        <ele>173</ele>
        <time>1970-01-01T00:07:37.000Z</time>
      </trkpt>
      <trkpt lat="43.17426" lon="2.37788">
        <ele>173.1</ele>
        <time>1970-01-01T00:07:38.000Z</time>
      </trkpt>
      <trkpt lat="43.17424" lon="2.37788">
        <ele>173.1</ele>
        <time>1970-01-01T00:07:39.000Z</time>
      </trkpt>
      <trkpt lat="43.17422" lon="2.37787">
        <ele>173.2</ele>
        <time>1970-01-01T00:07:40.000Z</time>
      </trkpt>
      <trkpt lat="43.1742" lon="2.37786">
        <ele>173.3</ele>
        <time>1970-01-01T00:07:42.000Z</time>
      </trkpt>
      <trkpt lat="43.17417" lon="2.37785">
        <ele>173.4</ele>
        <time>1970-01-01T00:07:43.000Z</time>
      </trkpt>
      <trkpt lat="43.17414" lon="2.37783">
        <ele>173.4</ele>
        <time>1970-01-01T00:07:44.000Z</time>
      </trkpt>
      <trkpt lat="43.17413" lon="2.37783">
        <ele>173.5</ele>
        <time>1970-01-01T00:07:45.000Z</time>
      </trkpt>
      <trkpt lat="43.1741" lon="2.37782">
        <ele>173.5</ele>
        <time>1970-01-01T00:07:47.000Z</time>
      </trkpt>
      <trkpt lat="43.17407" lon="2.37781">
        <ele>173.6</ele>
        <time>1970-01-01T00:07:49.000Z</time>
      </trkpt>
      <trkpt lat="43.17404" lon="2.3778">
        <ele>173.7</ele>
        <time>1970-01-01T00:07:50.000Z</time>
      </trkpt>
      <trkpt lat="43.17402" lon="2.37779">
        <ele>173.8</ele>
        <time>1970-01-01T00:07:51.000Z</time>
      </trkpt>
      <trkpt lat="43.17401" lon="2.37779">
        <ele>173.8</ele>
        <time>1970-01-01T00:07:52.000Z</time>
      </trkpt>
      <trkpt lat="43.17399" lon="2.37778">
        <ele>173.9</ele>
        <time>1970-01-01T00:07:53.000Z</time>
      </trkpt>
      <trkpt lat="43.17396" lon="2.37778">
        <ele>174</ele>
        <time>1970-01-01T00:07:55.000Z</time>
      </trkpt>
      <trkpt lat="43.17393" lon="2.37776">
        <ele>174</ele>
        <time>1970-01-01T00:07:56.000Z</time>
      </trkpt>
      <trkpt lat="43.17392" lon="2.37776">
        <ele>174.1</ele>
        <time>1970-01-01T00:07:57.000Z</time>
      </trkpt>
      <trkpt lat="43.17388" lon="2.37775">
        <ele>174.2</ele>
        <time>1970-01-01T00:07:59.000Z</time>
      </trkpt>
      <trkpt lat="43.17386" lon="2.37775">
        <ele>174.2</ele>
        <time>1970-01-01T00:08:00.000Z</time>
      </trkpt>
      <trkpt lat="43.17383" lon="2.37774">
        <ele>174.3</ele>
        <time>1970-01-01T00:08:02.000Z</time>
      </trkpt>
      <trkpt lat="43.1738" lon="2.37773">
        <ele>174.3</ele>
        <time>1970-01-01T00:08:03.000Z</time>
      </trkpt>
      <trkpt lat="43.17376" lon="2.37772">
        <ele>174.4</ele>
        <time>1970-01-01T00:08:05.000Z</time>
      </trkpt>
      <trkpt lat="43.17374" lon="2.37772">
        <ele>174.5</ele>
        <time>1970-01-01T00:08:06.000Z</time>
      </trkpt>
      <trkpt lat="43.17372" lon="2.37772">
        <ele>174.5</ele>
        <time>1970-01-01T00:08:07.000Z</time>
      </trkpt>
      <trkpt lat="43.17369" lon="2.37771">
        <ele>174.6</ele>
        <time>1970-01-01T00:08:09.000Z</time>
      </trkpt>
      <trkpt lat="43.17367" lon="2.37771">
        <ele>174.6</ele>
        <time>1970-01-01T00:08:10.000Z</time>
      </trkpt>
      <trkpt lat="43.17366" lon="2.37772">
        <ele>174.7</ele>
        <time>1970-01-01T00:08:11.000Z</time>
      </trkpt>
      <trkpt lat="43.17366" lon="2.37774">
        <ele>174.7</ele>
        <time>1970-01-01T00:08:13.000Z</time>
      </trkpt>
      <trkpt lat="43.17367" lon="2.37776">
        <ele>174.7</ele>
        <time>1970-01-01T00:08:14.000Z</time>
      </trkpt>
      <trkpt lat="43.1737" lon="2.37778">
        <ele>174.8</ele>
        <time>1970-01-01T00:08:16.000Z</time>
      </trkpt>
      <trkpt lat="43.17372" lon="2.3778">
        <ele>174.8</ele>
        <time>1970-01-01T00:08:17.000Z</time>
      </trkpt>
      <trkpt lat="43.17373" lon="2.37781">
        <ele>174.8</ele>
        <time>1970-01-01T00:08:18.000Z</time>
      </trkpt>
      <trkpt lat="43.17377" lon="2.37784">
        <ele>174.9</ele>
        <time>1970-01-01T00:08:20.000Z</time>
      </trkpt>
      <trkpt lat="43.17379" lon="2.37786">
        <ele>175</ele>
        <time>1970-01-01T00:08:21.000Z</time>
      </trkpt>
      <trkpt lat="43.17382" lon="2.37789">
        <ele>175</ele>
        <time>1970-01-01T00:08:23.000Z</time>
      </trkpt>
      <trkpt lat="43.17384" lon="2.3779">
        <ele>175.1</ele>
        <time>1970-01-01T00:08:24.000Z</time>
      </trkpt>
      <trkpt lat="43.17385" lon="2.37792">
        <ele>175.1</ele>
        <time>1970-01-01T00:08:25.000Z</time>
      </trkpt>
      <trkpt lat="43.17387" lon="2.37793">
        <ele>175.1</ele>
        <time>1970-01-01T00:08:26.000Z</time>
      </trkpt>
      <trkpt lat="43.17389" lon="2.37795">
        <ele>175.2</ele>
        <time>1970-01-01T00:08:28.000Z</time>
      </trkpt>
      <trkpt lat="43.17389" lon="2.37794">
        <ele>175.2</ele>
        <time>1970-01-01T00:08:30.000Z</time>
      </trkpt>
      <trkpt lat="43.17389" lon="2.37794">
        <ele>175.2</ele>
        <time>1970-01-01T00:08:31.000Z</time>
      </trkpt>
      <trkpt lat="43.17388" lon="2.37793">
        <ele>175.2</ele>
        <time>1970-01-01T00:08:32.000Z</time>
      </trkpt>
      <trkpt lat="43.17387" lon="2.37793">
        <ele>175.2</ele>
        <time>1970-01-01T00:08:34.000Z</time>
      </trkpt>
      <trkpt lat="43.17387" lon="2.37793">
        <ele>175.2</ele>
        <time>1970-01-01T00:08:35.000Z</time>
      </trkpt>
      <trkpt lat="43.17385" lon="2.37792">
        <ele>175.2</ele>
        <time>1970-01-01T00:08:37.000Z</time>
      </trkpt>
      <trkpt lat="43.17382" lon="2.37791">
        <ele>175.3</ele>
        <time>1970-01-01T00:08:39.000Z</time>
      </trkpt>
      <trkpt lat="43.17381" lon="2.3779">
        <ele>175.3</ele>
        <time>1970-01-01T00:08:41.000Z</time>
      </trkpt>
      <trkpt lat="43.1738" lon="2.3779">
        <ele>175.3</ele>
        <time>1970-01-01T00:08:42.000Z</time>
      </trkpt>
      <trkpt lat="43.17379" lon="2.37787">
        <ele>175.4</ele>
        <time>1970-01-01T00:08:43.000Z</time>
      </trkpt>
      <trkpt lat="43.17377" lon="2.37784">
        <ele>175.4</ele>
        <time>1970-01-01T00:08:45.000Z</time>
      </trkpt>
      <trkpt lat="43.17376" lon="2.37783">
        <ele>175.5</ele>
        <time>1970-01-01T00:08:46.000Z</time>
      </trkpt>
      <trkpt lat="43.17375" lon="2.37781">
        <ele>175.5</ele>
        <time>1970-01-01T00:08:48.000Z</time>
      </trkpt>
      <trkpt lat="43.17375" lon="2.37781">
        <ele>175.5</ele>
        <time>1970-01-01T00:08:49.000Z</time>
      </trkpt>
      <trkpt lat="43.17375" lon="2.3778">
        <ele>175.5</ele>
        <time>1970-01-01T00:08:50.000Z</time>
      </trkpt>
      <trkpt lat="43.17374" lon="2.37779">
        <ele>175.5</ele>
        <time>1970-01-01T00:08:51.000Z</time>
      </trkpt>
      <trkpt lat="43.17373" lon="2.37777">
        <ele>175.6</ele>
        <time>1970-01-01T00:08:52.000Z</time>
      </trkpt>
      <trkpt lat="43.17372" lon="2.37776">
        <ele>175.6</ele>
        <time>1970-01-01T00:08:54.000Z</time>
      </trkpt>
      <trkpt lat="43.17372" lon="2.37776">
        <ele>175.6</ele>
        <time>1970-01-01T00:08:55.000Z</time>
      </trkpt>
      <trkpt lat="43.17372" lon="2.37775">
        <ele>175.6</ele>
        <time>1970-01-01T00:08:56.000Z</time>
      </trkpt>
      <trkpt lat="43.17371" lon="2.37775">
        <ele>175.6</ele>
        <time>1970-01-01T00:08:57.000Z</time>
      </trkpt>
      <trkpt lat="43.1737" lon="2.37774">
        <ele>175.6</ele>
        <time>1970-01-01T00:08:58.000Z</time>
      </trkpt>
      <trkpt lat="43.1737" lon="2.37774">
        <ele>175.7</ele>
        <time>1970-01-01T00:08:59.000Z</time>
      </trkpt>
      <trkpt lat="43.17367" lon="2.37772">
        <ele>175.7</ele>
        <time>1970-01-01T00:09:01.000Z</time>
      </trkpt>
      <trkpt lat="43.17364" lon="2.37771">
        <ele>175.8</ele>
        <time>1970-01-01T00:09:02.000Z</time>
      </trkpt>
      <trkpt lat="43.17366" lon="2.37777">
        <ele>175.9</ele>
        <time>1970-01-01T00:09:04.000Z</time>
      </trkpt>
      <trkpt lat="43.17365" lon="2.37774">
        <ele>175.9</ele>
        <time>1970-01-01T00:09:05.000Z</time>
      </trkpt>
      <trkpt lat="43.17363" lon="2.3777">
        <ele>176</ele>
        <time>1970-01-01T00:09:07.000Z</time>
      </trkpt>
      <trkpt lat="43.17361" lon="2.37767">
        <ele>176.1</ele>
        <time>1970-01-01T00:09:08.000Z</time>
      </trkpt>
      <trkpt lat="43.17359" lon="2.37765">
        <ele>176.1</ele>
        <time>1970-01-01T00:09:09.000Z</time>
      </trkpt>
      <trkpt lat="43.17355" lon="2.37763">
        <ele>176.2</ele>
        <time>1970-01-01T00:09:10.000Z</time>
      </trkpt>
      <trkpt lat="43.17351" lon="2.37761">
        <ele>176.3</ele>
        <time>1970-01-01T00:09:11.000Z</time>
      </trkpt>
      <trkpt lat="43.17348" lon="2.37758">
        <ele>176.4</ele>
        <time>1970-01-01T00:09:13.000Z</time>
      </trkpt>
      <trkpt lat="43.17345" lon="2.37757">
        <ele>176.4</ele>
        <time>1970-01-01T00:09:14.000Z</time>
      </trkpt>
      <trkpt lat="43.17342" lon="2.37755">
        <ele>176.5</ele>
        <time>1970-01-01T00:09:15.000Z</time>
      </trkpt>
      <trkpt lat="43.17339" lon="2.37754">
        <ele>176.6</ele>
        <time>1970-01-01T00:09:16.000Z</time>
      </trkpt>
      <trkpt lat="43.17335" lon="2.37752">
        <ele>176.7</ele>
        <time>1970-01-01T00:09:17.000Z</time>
      </trkpt>
      <trkpt lat="43.17332" lon="2.37751">
        <ele>176.7</ele>
        <time>1970-01-01T00:09:18.000Z</time>
      </trkpt>
      <trkpt lat="43.17328" lon="2.37751">
        <ele>176.8</ele>
        <time>1970-01-01T00:09:20.000Z</time>
      </trkpt>
      <trkpt lat="43.17325" lon="2.37751">
        <ele>176.9</ele>
        <time>1970-01-01T00:09:21.000Z</time>
      </trkpt>
      <trkpt lat="43.17322" lon="2.37751">
        <ele>177</ele>
        <time>1970-01-01T00:09:23.000Z</time>
      </trkpt>
      <trkpt lat="43.17319" lon="2.37751">
        <ele>177.1</ele>
        <time>1970-01-01T00:09:24.000Z</time>
      </trkpt>
      <trkpt lat="43.17315" lon="2.37751">
        <ele>177.2</ele>
        <time>1970-01-01T00:09:25.000Z</time>
      </trkpt>
      <trkpt lat="43.17312" lon="2.37752">
        <ele>177.2</ele>
        <time>1970-01-01T00:09:26.000Z</time>
      </trkpt>
      <trkpt lat="43.17309" lon="2.37753">
        <ele>177.3</ele>
        <time>1970-01-01T00:09:27.000Z</time>
      </trkpt>
      <trkpt lat="43.17306" lon="2.37755">
        <ele>177.4</ele>
        <time>1970-01-01T00:09:29.000Z</time>
      </trkpt>
      <trkpt lat="43.17303" lon="2.37757">
        <ele>177.5</ele>
        <time>1970-01-01T00:09:30.000Z</time>
      </trkpt>
      <trkpt lat="43.17299" lon="2.37757">
        <ele>177.6</ele>
        <time>1970-01-01T00:09:32.000Z</time>
      </trkpt>
      <trkpt lat="43.17296" lon="2.37757">
        <ele>177.7</ele>
        <time>1970-01-01T00:09:33.000Z</time>
      </trkpt>
      <trkpt lat="43.17293" lon="2.37757">
        <ele>177.8</ele>
        <time>1970-01-01T00:09:34.000Z</time>
      </trkpt>
      <trkpt lat="43.17289" lon="2.37758">
        <ele>177.8</ele>
        <time>1970-01-01T00:09:36.000Z</time>
      </trkpt>
      <trkpt lat="43.17288" lon="2.37759">
        <ele>177.9</ele>
        <time>1970-01-01T00:09:37.000Z</time>
      </trkpt>
      <trkpt lat="43.17284" lon="2.3776">
        <ele>178</ele>
        <time>1970-01-01T00:09:38.000Z</time>
      </trkpt>
      <trkpt lat="43.17283" lon="2.37761">
        <ele>178</ele>
        <time>1970-01-01T00:09:39.000Z</time>
      </trkpt>
      <trkpt lat="43.17281" lon="2.37762">
        <ele>178</ele>
        <time>1970-01-01T00:09:40.000Z</time>
      </trkpt>
      <trkpt lat="43.17278" lon="2.37762">
        <ele>178.1</ele>
        <time>1970-01-01T00:09:42.000Z</time>
      </trkpt>
      <trkpt lat="43.17276" lon="2.37765">
        <ele>178.2</ele>
        <time>1970-01-01T00:09:43.000Z</time>
      </trkpt>
      <trkpt lat="43.17275" lon="2.37766">
        <ele>178.2</ele>
        <time>1970-01-01T00:09:44.000Z</time>
      </trkpt>
      <trkpt lat="43.17273" lon="2.37768">
        <ele>178.3</ele>
        <time>1970-01-01T00:09:45.000Z</time>
      </trkpt>
      <trkpt lat="43.17271" lon="2.37769">
        <ele>178.3</ele>
        <time>1970-01-01T00:09:47.000Z</time>
      </trkpt>
      <trkpt lat="43.17268" lon="2.3777">
        <ele>178.4</ele>
        <time>1970-01-01T00:09:48.000Z</time>
      </trkpt>
      <trkpt lat="43.17267" lon="2.3777">
        <ele>178.4</ele>
        <time>1970-01-01T00:09:49.000Z</time>
      </trkpt>
      <trkpt lat="43.17264" lon="2.37771">
        <ele>178.5</ele>
        <time>1970-01-01T00:09:50.000Z</time>
      </trkpt>
      <trkpt lat="43.17261" lon="2.37772">
        <ele>178.6</ele>
        <time>1970-01-01T00:09:52.000Z</time>
      </trkpt>
      <trkpt lat="43.17258" lon="2.37773">
        <ele>178.7</ele>
        <time>1970-01-01T00:09:53.000Z</time>
      </trkpt>
      <trkpt lat="43.17257" lon="2.37773">
        <ele>178.7</ele>
        <time>1970-01-01T00:09:54.000Z</time>
      </trkpt>
      <trkpt lat="43.17255" lon="2.37774">
        <ele>178.8</ele>
        <time>1970-01-01T00:09:55.000Z</time>
      </trkpt>
      <trkpt lat="43.17253" lon="2.37773">
        <ele>178.8</ele>
        <time>1970-01-01T00:09:57.000Z</time>
      </trkpt>
      <trkpt lat="43.1725" lon="2.37772">
        <ele>178.9</ele>
        <time>1970-01-01T00:09:58.000Z</time>
      </trkpt>
      <trkpt lat="43.17249" lon="2.37772">
        <ele>179</ele>
        <time>1970-01-01T00:09:59.000Z</time>
      </trkpt>
      <trkpt lat="43.17247" lon="2.37769">
        <ele>179</ele>
        <time>1970-01-01T00:10:00.000Z</time>
      </trkpt>
      <trkpt lat="43.17244" lon="2.37768">
        <ele>179.2</ele>
        <time>1970-01-01T00:10:02.000Z</time>
      </trkpt>
      <trkpt lat="43.17242" lon="2.37768">
        <ele>179.2</ele>
        <time>1970-01-01T00:10:03.000Z</time>
      </trkpt>
      <trkpt lat="43.17238" lon="2.37768">
        <ele>179.4</ele>
        <time>1970-01-01T00:10:05.000Z</time>
      </trkpt>
      <trkpt lat="43.17235" lon="2.37769">
        <ele>179.5</ele>
        <time>1970-01-01T00:10:06.000Z</time>
      </trkpt>
      <trkpt lat="43.17234" lon="2.3777">
        <ele>179.5</ele>
        <time>1970-01-01T00:10:07.000Z</time>
      </trkpt>
      <trkpt lat="43.17231" lon="2.37771">
        <ele>179.7</ele>
        <time>1970-01-01T00:10:08.000Z</time>
      </trkpt>
      <trkpt lat="43.1723" lon="2.37771">
        <ele>179.7</ele>
        <time>1970-01-01T00:10:09.000Z</time>
      </trkpt>
      <trkpt lat="43.17227" lon="2.37773">
        <ele>179.8</ele>
        <time>1970-01-01T00:10:11.000Z</time>
      </trkpt>
      <trkpt lat="43.17223" lon="2.37774">
        <ele>180.1</ele>
        <time>1970-01-01T00:10:12.000Z</time>
      </trkpt>
      <trkpt lat="43.17222" lon="2.37775">
        <ele>180.1</ele>
        <time>1970-01-01T00:10:13.000Z</time>
      </trkpt>
      <trkpt lat="43.17217" lon="2.37776">
        <ele>180.1</ele>
        <time>1970-01-01T00:10:15.000Z</time>
      </trkpt>
      <trkpt lat="43.17215" lon="2.37777">
        <ele>180.2</ele>
        <time>1970-01-01T00:10:16.000Z</time>
      </trkpt>
      <trkpt lat="43.17214" lon="2.37777">
        <ele>180.2</ele>
        <time>1970-01-01T00:10:17.000Z</time>
      </trkpt>
      <trkpt lat="43.17211" lon="2.37777">
        <ele>180.2</ele>
        <time>1970-01-01T00:10:18.000Z</time>
      </trkpt>
      <trkpt lat="43.1721" lon="2.37777">
        <ele>180.2</ele>
        <time>1970-01-01T00:10:19.000Z</time>
      </trkpt>
      <trkpt lat="43.17206" lon="2.37776">
        <ele>180.4</ele>
        <time>1970-01-01T00:10:21.000Z</time>
      </trkpt>
      <trkpt lat="43.17203" lon="2.37776">
        <ele>180.5</ele>
        <time>1970-01-01T00:10:22.000Z</time>
      </trkpt>
      <trkpt lat="43.17199" lon="2.37776">
        <ele>180.6</ele>
        <time>1970-01-01T00:10:24.000Z</time>
      </trkpt>
      <trkpt lat="43.17196" lon="2.37776">
        <ele>180.7</ele>
        <time>1970-01-01T00:10:26.000Z</time>
      </trkpt>
      <trkpt lat="43.17192" lon="2.37776">
        <ele>180.8</ele>
        <time>1970-01-01T00:10:27.000Z</time>
      </trkpt>
      <trkpt lat="43.17189" lon="2.37776">
        <ele>180.9</ele>
        <time>1970-01-01T00:10:29.000Z</time>
      </trkpt>
      <trkpt lat="43.17186" lon="2.37776">
        <ele>181</ele>
        <time>1970-01-01T00:10:30.000Z</time>
      </trkpt>
      <trkpt lat="43.17183" lon="2.37777">
        <ele>181.1</ele>
        <time>1970-01-01T00:10:32.000Z</time>
      </trkpt>
      <trkpt lat="43.17179" lon="2.37778">
        <ele>181.3</ele>
        <time>1970-01-01T00:10:33.000Z</time>
      </trkpt>
      <trkpt lat="43.17178" lon="2.37779">
        <ele>181.3</ele>
        <time>1970-01-01T00:10:34.000Z</time>
      </trkpt>
      <trkpt lat="43.17175" lon="2.3778">
        <ele>181.4</ele>
        <time>1970-01-01T00:10:35.000Z</time>
      </trkpt>
      <trkpt lat="43.17174" lon="2.3778">
        <ele>181.5</ele>
        <time>1970-01-01T00:10:36.000Z</time>
      </trkpt>
      <trkpt lat="43.1717" lon="2.37782">
        <ele>181.6</ele>
        <time>1970-01-01T00:10:38.000Z</time>
      </trkpt>
      <trkpt lat="43.17168" lon="2.37783">
        <ele>181.7</ele>
        <time>1970-01-01T00:10:39.000Z</time>
      </trkpt>
      <trkpt lat="43.17166" lon="2.37784">
        <ele>181.8</ele>
        <time>1970-01-01T00:10:40.000Z</time>
      </trkpt>
      <trkpt lat="43.17163" lon="2.37784">
        <ele>181.9</ele>
        <time>1970-01-01T00:10:41.000Z</time>
      </trkpt>
      <trkpt lat="43.17161" lon="2.37785">
        <ele>181.9</ele>
        <time>1970-01-01T00:10:42.000Z</time>
      </trkpt>
      <trkpt lat="43.17158" lon="2.37787">
        <ele>182.1</ele>
        <time>1970-01-01T00:10:44.000Z</time>
      </trkpt>
      <trkpt lat="43.17155" lon="2.37788">
        <ele>182.2</ele>
        <time>1970-01-01T00:10:45.000Z</time>
      </trkpt>
      <trkpt lat="43.1715" lon="2.37789">
        <ele>182.4</ele>
        <time>1970-01-01T00:10:47.000Z</time>
      </trkpt>
      <trkpt lat="43.17149" lon="2.3779">
        <ele>182.5</ele>
        <time>1970-01-01T00:10:48.000Z</time>
      </trkpt>
      <trkpt lat="43.17147" lon="2.37791">
        <ele>182.5</ele>
        <time>1970-01-01T00:10:49.000Z</time>
      </trkpt>
      <trkpt lat="43.17143" lon="2.37793">
        <ele>182.7</ele>
        <time>1970-01-01T00:10:51.000Z</time>
      </trkpt>
      <trkpt lat="43.1714" lon="2.37793">
        <ele>182.8</ele>
        <time>1970-01-01T00:10:52.000Z</time>
      </trkpt>
      <trkpt lat="43.17136" lon="2.37794">
        <ele>182.9</ele>
        <time>1970-01-01T00:10:54.000Z</time>
      </trkpt>
      <trkpt lat="43.17134" lon="2.37795">
        <ele>183</ele>
        <time>1970-01-01T00:10:55.000Z</time>
      </trkpt>
      <trkpt lat="43.17131" lon="2.37795">
        <ele>183.1</ele>
        <time>1970-01-01T00:10:56.000Z</time>
      </trkpt>
      <trkpt lat="43.17127" lon="2.37796">
        <ele>183.2</ele>
        <time>1970-01-01T00:10:58.000Z</time>
      </trkpt>
      <trkpt lat="43.17125" lon="2.37796">
        <ele>183.3</ele>
        <time>1970-01-01T00:10:59.000Z</time>
      </trkpt>
      <trkpt lat="43.17121" lon="2.37798">
        <ele>183.4</ele>
        <time>1970-01-01T00:11:01.000Z</time>
      </trkpt>
      <trkpt lat="43.17118" lon="2.37799">
        <ele>183.5</ele>
        <time>1970-01-01T00:11:02.000Z</time>
      </trkpt>
      <trkpt lat="43.17117" lon="2.378">
        <ele>183.6</ele>
        <time>1970-01-01T00:11:03.000Z</time>
      </trkpt>
      <trkpt lat="43.17114" lon="2.37802">
        <ele>183.7</ele>
        <time>1970-01-01T00:11:04.000Z</time>
      </trkpt>
      <trkpt lat="43.17113" lon="2.37803">
        <ele>183.7</ele>
        <time>1970-01-01T00:11:05.000Z</time>
      </trkpt>
      <trkpt lat="43.17109" lon="2.37805">
        <ele>183.9</ele>
        <time>1970-01-01T00:11:07.000Z</time>
      </trkpt>
      <trkpt lat="43.17107" lon="2.37807">
        <ele>184</ele>
        <time>1970-01-01T00:11:08.000Z</time>
      </trkpt>
      <trkpt lat="43.17104" lon="2.3781">
        <ele>184.1</ele>
        <time>1970-01-01T00:11:10.000Z</time>
      </trkpt>
      <trkpt lat="43.17101" lon="2.37812">
        <ele>184.2</ele>
        <time>1970-01-01T00:11:11.000Z</time>
      </trkpt>
      <trkpt lat="43.17098" lon="2.37814">
        <ele>184.3</ele>
        <time>1970-01-01T00:11:13.000Z</time>
      </trkpt>
      <trkpt lat="43.17096" lon="2.37815">
        <ele>184.4</ele>
        <time>1970-01-01T00:11:14.000Z</time>
      </trkpt>
      <trkpt lat="43.17093" lon="2.37818">
        <ele>184.5</ele>
        <time>1970-01-01T00:11:16.000Z</time>
      </trkpt>
      <trkpt lat="43.17089" lon="2.3782">
        <ele>184.6</ele>
        <time>1970-01-01T00:11:17.000Z</time>
      </trkpt>
      <trkpt lat="43.17088" lon="2.37821">
        <ele>184.6</ele>
        <time>1970-01-01T00:11:18.000Z</time>
      </trkpt>
      <trkpt lat="43.17086" lon="2.37822">
        <ele>184.7</ele>
        <time>1970-01-01T00:11:19.000Z</time>
      </trkpt>
      <trkpt lat="43.17083" lon="2.37824">
        <ele>184.8</ele>
        <time>1970-01-01T00:11:21.000Z</time>
      </trkpt>
      <trkpt lat="43.1708" lon="2.37827">
        <ele>184.9</ele>
        <time>1970-01-01T00:11:22.000Z</time>
      </trkpt>
      <trkpt lat="43.17079" lon="2.37828">
        <ele>185</ele>
        <time>1970-01-01T00:11:23.000Z</time>
      </trkpt>
      <trkpt lat="43.17075" lon="2.37831">
        <ele>185.1</ele>
        <time>1970-01-01T00:11:25.000Z</time>
      </trkpt>
      <trkpt lat="43.17074" lon="2.37832">
        <ele>185.1</ele>
        <time>1970-01-01T00:11:26.000Z</time>
      </trkpt>
      <trkpt lat="43.17071" lon="2.37833">
        <ele>185.2</ele>
        <time>1970-01-01T00:11:27.000Z</time>
      </trkpt>
      <trkpt lat="43.17069" lon="2.37835">
        <ele>185.3</ele>
        <time>1970-01-01T00:11:29.000Z</time>
      </trkpt>
      <trkpt lat="43.17066" lon="2.37838">
        <ele>185.4</ele>
        <time>1970-01-01T00:11:30.000Z</time>
      </trkpt>
      <trkpt lat="43.17065" lon="2.37839">
        <ele>185.4</ele>
        <time>1970-01-01T00:11:31.000Z</time>
      </trkpt>
      <trkpt lat="43.17061" lon="2.37842">
        <ele>185.5</ele>
        <time>1970-01-01T00:11:33.000Z</time>
      </trkpt>
      <trkpt lat="43.17059" lon="2.37843">
        <ele>185.6</ele>
        <time>1970-01-01T00:11:34.000Z</time>
      </trkpt>
      <trkpt lat="43.17056" lon="2.37845">
        <ele>185.7</ele>
        <time>1970-01-01T00:11:36.000Z</time>
      </trkpt>
      <trkpt lat="43.17053" lon="2.37846">
        <ele>185.8</ele>
        <time>1970-01-01T00:11:37.000Z</time>
      </trkpt>
      <trkpt lat="43.17051" lon="2.37848">
        <ele>185.9</ele>
        <time>1970-01-01T00:11:38.000Z</time>
      </trkpt>
      <trkpt lat="43.17048" lon="2.3785">
        <ele>186</ele>
        <time>1970-01-01T00:11:40.000Z</time>
      </trkpt>
      <trkpt lat="43.17045" lon="2.37852">
        <ele>186.1</ele>
        <time>1970-01-01T00:11:41.000Z</time>
      </trkpt>
      <trkpt lat="43.17043" lon="2.37853">
        <ele>186.2</ele>
        <time>1970-01-01T00:11:42.000Z</time>
      </trkpt>
      <trkpt lat="43.1704" lon="2.37855">
        <ele>186.3</ele>
        <time>1970-01-01T00:11:43.000Z</time>
      </trkpt>
      <trkpt lat="43.17039" lon="2.37856">
        <ele>186.4</ele>
        <time>1970-01-01T00:11:44.000Z</time>
      </trkpt>
      <trkpt lat="43.17035" lon="2.37859">
        <ele>186.6</ele>
        <time>1970-01-01T00:11:46.000Z</time>
      </trkpt>
      <trkpt lat="43.17033" lon="2.3786">
        <ele>186.6</ele>
        <time>1970-01-01T00:11:47.000Z</time>
      </trkpt>
      <trkpt lat="43.17032" lon="2.37861">
        <ele>186.7</ele>
        <time>1970-01-01T00:11:48.000Z</time>
      </trkpt>
      <trkpt lat="43.17029" lon="2.37864">
        <ele>186.8</ele>
        <time>1970-01-01T00:11:50.000Z</time>
      </trkpt>
      <trkpt lat="43.17027" lon="2.37864">
        <ele>186.9</ele>
        <time>1970-01-01T00:11:51.000Z</time>
      </trkpt>
      <trkpt lat="43.17025" lon="2.37866">
        <ele>187</ele>
        <time>1970-01-01T00:11:52.000Z</time>
      </trkpt>
      <trkpt lat="43.17022" lon="2.37868">
        <ele>187.1</ele>
        <time>1970-01-01T00:11:54.000Z</time>
      </trkpt>
      <trkpt lat="43.17019" lon="2.3787">
        <ele>187.2</ele>
        <time>1970-01-01T00:11:55.000Z</time>
      </trkpt>
      <trkpt lat="43.17014" lon="2.37872">
        <ele>187.4</ele>
        <time>1970-01-01T00:11:57.000Z</time>
      </trkpt>
      <trkpt lat="43.17013" lon="2.37873">
        <ele>187.4</ele>
        <time>1970-01-01T00:11:58.000Z</time>
      </trkpt>
      <trkpt lat="43.17011" lon="2.37874">
        <ele>187.5</ele>
        <time>1970-01-01T00:11:59.000Z</time>
      </trkpt>
      <trkpt lat="43.17009" lon="2.37875">
        <ele>187.6</ele>
        <time>1970-01-01T00:12:00.000Z</time>
      </trkpt>
      <trkpt lat="43.17006" lon="2.37876">
        <ele>187.7</ele>
        <time>1970-01-01T00:12:02.000Z</time>
      </trkpt>
      <trkpt lat="43.17003" lon="2.37877">
        <ele>187.8</ele>
        <time>1970-01-01T00:12:03.000Z</time>
      </trkpt>
      <trkpt lat="43.17001" lon="2.37878">
        <ele>187.9</ele>
        <time>1970-01-01T00:12:04.000Z</time>
      </trkpt>
      <trkpt lat="43.16998" lon="2.3788">
        <ele>188</ele>
        <time>1970-01-01T00:12:06.000Z</time>
      </trkpt>
      <trkpt lat="43.16994" lon="2.37881">
        <ele>188.2</ele>
        <time>1970-01-01T00:12:07.000Z</time>
      </trkpt>
      <trkpt lat="43.16993" lon="2.37881">
        <ele>188.2</ele>
        <time>1970-01-01T00:12:08.000Z</time>
      </trkpt>
      <trkpt lat="43.16991" lon="2.37882">
        <ele>188.3</ele>
        <time>1970-01-01T00:12:09.000Z</time>
      </trkpt>
      <trkpt lat="43.16988" lon="2.37883">
        <ele>188.4</ele>
        <time>1970-01-01T00:12:11.000Z</time>
      </trkpt>
      <trkpt lat="43.16985" lon="2.37884">
        <ele>188.5</ele>
        <time>1970-01-01T00:12:12.000Z</time>
      </trkpt>
      <trkpt lat="43.16984" lon="2.37884">
        <ele>188.6</ele>
        <time>1970-01-01T00:12:13.000Z</time>
      </trkpt>
      <trkpt lat="43.16981" lon="2.37885">
        <ele>188.7</ele>
        <time>1970-01-01T00:12:15.000Z</time>
      </trkpt>
      <trkpt lat="43.16978" lon="2.37886">
        <ele>188.8</ele>
        <time>1970-01-01T00:12:16.000Z</time>
      </trkpt>
      <trkpt lat="43.16974" lon="2.37886">
        <ele>189</ele>
        <time>1970-01-01T00:12:18.000Z</time>
      </trkpt>
      <trkpt lat="43.1697" lon="2.37888">
        <ele>189.2</ele>
        <time>1970-01-01T00:12:20.000Z</time>
      </trkpt>
      <trkpt lat="43.16969" lon="2.37888">
        <ele>189.2</ele>
        <time>1970-01-01T00:12:21.000Z</time>
      </trkpt>
      <trkpt lat="43.16966" lon="2.37888">
        <ele>189.4</ele>
        <time>1970-01-01T00:12:22.000Z</time>
      </trkpt>
      <trkpt lat="43.16963" lon="2.37888">
        <ele>189.5</ele>
        <time>1970-01-01T00:12:23.000Z</time>
      </trkpt>
      <trkpt lat="43.16962" lon="2.37888">
        <ele>189.5</ele>
        <time>1970-01-01T00:12:24.000Z</time>
      </trkpt>
      <trkpt lat="43.16959" lon="2.37887">
        <ele>189.7</ele>
        <time>1970-01-01T00:12:26.000Z</time>
      </trkpt>
      <trkpt lat="43.16957" lon="2.37887">
        <ele>189.7</ele>
        <time>1970-01-01T00:12:27.000Z</time>
      </trkpt>
      <trkpt lat="43.16954" lon="2.37887">
        <ele>189.9</ele>
        <time>1970-01-01T00:12:28.000Z</time>
      </trkpt>
      <trkpt lat="43.16952" lon="2.37887">
        <ele>189.9</ele>
        <time>1970-01-01T00:12:29.000Z</time>
      </trkpt>
      <trkpt lat="43.16948" lon="2.37887">
        <ele>190.1</ele>
        <time>1970-01-01T00:12:31.000Z</time>
      </trkpt>
      <trkpt lat="43.16946" lon="2.37887">
        <ele>190.2</ele>
        <time>1970-01-01T00:12:32.000Z</time>
      </trkpt>
      <trkpt lat="43.16945" lon="2.37887">
        <ele>190.3</ele>
        <time>1970-01-01T00:12:33.000Z</time>
      </trkpt>
      <trkpt lat="43.16942" lon="2.37887">
        <ele>190.4</ele>
        <time>1970-01-01T00:12:35.000Z</time>
      </trkpt>
      <trkpt lat="43.16938" lon="2.37888">
        <ele>190.5</ele>
        <time>1970-01-01T00:12:36.000Z</time>
      </trkpt>
      <trkpt lat="43.16935" lon="2.37888">
        <ele>190.6</ele>
        <time>1970-01-01T00:12:37.000Z</time>
      </trkpt>
      <trkpt lat="43.16934" lon="2.37888">
        <ele>190.7</ele>
        <time>1970-01-01T00:12:38.000Z</time>
      </trkpt>
      <trkpt lat="43.16929" lon="2.37889">
        <ele>190.9</ele>
        <time>1970-01-01T00:12:40.000Z</time>
      </trkpt>
      <trkpt lat="43.16928" lon="2.37889">
        <ele>190.9</ele>
        <time>1970-01-01T00:12:41.000Z</time>
      </trkpt>
      <trkpt lat="43.16926" lon="2.3789">
        <ele>191</ele>
        <time>1970-01-01T00:12:42.000Z</time>
      </trkpt>
      <trkpt lat="43.16922" lon="2.3789">
        <ele>191.1</ele>
        <time>1970-01-01T00:12:44.000Z</time>
      </trkpt>
      <trkpt lat="43.16921" lon="2.3789">
        <ele>191.2</ele>
        <time>1970-01-01T00:12:45.000Z</time>
      </trkpt>
      <trkpt lat="43.16917" lon="2.37891">
        <ele>191.3</ele>
        <time>1970-01-01T00:12:46.000Z</time>
      </trkpt>
      <trkpt lat="43.16916" lon="2.37891">
        <ele>191.4</ele>
        <time>1970-01-01T00:12:47.000Z</time>
      </trkpt>
      <trkpt lat="43.16911" lon="2.37893">
        <ele>191.5</ele>
        <time>1970-01-01T00:12:49.000Z</time>
      </trkpt>
      <trkpt lat="43.1691" lon="2.37894">
        <ele>191.5</ele>
        <time>1970-01-01T00:12:50.000Z</time>
      </trkpt>
      <trkpt lat="43.16908" lon="2.37894">
        <ele>191.6</ele>
        <time>1970-01-01T00:12:51.000Z</time>
      </trkpt>
      <trkpt lat="43.16905" lon="2.37896">
        <ele>191.7</ele>
        <time>1970-01-01T00:12:53.000Z</time>
      </trkpt>
      <trkpt lat="43.16904" lon="2.37897">
        <ele>191.7</ele>
        <time>1970-01-01T00:12:54.000Z</time>
      </trkpt>
      <trkpt lat="43.169" lon="2.37899">
        <ele>191.8</ele>
        <time>1970-01-01T00:12:55.000Z</time>
      </trkpt>
      <trkpt lat="43.16899" lon="2.37899">
        <ele>191.9</ele>
        <time>1970-01-01T00:12:56.000Z</time>
      </trkpt>
      <trkpt lat="43.16896" lon="2.379">
        <ele>191.9</ele>
        <time>1970-01-01T00:12:57.000Z</time>
      </trkpt>
      <trkpt lat="43.16893" lon="2.37902">
        <ele>192</ele>
        <time>1970-01-01T00:12:59.000Z</time>
      </trkpt>
      <trkpt lat="43.16889" lon="2.37903">
        <ele>192.1</ele>
        <time>1970-01-01T00:13:00.000Z</time>
      </trkpt>
      <trkpt lat="43.16888" lon="2.37903">
        <ele>192.1</ele>
        <time>1970-01-01T00:13:01.000Z</time>
      </trkpt>
      <trkpt lat="43.16885" lon="2.37904">
        <ele>192.2</ele>
        <time>1970-01-01T00:13:02.000Z</time>
      </trkpt>
      <trkpt lat="43.16881" lon="2.37905">
        <ele>192.3</ele>
        <time>1970-01-01T00:13:04.000Z</time>
      </trkpt>
      <trkpt lat="43.1688" lon="2.37906">
        <ele>192.3</ele>
        <time>1970-01-01T00:13:05.000Z</time>
      </trkpt>
      <trkpt lat="43.16877" lon="2.37906">
        <ele>192.4</ele>
        <time>1970-01-01T00:13:06.000Z</time>
      </trkpt>
      <trkpt lat="43.16874" lon="2.37906">
        <ele>192.4</ele>
        <time>1970-01-01T00:13:07.000Z</time>
      </trkpt>
      <trkpt lat="43.16869" lon="2.37908">
        <ele>192.5</ele>
        <time>1970-01-01T00:13:09.000Z</time>
      </trkpt>
      <trkpt lat="43.16866" lon="2.37908">
        <ele>192.6</ele>
        <time>1970-01-01T00:13:10.000Z</time>
      </trkpt>
      <trkpt lat="43.16864" lon="2.37909">
        <ele>192.7</ele>
        <time>1970-01-01T00:13:12.000Z</time>
      </trkpt>
      <trkpt lat="43.16861" lon="2.3791">
        <ele>192.8</ele>
        <time>1970-01-01T00:13:13.000Z</time>
      </trkpt>
      <trkpt lat="43.16858" lon="2.3791">
        <ele>192.9</ele>
        <time>1970-01-01T00:13:14.000Z</time>
      </trkpt>
      <trkpt lat="43.16855" lon="2.3791">
        <ele>193</ele>
        <time>1970-01-01T00:13:15.000Z</time>
      </trkpt>
      <trkpt lat="43.16851" lon="2.3791">
        <ele>193.1</ele>
        <time>1970-01-01T00:13:17.000Z</time>
      </trkpt>
      <trkpt lat="43.16848" lon="2.37911">
        <ele>193.2</ele>
        <time>1970-01-01T00:13:18.000Z</time>
      </trkpt>
      <trkpt lat="43.16847" lon="2.37911">
        <ele>193.3</ele>
        <time>1970-01-01T00:13:19.000Z</time>
      </trkpt>
      <trkpt lat="43.16844" lon="2.37911">
        <ele>193.3</ele>
        <time>1970-01-01T00:13:20.000Z</time>
      </trkpt>
      <trkpt lat="43.16842" lon="2.37911">
        <ele>193.5</ele>
        <time>1970-01-01T00:13:22.000Z</time>
      </trkpt>
      <trkpt lat="43.16838" lon="2.37911">
        <ele>193.6</ele>
        <time>1970-01-01T00:13:23.000Z</time>
      </trkpt>
      <trkpt lat="43.16837" lon="2.37912">
        <ele>193.7</ele>
        <time>1970-01-01T00:13:24.000Z</time>
      </trkpt>
      <trkpt lat="43.16833" lon="2.37913">
        <ele>193.9</ele>
        <time>1970-01-01T00:13:25.000Z</time>
      </trkpt>
      <trkpt lat="43.16832" lon="2.37913">
        <ele>193.9</ele>
        <time>1970-01-01T00:13:26.000Z</time>
      </trkpt>
      <trkpt lat="43.16829" lon="2.37914">
        <ele>194.1</ele>
        <time>1970-01-01T00:13:27.000Z</time>
      </trkpt>
      <trkpt lat="43.16828" lon="2.37914">
        <ele>194.1</ele>
        <time>1970-01-01T00:13:28.000Z</time>
      </trkpt>
      <trkpt lat="43.16824" lon="2.37915">
        <ele>194.3</ele>
        <time>1970-01-01T00:13:30.000Z</time>
      </trkpt>
      <trkpt lat="43.16823" lon="2.37915">
        <ele>194.4</ele>
        <time>1970-01-01T00:13:31.000Z</time>
      </trkpt>
      <trkpt lat="43.16819" lon="2.37916">
        <ele>194.6</ele>
        <time>1970-01-01T00:13:33.000Z</time>
      </trkpt>
      <trkpt lat="43.16818" lon="2.37916">
        <ele>194.7</ele>
        <time>1970-01-01T00:13:34.000Z</time>
      </trkpt>
      <trkpt lat="43.16815" lon="2.37918">
        <ele>194.9</ele>
        <time>1970-01-01T00:13:35.000Z</time>
      </trkpt>
      <trkpt lat="43.16814" lon="2.37918">
        <ele>195</ele>
        <time>1970-01-01T00:13:36.000Z</time>
      </trkpt>
      <trkpt lat="43.16811" lon="2.37919">
        <ele>195.2</ele>
        <time>1970-01-01T00:13:38.000Z</time>
      </trkpt>
      <trkpt lat="43.16808" lon="2.3792">
        <ele>195.4</ele>
        <time>1970-01-01T00:13:39.000Z</time>
      </trkpt>
      <trkpt lat="43.16806" lon="2.3792">
        <ele>195.5</ele>
        <time>1970-01-01T00:13:40.000Z</time>
      </trkpt>
      <trkpt lat="43.16804" lon="2.3792">
        <ele>195.6</ele>
        <time>1970-01-01T00:13:41.000Z</time>
      </trkpt>
      <trkpt lat="43.16802" lon="2.37921">
        <ele>195.8</ele>
        <time>1970-01-01T00:13:43.000Z</time>
      </trkpt>
      <trkpt lat="43.16799" lon="2.37922">
        <ele>195.9</ele>
        <time>1970-01-01T00:13:44.000Z</time>
      </trkpt>
      <trkpt lat="43.16797" lon="2.37922">
        <ele>196.1</ele>
        <time>1970-01-01T00:13:46.000Z</time>
      </trkpt>
      <trkpt lat="43.16793" lon="2.37923">
        <ele>196.3</ele>
        <time>1970-01-01T00:13:47.000Z</time>
      </trkpt>
      <trkpt lat="43.16792" lon="2.37923">
        <ele>196.3</ele>
        <time>1970-01-01T00:13:48.000Z</time>
      </trkpt>
      <trkpt lat="43.16788" lon="2.37924">
        <ele>196.6</ele>
        <time>1970-01-01T00:13:50.000Z</time>
      </trkpt>
      <trkpt lat="43.16787" lon="2.37924">
        <ele>196.6</ele>
        <time>1970-01-01T00:13:51.000Z</time>
      </trkpt>
      <trkpt lat="43.16786" lon="2.37924">
        <ele>196.7</ele>
        <time>1970-01-01T00:13:52.000Z</time>
      </trkpt>
      <trkpt lat="43.16784" lon="2.37924">
        <ele>196.8</ele>
        <time>1970-01-01T00:13:53.000Z</time>
      </trkpt>
      <trkpt lat="43.16782" lon="2.37925">
        <ele>196.8</ele>
        <time>1970-01-01T00:13:54.000Z</time>
      </trkpt>
      <trkpt lat="43.16779" lon="2.37925">
        <ele>196.9</ele>
        <time>1970-01-01T00:13:56.000Z</time>
      </trkpt>
      <trkpt lat="43.16778" lon="2.37926">
        <ele>197</ele>
        <time>1970-01-01T00:13:57.000Z</time>
      </trkpt>
      <trkpt lat="43.16775" lon="2.37926">
        <ele>197.1</ele>
        <time>1970-01-01T00:13:58.000Z</time>
      </trkpt>
      <trkpt lat="43.16774" lon="2.37927">
        <ele>197.1</ele>
        <time>1970-01-01T00:13:59.000Z</time>
      </trkpt>
      <trkpt lat="43.16771" lon="2.37927">
        <ele>197.1</ele>
        <time>1970-01-01T00:14:00.000Z</time>
      </trkpt>
      <trkpt lat="43.1677" lon="2.37927">
        <ele>197.1</ele>
        <time>1970-01-01T00:14:01.000Z</time>
      </trkpt>
      <trkpt lat="43.16768" lon="2.37928">
        <ele>197.1</ele>
        <time>1970-01-01T00:14:02.000Z</time>
      </trkpt>
      <trkpt lat="43.16765" lon="2.37928">
        <ele>197.1</ele>
        <time>1970-01-01T00:14:04.000Z</time>
      </trkpt>
      <trkpt lat="43.16762" lon="2.37928">
        <ele>197</ele>
        <time>1970-01-01T00:14:05.000Z</time>
      </trkpt>
      <trkpt lat="43.1676" lon="2.37929">
        <ele>197</ele>
        <time>1970-01-01T00:14:06.000Z</time>
      </trkpt>
      <trkpt lat="43.16757" lon="2.37929">
        <ele>196.9</ele>
        <time>1970-01-01T00:14:08.000Z</time>
      </trkpt>
      <trkpt lat="43.16754" lon="2.3793">
        <ele>196.7</ele>
        <time>1970-01-01T00:14:09.000Z</time>
      </trkpt>
      <trkpt lat="43.16753" lon="2.3793">
        <ele>196.7</ele>
        <time>1970-01-01T00:14:10.000Z</time>
      </trkpt>
      <trkpt lat="43.16751" lon="2.37931">
        <ele>196.6</ele>
        <time>1970-01-01T00:14:11.000Z</time>
      </trkpt>
      <trkpt lat="43.16748" lon="2.37931">
        <ele>196.4</ele>
        <time>1970-01-01T00:14:13.000Z</time>
      </trkpt>
      <trkpt lat="43.16745" lon="2.37931">
        <ele>196.2</ele>
        <time>1970-01-01T00:14:14.000Z</time>
      </trkpt>
      <trkpt lat="43.16744" lon="2.37931">
        <ele>196.1</ele>
        <time>1970-01-01T00:14:15.000Z</time>
      </trkpt>
      <trkpt lat="43.16742" lon="2.37932">
        <ele>195.9</ele>
        <time>1970-01-01T00:14:16.000Z</time>
      </trkpt>
      <trkpt lat="43.16739" lon="2.37932">
        <ele>195.7</ele>
        <time>1970-01-01T00:14:18.000Z</time>
      </trkpt>
      <trkpt lat="43.16735" lon="2.37932">
        <ele>195.4</ele>
        <time>1970-01-01T00:14:19.000Z</time>
      </trkpt>
      <trkpt lat="43.16734" lon="2.37932">
        <ele>195.3</ele>
        <time>1970-01-01T00:14:20.000Z</time>
      </trkpt>
      <trkpt lat="43.16729" lon="2.37933">
        <ele>194.9</ele>
        <time>1970-01-01T00:14:22.000Z</time>
      </trkpt>
      <trkpt lat="43.16727" lon="2.37933">
        <ele>194.8</ele>
        <time>1970-01-01T00:14:23.000Z</time>
      </trkpt>
      <trkpt lat="43.16726" lon="2.37933">
        <ele>194.7</ele>
        <time>1970-01-01T00:14:24.000Z</time>
      </trkpt>
      <trkpt lat="43.16722" lon="2.37934">
        <ele>194.4</ele>
        <time>1970-01-01T00:14:26.000Z</time>
      </trkpt>
      <trkpt lat="43.16719" lon="2.37935">
        <ele>194.2</ele>
        <time>1970-01-01T00:14:27.000Z</time>
      </trkpt>
      <trkpt lat="43.16715" lon="2.37936">
        <ele>194</ele>
        <time>1970-01-01T00:14:28.000Z</time>
      </trkpt>
      <trkpt lat="43.16714" lon="2.37936">
        <ele>193.9</ele>
        <time>1970-01-01T00:14:29.000Z</time>
      </trkpt>
      <trkpt lat="43.1671" lon="2.37937">
        <ele>193.8</ele>
        <time>1970-01-01T00:14:31.000Z</time>
      </trkpt>
      <trkpt lat="43.16709" lon="2.37938">
        <ele>193.7</ele>
        <time>1970-01-01T00:14:32.000Z</time>
      </trkpt>
      <trkpt lat="43.16705" lon="2.37939">
        <ele>193.5</ele>
        <time>1970-01-01T00:14:33.000Z</time>
      </trkpt>
      <trkpt lat="43.16704" lon="2.37939">
        <ele>193.5</ele>
        <time>1970-01-01T00:14:34.000Z</time>
      </trkpt>
      <trkpt lat="43.16703" lon="2.37939">
        <ele>193.4</ele>
        <time>1970-01-01T00:14:35.000Z</time>
      </trkpt>
      <trkpt lat="43.16701" lon="2.37939">
        <ele>193.3</ele>
        <time>1970-01-01T00:14:36.000Z</time>
      </trkpt>
      <trkpt lat="43.16698" lon="2.3794">
        <ele>193.2</ele>
        <time>1970-01-01T00:14:38.000Z</time>
      </trkpt>
      <trkpt lat="43.16697" lon="2.3794">
        <ele>193.1</ele>
        <time>1970-01-01T00:14:39.000Z</time>
      </trkpt>
      <trkpt lat="43.16695" lon="2.3794">
        <ele>193</ele>
        <time>1970-01-01T00:14:40.000Z</time>
      </trkpt>
      <trkpt lat="43.16692" lon="2.3794">
        <ele>192.9</ele>
        <time>1970-01-01T00:14:42.000Z</time>
      </trkpt>
      <trkpt lat="43.16689" lon="2.37941">
        <ele>192.7</ele>
        <time>1970-01-01T00:14:43.000Z</time>
      </trkpt>
      <trkpt lat="43.16688" lon="2.37941">
        <ele>192.6</ele>
        <time>1970-01-01T00:14:44.000Z</time>
      </trkpt>
      <trkpt lat="43.16686" lon="2.37941">
        <ele>192.6</ele>
        <time>1970-01-01T00:14:45.000Z</time>
      </trkpt>
      <trkpt lat="43.16684" lon="2.37941">
        <ele>192.5</ele>
        <time>1970-01-01T00:14:47.000Z</time>
      </trkpt>
      <trkpt lat="43.16681" lon="2.37941">
        <ele>192.3</ele>
        <time>1970-01-01T00:14:48.000Z</time>
      </trkpt>
      <trkpt lat="43.1668" lon="2.3794">
        <ele>192.2</ele>
        <time>1970-01-01T00:14:49.000Z</time>
      </trkpt>
      <trkpt lat="43.16678" lon="2.3794">
        <ele>192.1</ele>
        <time>1970-01-01T00:14:50.000Z</time>
      </trkpt>
      <trkpt lat="43.16677" lon="2.3794">
        <ele>192</ele>
        <time>1970-01-01T00:14:51.000Z</time>
      </trkpt>
      <trkpt lat="43.16673" lon="2.3794">
        <ele>191.9</ele>
        <time>1970-01-01T00:14:52.000Z</time>
      </trkpt>
      <trkpt lat="43.16672" lon="2.3794">
        <ele>191.8</ele>
        <time>1970-01-01T00:14:54.000Z</time>
      </trkpt>
      <trkpt lat="43.1667" lon="2.3794">
        <ele>191.7</ele>
        <time>1970-01-01T00:14:55.000Z</time>
      </trkpt>
      <trkpt lat="43.16669" lon="2.3794">
        <ele>191.6</ele>
        <time>1970-01-01T00:14:56.000Z</time>
      </trkpt>
      <trkpt lat="43.16664" lon="2.3794">
        <ele>191.3</ele>
        <time>1970-01-01T00:14:58.000Z</time>
      </trkpt>
      <trkpt lat="43.16663" lon="2.37941">
        <ele>191.3</ele>
        <time>1970-01-01T00:14:59.000Z</time>
      </trkpt>
      <trkpt lat="43.16662" lon="2.37941">
        <ele>191.2</ele>
        <time>1970-01-01T00:15:00.000Z</time>
      </trkpt>
      <trkpt lat="43.16658" lon="2.37942">
        <ele>191</ele>
        <time>1970-01-01T00:15:01.000Z</time>
      </trkpt>
      <trkpt lat="43.16657" lon="2.37942">
        <ele>190.9</ele>
        <time>1970-01-01T00:15:02.000Z</time>
      </trkpt>
      <trkpt lat="43.16654" lon="2.37943">
        <ele>190.7</ele>
        <time>1970-01-01T00:15:04.000Z</time>
      </trkpt>
      <trkpt lat="43.16652" lon="2.37943">
        <ele>190.6</ele>
        <time>1970-01-01T00:15:05.000Z</time>
      </trkpt>
      <trkpt lat="43.16649" lon="2.37943">
        <ele>190.4</ele>
        <time>1970-01-01T00:15:06.000Z</time>
      </trkpt>
      <trkpt lat="43.16647" lon="2.37943">
        <ele>190.4</ele>
        <time>1970-01-01T00:15:07.000Z</time>
      </trkpt>
      <trkpt lat="43.16645" lon="2.37943">
        <ele>190.2</ele>
        <time>1970-01-01T00:15:08.000Z</time>
      </trkpt>
      <trkpt lat="43.16641" lon="2.37943">
        <ele>190.1</ele>
        <time>1970-01-01T00:15:10.000Z</time>
      </trkpt>
      <trkpt lat="43.16638" lon="2.37943">
        <ele>189.9</ele>
        <time>1970-01-01T00:15:11.000Z</time>
      </trkpt>
      <trkpt lat="43.16636" lon="2.37943">
        <ele>189.8</ele>
        <time>1970-01-01T00:15:12.000Z</time>
      </trkpt>
      <trkpt lat="43.16634" lon="2.37943">
        <ele>189.7</ele>
        <time>1970-01-01T00:15:13.000Z</time>
      </trkpt>
      <trkpt lat="43.16631" lon="2.37943">
        <ele>189.6</ele>
        <time>1970-01-01T00:15:15.000Z</time>
      </trkpt>
      <trkpt lat="43.16627" lon="2.37944">
        <ele>189.4</ele>
        <time>1970-01-01T00:15:16.000Z</time>
      </trkpt>
      <trkpt lat="43.16626" lon="2.37944">
        <ele>189.4</ele>
        <time>1970-01-01T00:15:17.000Z</time>
      </trkpt>
      <trkpt lat="43.16624" lon="2.37944">
        <ele>189.3</ele>
        <time>1970-01-01T00:15:18.000Z</time>
      </trkpt>
      <trkpt lat="43.16621" lon="2.37944">
        <ele>189.2</ele>
        <time>1970-01-01T00:15:20.000Z</time>
      </trkpt>
      <trkpt lat="43.16618" lon="2.37945">
        <ele>189.2</ele>
        <time>1970-01-01T00:15:21.000Z</time>
      </trkpt>
      <trkpt lat="43.16615" lon="2.37945">
        <ele>189.1</ele>
        <time>1970-01-01T00:15:22.000Z</time>
      </trkpt>
      <trkpt lat="43.16613" lon="2.37945">
        <ele>189.1</ele>
        <time>1970-01-01T00:15:24.000Z</time>
      </trkpt>
      <trkpt lat="43.16609" lon="2.37946">
        <ele>189</ele>
        <time>1970-01-01T00:15:25.000Z</time>
      </trkpt>
      <trkpt lat="43.16608" lon="2.37946">
        <ele>189</ele>
        <time>1970-01-01T00:15:26.000Z</time>
      </trkpt>
      <trkpt lat="43.16603" lon="2.37946">
        <ele>189</ele>
        <time>1970-01-01T00:15:28.000Z</time>
      </trkpt>
      <trkpt lat="43.16602" lon="2.37946">
        <ele>189</ele>
        <time>1970-01-01T00:15:29.000Z</time>
      </trkpt>
      <trkpt lat="43.166" lon="2.37946">
        <ele>189</ele>
        <time>1970-01-01T00:15:30.000Z</time>
      </trkpt>
      <trkpt lat="43.16596" lon="2.37947">
        <ele>189</ele>
        <time>1970-01-01T00:15:32.000Z</time>
      </trkpt>
      <trkpt lat="43.16594" lon="2.37947">
        <ele>189</ele>
        <time>1970-01-01T00:15:33.000Z</time>
      </trkpt>
      <trkpt lat="43.16593" lon="2.37947">
        <ele>189</ele>
        <time>1970-01-01T00:15:34.000Z</time>
      </trkpt>
      <trkpt lat="43.16591" lon="2.37947">
        <ele>189.1</ele>
        <time>1970-01-01T00:15:35.000Z</time>
      </trkpt>
      <trkpt lat="43.16587" lon="2.37948">
        <ele>189.2</ele>
        <time>1970-01-01T00:15:37.000Z</time>
      </trkpt>
      <trkpt lat="43.16585" lon="2.37949">
        <ele>189.2</ele>
        <time>1970-01-01T00:15:38.000Z</time>
      </trkpt>
      <trkpt lat="43.16582" lon="2.3795">
        <ele>189.3</ele>
        <time>1970-01-01T00:15:40.000Z</time>
      </trkpt>
      <trkpt lat="43.16579" lon="2.37951">
        <ele>189.4</ele>
        <time>1970-01-01T00:15:41.000Z</time>
      </trkpt>
      <trkpt lat="43.16578" lon="2.37951">
        <ele>189.4</ele>
        <time>1970-01-01T00:15:42.000Z</time>
      </trkpt>
      <trkpt lat="43.16575" lon="2.37952">
        <ele>189.5</ele>
        <time>1970-01-01T00:15:44.000Z</time>
      </trkpt>
      <trkpt lat="43.16573" lon="2.37951">
        <ele>189.6</ele>
        <time>1970-01-01T00:15:45.000Z</time>
      </trkpt>
      <trkpt lat="43.1657" lon="2.37949">
        <ele>189.7</ele>
        <time>1970-01-01T00:15:47.000Z</time>
      </trkpt>
      <trkpt lat="43.16569" lon="2.37946">
        <ele>190.1</ele>
        <time>1970-01-01T00:15:48.000Z</time>
      </trkpt>
      <trkpt lat="43.16569" lon="2.37941">
        <ele>190.6</ele>
        <time>1970-01-01T00:15:50.000Z</time>
      </trkpt>
      <trkpt lat="43.16569" lon="2.37937">
        <ele>191</ele>
        <time>1970-01-01T00:15:51.000Z</time>
      </trkpt>
      <trkpt lat="43.16569" lon="2.37933">
        <ele>191.5</ele>
        <time>1970-01-01T00:15:53.000Z</time>
      </trkpt>
      <trkpt lat="43.16569" lon="2.37931">
        <ele>191.7</ele>
        <time>1970-01-01T00:15:54.000Z</time>
      </trkpt>
      <trkpt lat="43.16567" lon="2.37927">
        <ele>192.2</ele>
        <time>1970-01-01T00:15:55.000Z</time>
      </trkpt>
      <trkpt lat="43.16567" lon="2.37925">
        <ele>192.4</ele>
        <time>1970-01-01T00:15:56.000Z</time>
      </trkpt>
      <trkpt lat="43.16565" lon="2.37921">
        <ele>192.9</ele>
        <time>1970-01-01T00:15:58.000Z</time>
      </trkpt>
      <trkpt lat="43.16565" lon="2.3792">
        <ele>193.1</ele>
        <time>1970-01-01T00:15:59.000Z</time>
      </trkpt>
      <trkpt lat="43.16563" lon="2.37916">
        <ele>193.5</ele>
        <time>1970-01-01T00:16:01.000Z</time>
      </trkpt>
      <trkpt lat="43.16563" lon="2.37913">
        <ele>193.9</ele>
        <time>1970-01-01T00:16:02.000Z</time>
      </trkpt>
      <trkpt lat="43.16563" lon="2.37909">
        <ele>194.2</ele>
        <time>1970-01-01T00:16:04.000Z</time>
      </trkpt>
      <trkpt lat="43.16563" lon="2.37906">
        <ele>194.5</ele>
        <time>1970-01-01T00:16:05.000Z</time>
      </trkpt>
      <trkpt lat="43.16562" lon="2.37903">
        <ele>194.6</ele>
        <time>1970-01-01T00:16:07.000Z</time>
      </trkpt>
      <trkpt lat="43.16561" lon="2.37902">
        <ele>194.8</ele>
        <time>1970-01-01T00:16:08.000Z</time>
      </trkpt>
      <trkpt lat="43.16559" lon="2.37902">
        <ele>194.9</ele>
        <time>1970-01-01T00:16:10.000Z</time>
      </trkpt>
      <trkpt lat="43.16557" lon="2.37904">
        <ele>195</ele>
        <time>1970-01-01T00:16:11.000Z</time>
      </trkpt>
      <trkpt lat="43.16554" lon="2.37904">
        <ele>195</ele>
        <time>1970-01-01T00:16:13.000Z</time>
      </trkpt>
      <trkpt lat="43.16551" lon="2.37908">
        <ele>195</ele>
        <time>1970-01-01T00:16:15.000Z</time>
      </trkpt>
      <trkpt lat="43.16551" lon="2.37909">
        <ele>195</ele>
        <time>1970-01-01T00:16:16.000Z</time>
      </trkpt>
      <trkpt lat="43.16551" lon="2.37912">
        <ele>195</ele>
        <time>1970-01-01T00:16:17.000Z</time>
      </trkpt>
      <trkpt lat="43.16549" lon="2.37916">
        <ele>195</ele>
        <time>1970-01-01T00:16:19.000Z</time>
      </trkpt>
      <trkpt lat="43.16546" lon="2.37917">
        <ele>195</ele>
        <time>1970-01-01T00:16:20.000Z</time>
      </trkpt>
      <trkpt lat="43.16545" lon="2.37917">
        <ele>195</ele>
        <time>1970-01-01T00:16:21.000Z</time>
      </trkpt>
      <trkpt lat="43.16542" lon="2.37915">
        <ele>195</ele>
        <time>1970-01-01T00:16:23.000Z</time>
      </trkpt>
      <trkpt lat="43.16542" lon="2.37914">
        <ele>195.1</ele>
        <time>1970-01-01T00:16:24.000Z</time>
      </trkpt>
      <trkpt lat="43.16541" lon="2.37912">
        <ele>195.1</ele>
        <time>1970-01-01T00:16:25.000Z</time>
      </trkpt>
      <trkpt lat="43.16539" lon="2.37909">
        <ele>195.2</ele>
        <time>1970-01-01T00:16:27.000Z</time>
      </trkpt>
      <trkpt lat="43.16537" lon="2.37908">
        <ele>195.3</ele>
        <time>1970-01-01T00:16:29.000Z</time>
      </trkpt>
      <trkpt lat="43.16536" lon="2.37908">
        <ele>195.4</ele>
        <time>1970-01-01T00:16:30.000Z</time>
      </trkpt>
      <trkpt lat="43.16533" lon="2.37908">
        <ele>195.6</ele>
        <time>1970-01-01T00:16:32.000Z</time>
      </trkpt>
      <trkpt lat="43.1653" lon="2.37908">
        <ele>195.8</ele>
        <time>1970-01-01T00:16:34.000Z</time>
      </trkpt>
      <trkpt lat="43.16529" lon="2.37908">
        <ele>196</ele>
        <time>1970-01-01T00:16:35.000Z</time>
      </trkpt>
      <trkpt lat="43.16527" lon="2.37907">
        <ele>196.2</ele>
        <time>1970-01-01T00:16:37.000Z</time>
      </trkpt>
      <trkpt lat="43.16526" lon="2.37906">
        <ele>196.3</ele>
        <time>1970-01-01T00:16:38.000Z</time>
      </trkpt>
      <trkpt lat="43.16525" lon="2.37905">
        <ele>196.5</ele>
        <time>1970-01-01T00:16:40.000Z</time>
      </trkpt>
      <trkpt lat="43.16523" lon="2.37904">
        <ele>196.7</ele>
        <time>1970-01-01T00:16:41.000Z</time>
      </trkpt>
      <trkpt lat="43.16522" lon="2.37903">
        <ele>196.9</ele>
        <time>1970-01-01T00:16:42.000Z</time>
      </trkpt>
      <trkpt lat="43.1652" lon="2.37902">
        <ele>197.2</ele>
        <time>1970-01-01T00:16:43.000Z</time>
      </trkpt>
      <trkpt lat="43.16518" lon="2.37903">
        <ele>197.5</ele>
        <time>1970-01-01T00:16:45.000Z</time>
      </trkpt>
      <trkpt lat="43.16518" lon="2.37899">
        <ele>197.8</ele>
        <time>1970-01-01T00:16:46.000Z</time>
      </trkpt>
      <trkpt lat="43.16517" lon="2.37897">
        <ele>198</ele>
        <time>1970-01-01T00:16:47.000Z</time>
      </trkpt>
      <trkpt lat="43.16516" lon="2.37896">
        <ele>198.2</ele>
        <time>1970-01-01T00:16:49.000Z</time>
      </trkpt>
      <trkpt lat="43.16514" lon="2.37897">
        <ele>198.3</ele>
        <time>1970-01-01T00:16:50.000Z</time>
      </trkpt>
      <trkpt lat="43.16514" lon="2.37898">
        <ele>198.5</ele>
        <time>1970-01-01T00:16:51.000Z</time>
      </trkpt>
      <trkpt lat="43.16513" lon="2.37902">
        <ele>198.7</ele>
        <time>1970-01-01T00:16:53.000Z</time>
      </trkpt>
      <trkpt lat="43.16512" lon="2.37904">
        <ele>198.8</ele>
        <time>1970-01-01T00:16:54.000Z</time>
      </trkpt>
      <trkpt lat="43.16511" lon="2.37905">
        <ele>198.8</ele>
        <time>1970-01-01T00:16:55.000Z</time>
      </trkpt>
      <trkpt lat="43.16509" lon="2.37907">
        <ele>198.9</ele>
        <time>1970-01-01T00:16:56.000Z</time>
      </trkpt>
      <trkpt lat="43.16508" lon="2.37908">
        <ele>199</ele>
        <time>1970-01-01T00:16:58.000Z</time>
      </trkpt>
      <trkpt lat="43.16507" lon="2.37909">
        <ele>199</ele>
        <time>1970-01-01T00:16:59.000Z</time>
      </trkpt>
      <trkpt lat="43.16504" lon="2.3791">
        <ele>199</ele>
        <time>1970-01-01T00:17:01.000Z</time>
      </trkpt>
      <trkpt lat="43.16502" lon="2.37912">
        <ele>199</ele>
        <time>1970-01-01T00:17:02.000Z</time>
      </trkpt>
      <trkpt lat="43.16501" lon="2.37914">
        <ele>199</ele>
        <time>1970-01-01T00:17:03.000Z</time>
      </trkpt>
      <trkpt lat="43.16501" lon="2.37916">
        <ele>199</ele>
        <time>1970-01-01T00:17:05.000Z</time>
      </trkpt>
      <trkpt lat="43.16501" lon="2.37917">
        <ele>199</ele>
        <time>1970-01-01T00:17:06.000Z</time>
      </trkpt>
      <trkpt lat="43.16499" lon="2.37919">
        <ele>199</ele>
        <time>1970-01-01T00:17:07.000Z</time>
      </trkpt>
      <trkpt lat="43.16497" lon="2.37922">
        <ele>199</ele>
        <time>1970-01-01T00:17:09.000Z</time>
      </trkpt>
      <trkpt lat="43.16495" lon="2.37924">
        <ele>199</ele>
        <time>1970-01-01T00:17:10.000Z</time>
      </trkpt>
      <trkpt lat="43.16494" lon="2.37924">
        <ele>199</ele>
        <time>1970-01-01T00:17:11.000Z</time>
      </trkpt>
      <trkpt lat="43.16492" lon="2.37926">
        <ele>198.9</ele>
        <time>1970-01-01T00:17:12.000Z</time>
      </trkpt>
      <trkpt lat="43.1649" lon="2.37928">
        <ele>198.9</ele>
        <time>1970-01-01T00:17:14.000Z</time>
      </trkpt>
      <trkpt lat="43.16489" lon="2.3793">
        <ele>198.9</ele>
        <time>1970-01-01T00:17:15.000Z</time>
      </trkpt>
      <trkpt lat="43.16487" lon="2.37932">
        <ele>198.8</ele>
        <time>1970-01-01T00:17:16.000Z</time>
      </trkpt>
      <trkpt lat="43.16485" lon="2.37935">
        <ele>198.8</ele>
        <time>1970-01-01T00:17:18.000Z</time>
      </trkpt>
      <trkpt lat="43.16483" lon="2.37937">
        <ele>198.7</ele>
        <time>1970-01-01T00:17:19.000Z</time>
      </trkpt>
      <trkpt lat="43.1648" lon="2.37937">
        <ele>198.7</ele>
        <time>1970-01-01T00:17:20.000Z</time>
      </trkpt>
      <trkpt lat="43.16479" lon="2.37938">
        <ele>198.7</ele>
        <time>1970-01-01T00:17:21.000Z</time>
      </trkpt>
      <trkpt lat="43.16476" lon="2.3794">
        <ele>198.6</ele>
        <time>1970-01-01T00:17:23.000Z</time>
      </trkpt>
      <trkpt lat="43.16476" lon="2.37941">
        <ele>198.6</ele>
        <time>1970-01-01T00:17:24.000Z</time>
      </trkpt>
      <trkpt lat="43.16474" lon="2.37944">
        <ele>198.6</ele>
        <time>1970-01-01T00:17:25.000Z</time>
      </trkpt>
      <trkpt lat="43.16473" lon="2.37946">
        <ele>198.6</ele>
        <time>1970-01-01T00:17:26.000Z</time>
      </trkpt>
      <trkpt lat="43.16471" lon="2.37949">
        <ele>198.6</ele>
        <time>1970-01-01T00:17:27.000Z</time>
      </trkpt>
      <trkpt lat="43.1647" lon="2.37955">
        <ele>198.6</ele>
        <time>1970-01-01T00:17:29.000Z</time>
      </trkpt>
      <trkpt lat="43.1647" lon="2.37957">
        <ele>198.6</ele>
        <time>1970-01-01T00:17:30.000Z</time>
      </trkpt>
      <trkpt lat="43.16469" lon="2.37959">
        <ele>198.6</ele>
        <time>1970-01-01T00:17:31.000Z</time>
      </trkpt>
      <trkpt lat="43.16468" lon="2.37967">
        <ele>198.7</ele>
        <time>1970-01-01T00:17:33.000Z</time>
      </trkpt>
      <trkpt lat="43.16468" lon="2.37971">
        <ele>198.8</ele>
        <time>1970-01-01T00:17:34.000Z</time>
      </trkpt>
      <trkpt lat="43.16469" lon="2.37973">
        <ele>198.8</ele>
        <time>1970-01-01T00:17:35.000Z</time>
      </trkpt>
      <trkpt lat="43.16467" lon="2.37979">
        <ele>198.9</ele>
        <time>1970-01-01T00:17:37.000Z</time>
      </trkpt>
      <trkpt lat="43.16467" lon="2.37981">
        <ele>198.9</ele>
        <time>1970-01-01T00:17:38.000Z</time>
      </trkpt>
      <trkpt lat="43.16466" lon="2.37983">
        <ele>199</ele>
        <time>1970-01-01T00:17:39.000Z</time>
      </trkpt>
      <trkpt lat="43.16465" lon="2.37987">
        <ele>199</ele>
        <time>1970-01-01T00:17:40.000Z</time>
      </trkpt>
      <trkpt lat="43.16464" lon="2.37989">
        <ele>199.1</ele>
        <time>1970-01-01T00:17:41.000Z</time>
      </trkpt>
      <trkpt lat="43.16463" lon="2.37994">
        <ele>199.2</ele>
        <time>1970-01-01T00:17:42.000Z</time>
      </trkpt>
      <trkpt lat="43.16461" lon="2.37998">
        <ele>199.3</ele>
        <time>1970-01-01T00:17:44.000Z</time>
      </trkpt>
      <trkpt lat="43.16461" lon="2.38">
        <ele>199.3</ele>
        <time>1970-01-01T00:17:45.000Z</time>
      </trkpt>
      <trkpt lat="43.16461" lon="2.38003">
        <ele>199.4</ele>
        <time>1970-01-01T00:17:46.000Z</time>
      </trkpt>
      <trkpt lat="43.16462" lon="2.38009">
        <ele>199.6</ele>
        <time>1970-01-01T00:17:48.000Z</time>
      </trkpt>
      <trkpt lat="43.16463" lon="2.38014">
        <ele>199.7</ele>
        <time>1970-01-01T00:17:49.000Z</time>
      </trkpt>
      <trkpt lat="43.16463" lon="2.38016">
        <ele>199.8</ele>
        <time>1970-01-01T00:17:50.000Z</time>
      </trkpt>
      <trkpt lat="43.16462" lon="2.38021">
        <ele>200</ele>
        <time>1970-01-01T00:17:51.000Z</time>
      </trkpt>
      <trkpt lat="43.16461" lon="2.38023">
        <ele>200</ele>
        <time>1970-01-01T00:17:52.000Z</time>
      </trkpt>
      <trkpt lat="43.1646" lon="2.38025">
        <ele>200.1</ele>
        <time>1970-01-01T00:17:53.000Z</time>
      </trkpt>
      <trkpt lat="43.16458" lon="2.38028">
        <ele>200.2</ele>
        <time>1970-01-01T00:17:55.000Z</time>
      </trkpt>
      <trkpt lat="43.16456" lon="2.38031">
        <ele>200.4</ele>
        <time>1970-01-01T00:17:56.000Z</time>
      </trkpt>
      <trkpt lat="43.16454" lon="2.38039">
        <ele>200.7</ele>
        <time>1970-01-01T00:17:58.000Z</time>
      </trkpt>
      <trkpt lat="43.16453" lon="2.38041">
        <ele>200.8</ele>
        <time>1970-01-01T00:17:59.000Z</time>
      </trkpt>
      <trkpt lat="43.16452" lon="2.38043">
        <ele>200.8</ele>
        <time>1970-01-01T00:18:00.000Z</time>
      </trkpt>
      <trkpt lat="43.16451" lon="2.38047">
        <ele>201</ele>
        <time>1970-01-01T00:18:01.000Z</time>
      </trkpt>
      <trkpt lat="43.16451" lon="2.38049">
        <ele>201.1</ele>
        <time>1970-01-01T00:18:02.000Z</time>
      </trkpt>
      <trkpt lat="43.16449" lon="2.38053">
        <ele>201.3</ele>
        <time>1970-01-01T00:18:04.000Z</time>
      </trkpt>
      <trkpt lat="43.16449" lon="2.38054">
        <ele>201.3</ele>
        <time>1970-01-01T00:18:05.000Z</time>
      </trkpt>
      <trkpt lat="43.16447" lon="2.38056">
        <ele>201.5</ele>
        <time>1970-01-01T00:18:06.000Z</time>
      </trkpt>
      <trkpt lat="43.16443" lon="2.3806">
        <ele>201.7</ele>
        <time>1970-01-01T00:18:08.000Z</time>
      </trkpt>
      <trkpt lat="43.1644" lon="2.3806">
        <ele>201.9</ele>
        <time>1970-01-01T00:18:09.000Z</time>
      </trkpt>
      <trkpt lat="43.16439" lon="2.38061">
        <ele>202</ele>
        <time>1970-01-01T00:18:10.000Z</time>
      </trkpt>
      <trkpt lat="43.16436" lon="2.38062">
        <ele>202.2</ele>
        <time>1970-01-01T00:18:11.000Z</time>
      </trkpt>
      <trkpt lat="43.16434" lon="2.38062">
        <ele>202.3</ele>
        <time>1970-01-01T00:18:12.000Z</time>
      </trkpt>
      <trkpt lat="43.16431" lon="2.3806">
        <ele>202.6</ele>
        <time>1970-01-01T00:18:14.000Z</time>
      </trkpt>
      <trkpt lat="43.1643" lon="2.3806">
        <ele>202.7</ele>
        <time>1970-01-01T00:18:15.000Z</time>
      </trkpt>
      <trkpt lat="43.16427" lon="2.38059">
        <ele>202.9</ele>
        <time>1970-01-01T00:18:16.000Z</time>
      </trkpt>
      <trkpt lat="43.16424" lon="2.38057">
        <ele>203.2</ele>
        <time>1970-01-01T00:18:17.000Z</time>
      </trkpt>
      <trkpt lat="43.16421" lon="2.38054">
        <ele>203.6</ele>
        <time>1970-01-01T00:18:19.000Z</time>
      </trkpt>
      <trkpt lat="43.1642" lon="2.38053">
        <ele>203.7</ele>
        <time>1970-01-01T00:18:20.000Z</time>
      </trkpt>
      <trkpt lat="43.16419" lon="2.3805">
        <ele>203.9</ele>
        <time>1970-01-01T00:18:21.000Z</time>
      </trkpt>
      <trkpt lat="43.16418" lon="2.38047">
        <ele>204.3</ele>
        <time>1970-01-01T00:18:23.000Z</time>
      </trkpt>
      <trkpt lat="43.16417" lon="2.38043">
        <ele>204.7</ele>
        <time>1970-01-01T00:18:24.000Z</time>
      </trkpt>
      <trkpt lat="43.16416" lon="2.38041">
        <ele>204.9</ele>
        <time>1970-01-01T00:18:25.000Z</time>
      </trkpt>
      <trkpt lat="43.16414" lon="2.38038">
        <ele>205.4</ele>
        <time>1970-01-01T00:18:27.000Z</time>
      </trkpt>
      <trkpt lat="43.16412" lon="2.38037">
        <ele>205.7</ele>
        <time>1970-01-01T00:18:28.000Z</time>
      </trkpt>
      <trkpt lat="43.16411" lon="2.38036">
        <ele>205.9</ele>
        <time>1970-01-01T00:18:29.000Z</time>
      </trkpt>
      <trkpt lat="43.16409" lon="2.38035">
        <ele>206.3</ele>
        <time>1970-01-01T00:18:31.000Z</time>
      </trkpt>
      <trkpt lat="43.16404" lon="2.38036">
        <ele>207.1</ele>
        <time>1970-01-01T00:18:33.000Z</time>
      </trkpt>
      <trkpt lat="43.16402" lon="2.38037">
        <ele>207.4</ele>
        <time>1970-01-01T00:18:34.000Z</time>
      </trkpt>
      <trkpt lat="43.16401" lon="2.38039">
        <ele>207.8</ele>
        <time>1970-01-01T00:18:36.000Z</time>
      </trkpt>
      <trkpt lat="43.16398" lon="2.38039">
        <ele>208.2</ele>
        <time>1970-01-01T00:18:37.000Z</time>
      </trkpt>
      <trkpt lat="43.16397" lon="2.38039">
        <ele>208.4</ele>
        <time>1970-01-01T00:18:38.000Z</time>
      </trkpt>
      <trkpt lat="43.16396" lon="2.38038">
        <ele>208.6</ele>
        <time>1970-01-01T00:18:40.000Z</time>
      </trkpt>
      <trkpt lat="43.16395" lon="2.38037">
        <ele>208.7</ele>
        <time>1970-01-01T00:18:41.000Z</time>
      </trkpt>
      <trkpt lat="43.16393" lon="2.38036">
        <ele>209.1</ele>
        <time>1970-01-01T00:18:43.000Z</time>
      </trkpt>
      <trkpt lat="43.16391" lon="2.38035">
        <ele>209.2</ele>
        <time>1970-01-01T00:18:44.000Z</time>
      </trkpt>
      <trkpt lat="43.1639" lon="2.38034">
        <ele>209.4</ele>
        <time>1970-01-01T00:18:45.000Z</time>
      </trkpt>
      <trkpt lat="43.16389" lon="2.38034">
        <ele>209.5</ele>
        <time>1970-01-01T00:18:47.000Z</time>
      </trkpt>
      <trkpt lat="43.16387" lon="2.38034">
        <ele>209.7</ele>
        <time>1970-01-01T00:18:48.000Z</time>
      </trkpt>
      <trkpt lat="43.16385" lon="2.38034">
        <ele>209.8</ele>
        <time>1970-01-01T00:18:49.000Z</time>
      </trkpt>
      <trkpt lat="43.16384" lon="2.38033">
        <ele>209.9</ele>
        <time>1970-01-01T00:18:50.000Z</time>
      </trkpt>
      <trkpt lat="43.16382" lon="2.38033">
        <ele>210.1</ele>
        <time>1970-01-01T00:18:52.000Z</time>
      </trkpt>
      <trkpt lat="43.1638" lon="2.38033">
        <ele>210.3</ele>
        <time>1970-01-01T00:18:53.000Z</time>
      </trkpt>
      <trkpt lat="43.16379" lon="2.38031">
        <ele>210.4</ele>
        <time>1970-01-01T00:18:55.000Z</time>
      </trkpt>
      <trkpt lat="43.16376" lon="2.38028">
        <ele>210.7</ele>
        <time>1970-01-01T00:18:57.000Z</time>
      </trkpt>
      <trkpt lat="43.16375" lon="2.38027">
        <ele>210.8</ele>
        <time>1970-01-01T00:18:58.000Z</time>
      </trkpt>
      <trkpt lat="43.16373" lon="2.38026">
        <ele>210.9</ele>
        <time>1970-01-01T00:18:59.000Z</time>
      </trkpt>
      <trkpt lat="43.16372" lon="2.38025">
        <ele>211</ele>
        <time>1970-01-01T00:19:01.000Z</time>
      </trkpt>
      <trkpt lat="43.16372" lon="2.38025">
        <ele>211.1</ele>
        <time>1970-01-01T00:19:02.000Z</time>
      </trkpt>
      <trkpt lat="43.1637" lon="2.38025">
        <ele>211.2</ele>
        <time>1970-01-01T00:19:03.000Z</time>
      </trkpt>
      <trkpt lat="43.16369" lon="2.38025">
        <ele>211.2</ele>
        <time>1970-01-01T00:19:05.000Z</time>
      </trkpt>
      <trkpt lat="43.1637" lon="2.38023">
        <ele>211.3</ele>
        <time>1970-01-01T00:19:06.000Z</time>
      </trkpt>
      <trkpt lat="43.16367" lon="2.38022">
        <ele>211.5</ele>
        <time>1970-01-01T00:19:08.000Z</time>
      </trkpt>
      <trkpt lat="43.16365" lon="2.38023">
        <ele>211.6</ele>
        <time>1970-01-01T00:19:10.000Z</time>
      </trkpt>
      <trkpt lat="43.16364" lon="2.38023">
        <ele>211.6</ele>
        <time>1970-01-01T00:19:11.000Z</time>
      </trkpt>
      <trkpt lat="43.16361" lon="2.38024">
        <ele>211.8</ele>
        <time>1970-01-01T00:19:12.000Z</time>
      </trkpt>
      <trkpt lat="43.16359" lon="2.38025">
        <ele>211.8</ele>
        <time>1970-01-01T00:19:14.000Z</time>
      </trkpt>
      <trkpt lat="43.16358" lon="2.38025">
        <ele>211.9</ele>
        <time>1970-01-01T00:19:15.000Z</time>
      </trkpt>
      <trkpt lat="43.16356" lon="2.38026">
        <ele>211.9</ele>
        <time>1970-01-01T00:19:16.000Z</time>
      </trkpt>
      <trkpt lat="43.16351" lon="2.38029">
        <ele>211.9</ele>
        <time>1970-01-01T00:19:18.000Z</time>
      </trkpt>
      <trkpt lat="43.1635" lon="2.3803">
        <ele>211.9</ele>
        <time>1970-01-01T00:19:19.000Z</time>
      </trkpt>
      <trkpt lat="43.16348" lon="2.38031">
        <ele>211.9</ele>
        <time>1970-01-01T00:19:20.000Z</time>
      </trkpt>
      <trkpt lat="43.16345" lon="2.38034">
        <ele>211.8</ele>
        <time>1970-01-01T00:19:22.000Z</time>
      </trkpt>
      <trkpt lat="43.16342" lon="2.38036">
        <ele>211.7</ele>
        <time>1970-01-01T00:19:23.000Z</time>
      </trkpt>
      <trkpt lat="43.1634" lon="2.38039">
        <ele>211.6</ele>
        <time>1970-01-01T00:19:25.000Z</time>
      </trkpt>
      <trkpt lat="43.16336" lon="2.38043">
        <ele>211.5</ele>
        <time>1970-01-01T00:19:26.000Z</time>
      </trkpt>
      <trkpt lat="43.16332" lon="2.38046">
        <ele>211.5</ele>
        <time>1970-01-01T00:19:28.000Z</time>
      </trkpt>
      <trkpt lat="43.1633" lon="2.38047">
        <ele>211.5</ele>
        <time>1970-01-01T00:19:29.000Z</time>
      </trkpt>
      <trkpt lat="43.16329" lon="2.38048">
        <ele>211.5</ele>
        <time>1970-01-01T00:19:30.000Z</time>
      </trkpt>
      <trkpt lat="43.16326" lon="2.38049">
        <ele>211.5</ele>
        <time>1970-01-01T00:19:31.000Z</time>
      </trkpt>
      <trkpt lat="43.16322" lon="2.38049">
        <ele>211.7</ele>
        <time>1970-01-01T00:19:33.000Z</time>
      </trkpt>
      <trkpt lat="43.16321" lon="2.38049">
        <ele>211.7</ele>
        <time>1970-01-01T00:19:34.000Z</time>
      </trkpt>
      <trkpt lat="43.16317" lon="2.38051">
        <ele>212</ele>
        <time>1970-01-01T00:19:36.000Z</time>
      </trkpt>
      <trkpt lat="43.16316" lon="2.38052">
        <ele>212.1</ele>
        <time>1970-01-01T00:19:37.000Z</time>
      </trkpt>
      <trkpt lat="43.16314" lon="2.38052">
        <ele>212.3</ele>
        <time>1970-01-01T00:19:38.000Z</time>
      </trkpt>
      <trkpt lat="43.16312" lon="2.3805">
        <ele>212.6</ele>
        <time>1970-01-01T00:19:40.000Z</time>
      </trkpt>
      <trkpt lat="43.16311" lon="2.38046">
        <ele>213</ele>
        <time>1970-01-01T00:19:42.000Z</time>
      </trkpt>
      <trkpt lat="43.1631" lon="2.38043">
        <ele>213.2</ele>
        <time>1970-01-01T00:19:43.000Z</time>
      </trkpt>
      <trkpt lat="43.1631" lon="2.38041">
        <ele>213.4</ele>
        <time>1970-01-01T00:19:44.000Z</time>
      </trkpt>
      <trkpt lat="43.16307" lon="2.38037">
        <ele>214</ele>
        <time>1970-01-01T00:19:46.000Z</time>
      </trkpt>
      <trkpt lat="43.16307" lon="2.38036">
        <ele>214.2</ele>
        <time>1970-01-01T00:19:47.000Z</time>
      </trkpt>
      <trkpt lat="43.16306" lon="2.38036">
        <ele>214.3</ele>
        <time>1970-01-01T00:19:49.000Z</time>
      </trkpt>
      <trkpt lat="43.16305" lon="2.38035">
        <ele>214.5</ele>
        <time>1970-01-01T00:19:50.000Z</time>
      </trkpt>
      <trkpt lat="43.16303" lon="2.38034">
        <ele>214.7</ele>
        <time>1970-01-01T00:19:51.000Z</time>
      </trkpt>
      <trkpt lat="43.16302" lon="2.38034">
        <ele>214.9</ele>
        <time>1970-01-01T00:19:52.000Z</time>
      </trkpt>
      <trkpt lat="43.16301" lon="2.38035">
        <ele>215.1</ele>
        <time>1970-01-01T00:19:54.000Z</time>
      </trkpt>
      <trkpt lat="43.16299" lon="2.38039">
        <ele>215.6</ele>
        <time>1970-01-01T00:19:55.000Z</time>
      </trkpt>
      <trkpt lat="43.16298" lon="2.38041">
        <ele>215.7</ele>
        <time>1970-01-01T00:19:56.000Z</time>
      </trkpt>
      <trkpt lat="43.16297" lon="2.38043">
        <ele>215.9</ele>
        <time>1970-01-01T00:19:58.000Z</time>
      </trkpt>
      <trkpt lat="43.16295" lon="2.38044">
        <ele>216.2</ele>
        <time>1970-01-01T00:19:59.000Z</time>
      </trkpt>
      <trkpt lat="43.16294" lon="2.38045">
        <ele>216.3</ele>
        <time>1970-01-01T00:20:00.000Z</time>
      </trkpt>
      <trkpt lat="43.16293" lon="2.38046">
        <ele>216.5</ele>
        <time>1970-01-01T00:20:02.000Z</time>
      </trkpt>
      <trkpt lat="43.16291" lon="2.38048">
        <ele>216.7</ele>
        <time>1970-01-01T00:20:03.000Z</time>
      </trkpt>
      <trkpt lat="43.16289" lon="2.38051">
        <ele>216.9</ele>
        <time>1970-01-01T00:20:05.000Z</time>
      </trkpt>
      <trkpt lat="43.16287" lon="2.38054">
        <ele>217.2</ele>
        <time>1970-01-01T00:20:06.000Z</time>
      </trkpt>
      <trkpt lat="43.16286" lon="2.38058">
        <ele>217.5</ele>
        <time>1970-01-01T00:20:08.000Z</time>
      </trkpt>
      <trkpt lat="43.16284" lon="2.38062">
        <ele>217.8</ele>
        <time>1970-01-01T00:20:09.000Z</time>
      </trkpt>
      <trkpt lat="43.16283" lon="2.38063">
        <ele>217.9</ele>
        <time>1970-01-01T00:20:10.000Z</time>
      </trkpt>
      <trkpt lat="43.16282" lon="2.38064">
        <ele>218</ele>
        <time>1970-01-01T00:20:11.000Z</time>
      </trkpt>
      <trkpt lat="43.16281" lon="2.38066">
        <ele>218.3</ele>
        <time>1970-01-01T00:20:12.000Z</time>
      </trkpt>
      <trkpt lat="43.16278" lon="2.38068">
        <ele>218.6</ele>
        <time>1970-01-01T00:20:14.000Z</time>
      </trkpt>
      <trkpt lat="43.16277" lon="2.38068">
        <ele>218.7</ele>
        <time>1970-01-01T00:20:15.000Z</time>
      </trkpt>
      <trkpt lat="43.16276" lon="2.38068">
        <ele>218.8</ele>
        <time>1970-01-01T00:20:16.000Z</time>
      </trkpt>
      <trkpt lat="43.16274" lon="2.38069">
        <ele>219</ele>
        <time>1970-01-01T00:20:17.000Z</time>
      </trkpt>
      <trkpt lat="43.16273" lon="2.3807">
        <ele>219.2</ele>
        <time>1970-01-01T00:20:19.000Z</time>
      </trkpt>
      <trkpt lat="43.16271" lon="2.38071">
        <ele>219.4</ele>
        <time>1970-01-01T00:20:20.000Z</time>
      </trkpt>
      <trkpt lat="43.16272" lon="2.38075">
        <ele>219.8</ele>
        <time>1970-01-01T00:20:22.000Z</time>
      </trkpt>
      <trkpt lat="43.16272" lon="2.38077">
        <ele>220</ele>
        <time>1970-01-01T00:20:23.000Z</time>
      </trkpt>
      <trkpt lat="43.16272" lon="2.38083">
        <ele>220.6</ele>
        <time>1970-01-01T00:20:25.000Z</time>
      </trkpt>
      <trkpt lat="43.16272" lon="2.38085">
        <ele>220.8</ele>
        <time>1970-01-01T00:20:26.000Z</time>
      </trkpt>
      <trkpt lat="43.16271" lon="2.38087">
        <ele>221</ele>
        <time>1970-01-01T00:20:28.000Z</time>
      </trkpt>
      <trkpt lat="43.16271" lon="2.38089">
        <ele>221.2</ele>
        <time>1970-01-01T00:20:29.000Z</time>
      </trkpt>
      <trkpt lat="43.1627" lon="2.38091">
        <ele>221.4</ele>
        <time>1970-01-01T00:20:30.000Z</time>
      </trkpt>
      <trkpt lat="43.16269" lon="2.38095">
        <ele>221.9</ele>
        <time>1970-01-01T00:20:32.000Z</time>
      </trkpt>
      <trkpt lat="43.16268" lon="2.38097">
        <ele>222.1</ele>
        <time>1970-01-01T00:20:33.000Z</time>
      </trkpt>
      <trkpt lat="43.16266" lon="2.381">
        <ele>222.6</ele>
        <time>1970-01-01T00:20:35.000Z</time>
      </trkpt>
      <trkpt lat="43.16265" lon="2.38102">
        <ele>222.8</ele>
        <time>1970-01-01T00:20:36.000Z</time>
      </trkpt>
      <trkpt lat="43.16264" lon="2.38105">
        <ele>223.2</ele>
        <time>1970-01-01T00:20:38.000Z</time>
      </trkpt>
      <trkpt lat="43.16264" lon="2.38107">
        <ele>223.5</ele>
        <time>1970-01-01T00:20:39.000Z</time>
      </trkpt>
      <trkpt lat="43.16263" lon="2.38111">
        <ele>223.9</ele>
        <time>1970-01-01T00:20:41.000Z</time>
      </trkpt>
      <trkpt lat="43.16262" lon="2.38113">
        <ele>224.2</ele>
        <time>1970-01-01T00:20:42.000Z</time>
      </trkpt>
      <trkpt lat="43.1626" lon="2.38114">
        <ele>224.5</ele>
        <time>1970-01-01T00:20:43.000Z</time>
      </trkpt>
      <trkpt lat="43.16259" lon="2.38115">
        <ele>224.8</ele>
        <time>1970-01-01T00:20:44.000Z</time>
      </trkpt>
      <trkpt lat="43.16257" lon="2.38116">
        <ele>225.2</ele>
        <time>1970-01-01T00:20:46.000Z</time>
      </trkpt>
      <trkpt lat="43.16253" lon="2.38119">
        <ele>226</ele>
        <time>1970-01-01T00:20:48.000Z</time>
      </trkpt>
      <trkpt lat="43.16252" lon="2.38121">
        <ele>226.3</ele>
        <time>1970-01-01T00:20:49.000Z</time>
      </trkpt>
      <trkpt lat="43.16251" lon="2.38122">
        <ele>226.6</ele>
        <time>1970-01-01T00:20:50.000Z</time>
      </trkpt>
      <trkpt lat="43.16249" lon="2.38124">
        <ele>227.1</ele>
        <time>1970-01-01T00:20:52.000Z</time>
      </trkpt>
      <trkpt lat="43.16247" lon="2.38125">
        <ele>227.4</ele>
        <time>1970-01-01T00:20:53.000Z</time>
      </trkpt>
      <trkpt lat="43.16245" lon="2.38126">
        <ele>227.8</ele>
        <time>1970-01-01T00:20:55.000Z</time>
      </trkpt>
      <trkpt lat="43.16244" lon="2.38127">
        <ele>228.2</ele>
        <time>1970-01-01T00:20:56.000Z</time>
      </trkpt>
      <trkpt lat="43.16242" lon="2.38127">
        <ele>228.5</ele>
        <time>1970-01-01T00:20:57.000Z</time>
      </trkpt>
      <trkpt lat="43.16241" lon="2.38128">
        <ele>228.8</ele>
        <time>1970-01-01T00:20:59.000Z</time>
      </trkpt>
      <trkpt lat="43.16239" lon="2.38129">
        <ele>229</ele>
        <time>1970-01-01T00:21:00.000Z</time>
      </trkpt>
      <trkpt lat="43.16238" lon="2.38129">
        <ele>229.2</ele>
        <time>1970-01-01T00:21:01.000Z</time>
      </trkpt>
      <trkpt lat="43.16237" lon="2.3813">
        <ele>229.5</ele>
        <time>1970-01-01T00:21:03.000Z</time>
      </trkpt>
      <trkpt lat="43.16235" lon="2.38131">
        <ele>229.8</ele>
        <time>1970-01-01T00:21:04.000Z</time>
      </trkpt>
      <trkpt lat="43.16235" lon="2.38132">
        <ele>229.8</ele>
        <time>1970-01-01T00:21:06.000Z</time>
      </trkpt>
      <trkpt lat="43.16234" lon="2.38133">
        <ele>230.1</ele>
        <time>1970-01-01T00:21:07.000Z</time>
      </trkpt>
      <trkpt lat="43.16231" lon="2.38134">
        <ele>230.5</ele>
        <time>1970-01-01T00:21:09.000Z</time>
      </trkpt>
      <trkpt lat="43.1623" lon="2.38135">
        <ele>230.6</ele>
        <time>1970-01-01T00:21:10.000Z</time>
      </trkpt>
      <trkpt lat="43.16229" lon="2.38136">
        <ele>230.9</ele>
        <time>1970-01-01T00:21:11.000Z</time>
      </trkpt>
      <trkpt lat="43.16227" lon="2.38138">
        <ele>231.1</ele>
        <time>1970-01-01T00:21:13.000Z</time>
      </trkpt>
      <trkpt lat="43.16226" lon="2.38139">
        <ele>231.3</ele>
        <time>1970-01-01T00:21:14.000Z</time>
      </trkpt>
      <trkpt lat="43.16223" lon="2.38141">
        <ele>231.6</ele>
        <time>1970-01-01T00:21:16.000Z</time>
      </trkpt>
      <trkpt lat="43.16222" lon="2.38142">
        <ele>231.8</ele>
        <time>1970-01-01T00:21:17.000Z</time>
      </trkpt>
      <trkpt lat="43.16221" lon="2.38144">
        <ele>231.9</ele>
        <time>1970-01-01T00:21:18.000Z</time>
      </trkpt>
      <trkpt lat="43.1622" lon="2.38145">
        <ele>232.1</ele>
        <time>1970-01-01T00:21:20.000Z</time>
      </trkpt>
      <trkpt lat="43.16218" lon="2.38146">
        <ele>232.3</ele>
        <time>1970-01-01T00:21:21.000Z</time>
      </trkpt>
      <trkpt lat="43.16215" lon="2.38148">
        <ele>232.6</ele>
        <time>1970-01-01T00:21:23.000Z</time>
      </trkpt>
      <trkpt lat="43.16212" lon="2.38151">
        <ele>233</ele>
        <time>1970-01-01T00:21:25.000Z</time>
      </trkpt>
      <trkpt lat="43.1621" lon="2.38152">
        <ele>233.2</ele>
        <time>1970-01-01T00:21:26.000Z</time>
      </trkpt>
      <trkpt lat="43.16209" lon="2.38153">
        <ele>233.3</ele>
        <time>1970-01-01T00:21:27.000Z</time>
      </trkpt>
      <trkpt lat="43.16206" lon="2.38156">
        <ele>233.7</ele>
        <time>1970-01-01T00:21:29.000Z</time>
      </trkpt>
      <trkpt lat="43.16205" lon="2.38157">
        <ele>233.8</ele>
        <time>1970-01-01T00:21:30.000Z</time>
      </trkpt>
      <trkpt lat="43.16204" lon="2.38158">
        <ele>234</ele>
        <time>1970-01-01T00:21:31.000Z</time>
      </trkpt>
      <trkpt lat="43.16202" lon="2.38159">
        <ele>234.1</ele>
        <time>1970-01-01T00:21:32.000Z</time>
      </trkpt>
      <trkpt lat="43.16199" lon="2.38162">
        <ele>234.4</ele>
        <time>1970-01-01T00:21:34.000Z</time>
      </trkpt>
      <trkpt lat="43.16198" lon="2.38163">
        <ele>234.5</ele>
        <time>1970-01-01T00:21:35.000Z</time>
      </trkpt>
      <trkpt lat="43.16196" lon="2.38165">
        <ele>234.8</ele>
        <time>1970-01-01T00:21:37.000Z</time>
      </trkpt>
      <trkpt lat="43.16195" lon="2.38167">
        <ele>234.9</ele>
        <time>1970-01-01T00:21:38.000Z</time>
      </trkpt>
      <trkpt lat="43.16194" lon="2.38169">
        <ele>235</ele>
        <time>1970-01-01T00:21:39.000Z</time>
      </trkpt>
      <trkpt lat="43.16193" lon="2.38172">
        <ele>235.1</ele>
        <time>1970-01-01T00:21:41.000Z</time>
      </trkpt>
      <trkpt lat="43.16192" lon="2.38173">
        <ele>235.1</ele>
        <time>1970-01-01T00:21:42.000Z</time>
      </trkpt>
      <trkpt lat="43.16191" lon="2.38177">
        <ele>235.2</ele>
        <time>1970-01-01T00:21:44.000Z</time>
      </trkpt>
      <trkpt lat="43.1619" lon="2.38179">
        <ele>235.2</ele>
        <time>1970-01-01T00:21:45.000Z</time>
      </trkpt>
      <trkpt lat="43.1619" lon="2.38182">
        <ele>235.3</ele>
        <time>1970-01-01T00:21:47.000Z</time>
      </trkpt>
      <trkpt lat="43.16188" lon="2.38186">
        <ele>235.3</ele>
        <time>1970-01-01T00:21:48.000Z</time>
      </trkpt>
      <trkpt lat="43.16188" lon="2.38187">
        <ele>235.3</ele>
        <time>1970-01-01T00:21:49.000Z</time>
      </trkpt>
      <trkpt lat="43.16185" lon="2.38193">
        <ele>235.2</ele>
        <time>1970-01-01T00:21:51.000Z</time>
      </trkpt>
      <trkpt lat="43.16184" lon="2.38195">
        <ele>235.1</ele>
        <time>1970-01-01T00:21:52.000Z</time>
      </trkpt>
      <trkpt lat="43.16183" lon="2.38197">
        <ele>235.1</ele>
        <time>1970-01-01T00:21:53.000Z</time>
      </trkpt>
      <trkpt lat="43.16181" lon="2.382">
        <ele>235.1</ele>
        <time>1970-01-01T00:21:55.000Z</time>
      </trkpt>
      <trkpt lat="43.16179" lon="2.38203">
        <ele>235</ele>
        <time>1970-01-01T00:21:56.000Z</time>
      </trkpt>
      <trkpt lat="43.16178" lon="2.38205">
        <ele>235</ele>
        <time>1970-01-01T00:21:57.000Z</time>
      </trkpt>
      <trkpt lat="43.16176" lon="2.38208">
        <ele>235</ele>
        <time>1970-01-01T00:21:59.000Z</time>
      </trkpt>
      <trkpt lat="43.16174" lon="2.3821">
        <ele>235</ele>
        <time>1970-01-01T00:22:00.000Z</time>
      </trkpt>
      <trkpt lat="43.16171" lon="2.38213">
        <ele>235</ele>
        <time>1970-01-01T00:22:01.000Z</time>
      </trkpt>
      <trkpt lat="43.16169" lon="2.38215">
        <ele>235</ele>
        <time>1970-01-01T00:22:03.000Z</time>
      </trkpt>
      <trkpt lat="43.16168" lon="2.38216">
        <ele>235</ele>
        <time>1970-01-01T00:22:04.000Z</time>
      </trkpt>
      <trkpt lat="43.16165" lon="2.38217">
        <ele>235</ele>
        <time>1970-01-01T00:22:05.000Z</time>
      </trkpt>
      <trkpt lat="43.16162" lon="2.38218">
        <ele>235</ele>
        <time>1970-01-01T00:22:06.000Z</time>
      </trkpt>
      <trkpt lat="43.1616" lon="2.38218">
        <ele>235</ele>
        <time>1970-01-01T00:22:07.000Z</time>
      </trkpt>
      <trkpt lat="43.16158" lon="2.38218">
        <ele>235</ele>
        <time>1970-01-01T00:22:09.000Z</time>
      </trkpt>
      <trkpt lat="43.16155" lon="2.38219">
        <ele>234.9</ele>
        <time>1970-01-01T00:22:10.000Z</time>
      </trkpt>
      <trkpt lat="43.16152" lon="2.38219">
        <ele>234.9</ele>
        <time>1970-01-01T00:22:11.000Z</time>
      </trkpt>
      <trkpt lat="43.16148" lon="2.38219">
        <ele>234.7</ele>
        <time>1970-01-01T00:22:13.000Z</time>
      </trkpt>
      <trkpt lat="43.16147" lon="2.38219">
        <ele>234.7</ele>
        <time>1970-01-01T00:22:14.000Z</time>
      </trkpt>
      <trkpt lat="43.16143" lon="2.38217">
        <ele>234.5</ele>
        <time>1970-01-01T00:22:16.000Z</time>
      </trkpt>
      <trkpt lat="43.16141" lon="2.38217">
        <ele>234.4</ele>
        <time>1970-01-01T00:22:17.000Z</time>
      </trkpt>
      <trkpt lat="43.1614" lon="2.38216">
        <ele>234.3</ele>
        <time>1970-01-01T00:22:18.000Z</time>
      </trkpt>
      <trkpt lat="43.16137" lon="2.38215">
        <ele>234.1</ele>
        <time>1970-01-01T00:22:20.000Z</time>
      </trkpt>
      <trkpt lat="43.16136" lon="2.38214">
        <ele>234</ele>
        <time>1970-01-01T00:22:21.000Z</time>
      </trkpt>
      <trkpt lat="43.16133" lon="2.38213">
        <ele>233.8</ele>
        <time>1970-01-01T00:22:22.000Z</time>
      </trkpt>
      <trkpt lat="43.16131" lon="2.38213">
        <ele>233.7</ele>
        <time>1970-01-01T00:22:23.000Z</time>
      </trkpt>
      <trkpt lat="43.16127" lon="2.38212">
        <ele>233.3</ele>
        <time>1970-01-01T00:22:25.000Z</time>
      </trkpt>
      <trkpt lat="43.16125" lon="2.38212">
        <ele>233.2</ele>
        <time>1970-01-01T00:22:26.000Z</time>
      </trkpt>
      <trkpt lat="43.16124" lon="2.38212">
        <ele>233.1</ele>
        <time>1970-01-01T00:22:27.000Z</time>
      </trkpt>
      <trkpt lat="43.1612" lon="2.38211">
        <ele>232.8</ele>
        <time>1970-01-01T00:22:29.000Z</time>
      </trkpt>
      <trkpt lat="43.16118" lon="2.38211">
        <ele>232.6</ele>
        <time>1970-01-01T00:22:30.000Z</time>
      </trkpt>
      <trkpt lat="43.16117" lon="2.38211">
        <ele>232.5</ele>
        <time>1970-01-01T00:22:31.000Z</time>
      </trkpt>
      <trkpt lat="43.16115" lon="2.38211">
        <ele>232.4</ele>
        <time>1970-01-01T00:22:32.000Z</time>
      </trkpt>
      <trkpt lat="43.16112" lon="2.38212">
        <ele>232.2</ele>
        <time>1970-01-01T00:22:34.000Z</time>
      </trkpt>
      <trkpt lat="43.16108" lon="2.38214">
        <ele>231.8</ele>
        <time>1970-01-01T00:22:35.000Z</time>
      </trkpt>
      <trkpt lat="43.16106" lon="2.38214">
        <ele>231.1</ele>
        <time>1970-01-01T00:22:36.000Z</time>
      </trkpt>
      <trkpt lat="43.16102" lon="2.38216">
        <ele>231.1</ele>
        <time>1970-01-01T00:22:38.000Z</time>
      </trkpt>
      <trkpt lat="43.16101" lon="2.38216">
        <ele>231.1</ele>
        <time>1970-01-01T00:22:39.000Z</time>
      </trkpt>
      <trkpt lat="43.16098" lon="2.38217">
        <ele>230.7</ele>
        <time>1970-01-01T00:22:40.000Z</time>
      </trkpt>
      <trkpt lat="43.16095" lon="2.38217">
        <ele>230.6</ele>
        <time>1970-01-01T00:22:41.000Z</time>
      </trkpt>
      <trkpt lat="43.16092" lon="2.38215">
        <ele>230.5</ele>
        <time>1970-01-01T00:22:43.000Z</time>
      </trkpt>
      <trkpt lat="43.16091" lon="2.38214">
        <ele>230.5</ele>
        <time>1970-01-01T00:22:44.000Z</time>
      </trkpt>
      <trkpt lat="43.16088" lon="2.3821">
        <ele>230.4</ele>
        <time>1970-01-01T00:22:45.000Z</time>
      </trkpt>
      <trkpt lat="43.16086" lon="2.38209">
        <ele>230.4</ele>
        <time>1970-01-01T00:22:46.000Z</time>
      </trkpt>
      <trkpt lat="43.16083" lon="2.38206">
        <ele>230.4</ele>
        <time>1970-01-01T00:22:48.000Z</time>
      </trkpt>
      <trkpt lat="43.16082" lon="2.38205">
        <ele>230.4</ele>
        <time>1970-01-01T00:22:49.000Z</time>
      </trkpt>
      <trkpt lat="43.1608" lon="2.38203">
        <ele>230.4</ele>
        <time>1970-01-01T00:22:50.000Z</time>
      </trkpt>
      <trkpt lat="43.16077" lon="2.382">
        <ele>230.4</ele>
        <time>1970-01-01T00:22:51.000Z</time>
      </trkpt>
      <trkpt lat="43.16074" lon="2.38197">
        <ele>230.4</ele>
        <time>1970-01-01T00:22:53.000Z</time>
      </trkpt>
      <trkpt lat="43.16073" lon="2.38196">
        <ele>230.4</ele>
        <time>1970-01-01T00:22:54.000Z</time>
      </trkpt>
      <trkpt lat="43.16071" lon="2.38195">
        <ele>230.3</ele>
        <time>1970-01-01T00:22:55.000Z</time>
      </trkpt>
      <trkpt lat="43.16068" lon="2.38191">
        <ele>230.2</ele>
        <time>1970-01-01T00:22:57.000Z</time>
      </trkpt>
      <trkpt lat="43.16065" lon="2.38188">
        <ele>230.1</ele>
        <time>1970-01-01T00:22:58.000Z</time>
      </trkpt>
      <trkpt lat="43.16064" lon="2.38188">
        <ele>230.1</ele>
        <time>1970-01-01T00:22:59.000Z</time>
      </trkpt>
      <trkpt lat="43.16061" lon="2.38187">
        <ele>229.9</ele>
        <time>1970-01-01T00:23:01.000Z</time>
      </trkpt>
      <trkpt lat="43.1606" lon="2.38186">
        <ele>229.9</ele>
        <time>1970-01-01T00:23:02.000Z</time>
      </trkpt>
      <trkpt lat="43.16057" lon="2.38188">
        <ele>229.7</ele>
        <time>1970-01-01T00:23:03.000Z</time>
      </trkpt>
      <trkpt lat="43.16056" lon="2.38189">
        <ele>229.6</ele>
        <time>1970-01-01T00:23:04.000Z</time>
      </trkpt>
      <trkpt lat="43.16054" lon="2.38191">
        <ele>229.5</ele>
        <time>1970-01-01T00:23:06.000Z</time>
      </trkpt>
      <trkpt lat="43.16051" lon="2.38193">
        <ele>229.3</ele>
        <time>1970-01-01T00:23:07.000Z</time>
      </trkpt>
      <trkpt lat="43.16049" lon="2.38193">
        <ele>229.2</ele>
        <time>1970-01-01T00:23:09.000Z</time>
      </trkpt>
      <trkpt lat="43.16047" lon="2.38192">
        <ele>229.1</ele>
        <time>1970-01-01T00:23:10.000Z</time>
      </trkpt>
      <trkpt lat="43.16045" lon="2.3819">
        <ele>228.9</ele>
        <time>1970-01-01T00:23:11.000Z</time>
      </trkpt>
      <trkpt lat="43.16043" lon="2.38189">
        <ele>228.9</ele>
        <time>1970-01-01T00:23:12.000Z</time>
      </trkpt>
      <trkpt lat="43.16042" lon="2.38188">
        <ele>228.8</ele>
        <time>1970-01-01T00:23:14.000Z</time>
      </trkpt>
      <trkpt lat="43.16041" lon="2.38188">
        <ele>228.8</ele>
        <time>1970-01-01T00:23:15.000Z</time>
      </trkpt>
      <trkpt lat="43.16038" lon="2.38186">
        <ele>228.7</ele>
        <time>1970-01-01T00:23:16.000Z</time>
      </trkpt>
      <trkpt lat="43.16038" lon="2.38186">
        <ele>228.7</ele>
        <time>1970-01-01T00:23:17.000Z</time>
      </trkpt>
      <trkpt lat="43.16036" lon="2.38183">
        <ele>228.7</ele>
        <time>1970-01-01T00:23:19.000Z</time>
      </trkpt>
      <trkpt lat="43.16034" lon="2.38179">
        <ele>228.6</ele>
        <time>1970-01-01T00:23:21.000Z</time>
      </trkpt>
      <trkpt lat="43.16033" lon="2.38174">
        <ele>228.6</ele>
        <time>1970-01-01T00:23:22.000Z</time>
      </trkpt>
      <trkpt lat="43.16032" lon="2.3817">
        <ele>228.6</ele>
        <time>1970-01-01T00:23:24.000Z</time>
      </trkpt>
      <trkpt lat="43.16031" lon="2.38168">
        <ele>228.6</ele>
        <time>1970-01-01T00:23:25.000Z</time>
      </trkpt>
      <trkpt lat="43.16029" lon="2.38165">
        <ele>228.5</ele>
        <time>1970-01-01T00:23:27.000Z</time>
      </trkpt>
      <trkpt lat="43.16028" lon="2.38161">
        <ele>228.5</ele>
        <time>1970-01-01T00:23:28.000Z</time>
      </trkpt>
      <trkpt lat="43.16027" lon="2.3816">
        <ele>228.5</ele>
        <time>1970-01-01T00:23:29.000Z</time>
      </trkpt>
      <trkpt lat="43.16025" lon="2.38157">
        <ele>228.4</ele>
        <time>1970-01-01T00:23:31.000Z</time>
      </trkpt>
      <trkpt lat="43.16024" lon="2.38156">
        <ele>228.4</ele>
        <time>1970-01-01T00:23:32.000Z</time>
      </trkpt>
      <trkpt lat="43.16021" lon="2.38154">
        <ele>228.3</ele>
        <time>1970-01-01T00:23:33.000Z</time>
      </trkpt>
      <trkpt lat="43.1602" lon="2.38154">
        <ele>228.3</ele>
        <time>1970-01-01T00:23:34.000Z</time>
      </trkpt>
      <trkpt lat="43.16017" lon="2.3815">
        <ele>228.2</ele>
        <time>1970-01-01T00:23:36.000Z</time>
      </trkpt>
      <trkpt lat="43.16016" lon="2.38149">
        <ele>228.2</ele>
        <time>1970-01-01T00:23:37.000Z</time>
      </trkpt>
      <trkpt lat="43.16016" lon="2.38146">
        <ele>228.2</ele>
        <time>1970-01-01T00:23:38.000Z</time>
      </trkpt>
      <trkpt lat="43.16014" lon="2.38144">
        <ele>228.2</ele>
        <time>1970-01-01T00:23:39.000Z</time>
      </trkpt>
      <trkpt lat="43.16013" lon="2.38142">
        <ele>228.2</ele>
        <time>1970-01-01T00:23:40.000Z</time>
      </trkpt>
      <trkpt lat="43.16012" lon="2.3814">
        <ele>228.2</ele>
        <time>1970-01-01T00:23:42.000Z</time>
      </trkpt>
      <trkpt lat="43.16011" lon="2.38136">
        <ele>228.2</ele>
        <time>1970-01-01T00:23:43.000Z</time>
      </trkpt>
      <trkpt lat="43.16011" lon="2.38135">
        <ele>228.2</ele>
        <time>1970-01-01T00:23:44.000Z</time>
      </trkpt>
      <trkpt lat="43.1601" lon="2.38132">
        <ele>228.2</ele>
        <time>1970-01-01T00:23:45.000Z</time>
      </trkpt>
      <trkpt lat="43.16009" lon="2.3813">
        <ele>228.3</ele>
        <time>1970-01-01T00:23:47.000Z</time>
      </trkpt>
      <trkpt lat="43.16007" lon="2.38126">
        <ele>228.3</ele>
        <time>1970-01-01T00:23:48.000Z</time>
      </trkpt>
      <trkpt lat="43.16006" lon="2.38124">
        <ele>228.4</ele>
        <time>1970-01-01T00:23:49.000Z</time>
      </trkpt>
      <trkpt lat="43.16004" lon="2.3812">
        <ele>228.4</ele>
        <time>1970-01-01T00:23:51.000Z</time>
      </trkpt>
      <trkpt lat="43.16001" lon="2.38115">
        <ele>228.5</ele>
        <time>1970-01-01T00:23:53.000Z</time>
      </trkpt>
      <trkpt lat="43.16" lon="2.38114">
        <ele>228.6</ele>
        <time>1970-01-01T00:23:54.000Z</time>
      </trkpt>
      <trkpt lat="43.15999" lon="2.38112">
        <ele>228.6</ele>
        <time>1970-01-01T00:23:55.000Z</time>
      </trkpt>
      <trkpt lat="43.15998" lon="2.38109">
        <ele>228.6</ele>
        <time>1970-01-01T00:23:57.000Z</time>
      </trkpt>
      <trkpt lat="43.15998" lon="2.38108">
        <ele>228.6</ele>
        <time>1970-01-01T00:23:58.000Z</time>
      </trkpt>
      <trkpt lat="43.15996" lon="2.38105">
        <ele>228.7</ele>
        <time>1970-01-01T00:23:59.000Z</time>
      </trkpt>
      <trkpt lat="43.15995" lon="2.38104">
        <ele>228.7</ele>
        <time>1970-01-01T00:24:00.000Z</time>
      </trkpt>
      <trkpt lat="43.15993" lon="2.38101">
        <ele>228.7</ele>
        <time>1970-01-01T00:24:02.000Z</time>
      </trkpt>
      <trkpt lat="43.15992" lon="2.38101">
        <ele>228.7</ele>
        <time>1970-01-01T00:24:03.000Z</time>
      </trkpt>
      <trkpt lat="43.15989" lon="2.381">
        <ele>228.7</ele>
        <time>1970-01-01T00:24:04.000Z</time>
      </trkpt>
      <trkpt lat="43.15988" lon="2.38099">
        <ele>228.6</ele>
        <time>1970-01-01T00:24:05.000Z</time>
      </trkpt>
      <trkpt lat="43.15985" lon="2.38098">
        <ele>228.6</ele>
        <time>1970-01-01T00:24:07.000Z</time>
      </trkpt>
      <trkpt lat="43.15984" lon="2.38098">
        <ele>228.6</ele>
        <time>1970-01-01T00:24:08.000Z</time>
      </trkpt>
      <trkpt lat="43.15982" lon="2.381">
        <ele>228.5</ele>
        <time>1970-01-01T00:24:09.000Z</time>
      </trkpt>
      <trkpt lat="43.1598" lon="2.38101">
        <ele>228.4</ele>
        <time>1970-01-01T00:24:10.000Z</time>
      </trkpt>
      <trkpt lat="43.15977" lon="2.38103">
        <ele>228.3</ele>
        <time>1970-01-01T00:24:12.000Z</time>
      </trkpt>
      <trkpt lat="43.15975" lon="2.38105">
        <ele>228.1</ele>
        <time>1970-01-01T00:24:13.000Z</time>
      </trkpt>
      <trkpt lat="43.15973" lon="2.38106">
        <ele>228</ele>
        <time>1970-01-01T00:24:14.000Z</time>
      </trkpt>
      <trkpt lat="43.1597" lon="2.38107">
        <ele>227.9</ele>
        <time>1970-01-01T00:24:16.000Z</time>
      </trkpt>
      <trkpt lat="43.15967" lon="2.38109">
        <ele>227.7</ele>
        <time>1970-01-01T00:24:17.000Z</time>
      </trkpt>
      <trkpt lat="43.15966" lon="2.3811">
        <ele>227.7</ele>
        <time>1970-01-01T00:24:18.000Z</time>
      </trkpt>
      <trkpt lat="43.15965" lon="2.38111">
        <ele>227.6</ele>
        <time>1970-01-01T00:24:19.000Z</time>
      </trkpt>
      <trkpt lat="43.15963" lon="2.38112">
        <ele>227.6</ele>
        <time>1970-01-01T00:24:21.000Z</time>
      </trkpt>
      <trkpt lat="43.15961" lon="2.38112">
        <ele>227.5</ele>
        <time>1970-01-01T00:24:22.000Z</time>
      </trkpt>
      <trkpt lat="43.15958" lon="2.3811">
        <ele>227.5</ele>
        <time>1970-01-01T00:24:24.000Z</time>
      </trkpt>
      <trkpt lat="43.15954" lon="2.38108">
        <ele>227.5</ele>
        <time>1970-01-01T00:24:26.000Z</time>
      </trkpt>
      <trkpt lat="43.15953" lon="2.38108">
        <ele>227.5</ele>
        <time>1970-01-01T00:24:27.000Z</time>
      </trkpt>
      <trkpt lat="43.15951" lon="2.38107">
        <ele>227.5</ele>
        <time>1970-01-01T00:24:28.000Z</time>
      </trkpt>
      <trkpt lat="43.15949" lon="2.38106">
        <ele>227.6</ele>
        <time>1970-01-01T00:24:29.000Z</time>
      </trkpt>
      <trkpt lat="43.15948" lon="2.381">
        <ele>227.8</ele>
        <time>1970-01-01T00:24:31.000Z</time>
      </trkpt>
      <trkpt lat="43.15947" lon="2.38095">
        <ele>228</ele>
        <time>1970-01-01T00:24:32.000Z</time>
      </trkpt>
      <trkpt lat="43.15946" lon="2.38092">
        <ele>228.2</ele>
        <time>1970-01-01T00:24:33.000Z</time>
      </trkpt>
      <trkpt lat="43.15944" lon="2.38087">
        <ele>228.5</ele>
        <time>1970-01-01T00:24:35.000Z</time>
      </trkpt>
      <trkpt lat="43.15943" lon="2.38085">
        <ele>228.6</ele>
        <time>1970-01-01T00:24:36.000Z</time>
      </trkpt>
      <trkpt lat="43.15941" lon="2.38081">
        <ele>228.9</ele>
        <time>1970-01-01T00:24:38.000Z</time>
      </trkpt>
      <trkpt lat="43.15939" lon="2.38077">
        <ele>229.1</ele>
        <time>1970-01-01T00:24:39.000Z</time>
      </trkpt>
      <trkpt lat="43.15938" lon="2.38076">
        <ele>229.2</ele>
        <time>1970-01-01T00:24:40.000Z</time>
      </trkpt>
      <trkpt lat="43.15935" lon="2.38074">
        <ele>229.4</ele>
        <time>1970-01-01T00:24:42.000Z</time>
      </trkpt>
      <trkpt lat="43.15934" lon="2.38073">
        <ele>229.5</ele>
        <time>1970-01-01T00:24:43.000Z</time>
      </trkpt>
      <trkpt lat="43.15931" lon="2.38073">
        <ele>229.7</ele>
        <time>1970-01-01T00:24:44.000Z</time>
      </trkpt>
      <trkpt lat="43.15929" lon="2.38073">
        <ele>229.7</ele>
        <time>1970-01-01T00:24:45.000Z</time>
      </trkpt>
      <trkpt lat="43.15927" lon="2.38073">
        <ele>229.8</ele>
        <time>1970-01-01T00:24:46.000Z</time>
      </trkpt>
      <trkpt lat="43.15925" lon="2.38074">
        <ele>229.8</ele>
        <time>1970-01-01T00:24:47.000Z</time>
      </trkpt>
      <trkpt lat="43.15921" lon="2.38074">
        <ele>229.9</ele>
        <time>1970-01-01T00:24:49.000Z</time>
      </trkpt>
      <trkpt lat="43.15919" lon="2.38074">
        <ele>229.9</ele>
        <time>1970-01-01T00:24:50.000Z</time>
      </trkpt>
      <trkpt lat="43.15918" lon="2.38075">
        <ele>229.9</ele>
        <time>1970-01-01T00:24:51.000Z</time>
      </trkpt>
      <trkpt lat="43.15915" lon="2.38075">
        <ele>229.9</ele>
        <time>1970-01-01T00:24:53.000Z</time>
      </trkpt>
      <trkpt lat="43.15912" lon="2.38076">
        <ele>229.9</ele>
        <time>1970-01-01T00:24:54.000Z</time>
      </trkpt>
      <trkpt lat="43.15911" lon="2.38076">
        <ele>229.9</ele>
        <time>1970-01-01T00:24:55.000Z</time>
      </trkpt>
      <trkpt lat="43.15908" lon="2.38074">
        <ele>229.9</ele>
        <time>1970-01-01T00:24:56.000Z</time>
      </trkpt>
      <trkpt lat="43.15907" lon="2.38074">
        <ele>229.9</ele>
        <time>1970-01-01T00:24:57.000Z</time>
      </trkpt>
      <trkpt lat="43.15904" lon="2.38072">
        <ele>229.8</ele>
        <time>1970-01-01T00:24:59.000Z</time>
      </trkpt>
      <trkpt lat="43.15903" lon="2.38071">
        <ele>229.8</ele>
        <time>1970-01-01T00:25:00.000Z</time>
      </trkpt>
      <trkpt lat="43.159" lon="2.38071">
        <ele>229.8</ele>
        <time>1970-01-01T00:25:01.000Z</time>
      </trkpt>
      <trkpt lat="43.15899" lon="2.38071">
        <ele>229.7</ele>
        <time>1970-01-01T00:25:02.000Z</time>
      </trkpt>
      <trkpt lat="43.15895" lon="2.38071">
        <ele>229.7</ele>
        <time>1970-01-01T00:25:04.000Z</time>
      </trkpt>
      <trkpt lat="43.15894" lon="2.38071">
        <ele>229.6</ele>
        <time>1970-01-01T00:25:05.000Z</time>
      </trkpt>
      <trkpt lat="43.15891" lon="2.38071">
        <ele>229.6</ele>
        <time>1970-01-01T00:25:07.000Z</time>
      </trkpt>
      <trkpt lat="43.15889" lon="2.38071">
        <ele>229.5</ele>
        <time>1970-01-01T00:25:08.000Z</time>
      </trkpt>
      <trkpt lat="43.15886" lon="2.38072">
        <ele>229.4</ele>
        <time>1970-01-01T00:25:10.000Z</time>
      </trkpt>
      <trkpt lat="43.15884" lon="2.38073">
        <ele>229.3</ele>
        <time>1970-01-01T00:25:11.000Z</time>
      </trkpt>
      <trkpt lat="43.15879" lon="2.38075">
        <ele>229.1</ele>
        <time>1970-01-01T00:25:13.000Z</time>
      </trkpt>
      <trkpt lat="43.15877" lon="2.38076">
        <ele>229</ele>
        <time>1970-01-01T00:25:14.000Z</time>
      </trkpt>
      <trkpt lat="43.15875" lon="2.38077">
        <ele>228.9</ele>
        <time>1970-01-01T00:25:15.000Z</time>
      </trkpt>
      <trkpt lat="43.15873" lon="2.38079">
        <ele>228.7</ele>
        <time>1970-01-01T00:25:16.000Z</time>
      </trkpt>
      <trkpt lat="43.15872" lon="2.3808">
        <ele>228.6</ele>
        <time>1970-01-01T00:25:18.000Z</time>
      </trkpt>
      <trkpt lat="43.1587" lon="2.38082">
        <ele>228.5</ele>
        <time>1970-01-01T00:25:19.000Z</time>
      </trkpt>
      <trkpt lat="43.15869" lon="2.38083">
        <ele>228.4</ele>
        <time>1970-01-01T00:25:20.000Z</time>
      </trkpt>
      <trkpt lat="43.15868" lon="2.38085">
        <ele>228.4</ele>
        <time>1970-01-01T00:25:21.000Z</time>
      </trkpt>
      <trkpt lat="43.15867" lon="2.38087">
        <ele>228.3</ele>
        <time>1970-01-01T00:25:23.000Z</time>
      </trkpt>
      <trkpt lat="43.15866" lon="2.3809">
        <ele>228.2</ele>
        <time>1970-01-01T00:25:24.000Z</time>
      </trkpt>
      <trkpt lat="43.15865" lon="2.38095">
        <ele>228.2</ele>
        <time>1970-01-01T00:25:26.000Z</time>
      </trkpt>
      <trkpt lat="43.15865" lon="2.38099">
        <ele>228.2</ele>
        <time>1970-01-01T00:25:28.000Z</time>
      </trkpt>
      <trkpt lat="43.15866" lon="2.381">
        <ele>228.2</ele>
        <time>1970-01-01T00:25:29.000Z</time>
      </trkpt>
      <trkpt lat="43.15867" lon="2.38101">
        <ele>228.2</ele>
        <time>1970-01-01T00:25:31.000Z</time>
      </trkpt>
      <trkpt lat="43.15867" lon="2.38102">
        <ele>228.2</ele>
        <time>1970-01-01T00:25:32.000Z</time>
      </trkpt>
      <trkpt lat="43.15867" lon="2.38103">
        <ele>228.3</ele>
        <time>1970-01-01T00:25:34.000Z</time>
      </trkpt>
      <trkpt lat="43.15867" lon="2.38105">
        <ele>228.3</ele>
        <time>1970-01-01T00:25:35.000Z</time>
      </trkpt>
      <trkpt lat="43.15866" lon="2.38105">
        <ele>228.3</ele>
        <time>1970-01-01T00:25:36.000Z</time>
      </trkpt>
      <trkpt lat="43.15865" lon="2.38106">
        <ele>228.4</ele>
        <time>1970-01-01T00:25:37.000Z</time>
      </trkpt>
      <trkpt lat="43.15864" lon="2.38107">
        <ele>228.4</ele>
        <time>1970-01-01T00:25:38.000Z</time>
      </trkpt>
      <trkpt lat="43.15863" lon="2.38108">
        <ele>228.5</ele>
        <time>1970-01-01T00:25:40.000Z</time>
      </trkpt>
      <trkpt lat="43.15861" lon="2.38104">
        <ele>228.7</ele>
        <time>1970-01-01T00:25:41.000Z</time>
      </trkpt>
      <trkpt lat="43.15858" lon="2.38106">
        <ele>228.8</ele>
        <time>1970-01-01T00:25:42.000Z</time>
      </trkpt>
      <trkpt lat="43.15857" lon="2.38108">
        <ele>229.1</ele>
        <time>1970-01-01T00:25:44.000Z</time>
      </trkpt>
      <trkpt lat="43.15856" lon="2.3811">
        <ele>229.3</ele>
        <time>1970-01-01T00:25:46.000Z</time>
      </trkpt>
      <trkpt lat="43.15855" lon="2.38112">
        <ele>229.5</ele>
        <time>1970-01-01T00:25:47.000Z</time>
      </trkpt>
      <trkpt lat="43.15854" lon="2.38113">
        <ele>229.7</ele>
        <time>1970-01-01T00:25:48.000Z</time>
      </trkpt>
      <trkpt lat="43.15852" lon="2.38114">
        <ele>229.9</ele>
        <time>1970-01-01T00:25:50.000Z</time>
      </trkpt>
      <trkpt lat="43.15851" lon="2.38115">
        <ele>230.1</ele>
        <time>1970-01-01T00:25:51.000Z</time>
      </trkpt>
      <trkpt lat="43.15849" lon="2.38116">
        <ele>230.3</ele>
        <time>1970-01-01T00:25:52.000Z</time>
      </trkpt>
      <trkpt lat="43.15848" lon="2.38118">
        <ele>230.5</ele>
        <time>1970-01-01T00:25:54.000Z</time>
      </trkpt>
      <trkpt lat="43.15847" lon="2.38119">
        <ele>230.6</ele>
        <time>1970-01-01T00:25:55.000Z</time>
      </trkpt>
      <trkpt lat="43.15845" lon="2.38119">
        <ele>230.8</ele>
        <time>1970-01-01T00:25:56.000Z</time>
      </trkpt>
      <trkpt lat="43.15844" lon="2.38118">
        <ele>230.9</ele>
        <time>1970-01-01T00:25:58.000Z</time>
      </trkpt>
      <trkpt lat="43.15844" lon="2.38118">
        <ele>231</ele>
        <time>1970-01-01T00:25:59.000Z</time>
      </trkpt>
      <trkpt lat="43.15843" lon="2.38117">
        <ele>231</ele>
        <time>1970-01-01T00:26:00.000Z</time>
      </trkpt>
      <trkpt lat="43.15841" lon="2.38119">
        <ele>231.2</ele>
        <time>1970-01-01T00:26:01.000Z</time>
      </trkpt>
      <trkpt lat="43.15839" lon="2.3812">
        <ele>231.5</ele>
        <time>1970-01-01T00:26:03.000Z</time>
      </trkpt>
      <trkpt lat="43.15837" lon="2.38122">
        <ele>231.7</ele>
        <time>1970-01-01T00:26:04.000Z</time>
      </trkpt>
      <trkpt lat="43.15836" lon="2.38123">
        <ele>232</ele>
        <time>1970-01-01T00:26:06.000Z</time>
      </trkpt>
      <trkpt lat="43.15834" lon="2.38125">
        <ele>232.2</ele>
        <time>1970-01-01T00:26:07.000Z</time>
      </trkpt>
      <trkpt lat="43.15831" lon="2.38128">
        <ele>232.6</ele>
        <time>1970-01-01T00:26:09.000Z</time>
      </trkpt>
      <trkpt lat="43.15829" lon="2.3813">
        <ele>232.8</ele>
        <time>1970-01-01T00:26:10.000Z</time>
      </trkpt>
      <trkpt lat="43.15827" lon="2.38133">
        <ele>233</ele>
        <time>1970-01-01T00:26:12.000Z</time>
      </trkpt>
      <trkpt lat="43.15825" lon="2.38135">
        <ele>233.3</ele>
        <time>1970-01-01T00:26:14.000Z</time>
      </trkpt>
      <trkpt lat="43.15824" lon="2.38138">
        <ele>233.4</ele>
        <time>1970-01-01T00:26:15.000Z</time>
      </trkpt>
      <trkpt lat="43.15822" lon="2.38139">
        <ele>233.6</ele>
        <time>1970-01-01T00:26:17.000Z</time>
      </trkpt>
      <trkpt lat="43.15819" lon="2.38141">
        <ele>233.8</ele>
        <time>1970-01-01T00:26:18.000Z</time>
      </trkpt>
      <trkpt lat="43.15817" lon="2.38142">
        <ele>234</ele>
        <time>1970-01-01T00:26:19.000Z</time>
      </trkpt>
      <trkpt lat="43.15815" lon="2.38143">
        <ele>234.1</ele>
        <time>1970-01-01T00:26:21.000Z</time>
      </trkpt>
      <trkpt lat="43.15813" lon="2.38145">
        <ele>234.3</ele>
        <time>1970-01-01T00:26:22.000Z</time>
      </trkpt>
      <trkpt lat="43.15811" lon="2.38147">
        <ele>234.5</ele>
        <time>1970-01-01T00:26:24.000Z</time>
      </trkpt>
      <trkpt lat="43.15809" lon="2.38149">
        <ele>234.6</ele>
        <time>1970-01-01T00:26:25.000Z</time>
      </trkpt>
      <trkpt lat="43.15808" lon="2.38152">
        <ele>234.8</ele>
        <time>1970-01-01T00:26:27.000Z</time>
      </trkpt>
      <trkpt lat="43.15806" lon="2.38155">
        <ele>235</ele>
        <time>1970-01-01T00:26:29.000Z</time>
      </trkpt>
      <trkpt lat="43.15804" lon="2.38156">
        <ele>235.1</ele>
        <time>1970-01-01T00:26:30.000Z</time>
      </trkpt>
      <trkpt lat="43.15803" lon="2.38158">
        <ele>235.2</ele>
        <time>1970-01-01T00:26:32.000Z</time>
      </trkpt>
      <trkpt lat="43.15801" lon="2.38159">
        <ele>235.4</ele>
        <time>1970-01-01T00:26:33.000Z</time>
      </trkpt>
      <trkpt lat="43.158" lon="2.38161">
        <ele>235.5</ele>
        <time>1970-01-01T00:26:34.000Z</time>
      </trkpt>
      <trkpt lat="43.15799" lon="2.38162">
        <ele>235.6</ele>
        <time>1970-01-01T00:26:36.000Z</time>
      </trkpt>
      <trkpt lat="43.15797" lon="2.38163">
        <ele>235.7</ele>
        <time>1970-01-01T00:26:37.000Z</time>
      </trkpt>
      <trkpt lat="43.15796" lon="2.38164">
        <ele>235.8</ele>
        <time>1970-01-01T00:26:38.000Z</time>
      </trkpt>
      <trkpt lat="43.15794" lon="2.38166">
        <ele>235.9</ele>
        <time>1970-01-01T00:26:40.000Z</time>
      </trkpt>
      <trkpt lat="43.15793" lon="2.38168">
        <ele>236.1</ele>
        <time>1970-01-01T00:26:41.000Z</time>
      </trkpt>
      <trkpt lat="43.15792" lon="2.38171">
        <ele>236.2</ele>
        <time>1970-01-01T00:26:43.000Z</time>
      </trkpt>
      <trkpt lat="43.15791" lon="2.38175">
        <ele>236.4</ele>
        <time>1970-01-01T00:26:44.000Z</time>
      </trkpt>
      <trkpt lat="43.1579" lon="2.38176">
        <ele>236.5</ele>
        <time>1970-01-01T00:26:45.000Z</time>
      </trkpt>
      <trkpt lat="43.15788" lon="2.3818">
        <ele>236.7</ele>
        <time>1970-01-01T00:26:47.000Z</time>
      </trkpt>
      <trkpt lat="43.15788" lon="2.38181">
        <ele>236.8</ele>
        <time>1970-01-01T00:26:48.000Z</time>
      </trkpt>
      <trkpt lat="43.15786" lon="2.38186">
        <ele>237.1</ele>
        <time>1970-01-01T00:26:50.000Z</time>
      </trkpt>
      <trkpt lat="43.15785" lon="2.38188">
        <ele>237.2</ele>
        <time>1970-01-01T00:26:51.000Z</time>
      </trkpt>
      <trkpt lat="43.15785" lon="2.3819">
        <ele>237.3</ele>
        <time>1970-01-01T00:26:52.000Z</time>
      </trkpt>
      <trkpt lat="43.15782" lon="2.38194">
        <ele>237.6</ele>
        <time>1970-01-01T00:26:54.000Z</time>
      </trkpt>
      <trkpt lat="43.15781" lon="2.38195">
        <ele>237.8</ele>
        <time>1970-01-01T00:26:55.000Z</time>
      </trkpt>
      <trkpt lat="43.1578" lon="2.38197">
        <ele>237.9</ele>
        <time>1970-01-01T00:26:57.000Z</time>
      </trkpt>
      <trkpt lat="43.15779" lon="2.38198">
        <ele>238</ele>
        <time>1970-01-01T00:26:58.000Z</time>
      </trkpt>
      <trkpt lat="43.15778" lon="2.382">
        <ele>238.2</ele>
        <time>1970-01-01T00:26:59.000Z</time>
      </trkpt>
      <trkpt lat="43.15776" lon="2.38203">
        <ele>238.4</ele>
        <time>1970-01-01T00:27:00.000Z</time>
      </trkpt>
      <trkpt lat="43.15776" lon="2.38204">
        <ele>238.5</ele>
        <time>1970-01-01T00:27:01.000Z</time>
      </trkpt>
      <trkpt lat="43.15774" lon="2.38208">
        <ele>238.8</ele>
        <time>1970-01-01T00:27:03.000Z</time>
      </trkpt>
      <trkpt lat="43.15774" lon="2.38209">
        <ele>238.9</ele>
        <time>1970-01-01T00:27:04.000Z</time>
      </trkpt>
      <trkpt lat="43.15773" lon="2.38213">
        <ele>239.2</ele>
        <time>1970-01-01T00:27:06.000Z</time>
      </trkpt>
      <trkpt lat="43.15772" lon="2.38214">
        <ele>239.3</ele>
        <time>1970-01-01T00:27:07.000Z</time>
      </trkpt>
      <trkpt lat="43.15771" lon="2.38216">
        <ele>239.5</ele>
        <time>1970-01-01T00:27:08.000Z</time>
      </trkpt>
      <trkpt lat="43.1577" lon="2.38217">
        <ele>239.6</ele>
        <time>1970-01-01T00:27:09.000Z</time>
      </trkpt>
      <trkpt lat="43.15769" lon="2.38221">
        <ele>240</ele>
        <time>1970-01-01T00:27:11.000Z</time>
      </trkpt>
      <trkpt lat="43.15769" lon="2.38222">
        <ele>240.1</ele>
        <time>1970-01-01T00:27:12.000Z</time>
      </trkpt>
      <trkpt lat="43.15768" lon="2.38225">
        <ele>240.3</ele>
        <time>1970-01-01T00:27:13.000Z</time>
      </trkpt>
      <trkpt lat="43.15769" lon="2.38227">
        <ele>240.5</ele>
        <time>1970-01-01T00:27:15.000Z</time>
      </trkpt>
      <trkpt lat="43.15769" lon="2.38229">
        <ele>240.6</ele>
        <time>1970-01-01T00:27:16.000Z</time>
      </trkpt>
      <trkpt lat="43.1577" lon="2.38231">
        <ele>240.8</ele>
        <time>1970-01-01T00:27:17.000Z</time>
      </trkpt>
      <trkpt lat="43.15771" lon="2.38232">
        <ele>241</ele>
        <time>1970-01-01T00:27:18.000Z</time>
      </trkpt>
      <trkpt lat="43.15773" lon="2.38234">
        <ele>241.3</ele>
        <time>1970-01-01T00:27:20.000Z</time>
      </trkpt>
      <trkpt lat="43.15773" lon="2.38236">
        <ele>241.5</ele>
        <time>1970-01-01T00:27:21.000Z</time>
      </trkpt>
      <trkpt lat="43.15773" lon="2.38239">
        <ele>241.7</ele>
        <time>1970-01-01T00:27:23.000Z</time>
      </trkpt>
      <trkpt lat="43.15772" lon="2.38241">
        <ele>241.9</ele>
        <time>1970-01-01T00:27:24.000Z</time>
      </trkpt>
      <trkpt lat="43.15771" lon="2.38244">
        <ele>242.3</ele>
        <time>1970-01-01T00:27:26.000Z</time>
      </trkpt>
      <trkpt lat="43.1577" lon="2.38248">
        <ele>242.7</ele>
        <time>1970-01-01T00:27:27.000Z</time>
      </trkpt>
      <trkpt lat="43.15769" lon="2.3825">
        <ele>242.9</ele>
        <time>1970-01-01T00:27:29.000Z</time>
      </trkpt>
      <trkpt lat="43.15768" lon="2.38251">
        <ele>243.1</ele>
        <time>1970-01-01T00:27:30.000Z</time>
      </trkpt>
      <trkpt lat="43.15768" lon="2.38253">
        <ele>243.3</ele>
        <time>1970-01-01T00:27:31.000Z</time>
      </trkpt>
      <trkpt lat="43.15767" lon="2.38255">
        <ele>243.5</ele>
        <time>1970-01-01T00:27:32.000Z</time>
      </trkpt>
      <trkpt lat="43.15766" lon="2.38257">
        <ele>243.8</ele>
        <time>1970-01-01T00:27:34.000Z</time>
      </trkpt>
      <trkpt lat="43.15765" lon="2.3826">
        <ele>244</ele>
        <time>1970-01-01T00:27:35.000Z</time>
      </trkpt>
      <trkpt lat="43.15764" lon="2.38263">
        <ele>244.3</ele>
        <time>1970-01-01T00:27:37.000Z</time>
      </trkpt>
      <trkpt lat="43.15763" lon="2.38267">
        <ele>244.7</ele>
        <time>1970-01-01T00:27:38.000Z</time>
      </trkpt>
      <trkpt lat="43.15762" lon="2.38268">
        <ele>244.8</ele>
        <time>1970-01-01T00:27:39.000Z</time>
      </trkpt>
      <trkpt lat="43.15762" lon="2.3827">
        <ele>244.9</ele>
        <time>1970-01-01T00:27:40.000Z</time>
      </trkpt>
      <trkpt lat="43.15761" lon="2.38272">
        <ele>245.1</ele>
        <time>1970-01-01T00:27:42.000Z</time>
      </trkpt>
      <trkpt lat="43.1576" lon="2.38276">
        <ele>245.4</ele>
        <time>1970-01-01T00:27:43.000Z</time>
      </trkpt>
      <trkpt lat="43.15759" lon="2.38279">
        <ele>245.7</ele>
        <time>1970-01-01T00:27:45.000Z</time>
      </trkpt>
      <trkpt lat="43.15759" lon="2.38283">
        <ele>245.9</ele>
        <time>1970-01-01T00:27:46.000Z</time>
      </trkpt>
      <trkpt lat="43.1576" lon="2.38286">
        <ele>246.6</ele>
        <time>1970-01-01T00:27:48.000Z</time>
      </trkpt>
      <trkpt lat="43.15761" lon="2.38287">
        <ele>246.7</ele>
        <time>1970-01-01T00:27:49.000Z</time>
      </trkpt>
      <trkpt lat="43.15762" lon="2.38289">
        <ele>248</ele>
        <time>1970-01-01T00:27:51.000Z</time>
      </trkpt>
      <trkpt lat="43.15763" lon="2.38288">
        <ele>248.2</ele>
        <time>1970-01-01T00:27:52.000Z</time>
      </trkpt>
      <trkpt lat="43.15766" lon="2.38287">
        <ele>248.3</ele>
        <time>1970-01-01T00:27:54.000Z</time>
      </trkpt>
      <trkpt lat="43.15767" lon="2.38287">
        <ele>248.5</ele>
        <time>1970-01-01T00:27:55.000Z</time>
      </trkpt>
      <trkpt lat="43.15769" lon="2.38288">
        <ele>249.9</ele>
        <time>1970-01-01T00:27:56.000Z</time>
      </trkpt>
      <trkpt lat="43.1577" lon="2.38288">
        <ele>250</ele>
        <time>1970-01-01T00:27:58.000Z</time>
      </trkpt>
      <trkpt lat="43.15772" lon="2.38288">
        <ele>250.9</ele>
        <time>1970-01-01T00:27:59.000Z</time>
      </trkpt>
      <trkpt lat="43.15773" lon="2.38288">
        <ele>251</ele>
        <time>1970-01-01T00:28:00.000Z</time>
      </trkpt>
      <trkpt lat="43.15774" lon="2.38289">
        <ele>251.9</ele>
        <time>1970-01-01T00:28:01.000Z</time>
      </trkpt>
      <trkpt lat="43.15775" lon="2.38289">
        <ele>252</ele>
        <time>1970-01-01T00:28:03.000Z</time>
      </trkpt>
      <trkpt lat="43.15775" lon="2.3829">
        <ele>252.2</ele>
        <time>1970-01-01T00:28:04.000Z</time>
      </trkpt>
      <trkpt lat="43.15776" lon="2.38291">
        <ele>252.3</ele>
        <time>1970-01-01T00:28:06.000Z</time>
      </trkpt>
      <trkpt lat="43.15777" lon="2.38291">
        <ele>253.2</ele>
        <time>1970-01-01T00:28:07.000Z</time>
      </trkpt>
      <trkpt lat="43.15777" lon="2.38291">
        <ele>253.3</ele>
        <time>1970-01-01T00:28:08.000Z</time>
      </trkpt>
      <trkpt lat="43.15778" lon="2.38291">
        <ele>253.5</ele>
        <time>1970-01-01T00:28:10.000Z</time>
      </trkpt>
      <trkpt lat="43.15778" lon="2.38291">
        <ele>253.6</ele>
        <time>1970-01-01T00:28:11.000Z</time>
      </trkpt>
      <trkpt lat="43.15779" lon="2.38291">
        <ele>253.8</ele>
        <time>1970-01-01T00:28:12.000Z</time>
      </trkpt>
      <trkpt lat="43.15779" lon="2.38291">
        <ele>253.9</ele>
        <time>1970-01-01T00:28:14.000Z</time>
      </trkpt>
      <trkpt lat="43.1578" lon="2.38291">
        <ele>254</ele>
        <time>1970-01-01T00:28:15.000Z</time>
      </trkpt>
      <trkpt lat="43.15779" lon="2.38292">
        <ele>254.9</ele>
        <time>1970-01-01T00:28:16.000Z</time>
      </trkpt>
      <trkpt lat="43.15779" lon="2.38292">
        <ele>255</ele>
        <time>1970-01-01T00:28:18.000Z</time>
      </trkpt>
      <trkpt lat="43.15779" lon="2.38292">
        <ele>255.2</ele>
        <time>1970-01-01T00:28:19.000Z</time>
      </trkpt>
      <trkpt lat="43.1578" lon="2.38293">
        <ele>256.1</ele>
        <time>1970-01-01T00:28:20.000Z</time>
      </trkpt>
      <trkpt lat="43.1578" lon="2.38293">
        <ele>255.5</ele>
        <time>1970-01-01T00:28:21.000Z</time>
      </trkpt>
      <trkpt lat="43.1578" lon="2.38294">
        <ele>256.4</ele>
        <time>1970-01-01T00:28:23.000Z</time>
      </trkpt>
      <trkpt lat="43.1578" lon="2.38294">
        <ele>256.5</ele>
        <time>1970-01-01T00:28:24.000Z</time>
      </trkpt>
      <trkpt lat="43.1578" lon="2.38294">
        <ele>256.6</ele>
        <time>1970-01-01T00:28:25.000Z</time>
      </trkpt>
      <trkpt lat="43.1578" lon="2.38294">
        <ele>256.8</ele>
        <time>1970-01-01T00:28:26.000Z</time>
      </trkpt>
      <trkpt lat="43.15781" lon="2.38294">
        <ele>256.9</ele>
        <time>1970-01-01T00:28:28.000Z</time>
      </trkpt>
      <trkpt lat="43.1578" lon="2.38295">
        <ele>257.1</ele>
        <time>1970-01-01T00:28:29.000Z</time>
      </trkpt>
      <trkpt lat="43.1578" lon="2.38295">
        <ele>257.2</ele>
        <time>1970-01-01T00:28:30.000Z</time>
      </trkpt>
      <trkpt lat="43.15781" lon="2.38296">
        <ele>257.3</ele>
        <time>1970-01-01T00:28:32.000Z</time>
      </trkpt>
      <trkpt lat="43.15781" lon="2.38296">
        <ele>257.5</ele>
        <time>1970-01-01T00:28:33.000Z</time>
      </trkpt>
      <trkpt lat="43.15781" lon="2.38295">
        <ele>257.6</ele>
        <time>1970-01-01T00:28:34.000Z</time>
      </trkpt>
      <trkpt lat="43.15782" lon="2.38294">
        <ele>257.8</ele>
        <time>1970-01-01T00:28:35.000Z</time>
      </trkpt>
      <trkpt lat="43.15783" lon="2.38293">
        <ele>257.9</ele>
        <time>1970-01-01T00:28:37.000Z</time>
      </trkpt>
      <trkpt lat="43.15782" lon="2.38292">
        <ele>258</ele>
        <time>1970-01-01T00:28:38.000Z</time>
      </trkpt>
      <trkpt lat="43.15782" lon="2.38291">
        <ele>257.4</ele>
        <time>1970-01-01T00:28:40.000Z</time>
      </trkpt>
      <trkpt lat="43.15782" lon="2.38291">
        <ele>257.6</ele>
        <time>1970-01-01T00:28:41.000Z</time>
      </trkpt>
      <trkpt lat="43.15781" lon="2.38291">
        <ele>257.7</ele>
        <time>1970-01-01T00:28:42.000Z</time>
      </trkpt>
      <trkpt lat="43.15781" lon="2.3829">
        <ele>257.8</ele>
        <time>1970-01-01T00:28:44.000Z</time>
      </trkpt>
      <trkpt lat="43.15782" lon="2.3829">
        <ele>258</ele>
        <time>1970-01-01T00:28:46.000Z</time>
      </trkpt>
      <trkpt lat="43.15782" lon="2.38289">
        <ele>258.1</ele>
        <time>1970-01-01T00:28:47.000Z</time>
      </trkpt>
      <trkpt lat="43.15783" lon="2.38289">
        <ele>259</ele>
        <time>1970-01-01T00:28:48.000Z</time>
      </trkpt>
      <trkpt lat="43.15784" lon="2.3829">
        <ele>259.1</ele>
        <time>1970-01-01T00:28:50.000Z</time>
      </trkpt>
      <trkpt lat="43.15785" lon="2.38292">
        <ele>260</ele>
        <time>1970-01-01T00:28:52.000Z</time>
      </trkpt>
      <trkpt lat="43.15786" lon="2.38294">
        <ele>260.2</ele>
        <time>1970-01-01T00:28:53.000Z</time>
      </trkpt>
      <trkpt lat="43.15787" lon="2.38296">
        <ele>261.1</ele>
        <time>1970-01-01T00:28:55.000Z</time>
      </trkpt>
      <trkpt lat="43.15788" lon="2.38296">
        <ele>262</ele>
        <time>1970-01-01T00:28:56.000Z</time>
      </trkpt>
      <trkpt lat="43.15788" lon="2.38298">
        <ele>262.2</ele>
        <time>1970-01-01T00:28:58.000Z</time>
      </trkpt>
      <trkpt lat="43.15787" lon="2.38299">
        <ele>262.3</ele>
        <time>1970-01-01T00:28:59.000Z</time>
      </trkpt>
      <trkpt lat="43.15787" lon="2.383">
        <ele>262.5</ele>
        <time>1970-01-01T00:29:00.000Z</time>
      </trkpt>
      <trkpt lat="43.15786" lon="2.383">
        <ele>261.8</ele>
        <time>1970-01-01T00:29:02.000Z</time>
      </trkpt>
      <trkpt lat="43.15786" lon="2.38301">
        <ele>262.7</ele>
        <time>1970-01-01T00:29:04.000Z</time>
      </trkpt>
      <trkpt lat="43.15786" lon="2.38302">
        <ele>263.7</ele>
        <time>1970-01-01T00:29:06.000Z</time>
      </trkpt>
      <trkpt lat="43.15788" lon="2.38302">
        <ele>263.8</ele>
        <time>1970-01-01T00:29:08.000Z</time>
      </trkpt>
      <trkpt lat="43.15789" lon="2.38302">
        <ele>264</ele>
        <time>1970-01-01T00:29:09.000Z</time>
      </trkpt>
      <trkpt lat="43.1579" lon="2.38302">
        <ele>264.9</ele>
        <time>1970-01-01T00:29:11.000Z</time>
      </trkpt>
      <trkpt lat="43.15791" lon="2.38301">
        <ele>265.1</ele>
        <time>1970-01-01T00:29:12.000Z</time>
      </trkpt>
      <trkpt lat="43.15792" lon="2.38301">
        <ele>265.2</ele>
        <time>1970-01-01T00:29:14.000Z</time>
      </trkpt>
      <trkpt lat="43.15793" lon="2.38301">
        <ele>266.2</ele>
        <time>1970-01-01T00:29:15.000Z</time>
      </trkpt>
      <trkpt lat="43.15794" lon="2.383">
        <ele>265.5</ele>
        <time>1970-01-01T00:29:17.000Z</time>
      </trkpt>
      <trkpt lat="43.15795" lon="2.383">
        <ele>265.6</ele>
        <time>1970-01-01T00:29:18.000Z</time>
      </trkpt>
      <trkpt lat="43.15796" lon="2.38299">
        <ele>266.6</ele>
        <time>1970-01-01T00:29:20.000Z</time>
      </trkpt>
      <trkpt lat="43.15796" lon="2.38298">
        <ele>266.8</ele>
        <time>1970-01-01T00:29:22.000Z</time>
      </trkpt>
      <trkpt lat="43.15796" lon="2.38298">
        <ele>266.9</ele>
        <time>1970-01-01T00:29:23.000Z</time>
      </trkpt>
      <trkpt lat="43.15796" lon="2.38298">
        <ele>267.1</ele>
        <time>1970-01-01T00:29:25.000Z</time>
      </trkpt>
      <trkpt lat="43.15796" lon="2.38298">
        <ele>267.2</ele>
        <time>1970-01-01T00:29:26.000Z</time>
      </trkpt>
      <trkpt lat="43.15797" lon="2.38298">
        <ele>267.3</ele>
        <time>1970-01-01T00:29:28.000Z</time>
      </trkpt>
      <trkpt lat="43.15798" lon="2.38298">
        <ele>267.5</ele>
        <time>1970-01-01T00:29:29.000Z</time>
      </trkpt>
      <trkpt lat="43.15798" lon="2.38299">
        <ele>267.6</ele>
        <time>1970-01-01T00:29:30.000Z</time>
      </trkpt>
      <trkpt lat="43.158" lon="2.383">
        <ele>268.6</ele>
        <time>1970-01-01T00:29:32.000Z</time>
      </trkpt>
      <trkpt lat="43.15801" lon="2.383">
        <ele>268.8</ele>
        <time>1970-01-01T00:29:33.000Z</time>
      </trkpt>
      <trkpt lat="43.15801" lon="2.38299">
        <ele>268.9</ele>
        <time>1970-01-01T00:29:34.000Z</time>
      </trkpt>
      <trkpt lat="43.15802" lon="2.38299">
        <ele>269.1</ele>
        <time>1970-01-01T00:29:35.000Z</time>
      </trkpt>
      <trkpt lat="43.15801" lon="2.38298">
        <ele>269.2</ele>
        <time>1970-01-01T00:29:36.000Z</time>
      </trkpt>
      <trkpt lat="43.15801" lon="2.38298">
        <ele>269.3</ele>
        <time>1970-01-01T00:29:37.000Z</time>
      </trkpt>
      <trkpt lat="43.15802" lon="2.38298">
        <ele>270.4</ele>
        <time>1970-01-01T00:29:39.000Z</time>
      </trkpt>
      <trkpt lat="43.15803" lon="2.38298">
        <ele>270.5</ele>
        <time>1970-01-01T00:29:40.000Z</time>
      </trkpt>
      <trkpt lat="43.15804" lon="2.38298">
        <ele>270.7</ele>
        <time>1970-01-01T00:29:42.000Z</time>
      </trkpt>
      <trkpt lat="43.15804" lon="2.38298">
        <ele>270.8</ele>
        <time>1970-01-01T00:29:43.000Z</time>
      </trkpt>
      <trkpt lat="43.15805" lon="2.38298">
        <ele>270.9</ele>
        <time>1970-01-01T00:29:44.000Z</time>
      </trkpt>
      <trkpt lat="43.15806" lon="2.38298">
        <ele>272</ele>
        <time>1970-01-01T00:29:45.000Z</time>
      </trkpt>
      <trkpt lat="43.15807" lon="2.38298">
        <ele>272.1</ele>
        <time>1970-01-01T00:29:47.000Z</time>
      </trkpt>
      <trkpt lat="43.15808" lon="2.38298">
        <ele>272.3</ele>
        <time>1970-01-01T00:29:48.000Z</time>
      </trkpt>
      <trkpt lat="43.15809" lon="2.38298">
        <ele>273.3</ele>
        <time>1970-01-01T00:29:49.000Z</time>
      </trkpt>
      <trkpt lat="43.1581" lon="2.38298">
        <ele>273.5</ele>
        <time>1970-01-01T00:29:50.000Z</time>
      </trkpt>
      <trkpt lat="43.15812" lon="2.38298">
        <ele>274.5</ele>
        <time>1970-01-01T00:29:51.000Z</time>
      </trkpt>
      <trkpt lat="43.15813" lon="2.38298">
        <ele>274.7</ele>
        <time>1970-01-01T00:29:52.000Z</time>
      </trkpt>
      <trkpt lat="43.15815" lon="2.38297">
        <ele>275.7</ele>
        <time>1970-01-01T00:29:53.000Z</time>
      </trkpt>
      <trkpt lat="43.15818" lon="2.38297">
        <ele>276.7</ele>
        <time>1970-01-01T00:29:55.000Z</time>
      </trkpt>
      <trkpt lat="43.15819" lon="2.38297">
        <ele>276.8</ele>
        <time>1970-01-01T00:29:56.000Z</time>
      </trkpt>
      <trkpt lat="43.15821" lon="2.38297">
        <ele>277.7</ele>
        <time>1970-01-01T00:29:57.000Z</time>
      </trkpt>
      <trkpt lat="43.15822" lon="2.38297">
        <ele>277.9</ele>
        <time>1970-01-01T00:29:58.000Z</time>
      </trkpt>
      <trkpt lat="43.15824" lon="2.38296">
        <ele>278.8</ele>
        <time>1970-01-01T00:29:59.000Z</time>
      </trkpt>
      <trkpt lat="43.15827" lon="2.38295">
        <ele>278.7</ele>
        <time>1970-01-01T00:30:01.000Z</time>
      </trkpt>
      <trkpt lat="43.15828" lon="2.38294">
        <ele>278.8</ele>
        <time>1970-01-01T00:30:02.000Z</time>
      </trkpt>
      <trkpt lat="43.1583" lon="2.38294">
        <ele>279</ele>
        <time>1970-01-01T00:30:04.000Z</time>
      </trkpt>
      <trkpt lat="43.15831" lon="2.38294">
        <ele>279.8</ele>
        <time>1970-01-01T00:30:05.000Z</time>
      </trkpt>
      <trkpt lat="43.15831" lon="2.38292">
        <ele>280</ele>
        <time>1970-01-01T00:30:06.000Z</time>
      </trkpt>
      <trkpt lat="43.15832" lon="2.38292">
        <ele>279.2</ele>
        <time>1970-01-01T00:30:07.000Z</time>
      </trkpt>
      <trkpt lat="43.15833" lon="2.38291">
        <ele>280</ele>
        <time>1970-01-01T00:30:08.000Z</time>
      </trkpt>
      <trkpt lat="43.15835" lon="2.3829">
        <ele>280.2</ele>
        <time>1970-01-01T00:30:10.000Z</time>
      </trkpt>
      <trkpt lat="43.15835" lon="2.3829">
        <ele>280.3</ele>
        <time>1970-01-01T00:30:11.000Z</time>
      </trkpt>
      <trkpt lat="43.15837" lon="2.3829">
        <ele>281.1</ele>
        <time>1970-01-01T00:30:12.000Z</time>
      </trkpt>
      <trkpt lat="43.15838" lon="2.3829">
        <ele>281.3</ele>
        <time>1970-01-01T00:30:13.000Z</time>
      </trkpt>
      <trkpt lat="43.1584" lon="2.3829">
        <ele>282</ele>
        <time>1970-01-01T00:30:15.000Z</time>
      </trkpt>
      <trkpt lat="43.15842" lon="2.3829">
        <ele>282.2</ele>
        <time>1970-01-01T00:30:16.000Z</time>
      </trkpt>
      <trkpt lat="43.15844" lon="2.38289">
        <ele>282.9</ele>
        <time>1970-01-01T00:30:18.000Z</time>
      </trkpt>
      <trkpt lat="43.15846" lon="2.38288">
        <ele>283.5</ele>
        <time>1970-01-01T00:30:19.000Z</time>
      </trkpt>
      <trkpt lat="43.15847" lon="2.38286">
        <ele>282.7</ele>
        <time>1970-01-01T00:30:21.000Z</time>
      </trkpt>
      <trkpt lat="43.15849" lon="2.38284">
        <ele>283.3</ele>
        <time>1970-01-01T00:30:22.000Z</time>
      </trkpt>
      <trkpt lat="43.15851" lon="2.38283">
        <ele>282.6</ele>
        <time>1970-01-01T00:30:24.000Z</time>
      </trkpt>
      <trkpt lat="43.15853" lon="2.38281">
        <ele>283.1</ele>
        <time>1970-01-01T00:30:25.000Z</time>
      </trkpt>
      <trkpt lat="43.15854" lon="2.38281">
        <ele>283.2</ele>
        <time>1970-01-01T00:30:26.000Z</time>
      </trkpt>
      <trkpt lat="43.15856" lon="2.3828">
        <ele>283.7</ele>
        <time>1970-01-01T00:30:28.000Z</time>
      </trkpt>
      <trkpt lat="43.15857" lon="2.3828">
        <ele>283.9</ele>
        <time>1970-01-01T00:30:29.000Z</time>
      </trkpt>
      <trkpt lat="43.15859" lon="2.38282">
        <ele>284.3</ele>
        <time>1970-01-01T00:30:30.000Z</time>
      </trkpt>
      <trkpt lat="43.1586" lon="2.38283">
        <ele>284.4</ele>
        <time>1970-01-01T00:30:31.000Z</time>
      </trkpt>
      <trkpt lat="43.15861" lon="2.38284">
        <ele>284.6</ele>
        <time>1970-01-01T00:30:32.000Z</time>
      </trkpt>
      <trkpt lat="43.15861" lon="2.38285">
        <ele>284.8</ele>
        <time>1970-01-01T00:30:33.000Z</time>
      </trkpt>
      <trkpt lat="43.1586" lon="2.38288">
        <ele>285</ele>
        <time>1970-01-01T00:30:34.000Z</time>
      </trkpt>
      <trkpt lat="43.1586" lon="2.38289">
        <ele>285.2</ele>
        <time>1970-01-01T00:30:35.000Z</time>
      </trkpt>
      <trkpt lat="43.15858" lon="2.38293">
        <ele>285.6</ele>
        <time>1970-01-01T00:30:37.000Z</time>
      </trkpt>
      <trkpt lat="43.15858" lon="2.38295">
        <ele>285.8</ele>
        <time>1970-01-01T00:30:38.000Z</time>
      </trkpt>
      <trkpt lat="43.15856" lon="2.38299">
        <ele>286.3</ele>
        <time>1970-01-01T00:30:40.000Z</time>
      </trkpt>
      <trkpt lat="43.15856" lon="2.38301">
        <ele>286.5</ele>
        <time>1970-01-01T00:30:41.000Z</time>
      </trkpt>
      <trkpt lat="43.15854" lon="2.38302">
        <ele>286.8</ele>
        <time>1970-01-01T00:30:42.000Z</time>
      </trkpt>
      <trkpt lat="43.15852" lon="2.38305">
        <ele>287.2</ele>
        <time>1970-01-01T00:30:44.000Z</time>
      </trkpt>
      <trkpt lat="43.15852" lon="2.38306">
        <ele>287.3</ele>
        <time>1970-01-01T00:30:45.000Z</time>
      </trkpt>
      <trkpt lat="43.1585" lon="2.38309">
        <ele>287.7</ele>
        <time>1970-01-01T00:30:46.000Z</time>
      </trkpt>
      <trkpt lat="43.15849" lon="2.3831">
        <ele>287.9</ele>
        <time>1970-01-01T00:30:47.000Z</time>
      </trkpt>
      <trkpt lat="43.15849" lon="2.38312">
        <ele>288.2</ele>
        <time>1970-01-01T00:30:49.000Z</time>
      </trkpt>
      <trkpt lat="43.15848" lon="2.38314">
        <ele>288.4</ele>
        <time>1970-01-01T00:30:50.000Z</time>
      </trkpt>
      <trkpt lat="43.15848" lon="2.38316">
        <ele>288.7</ele>
        <time>1970-01-01T00:30:52.000Z</time>
      </trkpt>
      <trkpt lat="43.15849" lon="2.38319">
        <ele>289</ele>
        <time>1970-01-01T00:30:53.000Z</time>
      </trkpt>
      <trkpt lat="43.1585" lon="2.38321">
        <ele>289.3</ele>
        <time>1970-01-01T00:30:54.000Z</time>
      </trkpt>
      <trkpt lat="43.15851" lon="2.38324">
        <ele>289.7</ele>
        <time>1970-01-01T00:30:56.000Z</time>
      </trkpt>
      <trkpt lat="43.15852" lon="2.38325">
        <ele>289.9</ele>
        <time>1970-01-01T00:30:57.000Z</time>
      </trkpt>
      <trkpt lat="43.15853" lon="2.38326">
        <ele>290</ele>
        <time>1970-01-01T00:30:58.000Z</time>
      </trkpt>
      <trkpt lat="43.15853" lon="2.38327">
        <ele>290.2</ele>
        <time>1970-01-01T00:31:00.000Z</time>
      </trkpt>
      <trkpt lat="43.15853" lon="2.38328">
        <ele>290.3</ele>
        <time>1970-01-01T00:31:01.000Z</time>
      </trkpt>
      <trkpt lat="43.15853" lon="2.38331">
        <ele>290.7</ele>
        <time>1970-01-01T00:31:03.000Z</time>
      </trkpt>
      <trkpt lat="43.15852" lon="2.38332">
        <ele>290.9</ele>
        <time>1970-01-01T00:31:04.000Z</time>
      </trkpt>
      <trkpt lat="43.15851" lon="2.38332">
        <ele>291.1</ele>
        <time>1970-01-01T00:31:05.000Z</time>
      </trkpt>
      <trkpt lat="43.1585" lon="2.38332">
        <ele>291.2</ele>
        <time>1970-01-01T00:31:07.000Z</time>
      </trkpt>
      <trkpt lat="43.15849" lon="2.38333">
        <ele>291.5</ele>
        <time>1970-01-01T00:31:08.000Z</time>
      </trkpt>
      <trkpt lat="43.15848" lon="2.38335">
        <ele>291.7</ele>
        <time>1970-01-01T00:31:09.000Z</time>
      </trkpt>
      <trkpt lat="43.15848" lon="2.38336">
        <ele>291.9</ele>
        <time>1970-01-01T00:31:11.000Z</time>
      </trkpt>
      <trkpt lat="43.15847" lon="2.38338">
        <ele>292.1</ele>
        <time>1970-01-01T00:31:12.000Z</time>
      </trkpt>
      <trkpt lat="43.15847" lon="2.38339">
        <ele>292.3</ele>
        <time>1970-01-01T00:31:14.000Z</time>
      </trkpt>
      <trkpt lat="43.15848" lon="2.3834">
        <ele>292.4</ele>
        <time>1970-01-01T00:31:15.000Z</time>
      </trkpt>
      <trkpt lat="43.15848" lon="2.38342">
        <ele>292.6</ele>
        <time>1970-01-01T00:31:16.000Z</time>
      </trkpt>
      <trkpt lat="43.15848" lon="2.38342">
        <ele>292.7</ele>
        <time>1970-01-01T00:31:18.000Z</time>
      </trkpt>
      <trkpt lat="43.15849" lon="2.38341">
        <ele>292.8</ele>
        <time>1970-01-01T00:31:19.000Z</time>
      </trkpt>
      <trkpt lat="43.15849" lon="2.38343">
        <ele>293</ele>
        <time>1970-01-01T00:31:20.000Z</time>
      </trkpt>
      <trkpt lat="43.15849" lon="2.38345">
        <ele>293.2</ele>
        <time>1970-01-01T00:31:21.000Z</time>
      </trkpt>
      <trkpt lat="43.15849" lon="2.38347">
        <ele>293.4</ele>
        <time>1970-01-01T00:31:22.000Z</time>
      </trkpt>
      <trkpt lat="43.15849" lon="2.3835">
        <ele>293.8</ele>
        <time>1970-01-01T00:31:24.000Z</time>
      </trkpt>
      <trkpt lat="43.15849" lon="2.38352">
        <ele>294</ele>
        <time>1970-01-01T00:31:25.000Z</time>
      </trkpt>
      <trkpt lat="43.15849" lon="2.38354">
        <ele>294.2</ele>
        <time>1970-01-01T00:31:27.000Z</time>
      </trkpt>
      <trkpt lat="43.15849" lon="2.38356">
        <ele>294.5</ele>
        <time>1970-01-01T00:31:28.000Z</time>
      </trkpt>
      <trkpt lat="43.1585" lon="2.38357">
        <ele>294.6</ele>
        <time>1970-01-01T00:31:30.000Z</time>
      </trkpt>
      <trkpt lat="43.15851" lon="2.38356">
        <ele>294.7</ele>
        <time>1970-01-01T00:31:31.000Z</time>
      </trkpt>
      <trkpt lat="43.15851" lon="2.38356">
        <ele>294.9</ele>
        <time>1970-01-01T00:31:32.000Z</time>
      </trkpt>
      <trkpt lat="43.15852" lon="2.38358">
        <ele>295.1</ele>
        <time>1970-01-01T00:31:33.000Z</time>
      </trkpt>
      <trkpt lat="43.15853" lon="2.38362">
        <ele>295.6</ele>
        <time>1970-01-01T00:31:35.000Z</time>
      </trkpt>
      <trkpt lat="43.15854" lon="2.38364">
        <ele>295.8</ele>
        <time>1970-01-01T00:31:36.000Z</time>
      </trkpt>
      <trkpt lat="43.15854" lon="2.38364">
        <ele>295.9</ele>
        <time>1970-01-01T00:31:38.000Z</time>
      </trkpt>
      <trkpt lat="43.15853" lon="2.38366">
        <ele>296.1</ele>
        <time>1970-01-01T00:31:39.000Z</time>
      </trkpt>
      <trkpt lat="43.15852" lon="2.38368">
        <ele>296.3</ele>
        <time>1970-01-01T00:31:40.000Z</time>
      </trkpt>
      <trkpt lat="43.15851" lon="2.38371">
        <ele>296.7</ele>
        <time>1970-01-01T00:31:41.000Z</time>
      </trkpt>
      <trkpt lat="43.1585" lon="2.38372">
        <ele>297</ele>
        <time>1970-01-01T00:31:43.000Z</time>
      </trkpt>
      <trkpt lat="43.15848" lon="2.38375">
        <ele>297.4</ele>
        <time>1970-01-01T00:31:44.000Z</time>
      </trkpt>
      <trkpt lat="43.15847" lon="2.38376">
        <ele>297.6</ele>
        <time>1970-01-01T00:31:45.000Z</time>
      </trkpt>
      <trkpt lat="43.15846" lon="2.38378">
        <ele>297.9</ele>
        <time>1970-01-01T00:31:46.000Z</time>
      </trkpt>
      <trkpt lat="43.15847" lon="2.38379">
        <ele>298</ele>
        <time>1970-01-01T00:31:48.000Z</time>
      </trkpt>
      <trkpt lat="43.15849" lon="2.38379">
        <ele>298.5</ele>
        <time>1970-01-01T00:31:49.000Z</time>
      </trkpt>
      <trkpt lat="43.15851" lon="2.38373">
        <ele>299.2</ele>
        <time>1970-01-01T00:31:51.000Z</time>
      </trkpt>
      <trkpt lat="43.15852" lon="2.38367">
        <ele>300.1</ele>
        <time>1970-01-01T00:31:52.000Z</time>
      </trkpt>
      <trkpt lat="43.15852" lon="2.38361">
        <ele>301.1</ele>
        <time>1970-01-01T00:31:54.000Z</time>
      </trkpt>
      <trkpt lat="43.1585" lon="2.38359">
        <ele>301.7</ele>
        <time>1970-01-01T00:31:55.000Z</time>
      </trkpt>
      <trkpt lat="43.15848" lon="2.38362">
        <ele>302.3</ele>
        <time>1970-01-01T00:31:57.000Z</time>
      </trkpt>
      <trkpt lat="43.15848" lon="2.38364">
        <ele>302.6</ele>
        <time>1970-01-01T00:31:58.000Z</time>
      </trkpt>
      <trkpt lat="43.15847" lon="2.38367">
        <ele>303.1</ele>
        <time>1970-01-01T00:31:59.000Z</time>
      </trkpt>
      <trkpt lat="43.15846" lon="2.3837">
        <ele>303.7</ele>
        <time>1970-01-01T00:32:01.000Z</time>
      </trkpt>
      <trkpt lat="43.15845" lon="2.38374">
        <ele>304.5</ele>
        <time>1970-01-01T00:32:02.000Z</time>
      </trkpt>
      <trkpt lat="43.15845" lon="2.38375">
        <ele>304.7</ele>
        <time>1970-01-01T00:32:03.000Z</time>
      </trkpt>
      <trkpt lat="43.15844" lon="2.38377">
        <ele>305</ele>
        <time>1970-01-01T00:32:05.000Z</time>
      </trkpt>
      <trkpt lat="43.15843" lon="2.38378">
        <ele>305.3</ele>
        <time>1970-01-01T00:32:06.000Z</time>
      </trkpt>
      <trkpt lat="43.15842" lon="2.3838">
        <ele>305.8</ele>
        <time>1970-01-01T00:32:08.000Z</time>
      </trkpt>
      <trkpt lat="43.15842" lon="2.38382">
        <ele>306</ele>
        <time>1970-01-01T00:32:09.000Z</time>
      </trkpt>
      <trkpt lat="43.15842" lon="2.38383">
        <ele>306.3</ele>
        <time>1970-01-01T00:32:10.000Z</time>
      </trkpt>
      <trkpt lat="43.15842" lon="2.38385">
        <ele>306.6</ele>
        <time>1970-01-01T00:32:11.000Z</time>
      </trkpt>
      <trkpt lat="43.15842" lon="2.38389">
        <ele>307.2</ele>
        <time>1970-01-01T00:32:13.000Z</time>
      </trkpt>
      <trkpt lat="43.15843" lon="2.3839">
        <ele>307.5</ele>
        <time>1970-01-01T00:32:14.000Z</time>
      </trkpt>
      <trkpt lat="43.15844" lon="2.38392">
        <ele>307.8</ele>
        <time>1970-01-01T00:32:15.000Z</time>
      </trkpt>
      <trkpt lat="43.15843" lon="2.38394">
        <ele>308.2</ele>
        <time>1970-01-01T00:32:17.000Z</time>
      </trkpt>
      <trkpt lat="43.15843" lon="2.38396">
        <ele>308.6</ele>
        <time>1970-01-01T00:32:18.000Z</time>
      </trkpt>
      <trkpt lat="43.15842" lon="2.38397">
        <ele>308.8</ele>
        <time>1970-01-01T00:32:19.000Z</time>
      </trkpt>
      <trkpt lat="43.1584" lon="2.38399">
        <ele>309.2</ele>
        <time>1970-01-01T00:32:21.000Z</time>
      </trkpt>
      <trkpt lat="43.1584" lon="2.38401">
        <ele>309.5</ele>
        <time>1970-01-01T00:32:22.000Z</time>
      </trkpt>
      <trkpt lat="43.15839" lon="2.38402">
        <ele>309.7</ele>
        <time>1970-01-01T00:32:23.000Z</time>
      </trkpt>
      <trkpt lat="43.15839" lon="2.38405">
        <ele>310.1</ele>
        <time>1970-01-01T00:32:25.000Z</time>
      </trkpt>
      <trkpt lat="43.15839" lon="2.38408">
        <ele>310.4</ele>
        <time>1970-01-01T00:32:27.000Z</time>
      </trkpt>
      <trkpt lat="43.15839" lon="2.38408">
        <ele>310.4</ele>
        <time>1970-01-01T00:32:28.000Z</time>
      </trkpt>
      <trkpt lat="43.15839" lon="2.38409">
        <ele>310.5</ele>
        <time>1970-01-01T00:32:30.000Z</time>
      </trkpt>
      <trkpt lat="43.15839" lon="2.3841">
        <ele>310.7</ele>
        <time>1970-01-01T00:32:31.000Z</time>
      </trkpt>
      <trkpt lat="43.15839" lon="2.38411">
        <ele>310.8</ele>
        <time>1970-01-01T00:32:32.000Z</time>
      </trkpt>
      <trkpt lat="43.15839" lon="2.38413">
        <ele>311</ele>
        <time>1970-01-01T00:32:33.000Z</time>
      </trkpt>
      <trkpt lat="43.15839" lon="2.38416">
        <ele>311.3</ele>
        <time>1970-01-01T00:32:35.000Z</time>
      </trkpt>
      <trkpt lat="43.15839" lon="2.38417">
        <ele>311.4</ele>
        <time>1970-01-01T00:32:37.000Z</time>
      </trkpt>
      <trkpt lat="43.15839" lon="2.38418">
        <ele>311.5</ele>
        <time>1970-01-01T00:32:38.000Z</time>
      </trkpt>
      <trkpt lat="43.15839" lon="2.38421">
        <ele>311.8</ele>
        <time>1970-01-01T00:32:39.000Z</time>
      </trkpt>
      <trkpt lat="43.15839" lon="2.38421">
        <ele>311.8</ele>
        <time>1970-01-01T00:32:40.000Z</time>
      </trkpt>
      <trkpt lat="43.15839" lon="2.38421">
        <ele>311.8</ele>
        <time>1970-01-01T00:32:41.000Z</time>
      </trkpt>
      <trkpt lat="43.15839" lon="2.38422">
        <ele>311.9</ele>
        <time>1970-01-01T00:32:42.000Z</time>
      </trkpt>
      <trkpt lat="43.15838" lon="2.38425">
        <ele>312.1</ele>
        <time>1970-01-01T00:32:44.000Z</time>
      </trkpt>
      <trkpt lat="43.15838" lon="2.38425">
        <ele>312.2</ele>
        <time>1970-01-01T00:32:45.000Z</time>
      </trkpt>
      <trkpt lat="43.15838" lon="2.38426">
        <ele>312.3</ele>
        <time>1970-01-01T00:32:46.000Z</time>
      </trkpt>
      <trkpt lat="43.15838" lon="2.38427">
        <ele>312.3</ele>
        <time>1970-01-01T00:32:47.000Z</time>
      </trkpt>
      <trkpt lat="43.15838" lon="2.38428">
        <ele>312.4</ele>
        <time>1970-01-01T00:32:48.000Z</time>
      </trkpt>
      <trkpt lat="43.15837" lon="2.3843">
        <ele>312.5</ele>
        <time>1970-01-01T00:32:50.000Z</time>
      </trkpt>
      <trkpt lat="43.15837" lon="2.38431">
        <ele>312.6</ele>
        <time>1970-01-01T00:32:51.000Z</time>
      </trkpt>
      <trkpt lat="43.15838" lon="2.38431">
        <ele>312.6</ele>
        <time>1970-01-01T00:32:52.000Z</time>
      </trkpt>
      <trkpt lat="43.15838" lon="2.38432">
        <ele>312.7</ele>
        <time>1970-01-01T00:32:53.000Z</time>
      </trkpt>
      <trkpt lat="43.15838" lon="2.38435">
        <ele>312.9</ele>
        <time>1970-01-01T00:32:54.000Z</time>
      </trkpt>
      <trkpt lat="43.15839" lon="2.38436">
        <ele>313</ele>
        <time>1970-01-01T00:32:55.000Z</time>
      </trkpt>
      <trkpt lat="43.15839" lon="2.38437">
        <ele>313</ele>
        <time>1970-01-01T00:32:56.000Z</time>
      </trkpt>
      <trkpt lat="43.15838" lon="2.38439">
        <ele>313.1</ele>
        <time>1970-01-01T00:32:58.000Z</time>
      </trkpt>
      <trkpt lat="43.15837" lon="2.38441">
        <ele>313.3</ele>
        <time>1970-01-01T00:32:59.000Z</time>
      </trkpt>
      <trkpt lat="43.15836" lon="2.38443">
        <ele>313.4</ele>
        <time>1970-01-01T00:33:01.000Z</time>
      </trkpt>
      <trkpt lat="43.15836" lon="2.38446">
        <ele>313.5</ele>
        <time>1970-01-01T00:33:03.000Z</time>
      </trkpt>
      <trkpt lat="43.15835" lon="2.38449">
        <ele>313.7</ele>
        <time>1970-01-01T00:33:05.000Z</time>
      </trkpt>
      <trkpt lat="43.15835" lon="2.38451">
        <ele>313.8</ele>
        <time>1970-01-01T00:33:06.000Z</time>
      </trkpt>
      <trkpt lat="43.15835" lon="2.38452">
        <ele>313.9</ele>
        <time>1970-01-01T00:33:07.000Z</time>
      </trkpt>
      <trkpt lat="43.15835" lon="2.38454">
        <ele>313.9</ele>
        <time>1970-01-01T00:33:08.000Z</time>
      </trkpt>
      <trkpt lat="43.15836" lon="2.38457">
        <ele>314.1</ele>
        <time>1970-01-01T00:33:09.000Z</time>
      </trkpt>
      <trkpt lat="43.15836" lon="2.38458">
        <ele>314.1</ele>
        <time>1970-01-01T00:33:11.000Z</time>
      </trkpt>
      <trkpt lat="43.15836" lon="2.38459">
        <ele>314.2</ele>
        <time>1970-01-01T00:33:12.000Z</time>
      </trkpt>
      <trkpt lat="43.15836" lon="2.38461">
        <ele>314.2</ele>
        <time>1970-01-01T00:33:14.000Z</time>
      </trkpt>
      <trkpt lat="43.15836" lon="2.38463">
        <ele>314.4</ele>
        <time>1970-01-01T00:33:15.000Z</time>
      </trkpt>
      <trkpt lat="43.15836" lon="2.38465">
        <ele>314.4</ele>
        <time>1970-01-01T00:33:16.000Z</time>
      </trkpt>
      <trkpt lat="43.15836" lon="2.38467">
        <ele>314.5</ele>
        <time>1970-01-01T00:33:17.000Z</time>
      </trkpt>
      <trkpt lat="43.15837" lon="2.38469">
        <ele>314.6</ele>
        <time>1970-01-01T00:33:19.000Z</time>
      </trkpt>
      <trkpt lat="43.15838" lon="2.38469">
        <ele>314.7</ele>
        <time>1970-01-01T00:33:20.000Z</time>
      </trkpt>
      <trkpt lat="43.15838" lon="2.38466">
        <ele>314.8</ele>
        <time>1970-01-01T00:33:22.000Z</time>
      </trkpt>
      <trkpt lat="43.15839" lon="2.38463">
        <ele>315</ele>
        <time>1970-01-01T00:33:23.000Z</time>
      </trkpt>
      <trkpt lat="43.15839" lon="2.38459">
        <ele>315.2</ele>
        <time>1970-01-01T00:33:25.000Z</time>
      </trkpt>
      <trkpt lat="43.15839" lon="2.38454">
        <ele>315.4</ele>
        <time>1970-01-01T00:33:27.000Z</time>
      </trkpt>
      <trkpt lat="43.15838" lon="2.3845">
        <ele>315.7</ele>
        <time>1970-01-01T00:33:28.000Z</time>
      </trkpt>
      <trkpt lat="43.15838" lon="2.38446">
        <ele>315.9</ele>
        <time>1970-01-01T00:33:30.000Z</time>
      </trkpt>
      <trkpt lat="43.15836" lon="2.38443">
        <ele>316.1</ele>
        <time>1970-01-01T00:33:31.000Z</time>
      </trkpt>
      <trkpt lat="43.15836" lon="2.3844">
        <ele>316.3</ele>
        <time>1970-01-01T00:33:32.000Z</time>
      </trkpt>
      <trkpt lat="43.15837" lon="2.38437">
        <ele>316.5</ele>
        <time>1970-01-01T00:33:34.000Z</time>
      </trkpt>
      <trkpt lat="43.15838" lon="2.38438">
        <ele>316.6</ele>
        <time>1970-01-01T00:33:35.000Z</time>
      </trkpt>
      <trkpt lat="43.15839" lon="2.38441">
        <ele>316.8</ele>
        <time>1970-01-01T00:33:36.000Z</time>
      </trkpt>
      <trkpt lat="43.15839" lon="2.38446">
        <ele>317.2</ele>
        <time>1970-01-01T00:33:38.000Z</time>
      </trkpt>
      <trkpt lat="43.15839" lon="2.38448">
        <ele>317.3</ele>
        <time>1970-01-01T00:33:39.000Z</time>
      </trkpt>
      <trkpt lat="43.1584" lon="2.38451">
        <ele>317.5</ele>
        <time>1970-01-01T00:33:40.000Z</time>
      </trkpt>
      <trkpt lat="43.1584" lon="2.38456">
        <ele>317.9</ele>
        <time>1970-01-01T00:33:42.000Z</time>
      </trkpt>
      <trkpt lat="43.15838" lon="2.38463">
        <ele>318.4</ele>
        <time>1970-01-01T00:33:44.000Z</time>
      </trkpt>
      <trkpt lat="43.15838" lon="2.38466">
        <ele>318.5</ele>
        <time>1970-01-01T00:33:45.000Z</time>
      </trkpt>
      <trkpt lat="43.15838" lon="2.38468">
        <ele>318.7</ele>
        <time>1970-01-01T00:33:46.000Z</time>
      </trkpt>
      <trkpt lat="43.15838" lon="2.38471">
        <ele>318.9</ele>
        <time>1970-01-01T00:33:47.000Z</time>
      </trkpt>
      <trkpt lat="43.15838" lon="2.38474">
        <ele>319.1</ele>
        <time>1970-01-01T00:33:49.000Z</time>
      </trkpt>
      <trkpt lat="43.15838" lon="2.38478">
        <ele>319.4</ele>
        <time>1970-01-01T00:33:50.000Z</time>
      </trkpt>
      <trkpt lat="43.15838" lon="2.38479">
        <ele>319.5</ele>
        <time>1970-01-01T00:33:51.000Z</time>
      </trkpt>
      <trkpt lat="43.15838" lon="2.38483">
        <ele>319.8</ele>
        <time>1970-01-01T00:33:53.000Z</time>
      </trkpt>
      <trkpt lat="43.15838" lon="2.38485">
        <ele>319.9</ele>
        <time>1970-01-01T00:33:54.000Z</time>
      </trkpt>
      <trkpt lat="43.15839" lon="2.38489">
        <ele>320.2</ele>
        <time>1970-01-01T00:33:56.000Z</time>
      </trkpt>
      <trkpt lat="43.1584" lon="2.38493">
        <ele>320.4</ele>
        <time>1970-01-01T00:33:58.000Z</time>
      </trkpt>
      <trkpt lat="43.1584" lon="2.38497">
        <ele>320.6</ele>
        <time>1970-01-01T00:33:59.000Z</time>
      </trkpt>
      <trkpt lat="43.15841" lon="2.38503">
        <ele>320.9</ele>
        <time>1970-01-01T00:34:01.000Z</time>
      </trkpt>
      <trkpt lat="43.15841" lon="2.38505">
        <ele>321.1</ele>
        <time>1970-01-01T00:34:03.000Z</time>
      </trkpt>
      <trkpt lat="43.15842" lon="2.38508">
        <ele>321.2</ele>
        <time>1970-01-01T00:34:04.000Z</time>
      </trkpt>
      <trkpt lat="43.15842" lon="2.3851">
        <ele>321.3</ele>
        <time>1970-01-01T00:34:05.000Z</time>
      </trkpt>
      <trkpt lat="43.15842" lon="2.38512">
        <ele>321.4</ele>
        <time>1970-01-01T00:34:06.000Z</time>
      </trkpt>
      <trkpt lat="43.15843" lon="2.38515">
        <ele>321.5</ele>
        <time>1970-01-01T00:34:08.000Z</time>
      </trkpt>
      <trkpt lat="43.15842" lon="2.38517">
        <ele>321.6</ele>
        <time>1970-01-01T00:34:09.000Z</time>
      </trkpt>
      <trkpt lat="43.15842" lon="2.3852">
        <ele>321.7</ele>
        <time>1970-01-01T00:34:11.000Z</time>
      </trkpt>
      <trkpt lat="43.15841" lon="2.38524">
        <ele>321.8</ele>
        <time>1970-01-01T00:34:12.000Z</time>
      </trkpt>
      <trkpt lat="43.15841" lon="2.38525">
        <ele>321.9</ele>
        <time>1970-01-01T00:34:13.000Z</time>
      </trkpt>
      <trkpt lat="43.15842" lon="2.38529">
        <ele>322</ele>
        <time>1970-01-01T00:34:14.000Z</time>
      </trkpt>
      <trkpt lat="43.15842" lon="2.38531">
        <ele>322.1</ele>
        <time>1970-01-01T00:34:16.000Z</time>
      </trkpt>
      <trkpt lat="43.15842" lon="2.38533">
        <ele>322.1</ele>
        <time>1970-01-01T00:34:17.000Z</time>
      </trkpt>
      <trkpt lat="43.15842" lon="2.38535">
        <ele>322.2</ele>
        <time>1970-01-01T00:34:18.000Z</time>
      </trkpt>
      <trkpt lat="43.15842" lon="2.38537">
        <ele>322.3</ele>
        <time>1970-01-01T00:34:19.000Z</time>
      </trkpt>
      <trkpt lat="43.15842" lon="2.38539">
        <ele>322.3</ele>
        <time>1970-01-01T00:34:21.000Z</time>
      </trkpt>
      <trkpt lat="43.15842" lon="2.38541">
        <ele>322.4</ele>
        <time>1970-01-01T00:34:22.000Z</time>
      </trkpt>
      <trkpt lat="43.15843" lon="2.38544">
        <ele>322.5</ele>
        <time>1970-01-01T00:34:24.000Z</time>
      </trkpt>
      <trkpt lat="43.15843" lon="2.38548">
        <ele>322.7</ele>
        <time>1970-01-01T00:34:26.000Z</time>
      </trkpt>
      <trkpt lat="43.15843" lon="2.38549">
        <ele>322.7</ele>
        <time>1970-01-01T00:34:27.000Z</time>
      </trkpt>
      <trkpt lat="43.15843" lon="2.38555">
        <ele>322.9</ele>
        <time>1970-01-01T00:34:29.000Z</time>
      </trkpt>
      <trkpt lat="43.15842" lon="2.38557">
        <ele>323</ele>
        <time>1970-01-01T00:34:30.000Z</time>
      </trkpt>
      <trkpt lat="43.15842" lon="2.38559">
        <ele>323.1</ele>
        <time>1970-01-01T00:34:32.000Z</time>
      </trkpt>
      <trkpt lat="43.15842" lon="2.38561">
        <ele>323.2</ele>
        <time>1970-01-01T00:34:33.000Z</time>
      </trkpt>
      <trkpt lat="43.15841" lon="2.38563">
        <ele>323.3</ele>
        <time>1970-01-01T00:34:34.000Z</time>
      </trkpt>
      <trkpt lat="43.15841" lon="2.38565">
        <ele>323.4</ele>
        <time>1970-01-01T00:34:35.000Z</time>
      </trkpt>
      <trkpt lat="43.15841" lon="2.38567">
        <ele>323.5</ele>
        <time>1970-01-01T00:34:36.000Z</time>
      </trkpt>
      <trkpt lat="43.1584" lon="2.3857">
        <ele>323.6</ele>
        <time>1970-01-01T00:34:37.000Z</time>
      </trkpt>
      <trkpt lat="43.1584" lon="2.38573">
        <ele>323.8</ele>
        <time>1970-01-01T00:34:39.000Z</time>
      </trkpt>
      <trkpt lat="43.15841" lon="2.38576">
        <ele>324</ele>
        <time>1970-01-01T00:34:41.000Z</time>
      </trkpt>
      <trkpt lat="43.1584" lon="2.38581">
        <ele>324.3</ele>
        <time>1970-01-01T00:34:43.000Z</time>
      </trkpt>
      <trkpt lat="43.1584" lon="2.38583">
        <ele>324.5</ele>
        <time>1970-01-01T00:34:44.000Z</time>
      </trkpt>
      <trkpt lat="43.15841" lon="2.38586">
        <ele>324.8</ele>
        <time>1970-01-01T00:34:46.000Z</time>
      </trkpt>
      <trkpt lat="43.15841" lon="2.38591">
        <ele>325.2</ele>
        <time>1970-01-01T00:34:48.000Z</time>
      </trkpt>
      <trkpt lat="43.15841" lon="2.38593">
        <ele>325.4</ele>
        <time>1970-01-01T00:34:49.000Z</time>
      </trkpt>
      <trkpt lat="43.15841" lon="2.38596">
        <ele>325.7</ele>
        <time>1970-01-01T00:34:51.000Z</time>
      </trkpt>
      <trkpt lat="43.15842" lon="2.38599">
        <ele>326</ele>
        <time>1970-01-01T00:34:53.000Z</time>
      </trkpt>
      <trkpt lat="43.15842" lon="2.38603">
        <ele>326.5</ele>
        <time>1970-01-01T00:34:54.000Z</time>
      </trkpt>
      <trkpt lat="43.15842" lon="2.38604">
        <ele>326.6</ele>
        <time>1970-01-01T00:34:55.000Z</time>
      </trkpt>
      <trkpt lat="43.15842" lon="2.38605">
        <ele>326.8</ele>
        <time>1970-01-01T00:34:56.000Z</time>
      </trkpt>
      <trkpt lat="43.15842" lon="2.38607">
        <ele>327</ele>
        <time>1970-01-01T00:34:57.000Z</time>
      </trkpt>
      <trkpt lat="43.15842" lon="2.3861">
        <ele>327.4</ele>
        <time>1970-01-01T00:34:59.000Z</time>
      </trkpt>
      <trkpt lat="43.15843" lon="2.38612">
        <ele>327.7</ele>
        <time>1970-01-01T00:35:00.000Z</time>
      </trkpt>
      <trkpt lat="43.15843" lon="2.38614">
        <ele>327.9</ele>
        <time>1970-01-01T00:35:01.000Z</time>
      </trkpt>
      <trkpt lat="43.15844" lon="2.38616">
        <ele>328.1</ele>
        <time>1970-01-01T00:35:03.000Z</time>
      </trkpt>
      <trkpt lat="43.15845" lon="2.38618">
        <ele>328.6</ele>
        <time>1970-01-01T00:35:04.000Z</time>
      </trkpt>
      <trkpt lat="43.15846" lon="2.38619">
        <ele>328.8</ele>
        <time>1970-01-01T00:35:06.000Z</time>
      </trkpt>
      <trkpt lat="43.15846" lon="2.38621">
        <ele>329</ele>
        <time>1970-01-01T00:35:07.000Z</time>
      </trkpt>
      <trkpt lat="43.15847" lon="2.38622">
        <ele>329.1</ele>
        <time>1970-01-01T00:35:08.000Z</time>
      </trkpt>
      <trkpt lat="43.15848" lon="2.38623">
        <ele>329.3</ele>
        <time>1970-01-01T00:35:09.000Z</time>
      </trkpt>
      <trkpt lat="43.15848" lon="2.38625">
        <ele>329.6</ele>
        <time>1970-01-01T00:35:11.000Z</time>
      </trkpt>
      <trkpt lat="43.15849" lon="2.38626">
        <ele>329.9</ele>
        <time>1970-01-01T00:35:12.000Z</time>
      </trkpt>
      <trkpt lat="43.1585" lon="2.38628">
        <ele>330.1</ele>
        <time>1970-01-01T00:35:13.000Z</time>
      </trkpt>
      <trkpt lat="43.15851" lon="2.3863">
        <ele>330.5</ele>
        <time>1970-01-01T00:35:14.000Z</time>
      </trkpt>
      <trkpt lat="43.15852" lon="2.38633">
        <ele>330.9</ele>
        <time>1970-01-01T00:35:16.000Z</time>
      </trkpt>
      <trkpt lat="43.15852" lon="2.38634">
        <ele>331</ele>
        <time>1970-01-01T00:35:17.000Z</time>
      </trkpt>
      <trkpt lat="43.15852" lon="2.38635">
        <ele>331.1</ele>
        <time>1970-01-01T00:35:18.000Z</time>
      </trkpt>
      <trkpt lat="43.15852" lon="2.38635">
        <ele>331.1</ele>
        <time>1970-01-01T00:35:19.000Z</time>
      </trkpt>
      <trkpt lat="43.15852" lon="2.38636">
        <ele>331.3</ele>
        <time>1970-01-01T00:35:20.000Z</time>
      </trkpt>
      <trkpt lat="43.15852" lon="2.38637">
        <ele>331.4</ele>
        <time>1970-01-01T00:35:21.000Z</time>
      </trkpt>
      <trkpt lat="43.15852" lon="2.38639">
        <ele>331.6</ele>
        <time>1970-01-01T00:35:22.000Z</time>
      </trkpt>
      <trkpt lat="43.15852" lon="2.38642">
        <ele>331.9</ele>
        <time>1970-01-01T00:35:24.000Z</time>
      </trkpt>
      <trkpt lat="43.15851" lon="2.38646">
        <ele>332.2</ele>
        <time>1970-01-01T00:35:26.000Z</time>
      </trkpt>
      <trkpt lat="43.15851" lon="2.38647">
        <ele>332.3</ele>
        <time>1970-01-01T00:35:27.000Z</time>
      </trkpt>
      <trkpt lat="43.1585" lon="2.3865">
        <ele>332.5</ele>
        <time>1970-01-01T00:35:28.000Z</time>
      </trkpt>
      <trkpt lat="43.1585" lon="2.38651">
        <ele>332.6</ele>
        <time>1970-01-01T00:35:29.000Z</time>
      </trkpt>
      <trkpt lat="43.15849" lon="2.38653">
        <ele>332.7</ele>
        <time>1970-01-01T00:35:31.000Z</time>
      </trkpt>
      <trkpt lat="43.15847" lon="2.38654">
        <ele>332.8</ele>
        <time>1970-01-01T00:35:32.000Z</time>
      </trkpt>
      <trkpt lat="43.15846" lon="2.38656">
        <ele>332.9</ele>
        <time>1970-01-01T00:35:33.000Z</time>
      </trkpt>
      <trkpt lat="43.15843" lon="2.38658">
        <ele>333</ele>
        <time>1970-01-01T00:35:35.000Z</time>
      </trkpt>
      <trkpt lat="43.15842" lon="2.38658">
        <ele>333</ele>
        <time>1970-01-01T00:35:36.000Z</time>
      </trkpt>
      <trkpt lat="43.15841" lon="2.38661">
        <ele>333.1</ele>
        <time>1970-01-01T00:35:37.000Z</time>
      </trkpt>
      <trkpt lat="43.1584" lon="2.38662">
        <ele>333.1</ele>
        <time>1970-01-01T00:35:38.000Z</time>
      </trkpt>
      <trkpt lat="43.1584" lon="2.38666">
        <ele>333.1</ele>
        <time>1970-01-01T00:35:40.000Z</time>
      </trkpt>
      <trkpt lat="43.1584" lon="2.38667">
        <ele>333.1</ele>
        <time>1970-01-01T00:35:41.000Z</time>
      </trkpt>
      <trkpt lat="43.15838" lon="2.3867">
        <ele>333.1</ele>
        <time>1970-01-01T00:35:42.000Z</time>
      </trkpt>
      <trkpt lat="43.15837" lon="2.38672">
        <ele>333.1</ele>
        <time>1970-01-01T00:35:44.000Z</time>
      </trkpt>
      <trkpt lat="43.15834" lon="2.38674">
        <ele>333</ele>
        <time>1970-01-01T00:35:45.000Z</time>
      </trkpt>
      <trkpt lat="43.15833" lon="2.38675">
        <ele>333</ele>
        <time>1970-01-01T00:35:46.000Z</time>
      </trkpt>
      <trkpt lat="43.15832" lon="2.38676">
        <ele>333</ele>
        <time>1970-01-01T00:35:47.000Z</time>
      </trkpt>
      <trkpt lat="43.15831" lon="2.38678">
        <ele>333</ele>
        <time>1970-01-01T00:35:48.000Z</time>
      </trkpt>
      <trkpt lat="43.1583" lon="2.3868">
        <ele>332.9</ele>
        <time>1970-01-01T00:35:50.000Z</time>
      </trkpt>
      <trkpt lat="43.15828" lon="2.3868">
        <ele>332.9</ele>
        <time>1970-01-01T00:35:51.000Z</time>
      </trkpt>
      <trkpt lat="43.15826" lon="2.3868">
        <ele>332.9</ele>
        <time>1970-01-01T00:35:52.000Z</time>
      </trkpt>
      <trkpt lat="43.15825" lon="2.38679">
        <ele>332.9</ele>
        <time>1970-01-01T00:35:53.000Z</time>
      </trkpt>
      <trkpt lat="43.15824" lon="2.38676">
        <ele>332.9</ele>
        <time>1970-01-01T00:35:55.000Z</time>
      </trkpt>
      <trkpt lat="43.15824" lon="2.38674">
        <ele>332.9</ele>
        <time>1970-01-01T00:35:56.000Z</time>
      </trkpt>
      <trkpt lat="43.15826" lon="2.38671">
        <ele>332.9</ele>
        <time>1970-01-01T00:35:57.000Z</time>
      </trkpt>
      <trkpt lat="43.15828" lon="2.38669">
        <ele>332.9</ele>
        <time>1970-01-01T00:35:58.000Z</time>
      </trkpt>
      <trkpt lat="43.15829" lon="2.38667">
        <ele>333</ele>
        <time>1970-01-01T00:36:00.000Z</time>
      </trkpt>
      <trkpt lat="43.15831" lon="2.38668">
        <ele>333</ele>
        <time>1970-01-01T00:36:02.000Z</time>
      </trkpt>
      <trkpt lat="43.15832" lon="2.38669">
        <ele>333.1</ele>
        <time>1970-01-01T00:36:03.000Z</time>
      </trkpt>
      <trkpt lat="43.15833" lon="2.3867">
        <ele>333.1</ele>
        <time>1970-01-01T00:36:04.000Z</time>
      </trkpt>
      <trkpt lat="43.15833" lon="2.38671">
        <ele>333.1</ele>
        <time>1970-01-01T00:36:06.000Z</time>
      </trkpt>
      <trkpt lat="43.15833" lon="2.38673">
        <ele>333.2</ele>
        <time>1970-01-01T00:36:07.000Z</time>
      </trkpt>
      <trkpt lat="43.15832" lon="2.38675">
        <ele>333.3</ele>
        <time>1970-01-01T00:36:08.000Z</time>
      </trkpt>
      <trkpt lat="43.15832" lon="2.38677">
        <ele>333.4</ele>
        <time>1970-01-01T00:36:09.000Z</time>
      </trkpt>
      <trkpt lat="43.15831" lon="2.38678">
        <ele>333.4</ele>
        <time>1970-01-01T00:36:11.000Z</time>
      </trkpt>
      <trkpt lat="43.15831" lon="2.3868">
        <ele>333.5</ele>
        <time>1970-01-01T00:36:12.000Z</time>
      </trkpt>
      <trkpt lat="43.1583" lon="2.38681">
        <ele>333.6</ele>
        <time>1970-01-01T00:36:14.000Z</time>
      </trkpt>
      <trkpt lat="43.1583" lon="2.38683">
        <ele>333.7</ele>
        <time>1970-01-01T00:36:15.000Z</time>
      </trkpt>
      <trkpt lat="43.15829" lon="2.38684">
        <ele>333.8</ele>
        <time>1970-01-01T00:36:16.000Z</time>
      </trkpt>
      <trkpt lat="43.15829" lon="2.38686">
        <ele>333.8</ele>
        <time>1970-01-01T00:36:17.000Z</time>
      </trkpt>
      <trkpt lat="43.15827" lon="2.38689">
        <ele>334.1</ele>
        <time>1970-01-01T00:36:19.000Z</time>
      </trkpt>
      <trkpt lat="43.15827" lon="2.3869">
        <ele>334.2</ele>
        <time>1970-01-01T00:36:20.000Z</time>
      </trkpt>
      <trkpt lat="43.15825" lon="2.38696">
        <ele>334.6</ele>
        <time>1970-01-01T00:36:22.000Z</time>
      </trkpt>
      <trkpt lat="43.15824" lon="2.38698">
        <ele>334.7</ele>
        <time>1970-01-01T00:36:23.000Z</time>
      </trkpt>
      <trkpt lat="43.15824" lon="2.38699">
        <ele>334.9</ele>
        <time>1970-01-01T00:36:24.000Z</time>
      </trkpt>
      <trkpt lat="43.15823" lon="2.38701">
        <ele>335</ele>
        <time>1970-01-01T00:36:25.000Z</time>
      </trkpt>
      <trkpt lat="43.15822" lon="2.38704">
        <ele>335.3</ele>
        <time>1970-01-01T00:36:27.000Z</time>
      </trkpt>
      <trkpt lat="43.15821" lon="2.38708">
        <ele>335.6</ele>
        <time>1970-01-01T00:36:28.000Z</time>
      </trkpt>
      <trkpt lat="43.15821" lon="2.3871">
        <ele>335.8</ele>
        <time>1970-01-01T00:36:29.000Z</time>
      </trkpt>
      <trkpt lat="43.15819" lon="2.38713">
        <ele>336.1</ele>
        <time>1970-01-01T00:36:31.000Z</time>
      </trkpt>
      <trkpt lat="43.15817" lon="2.38717">
        <ele>336.5</ele>
        <time>1970-01-01T00:36:32.000Z</time>
      </trkpt>
      <trkpt lat="43.15816" lon="2.38718">
        <ele>336.7</ele>
        <time>1970-01-01T00:36:33.000Z</time>
      </trkpt>
      <trkpt lat="43.15813" lon="2.38722">
        <ele>337</ele>
        <time>1970-01-01T00:36:35.000Z</time>
      </trkpt>
      <trkpt lat="43.15813" lon="2.38723">
        <ele>337.2</ele>
        <time>1970-01-01T00:36:36.000Z</time>
      </trkpt>
      <trkpt lat="43.15811" lon="2.38726">
        <ele>337.5</ele>
        <time>1970-01-01T00:36:38.000Z</time>
      </trkpt>
      <trkpt lat="43.15809" lon="2.38729">
        <ele>337.7</ele>
        <time>1970-01-01T00:36:39.000Z</time>
      </trkpt>
      <trkpt lat="43.15808" lon="2.38732">
        <ele>338</ele>
        <time>1970-01-01T00:36:41.000Z</time>
      </trkpt>
      <trkpt lat="43.15807" lon="2.38736">
        <ele>338.2</ele>
        <time>1970-01-01T00:36:42.000Z</time>
      </trkpt>
      <trkpt lat="43.15806" lon="2.38737">
        <ele>338.3</ele>
        <time>1970-01-01T00:36:43.000Z</time>
      </trkpt>
      <trkpt lat="43.15805" lon="2.38741">
        <ele>338.6</ele>
        <time>1970-01-01T00:36:45.000Z</time>
      </trkpt>
      <trkpt lat="43.15805" lon="2.38742">
        <ele>338.6</ele>
        <time>1970-01-01T00:36:46.000Z</time>
      </trkpt>
      <trkpt lat="43.15803" lon="2.38744">
        <ele>338.8</ele>
        <time>1970-01-01T00:36:47.000Z</time>
      </trkpt>
      <trkpt lat="43.15802" lon="2.38746">
        <ele>339</ele>
        <time>1970-01-01T00:36:49.000Z</time>
      </trkpt>
      <trkpt lat="43.15801" lon="2.38747">
        <ele>339</ele>
        <time>1970-01-01T00:36:50.000Z</time>
      </trkpt>
      <trkpt lat="43.15801" lon="2.38749">
        <ele>339.1</ele>
        <time>1970-01-01T00:36:51.000Z</time>
      </trkpt>
      <trkpt lat="43.158" lon="2.38751">
        <ele>339.3</ele>
        <time>1970-01-01T00:36:53.000Z</time>
      </trkpt>
      <trkpt lat="43.15799" lon="2.38754">
        <ele>339.4</ele>
        <time>1970-01-01T00:36:54.000Z</time>
      </trkpt>
      <trkpt lat="43.15799" lon="2.38757">
        <ele>339.6</ele>
        <time>1970-01-01T00:36:56.000Z</time>
      </trkpt>
      <trkpt lat="43.15797" lon="2.38761">
        <ele>339.8</ele>
        <time>1970-01-01T00:36:58.000Z</time>
      </trkpt>
      <trkpt lat="43.15797" lon="2.38762">
        <ele>339.9</ele>
        <time>1970-01-01T00:36:59.000Z</time>
      </trkpt>
      <trkpt lat="43.15796" lon="2.38764">
        <ele>340</ele>
        <time>1970-01-01T00:37:00.000Z</time>
      </trkpt>
      <trkpt lat="43.15794" lon="2.38766">
        <ele>340.2</ele>
        <time>1970-01-01T00:37:02.000Z</time>
      </trkpt>
      <trkpt lat="43.15793" lon="2.38769">
        <ele>340.4</ele>
        <time>1970-01-01T00:37:03.000Z</time>
      </trkpt>
      <trkpt lat="43.15792" lon="2.3877">
        <ele>340.6</ele>
        <time>1970-01-01T00:37:04.000Z</time>
      </trkpt>
      <trkpt lat="43.15791" lon="2.38772">
        <ele>340.7</ele>
        <time>1970-01-01T00:37:06.000Z</time>
      </trkpt>
      <trkpt lat="43.15789" lon="2.38774">
        <ele>340.9</ele>
        <time>1970-01-01T00:37:07.000Z</time>
      </trkpt>
      <trkpt lat="43.15787" lon="2.38777">
        <ele>341.3</ele>
        <time>1970-01-01T00:37:09.000Z</time>
      </trkpt>
      <trkpt lat="43.15786" lon="2.38779">
        <ele>341.4</ele>
        <time>1970-01-01T00:37:10.000Z</time>
      </trkpt>
      <trkpt lat="43.15785" lon="2.38782">
        <ele>341.7</ele>
        <time>1970-01-01T00:37:12.000Z</time>
      </trkpt>
      <trkpt lat="43.15784" lon="2.38784">
        <ele>341.9</ele>
        <time>1970-01-01T00:37:13.000Z</time>
      </trkpt>
      <trkpt lat="43.15783" lon="2.38786">
        <ele>342.1</ele>
        <time>1970-01-01T00:37:14.000Z</time>
      </trkpt>
      <trkpt lat="43.15781" lon="2.38789">
        <ele>342.5</ele>
        <time>1970-01-01T00:37:16.000Z</time>
      </trkpt>
      <trkpt lat="43.1578" lon="2.38791">
        <ele>342.7</ele>
        <time>1970-01-01T00:37:17.000Z</time>
      </trkpt>
      <trkpt lat="43.15779" lon="2.38792">
        <ele>342.9</ele>
        <time>1970-01-01T00:37:18.000Z</time>
      </trkpt>
      <trkpt lat="43.15778" lon="2.38794">
        <ele>343.2</ele>
        <time>1970-01-01T00:37:20.000Z</time>
      </trkpt>
      <trkpt lat="43.15777" lon="2.38795">
        <ele>343.4</ele>
        <time>1970-01-01T00:37:21.000Z</time>
      </trkpt>
      <trkpt lat="43.15775" lon="2.38797">
        <ele>343.7</ele>
        <time>1970-01-01T00:37:23.000Z</time>
      </trkpt>
      <trkpt lat="43.15774" lon="2.388">
        <ele>344</ele>
        <time>1970-01-01T00:37:24.000Z</time>
      </trkpt>
      <trkpt lat="43.15773" lon="2.38801">
        <ele>344.1</ele>
        <time>1970-01-01T00:37:25.000Z</time>
      </trkpt>
      <trkpt lat="43.15772" lon="2.38802">
        <ele>344.3</ele>
        <time>1970-01-01T00:37:26.000Z</time>
      </trkpt>
      <trkpt lat="43.15771" lon="2.38803">
        <ele>344.6</ele>
        <time>1970-01-01T00:37:28.000Z</time>
      </trkpt>
      <trkpt lat="43.15769" lon="2.38804">
        <ele>344.8</ele>
        <time>1970-01-01T00:37:29.000Z</time>
      </trkpt>
      <trkpt lat="43.15767" lon="2.38805">
        <ele>345.1</ele>
        <time>1970-01-01T00:37:30.000Z</time>
      </trkpt>
      <trkpt lat="43.15766" lon="2.38805">
        <ele>345.3</ele>
        <time>1970-01-01T00:37:32.000Z</time>
      </trkpt>
      <trkpt lat="43.15765" lon="2.38806">
        <ele>345.5</ele>
        <time>1970-01-01T00:37:33.000Z</time>
      </trkpt>
      <trkpt lat="43.15763" lon="2.38808">
        <ele>345.7</ele>
        <time>1970-01-01T00:37:34.000Z</time>
      </trkpt>
      <trkpt lat="43.15762" lon="2.3881">
        <ele>346</ele>
        <time>1970-01-01T00:37:36.000Z</time>
      </trkpt>
      <trkpt lat="43.1576" lon="2.38811">
        <ele>346.3</ele>
        <time>1970-01-01T00:37:37.000Z</time>
      </trkpt>
      <trkpt lat="43.15758" lon="2.38814">
        <ele>346.6</ele>
        <time>1970-01-01T00:37:39.000Z</time>
      </trkpt>
      <trkpt lat="43.15756" lon="2.38816">
        <ele>346.9</ele>
        <time>1970-01-01T00:37:41.000Z</time>
      </trkpt>
      <trkpt lat="43.15755" lon="2.38818">
        <ele>347.1</ele>
        <time>1970-01-01T00:37:43.000Z</time>
      </trkpt>
      <trkpt lat="43.15753" lon="2.38819">
        <ele>347.4</ele>
        <time>1970-01-01T00:37:44.000Z</time>
      </trkpt>
      <trkpt lat="43.15752" lon="2.38821">
        <ele>347.6</ele>
        <time>1970-01-01T00:37:46.000Z</time>
      </trkpt>
      <trkpt lat="43.15751" lon="2.3882">
        <ele>347.7</ele>
        <time>1970-01-01T00:37:47.000Z</time>
      </trkpt>
      <trkpt lat="43.15751" lon="2.38816">
        <ele>348.1</ele>
        <time>1970-01-01T00:37:49.000Z</time>
      </trkpt>
      <trkpt lat="43.15753" lon="2.38813">
        <ele>348.5</ele>
        <time>1970-01-01T00:37:51.000Z</time>
      </trkpt>
      <trkpt lat="43.15755" lon="2.38811">
        <ele>348.8</ele>
        <time>1970-01-01T00:37:52.000Z</time>
      </trkpt>
      <trkpt lat="43.15757" lon="2.3881">
        <ele>349</ele>
        <time>1970-01-01T00:37:53.000Z</time>
      </trkpt>
      <trkpt lat="43.15758" lon="2.38809">
        <ele>349.3</ele>
        <time>1970-01-01T00:37:54.000Z</time>
      </trkpt>
      <trkpt lat="43.15762" lon="2.38807">
        <ele>349.6</ele>
        <time>1970-01-01T00:37:56.000Z</time>
      </trkpt>
      <trkpt lat="43.15762" lon="2.38807">
        <ele>349.7</ele>
        <time>1970-01-01T00:37:57.000Z</time>
      </trkpt>
      <trkpt lat="43.15764" lon="2.38806">
        <ele>350</ele>
        <time>1970-01-01T00:37:58.000Z</time>
      </trkpt>
      <trkpt lat="43.15765" lon="2.38804">
        <ele>350.2</ele>
        <time>1970-01-01T00:38:00.000Z</time>
      </trkpt>
      <trkpt lat="43.15767" lon="2.38801">
        <ele>350.5</ele>
        <time>1970-01-01T00:38:01.000Z</time>
      </trkpt>
      <trkpt lat="43.15769" lon="2.388">
        <ele>350.7</ele>
        <time>1970-01-01T00:38:02.000Z</time>
      </trkpt>
      <trkpt lat="43.15772" lon="2.388">
        <ele>351.1</ele>
        <time>1970-01-01T00:38:04.000Z</time>
      </trkpt>
      <trkpt lat="43.15773" lon="2.38799">
        <ele>351.3</ele>
        <time>1970-01-01T00:38:05.000Z</time>
      </trkpt>
      <trkpt lat="43.15774" lon="2.38797">
        <ele>351.5</ele>
        <time>1970-01-01T00:38:07.000Z</time>
      </trkpt>
      <trkpt lat="43.15769" lon="2.38802">
        <ele>352.2</ele>
        <time>1970-01-01T00:38:09.000Z</time>
      </trkpt>
      <trkpt lat="43.15767" lon="2.38804">
        <ele>352.6</ele>
        <time>1970-01-01T00:38:10.000Z</time>
      </trkpt>
      <trkpt lat="43.15764" lon="2.38806">
        <ele>352.9</ele>
        <time>1970-01-01T00:38:12.000Z</time>
      </trkpt>
      <trkpt lat="43.15763" lon="2.38807">
        <ele>353</ele>
        <time>1970-01-01T00:38:13.000Z</time>
      </trkpt>
      <trkpt lat="43.15762" lon="2.38809">
        <ele>353.3</ele>
        <time>1970-01-01T00:38:14.000Z</time>
      </trkpt>
      <trkpt lat="43.1576" lon="2.38812">
        <ele>353.5</ele>
        <time>1970-01-01T00:38:16.000Z</time>
      </trkpt>
      <trkpt lat="43.15758" lon="2.38813">
        <ele>353.8</ele>
        <time>1970-01-01T00:38:17.000Z</time>
      </trkpt>
      <trkpt lat="43.15757" lon="2.38815">
        <ele>353.9</ele>
        <time>1970-01-01T00:38:18.000Z</time>
      </trkpt>
      <trkpt lat="43.15755" lon="2.38817">
        <ele>354.2</ele>
        <time>1970-01-01T00:38:20.000Z</time>
      </trkpt>
      <trkpt lat="43.15755" lon="2.38818">
        <ele>354.3</ele>
        <time>1970-01-01T00:38:21.000Z</time>
      </trkpt>
      <trkpt lat="43.15754" lon="2.3882">
        <ele>354.5</ele>
        <time>1970-01-01T00:38:22.000Z</time>
      </trkpt>
      <trkpt lat="43.15753" lon="2.38823">
        <ele>354.7</ele>
        <time>1970-01-01T00:38:24.000Z</time>
      </trkpt>
      <trkpt lat="43.15752" lon="2.38827">
        <ele>355.1</ele>
        <time>1970-01-01T00:38:25.000Z</time>
      </trkpt>
      <trkpt lat="43.15752" lon="2.38828">
        <ele>355.2</ele>
        <time>1970-01-01T00:38:26.000Z</time>
      </trkpt>
      <trkpt lat="43.15751" lon="2.38832">
        <ele>355.5</ele>
        <time>1970-01-01T00:38:28.000Z</time>
      </trkpt>
      <trkpt lat="43.15751" lon="2.38834">
        <ele>355.6</ele>
        <time>1970-01-01T00:38:29.000Z</time>
      </trkpt>
      <trkpt lat="43.15749" lon="2.38838">
        <ele>356</ele>
        <time>1970-01-01T00:38:31.000Z</time>
      </trkpt>
      <trkpt lat="43.15749" lon="2.38839">
        <ele>356.1</ele>
        <time>1970-01-01T00:38:32.000Z</time>
      </trkpt>
      <trkpt lat="43.15748" lon="2.38841">
        <ele>356.3</ele>
        <time>1970-01-01T00:38:33.000Z</time>
      </trkpt>
      <trkpt lat="43.15747" lon="2.38842">
        <ele>356.5</ele>
        <time>1970-01-01T00:38:35.000Z</time>
      </trkpt>
      <trkpt lat="43.15745" lon="2.38845">
        <ele>356.7</ele>
        <time>1970-01-01T00:38:36.000Z</time>
      </trkpt>
      <trkpt lat="43.15744" lon="2.38848">
        <ele>357.1</ele>
        <time>1970-01-01T00:38:38.000Z</time>
      </trkpt>
      <trkpt lat="43.15744" lon="2.38851">
        <ele>358</ele>
        <time>1970-01-01T00:38:39.000Z</time>
      </trkpt>
      <trkpt lat="43.15744" lon="2.38854">
        <ele>358.6</ele>
        <time>1970-01-01T00:38:41.000Z</time>
      </trkpt>
      <trkpt lat="43.15747" lon="2.38856">
        <ele>359.5</ele>
        <time>1970-01-01T00:38:42.000Z</time>
      </trkpt>
      <trkpt lat="43.15749" lon="2.38856">
        <ele>359.7</ele>
        <time>1970-01-01T00:38:43.000Z</time>
      </trkpt>
      <trkpt lat="43.15751" lon="2.38857">
        <ele>360.4</ele>
        <time>1970-01-01T00:38:45.000Z</time>
      </trkpt>
      <trkpt lat="43.15752" lon="2.38858">
        <ele>360.8</ele>
        <time>1970-01-01T00:38:46.000Z</time>
      </trkpt>
      <trkpt lat="43.15754" lon="2.38859">
        <ele>361.2</ele>
        <time>1970-01-01T00:38:47.000Z</time>
      </trkpt>
      <trkpt lat="43.15755" lon="2.38861">
        <ele>361.7</ele>
        <time>1970-01-01T00:38:48.000Z</time>
      </trkpt>
      <trkpt lat="43.15756" lon="2.38862">
        <ele>362</ele>
        <time>1970-01-01T00:38:50.000Z</time>
      </trkpt>
      <trkpt lat="43.15756" lon="2.38863">
        <ele>362.3</ele>
        <time>1970-01-01T00:38:51.000Z</time>
      </trkpt>
      <trkpt lat="43.15756" lon="2.38866">
        <ele>362.7</ele>
        <time>1970-01-01T00:38:52.000Z</time>
      </trkpt>
      <trkpt lat="43.15756" lon="2.38868">
        <ele>363</ele>
        <time>1970-01-01T00:38:53.000Z</time>
      </trkpt>
      <trkpt lat="43.15755" lon="2.38869">
        <ele>363.2</ele>
        <time>1970-01-01T00:38:54.000Z</time>
      </trkpt>
      <trkpt lat="43.15756" lon="2.38871">
        <ele>363.5</ele>
        <time>1970-01-01T00:38:55.000Z</time>
      </trkpt>
      <trkpt lat="43.15756" lon="2.38874">
        <ele>363.9</ele>
        <time>1970-01-01T00:38:57.000Z</time>
      </trkpt>
      <trkpt lat="43.15757" lon="2.38877">
        <ele>364.2</ele>
        <time>1970-01-01T00:38:58.000Z</time>
      </trkpt>
      <trkpt lat="43.15757" lon="2.3888">
        <ele>364.4</ele>
        <time>1970-01-01T00:39:00.000Z</time>
      </trkpt>
      <trkpt lat="43.15757" lon="2.38882">
        <ele>364.6</ele>
        <time>1970-01-01T00:39:02.000Z</time>
      </trkpt>
      <trkpt lat="43.15756" lon="2.38885">
        <ele>364.7</ele>
        <time>1970-01-01T00:39:03.000Z</time>
      </trkpt>
      <trkpt lat="43.15757" lon="2.38887">
        <ele>364.8</ele>
        <time>1970-01-01T00:39:04.000Z</time>
      </trkpt>
      <trkpt lat="43.15756" lon="2.38889">
        <ele>364.8</ele>
        <time>1970-01-01T00:39:05.000Z</time>
      </trkpt>
      <trkpt lat="43.15756" lon="2.38891">
        <ele>364.8</ele>
        <time>1970-01-01T00:39:07.000Z</time>
      </trkpt>
      <trkpt lat="43.15743" lon="2.38894">
        <ele>363.4</ele>
        <time>1970-01-01T00:43:59.000Z</time>
      </trkpt>
      <trkpt lat="43.15756" lon="2.389">
        <ele>361.8</ele>
        <time>1970-01-01T00:44:01.000Z</time>
      </trkpt>
      <trkpt lat="43.15758" lon="2.38901">
        <ele>361.3</ele>
        <time>1970-01-01T00:44:02.000Z</time>
      </trkpt>
      <trkpt lat="43.1576" lon="2.38902">
        <ele>360.9</ele>
        <time>1970-01-01T00:44:04.000Z</time>
      </trkpt>
      <trkpt lat="43.15761" lon="2.38902">
        <ele>360.7</ele>
        <time>1970-01-01T00:44:05.000Z</time>
      </trkpt>
      <trkpt lat="43.15762" lon="2.38903">
        <ele>360.5</ele>
        <time>1970-01-01T00:44:06.000Z</time>
      </trkpt>
      <trkpt lat="43.15763" lon="2.38904">
        <ele>360.2</ele>
        <time>1970-01-01T00:44:07.000Z</time>
      </trkpt>
      <trkpt lat="43.15764" lon="2.38904">
        <ele>359.9</ele>
        <time>1970-01-01T00:44:08.000Z</time>
      </trkpt>
      <trkpt lat="43.15765" lon="2.38905">
        <ele>359.6</ele>
        <time>1970-01-01T00:44:10.000Z</time>
      </trkpt>
      <trkpt lat="43.15766" lon="2.38904">
        <ele>359.4</ele>
        <time>1970-01-01T00:44:11.000Z</time>
      </trkpt>
      <trkpt lat="43.15768" lon="2.38904">
        <ele>358.7</ele>
        <time>1970-01-01T00:44:13.000Z</time>
      </trkpt>
      <trkpt lat="43.1577" lon="2.38906">
        <ele>358</ele>
        <time>1970-01-01T00:44:14.000Z</time>
      </trkpt>
      <trkpt lat="43.15772" lon="2.3891">
        <ele>357</ele>
        <time>1970-01-01T00:44:16.000Z</time>
      </trkpt>
      <trkpt lat="43.15774" lon="2.38914">
        <ele>356.1</ele>
        <time>1970-01-01T00:44:17.000Z</time>
      </trkpt>
      <trkpt lat="43.15776" lon="2.38917">
        <ele>355.2</ele>
        <time>1970-01-01T00:44:19.000Z</time>
      </trkpt>
      <trkpt lat="43.15776" lon="2.38918">
        <ele>355</ele>
        <time>1970-01-01T00:44:20.000Z</time>
      </trkpt>
      <trkpt lat="43.15778" lon="2.38919">
        <ele>354.5</ele>
        <time>1970-01-01T00:44:21.000Z</time>
      </trkpt>
      <trkpt lat="43.15779" lon="2.3892">
        <ele>354.1</ele>
        <time>1970-01-01T00:44:22.000Z</time>
      </trkpt>
      <trkpt lat="43.1578" lon="2.38924">
        <ele>353.2</ele>
        <time>1970-01-01T00:44:24.000Z</time>
      </trkpt>
      <trkpt lat="43.15781" lon="2.38925">
        <ele>352.9</ele>
        <time>1970-01-01T00:44:25.000Z</time>
      </trkpt>
      <trkpt lat="43.15782" lon="2.38927">
        <ele>352.3</ele>
        <time>1970-01-01T00:44:26.000Z</time>
      </trkpt>
      <trkpt lat="43.15783" lon="2.38929">
        <ele>351.7</ele>
        <time>1970-01-01T00:44:28.000Z</time>
      </trkpt>
      <trkpt lat="43.15785" lon="2.3893">
        <ele>351.2</ele>
        <time>1970-01-01T00:44:29.000Z</time>
      </trkpt>
      <trkpt lat="43.15787" lon="2.3893">
        <ele>350.7</ele>
        <time>1970-01-01T00:44:30.000Z</time>
      </trkpt>
      <trkpt lat="43.15789" lon="2.38929">
        <ele>350.1</ele>
        <time>1970-01-01T00:44:31.000Z</time>
      </trkpt>
      <trkpt lat="43.15789" lon="2.38928">
        <ele>349.9</ele>
        <time>1970-01-01T00:44:32.000Z</time>
      </trkpt>
      <trkpt lat="43.1579" lon="2.38927">
        <ele>349.7</ele>
        <time>1970-01-01T00:44:33.000Z</time>
      </trkpt>
      <trkpt lat="43.15791" lon="2.38927">
        <ele>349.2</ele>
        <time>1970-01-01T00:44:35.000Z</time>
      </trkpt>
      <trkpt lat="43.15793" lon="2.38926">
        <ele>348.8</ele>
        <time>1970-01-01T00:44:36.000Z</time>
      </trkpt>
      <trkpt lat="43.15793" lon="2.38924">
        <ele>348.4</ele>
        <time>1970-01-01T00:44:38.000Z</time>
      </trkpt>
      <trkpt lat="43.15794" lon="2.38921">
        <ele>347.9</ele>
        <time>1970-01-01T00:44:39.000Z</time>
      </trkpt>
      <trkpt lat="43.15794" lon="2.3892">
        <ele>347.6</ele>
        <time>1970-01-01T00:44:40.000Z</time>
      </trkpt>
      <trkpt lat="43.15795" lon="2.38917">
        <ele>347.1</ele>
        <time>1970-01-01T00:44:42.000Z</time>
      </trkpt>
      <trkpt lat="43.15796" lon="2.38912">
        <ele>346.3</ele>
        <time>1970-01-01T00:44:43.000Z</time>
      </trkpt>
      <trkpt lat="43.15796" lon="2.38911">
        <ele>346.1</ele>
        <time>1970-01-01T00:44:44.000Z</time>
      </trkpt>
      <trkpt lat="43.15796" lon="2.38908">
        <ele>345.8</ele>
        <time>1970-01-01T00:44:45.000Z</time>
      </trkpt>
      <trkpt lat="43.15797" lon="2.38906">
        <ele>345.4</ele>
        <time>1970-01-01T00:44:47.000Z</time>
      </trkpt>
      <trkpt lat="43.15797" lon="2.38902">
        <ele>344.8</ele>
        <time>1970-01-01T00:44:48.000Z</time>
      </trkpt>
      <trkpt lat="43.15798" lon="2.38898">
        <ele>344.3</ele>
        <time>1970-01-01T00:44:49.000Z</time>
      </trkpt>
      <trkpt lat="43.15799" lon="2.38892">
        <ele>343.5</ele>
        <time>1970-01-01T00:44:51.000Z</time>
      </trkpt>
      <trkpt lat="43.15799" lon="2.3889">
        <ele>343.2</ele>
        <time>1970-01-01T00:44:52.000Z</time>
      </trkpt>
      <trkpt lat="43.158" lon="2.38888">
        <ele>343</ele>
        <time>1970-01-01T00:44:53.000Z</time>
      </trkpt>
      <trkpt lat="43.15799" lon="2.38883">
        <ele>342.3</ele>
        <time>1970-01-01T00:44:55.000Z</time>
      </trkpt>
      <trkpt lat="43.15799" lon="2.38882">
        <ele>342.1</ele>
        <time>1970-01-01T00:44:56.000Z</time>
      </trkpt>
      <trkpt lat="43.158" lon="2.3888">
        <ele>341.8</ele>
        <time>1970-01-01T00:44:57.000Z</time>
      </trkpt>
      <trkpt lat="43.158" lon="2.38877">
        <ele>341.4</ele>
        <time>1970-01-01T00:44:59.000Z</time>
      </trkpt>
      <trkpt lat="43.15802" lon="2.38875">
        <ele>340.9</ele>
        <time>1970-01-01T00:45:00.000Z</time>
      </trkpt>
      <trkpt lat="43.15804" lon="2.38875">
        <ele>340.4</ele>
        <time>1970-01-01T00:45:02.000Z</time>
      </trkpt>
      <trkpt lat="43.15807" lon="2.38877">
        <ele>339.7</ele>
        <time>1970-01-01T00:45:03.000Z</time>
      </trkpt>
      <trkpt lat="43.15808" lon="2.38878">
        <ele>339.5</ele>
        <time>1970-01-01T00:45:04.000Z</time>
      </trkpt>
      <trkpt lat="43.15808" lon="2.3888">
        <ele>339.1</ele>
        <time>1970-01-01T00:45:06.000Z</time>
      </trkpt>
      <trkpt lat="43.15809" lon="2.38883">
        <ele>338.6</ele>
        <time>1970-01-01T00:45:07.000Z</time>
      </trkpt>
      <trkpt lat="43.1581" lon="2.38887">
        <ele>337.8</ele>
        <time>1970-01-01T00:45:09.000Z</time>
      </trkpt>
      <trkpt lat="43.1581" lon="2.38891">
        <ele>337.1</ele>
        <time>1970-01-01T00:45:10.000Z</time>
      </trkpt>
      <trkpt lat="43.15812" lon="2.38895">
        <ele>336.3</ele>
        <time>1970-01-01T00:45:12.000Z</time>
      </trkpt>
      <trkpt lat="43.15812" lon="2.38896">
        <ele>336</ele>
        <time>1970-01-01T00:45:13.000Z</time>
      </trkpt>
      <trkpt lat="43.15813" lon="2.38899">
        <ele>335.4</ele>
        <time>1970-01-01T00:45:14.000Z</time>
      </trkpt>
      <trkpt lat="43.15814" lon="2.38903">
        <ele>334.6</ele>
        <time>1970-01-01T00:45:16.000Z</time>
      </trkpt>
      <trkpt lat="43.15815" lon="2.38905">
        <ele>334.2</ele>
        <time>1970-01-01T00:45:17.000Z</time>
      </trkpt>
      <trkpt lat="43.15817" lon="2.38908">
        <ele>333.5</ele>
        <time>1970-01-01T00:45:19.000Z</time>
      </trkpt>
      <trkpt lat="43.15818" lon="2.38911">
        <ele>333</ele>
        <time>1970-01-01T00:45:20.000Z</time>
      </trkpt>
      <trkpt lat="43.15819" lon="2.38912">
        <ele>332.6</ele>
        <time>1970-01-01T00:45:21.000Z</time>
      </trkpt>
      <trkpt lat="43.15819" lon="2.38914">
        <ele>332.3</ele>
        <time>1970-01-01T00:45:22.000Z</time>
      </trkpt>
      <trkpt lat="43.1582" lon="2.38916">
        <ele>331.8</ele>
        <time>1970-01-01T00:45:24.000Z</time>
      </trkpt>
      <trkpt lat="43.15821" lon="2.38919">
        <ele>331.3</ele>
        <time>1970-01-01T00:45:25.000Z</time>
      </trkpt>
      <trkpt lat="43.15821" lon="2.38922">
        <ele>330.7</ele>
        <time>1970-01-01T00:45:27.000Z</time>
      </trkpt>
      <trkpt lat="43.15822" lon="2.38925">
        <ele>330</ele>
        <time>1970-01-01T00:45:28.000Z</time>
      </trkpt>
      <trkpt lat="43.15822" lon="2.38927">
        <ele>329.7</ele>
        <time>1970-01-01T00:45:29.000Z</time>
      </trkpt>
      <trkpt lat="43.15823" lon="2.38931">
        <ele>328.9</ele>
        <time>1970-01-01T00:45:31.000Z</time>
      </trkpt>
      <trkpt lat="43.15823" lon="2.38932">
        <ele>328.6</ele>
        <time>1970-01-01T00:45:32.000Z</time>
      </trkpt>
      <trkpt lat="43.15824" lon="2.38936">
        <ele>327.8</ele>
        <time>1970-01-01T00:45:34.000Z</time>
      </trkpt>
      <trkpt lat="43.15825" lon="2.38937">
        <ele>327.3</ele>
        <time>1970-01-01T00:45:35.000Z</time>
      </trkpt>
      <trkpt lat="43.15826" lon="2.38939">
        <ele>326.9</ele>
        <time>1970-01-01T00:45:36.000Z</time>
      </trkpt>
      <trkpt lat="43.15828" lon="2.3894">
        <ele>326.3</ele>
        <time>1970-01-01T00:45:37.000Z</time>
      </trkpt>
      <trkpt lat="43.15829" lon="2.3894">
        <ele>325.9</ele>
        <time>1970-01-01T00:45:39.000Z</time>
      </trkpt>
      <trkpt lat="43.15831" lon="2.38941">
        <ele>325.4</ele>
        <time>1970-01-01T00:45:40.000Z</time>
      </trkpt>
      <trkpt lat="43.15832" lon="2.38942">
        <ele>324.9</ele>
        <time>1970-01-01T00:45:41.000Z</time>
      </trkpt>
      <trkpt lat="43.15833" lon="2.38944">
        <ele>324.4</ele>
        <time>1970-01-01T00:45:42.000Z</time>
      </trkpt>
      <trkpt lat="43.15834" lon="2.38946">
        <ele>323.7</ele>
        <time>1970-01-01T00:45:44.000Z</time>
      </trkpt>
      <trkpt lat="43.15834" lon="2.38948">
        <ele>323.2</ele>
        <time>1970-01-01T00:45:45.000Z</time>
      </trkpt>
      <trkpt lat="43.15834" lon="2.38952">
        <ele>322.2</ele>
        <time>1970-01-01T00:45:47.000Z</time>
      </trkpt>
      <trkpt lat="43.15834" lon="2.38955">
        <ele>321.5</ele>
        <time>1970-01-01T00:45:48.000Z</time>
      </trkpt>
      <trkpt lat="43.15834" lon="2.38958">
        <ele>320.7</ele>
        <time>1970-01-01T00:45:50.000Z</time>
      </trkpt>
      <trkpt lat="43.15835" lon="2.3896">
        <ele>320.2</ele>
        <time>1970-01-01T00:45:51.000Z</time>
      </trkpt>
      <trkpt lat="43.15835" lon="2.38964">
        <ele>319.3</ele>
        <time>1970-01-01T00:45:53.000Z</time>
      </trkpt>
      <trkpt lat="43.15836" lon="2.38966">
        <ele>318.3</ele>
        <time>1970-01-01T00:45:54.000Z</time>
      </trkpt>
      <trkpt lat="43.15837" lon="2.38968">
        <ele>317.9</ele>
        <time>1970-01-01T00:45:56.000Z</time>
      </trkpt>
      <trkpt lat="43.15838" lon="2.38969">
        <ele>317.4</ele>
        <time>1970-01-01T00:45:57.000Z</time>
      </trkpt>
      <trkpt lat="43.15839" lon="2.38971">
        <ele>317</ele>
        <time>1970-01-01T00:45:58.000Z</time>
      </trkpt>
      <trkpt lat="43.1584" lon="2.38971">
        <ele>316.6</ele>
        <time>1970-01-01T00:46:00.000Z</time>
      </trkpt>
      <trkpt lat="43.15841" lon="2.38972">
        <ele>316.1</ele>
        <time>1970-01-01T00:46:01.000Z</time>
      </trkpt>
      <trkpt lat="43.15842" lon="2.38973">
        <ele>315.7</ele>
        <time>1970-01-01T00:46:02.000Z</time>
      </trkpt>
      <trkpt lat="43.15843" lon="2.38975">
        <ele>314.9</ele>
        <time>1970-01-01T00:46:03.000Z</time>
      </trkpt>
      <trkpt lat="43.15843" lon="2.38976">
        <ele>314.8</ele>
        <time>1970-01-01T00:46:04.000Z</time>
      </trkpt>
      <trkpt lat="43.15844" lon="2.38977">
        <ele>314.5</ele>
        <time>1970-01-01T00:46:05.000Z</time>
      </trkpt>
      <trkpt lat="43.15845" lon="2.38978">
        <ele>314</ele>
        <time>1970-01-01T00:46:07.000Z</time>
      </trkpt>
      <trkpt lat="43.15847" lon="2.38978">
        <ele>313.3</ele>
        <time>1970-01-01T00:46:08.000Z</time>
      </trkpt>
      <trkpt lat="43.15849" lon="2.38978">
        <ele>312.6</ele>
        <time>1970-01-01T00:46:09.000Z</time>
      </trkpt>
      <trkpt lat="43.1585" lon="2.38978">
        <ele>312.2</ele>
        <time>1970-01-01T00:46:11.000Z</time>
      </trkpt>
      <trkpt lat="43.15851" lon="2.38978">
        <ele>311.8</ele>
        <time>1970-01-01T00:46:12.000Z</time>
      </trkpt>
      <trkpt lat="43.15853" lon="2.38976">
        <ele>311</ele>
        <time>1970-01-01T00:46:13.000Z</time>
      </trkpt>
      <trkpt lat="43.15854" lon="2.38975">
        <ele>310.5</ele>
        <time>1970-01-01T00:46:14.000Z</time>
      </trkpt>
      <trkpt lat="43.15857" lon="2.38973">
        <ele>309.6</ele>
        <time>1970-01-01T00:46:16.000Z</time>
      </trkpt>
      <trkpt lat="43.15857" lon="2.38972">
        <ele>309.3</ele>
        <time>1970-01-01T00:46:17.000Z</time>
      </trkpt>
      <trkpt lat="43.15859" lon="2.38972">
        <ele>308.8</ele>
        <time>1970-01-01T00:46:18.000Z</time>
      </trkpt>
      <trkpt lat="43.1586" lon="2.38972">
        <ele>308.3</ele>
        <time>1970-01-01T00:46:20.000Z</time>
      </trkpt>
      <trkpt lat="43.15862" lon="2.38972">
        <ele>308</ele>
        <time>1970-01-01T00:46:21.000Z</time>
      </trkpt>
      <trkpt lat="43.15863" lon="2.38971">
        <ele>307.6</ele>
        <time>1970-01-01T00:46:22.000Z</time>
      </trkpt>
      <trkpt lat="43.15864" lon="2.38969">
        <ele>307</ele>
        <time>1970-01-01T00:46:24.000Z</time>
      </trkpt>
      <trkpt lat="43.15866" lon="2.38967">
        <ele>306.5</ele>
        <time>1970-01-01T00:46:25.000Z</time>
      </trkpt>
      <trkpt lat="43.15869" lon="2.38967">
        <ele>305.8</ele>
        <time>1970-01-01T00:46:27.000Z</time>
      </trkpt>
      <trkpt lat="43.15871" lon="2.38967">
        <ele>305.4</ele>
        <time>1970-01-01T00:46:28.000Z</time>
      </trkpt>
      <trkpt lat="43.15873" lon="2.38967">
        <ele>304.8</ele>
        <time>1970-01-01T00:46:30.000Z</time>
      </trkpt>
      <trkpt lat="43.15876" lon="2.38965">
        <ele>304</ele>
        <time>1970-01-01T00:46:31.000Z</time>
      </trkpt>
      <trkpt lat="43.15877" lon="2.38965">
        <ele>303.8</ele>
        <time>1970-01-01T00:46:32.000Z</time>
      </trkpt>
      <trkpt lat="43.15879" lon="2.38963">
        <ele>303.1</ele>
        <time>1970-01-01T00:46:34.000Z</time>
      </trkpt>
      <trkpt lat="43.1588" lon="2.38962">
        <ele>302.8</ele>
        <time>1970-01-01T00:46:35.000Z</time>
      </trkpt>
      <trkpt lat="43.15884" lon="2.38963">
        <ele>302</ele>
        <time>1970-01-01T00:46:37.000Z</time>
      </trkpt>
      <trkpt lat="43.15885" lon="2.38963">
        <ele>301.7</ele>
        <time>1970-01-01T00:46:38.000Z</time>
      </trkpt>
      <trkpt lat="43.15887" lon="2.38964">
        <ele>301.1</ele>
        <time>1970-01-01T00:46:40.000Z</time>
      </trkpt>
      <trkpt lat="43.15889" lon="2.38965">
        <ele>300.6</ele>
        <time>1970-01-01T00:46:42.000Z</time>
      </trkpt>
      <trkpt lat="43.15892" lon="2.38965">
        <ele>300.1</ele>
        <time>1970-01-01T00:46:43.000Z</time>
      </trkpt>
      <trkpt lat="43.15893" lon="2.38965">
        <ele>299.7</ele>
        <time>1970-01-01T00:46:44.000Z</time>
      </trkpt>
      <trkpt lat="43.15895" lon="2.38966">
        <ele>299.3</ele>
        <time>1970-01-01T00:46:45.000Z</time>
      </trkpt>
      <trkpt lat="43.15896" lon="2.38968">
        <ele>298.8</ele>
        <time>1970-01-01T00:46:47.000Z</time>
      </trkpt>
      <trkpt lat="43.15899" lon="2.3897">
        <ele>298</ele>
        <time>1970-01-01T00:46:48.000Z</time>
      </trkpt>
      <trkpt lat="43.159" lon="2.3897">
        <ele>297.8</ele>
        <time>1970-01-01T00:46:49.000Z</time>
      </trkpt>
      <trkpt lat="43.15902" lon="2.38971">
        <ele>297.4</ele>
        <time>1970-01-01T00:46:50.000Z</time>
      </trkpt>
      <trkpt lat="43.15904" lon="2.38971">
        <ele>296.9</ele>
        <time>1970-01-01T00:46:52.000Z</time>
      </trkpt>
      <trkpt lat="43.15906" lon="2.38972">
        <ele>296.4</ele>
        <time>1970-01-01T00:46:53.000Z</time>
      </trkpt>
      <trkpt lat="43.15907" lon="2.38973">
        <ele>296.1</ele>
        <time>1970-01-01T00:46:54.000Z</time>
      </trkpt>
      <trkpt lat="43.1591" lon="2.38975">
        <ele>295.4</ele>
        <time>1970-01-01T00:46:56.000Z</time>
      </trkpt>
      <trkpt lat="43.15911" lon="2.38975">
        <ele>295.2</ele>
        <time>1970-01-01T00:46:57.000Z</time>
      </trkpt>
      <trkpt lat="43.15915" lon="2.38977">
        <ele>294.2</ele>
        <time>1970-01-01T00:46:59.000Z</time>
      </trkpt>
      <trkpt lat="43.15916" lon="2.38977">
        <ele>293.9</ele>
        <time>1970-01-01T00:47:00.000Z</time>
      </trkpt>
      <trkpt lat="43.15917" lon="2.38977">
        <ele>293.6</ele>
        <time>1970-01-01T00:47:01.000Z</time>
      </trkpt>
      <trkpt lat="43.1592" lon="2.38976">
        <ele>292.8</ele>
        <time>1970-01-01T00:47:03.000Z</time>
      </trkpt>
      <trkpt lat="43.15922" lon="2.38976">
        <ele>292.4</ele>
        <time>1970-01-01T00:47:04.000Z</time>
      </trkpt>
      <trkpt lat="43.15926" lon="2.38976">
        <ele>291.2</ele>
        <time>1970-01-01T00:47:06.000Z</time>
      </trkpt>
      <trkpt lat="43.15927" lon="2.38976">
        <ele>290.8</ele>
        <time>1970-01-01T00:47:08.000Z</time>
      </trkpt>
      <trkpt lat="43.15929" lon="2.38976">
        <ele>290.3</ele>
        <time>1970-01-01T00:47:09.000Z</time>
      </trkpt>
      <trkpt lat="43.15931" lon="2.38976">
        <ele>289.8</ele>
        <time>1970-01-01T00:47:10.000Z</time>
      </trkpt>
      <trkpt lat="43.15933" lon="2.38975">
        <ele>289.1</ele>
        <time>1970-01-01T00:47:12.000Z</time>
      </trkpt>
      <trkpt lat="43.15935" lon="2.38974">
        <ele>288.4</ele>
        <time>1970-01-01T00:47:13.000Z</time>
      </trkpt>
      <trkpt lat="43.15937" lon="2.38975">
        <ele>287.5</ele>
        <time>1970-01-01T00:47:15.000Z</time>
      </trkpt>
      <trkpt lat="43.15939" lon="2.38972">
        <ele>286.4</ele>
        <time>1970-01-01T00:47:17.000Z</time>
      </trkpt>
      <trkpt lat="43.1594" lon="2.38971">
        <ele>286.1</ele>
        <time>1970-01-01T00:47:18.000Z</time>
      </trkpt>
      <trkpt lat="43.15941" lon="2.38969">
        <ele>285.4</ele>
        <time>1970-01-01T00:47:19.000Z</time>
      </trkpt>
      <trkpt lat="43.15943" lon="2.38968">
        <ele>284.7</ele>
        <time>1970-01-01T00:47:20.000Z</time>
      </trkpt>
      <trkpt lat="43.15946" lon="2.38966">
        <ele>283.5</ele>
        <time>1970-01-01T00:47:22.000Z</time>
      </trkpt>
      <trkpt lat="43.15947" lon="2.38965">
        <ele>283.1</ele>
        <time>1970-01-01T00:47:23.000Z</time>
      </trkpt>
      <trkpt lat="43.15948" lon="2.38964">
        <ele>282.6</ele>
        <time>1970-01-01T00:47:24.000Z</time>
      </trkpt>
      <trkpt lat="43.15949" lon="2.38965">
        <ele>282.1</ele>
        <time>1970-01-01T00:47:25.000Z</time>
      </trkpt>
      <trkpt lat="43.15952" lon="2.38967">
        <ele>281.2</ele>
        <time>1970-01-01T00:47:26.000Z</time>
      </trkpt>
      <trkpt lat="43.15952" lon="2.38968">
        <ele>280.8</ele>
        <time>1970-01-01T00:47:27.000Z</time>
      </trkpt>
      <trkpt lat="43.15955" lon="2.3897">
        <ele>280</ele>
        <time>1970-01-01T00:47:28.000Z</time>
      </trkpt>
      <trkpt lat="43.15956" lon="2.38971">
        <ele>279.5</ele>
        <time>1970-01-01T00:47:30.000Z</time>
      </trkpt>
      <trkpt lat="43.15958" lon="2.38974">
        <ele>278.6</ele>
        <time>1970-01-01T00:47:31.000Z</time>
      </trkpt>
      <trkpt lat="43.15959" lon="2.38975">
        <ele>278.3</ele>
        <time>1970-01-01T00:47:32.000Z</time>
      </trkpt>
      <trkpt lat="43.15963" lon="2.38977">
        <ele>277</ele>
        <time>1970-01-01T00:47:34.000Z</time>
      </trkpt>
      <trkpt lat="43.15965" lon="2.38978">
        <ele>276.5</ele>
        <time>1970-01-01T00:47:36.000Z</time>
      </trkpt>
      <trkpt lat="43.15967" lon="2.38979">
        <ele>276</ele>
        <time>1970-01-01T00:47:37.000Z</time>
      </trkpt>
      <trkpt lat="43.15969" lon="2.38981">
        <ele>275.5</ele>
        <time>1970-01-01T00:47:38.000Z</time>
      </trkpt>
      <trkpt lat="43.1597" lon="2.38981">
        <ele>275.2</ele>
        <time>1970-01-01T00:47:40.000Z</time>
      </trkpt>
      <trkpt lat="43.15972" lon="2.38982">
        <ele>274.8</ele>
        <time>1970-01-01T00:47:41.000Z</time>
      </trkpt>
      <trkpt lat="43.15975" lon="2.38982">
        <ele>274.3</ele>
        <time>1970-01-01T00:47:42.000Z</time>
      </trkpt>
      <trkpt lat="43.15977" lon="2.38984">
        <ele>273.7</ele>
        <time>1970-01-01T00:47:44.000Z</time>
      </trkpt>
      <trkpt lat="43.1598" lon="2.38987">
        <ele>273</ele>
        <time>1970-01-01T00:47:45.000Z</time>
      </trkpt>
      <trkpt lat="43.15981" lon="2.38988">
        <ele>273.1</ele>
        <time>1970-01-01T00:47:46.000Z</time>
      </trkpt>
      <trkpt lat="43.15983" lon="2.38988">
        <ele>273.1</ele>
        <time>1970-01-01T00:47:47.000Z</time>
      </trkpt>
      <trkpt lat="43.15985" lon="2.38986">
        <ele>273.3</ele>
        <time>1970-01-01T00:47:49.000Z</time>
      </trkpt>
      <trkpt lat="43.15985" lon="2.38982">
        <ele>273.4</ele>
        <time>1970-01-01T00:47:50.000Z</time>
      </trkpt>
      <trkpt lat="43.15985" lon="2.38981">
        <ele>273.4</ele>
        <time>1970-01-01T00:47:51.000Z</time>
      </trkpt>
      <trkpt lat="43.15986" lon="2.38979">
        <ele>273.5</ele>
        <time>1970-01-01T00:47:52.000Z</time>
      </trkpt>
      <trkpt lat="43.15987" lon="2.38977">
        <ele>273.6</ele>
        <time>1970-01-01T00:47:54.000Z</time>
      </trkpt>
      <trkpt lat="43.15988" lon="2.38976">
        <ele>273.7</ele>
        <time>1970-01-01T00:47:55.000Z</time>
      </trkpt>
      <trkpt lat="43.1599" lon="2.38975">
        <ele>273.8</ele>
        <time>1970-01-01T00:47:56.000Z</time>
      </trkpt>
      <trkpt lat="43.15993" lon="2.38977">
        <ele>274.1</ele>
        <time>1970-01-01T00:47:58.000Z</time>
      </trkpt>
      <trkpt lat="43.15996" lon="2.38979">
        <ele>274.4</ele>
        <time>1970-01-01T00:47:59.000Z</time>
      </trkpt>
      <trkpt lat="43.15999" lon="2.38981">
        <ele>274.8</ele>
        <time>1970-01-01T00:48:00.000Z</time>
      </trkpt>
      <trkpt lat="43.16" lon="2.38982">
        <ele>275</ele>
        <time>1970-01-01T00:48:01.000Z</time>
      </trkpt>
      <trkpt lat="43.16003" lon="2.38982">
        <ele>275.4</ele>
        <time>1970-01-01T00:48:03.000Z</time>
      </trkpt>
      <trkpt lat="43.16004" lon="2.3898">
        <ele>275.7</ele>
        <time>1970-01-01T00:48:04.000Z</time>
      </trkpt>
      <trkpt lat="43.16004" lon="2.38976">
        <ele>276.2</ele>
        <time>1970-01-01T00:48:06.000Z</time>
      </trkpt>
      <trkpt lat="43.16003" lon="2.38974">
        <ele>276.6</ele>
        <time>1970-01-01T00:48:07.000Z</time>
      </trkpt>
      <trkpt lat="43.16003" lon="2.38972">
        <ele>276.9</ele>
        <time>1970-01-01T00:48:08.000Z</time>
      </trkpt>
      <trkpt lat="43.16004" lon="2.38971">
        <ele>277.2</ele>
        <time>1970-01-01T00:48:09.000Z</time>
      </trkpt>
      <trkpt lat="43.16005" lon="2.3897">
        <ele>277.5</ele>
        <time>1970-01-01T00:48:11.000Z</time>
      </trkpt>
      <trkpt lat="43.16007" lon="2.3897">
        <ele>278</ele>
        <time>1970-01-01T00:48:12.000Z</time>
      </trkpt>
      <trkpt lat="43.1601" lon="2.3897">
        <ele>278.6</ele>
        <time>1970-01-01T00:48:14.000Z</time>
      </trkpt>
      <trkpt lat="43.16012" lon="2.38971">
        <ele>279.2</ele>
        <time>1970-01-01T00:48:15.000Z</time>
      </trkpt>
      <trkpt lat="43.16015" lon="2.38973">
        <ele>279.9</ele>
        <time>1970-01-01T00:48:17.000Z</time>
      </trkpt>
      <trkpt lat="43.16017" lon="2.38975">
        <ele>280.6</ele>
        <time>1970-01-01T00:48:18.000Z</time>
      </trkpt>
      <trkpt lat="43.16019" lon="2.38975">
        <ele>280.9</ele>
        <time>1970-01-01T00:48:20.000Z</time>
      </trkpt>
      <trkpt lat="43.1602" lon="2.38975">
        <ele>281.2</ele>
        <time>1970-01-01T00:48:21.000Z</time>
      </trkpt>
      <trkpt lat="43.16021" lon="2.38975">
        <ele>281.5</ele>
        <time>1970-01-01T00:48:22.000Z</time>
      </trkpt>
      <trkpt lat="43.16022" lon="2.38975">
        <ele>281.8</ele>
        <time>1970-01-01T00:48:24.000Z</time>
      </trkpt>
      <trkpt lat="43.16023" lon="2.38974">
        <ele>282</ele>
        <time>1970-01-01T00:48:25.000Z</time>
      </trkpt>
      <trkpt lat="43.16025" lon="2.38973">
        <ele>282.5</ele>
        <time>1970-01-01T00:48:27.000Z</time>
      </trkpt>
      <trkpt lat="43.16027" lon="2.38973">
        <ele>282.8</ele>
        <time>1970-01-01T00:48:28.000Z</time>
      </trkpt>
      <trkpt lat="43.16028" lon="2.38974">
        <ele>283</ele>
        <time>1970-01-01T00:48:30.000Z</time>
      </trkpt>
      <trkpt lat="43.16029" lon="2.38973">
        <ele>283.3</ele>
        <time>1970-01-01T00:48:31.000Z</time>
      </trkpt>
      <trkpt lat="43.1603" lon="2.38973">
        <ele>283.5</ele>
        <time>1970-01-01T00:48:33.000Z</time>
      </trkpt>
      <trkpt lat="43.16031" lon="2.38972">
        <ele>283.8</ele>
        <time>1970-01-01T00:48:34.000Z</time>
      </trkpt>
      <trkpt lat="43.16032" lon="2.38969">
        <ele>284.1</ele>
        <time>1970-01-01T00:48:35.000Z</time>
      </trkpt>
      <trkpt lat="43.16033" lon="2.38968">
        <ele>284.3</ele>
        <time>1970-01-01T00:48:36.000Z</time>
      </trkpt>
      <trkpt lat="43.16036" lon="2.38966">
        <ele>284.6</ele>
        <time>1970-01-01T00:48:38.000Z</time>
      </trkpt>
      <trkpt lat="43.16037" lon="2.38965">
        <ele>284.7</ele>
        <time>1970-01-01T00:48:39.000Z</time>
      </trkpt>
      <trkpt lat="43.16039" lon="2.38962">
        <ele>284.9</ele>
        <time>1970-01-01T00:48:41.000Z</time>
      </trkpt>
      <trkpt lat="43.16039" lon="2.38961">
        <ele>285</ele>
        <time>1970-01-01T00:48:42.000Z</time>
      </trkpt>
      <trkpt lat="43.16039" lon="2.38959">
        <ele>284.9</ele>
        <time>1970-01-01T00:48:43.000Z</time>
      </trkpt>
      <trkpt lat="43.16038" lon="2.38957">
        <ele>284.9</ele>
        <time>1970-01-01T00:48:44.000Z</time>
      </trkpt>
      <trkpt lat="43.16036" lon="2.38954">
        <ele>284.8</ele>
        <time>1970-01-01T00:48:46.000Z</time>
      </trkpt>
      <trkpt lat="43.16034" lon="2.38955">
        <ele>284.7</ele>
        <time>1970-01-01T00:48:47.000Z</time>
      </trkpt>
      <trkpt lat="43.16034" lon="2.38958">
        <ele>284.5</ele>
        <time>1970-01-01T00:48:49.000Z</time>
      </trkpt>
      <trkpt lat="43.16034" lon="2.3896">
        <ele>284.3</ele>
        <time>1970-01-01T00:48:50.000Z</time>
      </trkpt>
      <trkpt lat="43.16034" lon="2.38965">
        <ele>283.8</ele>
        <time>1970-01-01T00:48:52.000Z</time>
      </trkpt>
      <trkpt lat="43.16035" lon="2.38968">
        <ele>283.5</ele>
        <time>1970-01-01T00:48:54.000Z</time>
      </trkpt>
      <trkpt lat="43.16035" lon="2.38967">
        <ele>283.3</ele>
        <time>1970-01-01T00:48:55.000Z</time>
      </trkpt>
      <trkpt lat="43.16036" lon="2.38965">
        <ele>283.2</ele>
        <time>1970-01-01T00:48:56.000Z</time>
      </trkpt>
      <trkpt lat="43.16036" lon="2.38964">
        <ele>283</ele>
        <time>1970-01-01T00:48:57.000Z</time>
      </trkpt>
      <trkpt lat="43.16037" lon="2.38963">
        <ele>282.9</ele>
        <time>1970-01-01T00:48:59.000Z</time>
      </trkpt>
      <trkpt lat="43.16037" lon="2.38962">
        <ele>282.7</ele>
        <time>1970-01-01T00:49:00.000Z</time>
      </trkpt>
      <trkpt lat="43.16038" lon="2.38961">
        <ele>282.6</ele>
        <time>1970-01-01T00:49:01.000Z</time>
      </trkpt>
      <trkpt lat="43.1604" lon="2.38958">
        <ele>282</ele>
        <time>1970-01-01T00:49:03.000Z</time>
      </trkpt>
      <trkpt lat="43.16043" lon="2.38956">
        <ele>281.7</ele>
        <time>1970-01-01T00:49:04.000Z</time>
      </trkpt>
      <trkpt lat="43.16045" lon="2.38954">
        <ele>281.4</ele>
        <time>1970-01-01T00:49:06.000Z</time>
      </trkpt>
      <trkpt lat="43.16046" lon="2.38953">
        <ele>281.1</ele>
        <time>1970-01-01T00:49:07.000Z</time>
      </trkpt>
      <trkpt lat="43.16049" lon="2.38953">
        <ele>280.9</ele>
        <time>1970-01-01T00:49:09.000Z</time>
      </trkpt>
      <trkpt lat="43.1605" lon="2.38952">
        <ele>280.7</ele>
        <time>1970-01-01T00:49:10.000Z</time>
      </trkpt>
      <trkpt lat="43.16052" lon="2.38951">
        <ele>280.6</ele>
        <time>1970-01-01T00:49:11.000Z</time>
      </trkpt>
      <trkpt lat="43.16054" lon="2.38951">
        <ele>280.4</ele>
        <time>1970-01-01T00:49:12.000Z</time>
      </trkpt>
      <trkpt lat="43.16057" lon="2.38949">
        <ele>280.2</ele>
        <time>1970-01-01T00:49:14.000Z</time>
      </trkpt>
      <trkpt lat="43.1606" lon="2.38947">
        <ele>279.9</ele>
        <time>1970-01-01T00:49:15.000Z</time>
      </trkpt>
      <trkpt lat="43.1606" lon="2.38945">
        <ele>279.9</ele>
        <time>1970-01-01T00:49:16.000Z</time>
      </trkpt>
      <trkpt lat="43.16062" lon="2.38943">
        <ele>279.7</ele>
        <time>1970-01-01T00:49:17.000Z</time>
      </trkpt>
      <trkpt lat="43.16063" lon="2.3894">
        <ele>279.6</ele>
        <time>1970-01-01T00:49:19.000Z</time>
      </trkpt>
      <trkpt lat="43.16066" lon="2.38936">
        <ele>279.4</ele>
        <time>1970-01-01T00:49:20.000Z</time>
      </trkpt>
      <trkpt lat="43.16066" lon="2.38935">
        <ele>279.3</ele>
        <time>1970-01-01T00:49:21.000Z</time>
      </trkpt>
      <trkpt lat="43.16069" lon="2.38931">
        <ele>278.9</ele>
        <time>1970-01-01T00:49:22.000Z</time>
      </trkpt>
      <trkpt lat="43.1607" lon="2.3893">
        <ele>278.8</ele>
        <time>1970-01-01T00:49:23.000Z</time>
      </trkpt>
      <trkpt lat="43.16072" lon="2.38927">
        <ele>278.4</ele>
        <time>1970-01-01T00:49:25.000Z</time>
      </trkpt>
      <trkpt lat="43.16073" lon="2.38927">
        <ele>278.3</ele>
        <time>1970-01-01T00:49:26.000Z</time>
      </trkpt>
      <trkpt lat="43.16076" lon="2.38925">
        <ele>277.9</ele>
        <time>1970-01-01T00:49:27.000Z</time>
      </trkpt>
      <trkpt lat="43.16077" lon="2.38924">
        <ele>277.7</ele>
        <time>1970-01-01T00:49:28.000Z</time>
      </trkpt>
      <trkpt lat="43.16079" lon="2.38923">
        <ele>277.3</ele>
        <time>1970-01-01T00:49:30.000Z</time>
      </trkpt>
      <trkpt lat="43.16082" lon="2.38922">
        <ele>276.7</ele>
        <time>1970-01-01T00:49:32.000Z</time>
      </trkpt>
      <trkpt lat="43.16084" lon="2.38922">
        <ele>276.4</ele>
        <time>1970-01-01T00:49:33.000Z</time>
      </trkpt>
      <trkpt lat="43.16086" lon="2.38921">
        <ele>276</ele>
        <time>1970-01-01T00:49:34.000Z</time>
      </trkpt>
      <trkpt lat="43.16087" lon="2.3892">
        <ele>275.7</ele>
        <time>1970-01-01T00:49:35.000Z</time>
      </trkpt>
      <trkpt lat="43.16089" lon="2.38918">
        <ele>275.1</ele>
        <time>1970-01-01T00:49:37.000Z</time>
      </trkpt>
      <trkpt lat="43.1609" lon="2.38916">
        <ele>274.7</ele>
        <time>1970-01-01T00:49:38.000Z</time>
      </trkpt>
      <trkpt lat="43.16091" lon="2.38915">
        <ele>274.4</ele>
        <time>1970-01-01T00:49:39.000Z</time>
      </trkpt>
      <trkpt lat="43.16092" lon="2.38913">
        <ele>274.1</ele>
        <time>1970-01-01T00:49:40.000Z</time>
      </trkpt>
      <trkpt lat="43.16093" lon="2.38912">
        <ele>273.7</ele>
        <time>1970-01-01T00:49:42.000Z</time>
      </trkpt>
      <trkpt lat="43.16094" lon="2.3891">
        <ele>273.4</ele>
        <time>1970-01-01T00:49:43.000Z</time>
      </trkpt>
      <trkpt lat="43.16095" lon="2.38908">
        <ele>273</ele>
        <time>1970-01-01T00:49:44.000Z</time>
      </trkpt>
      <trkpt lat="43.16097" lon="2.38906">
        <ele>272.5</ele>
        <time>1970-01-01T00:49:45.000Z</time>
      </trkpt>
      <trkpt lat="43.16098" lon="2.38904">
        <ele>272.1</ele>
        <time>1970-01-01T00:49:47.000Z</time>
      </trkpt>
      <trkpt lat="43.16099" lon="2.38903">
        <ele>271.8</ele>
        <time>1970-01-01T00:49:49.000Z</time>
      </trkpt>
      <trkpt lat="43.16099" lon="2.38901">
        <ele>271.5</ele>
        <time>1970-01-01T00:49:50.000Z</time>
      </trkpt>
      <trkpt lat="43.161" lon="2.389">
        <ele>271.2</ele>
        <time>1970-01-01T00:49:51.000Z</time>
      </trkpt>
      <trkpt lat="43.16102" lon="2.38898">
        <ele>270.8</ele>
        <time>1970-01-01T00:49:52.000Z</time>
      </trkpt>
      <trkpt lat="43.16104" lon="2.38894">
        <ele>270.1</ele>
        <time>1970-01-01T00:49:54.000Z</time>
      </trkpt>
      <trkpt lat="43.16105" lon="2.38892">
        <ele>269.8</ele>
        <time>1970-01-01T00:49:55.000Z</time>
      </trkpt>
      <trkpt lat="43.16106" lon="2.38889">
        <ele>269.3</ele>
        <time>1970-01-01T00:49:56.000Z</time>
      </trkpt>
      <trkpt lat="43.16107" lon="2.38888">
        <ele>269.2</ele>
        <time>1970-01-01T00:49:57.000Z</time>
      </trkpt>
      <trkpt lat="43.16109" lon="2.38885">
        <ele>268.6</ele>
        <time>1970-01-01T00:49:59.000Z</time>
      </trkpt>
      <trkpt lat="43.1611" lon="2.38885">
        <ele>268.4</ele>
        <time>1970-01-01T00:50:00.000Z</time>
      </trkpt>
      <trkpt lat="43.16114" lon="2.38881">
        <ele>267.8</ele>
        <time>1970-01-01T00:50:02.000Z</time>
      </trkpt>
      <trkpt lat="43.16115" lon="2.38879">
        <ele>267.5</ele>
        <time>1970-01-01T00:50:03.000Z</time>
      </trkpt>
      <trkpt lat="43.16116" lon="2.38878">
        <ele>267.3</ele>
        <time>1970-01-01T00:50:05.000Z</time>
      </trkpt>
      <trkpt lat="43.16118" lon="2.38876">
        <ele>267.1</ele>
        <time>1970-01-01T00:50:06.000Z</time>
      </trkpt>
      <trkpt lat="43.16119" lon="2.38875">
        <ele>266.8</ele>
        <time>1970-01-01T00:50:07.000Z</time>
      </trkpt>
      <trkpt lat="43.16122" lon="2.38871">
        <ele>266.4</ele>
        <time>1970-01-01T00:50:09.000Z</time>
      </trkpt>
      <trkpt lat="43.16124" lon="2.38869">
        <ele>266.1</ele>
        <time>1970-01-01T00:50:10.000Z</time>
      </trkpt>
      <trkpt lat="43.16127" lon="2.38865">
        <ele>265.8</ele>
        <time>1970-01-01T00:50:12.000Z</time>
      </trkpt>
      <trkpt lat="43.16128" lon="2.38863">
        <ele>265.7</ele>
        <time>1970-01-01T00:50:13.000Z</time>
      </trkpt>
      <trkpt lat="43.1613" lon="2.38858">
        <ele>265.5</ele>
        <time>1970-01-01T00:50:15.000Z</time>
      </trkpt>
      <trkpt lat="43.1613" lon="2.38852">
        <ele>265.3</ele>
        <time>1970-01-01T00:50:17.000Z</time>
      </trkpt>
      <trkpt lat="43.16132" lon="2.38848">
        <ele>265.2</ele>
        <time>1970-01-01T00:50:18.000Z</time>
      </trkpt>
      <trkpt lat="43.16133" lon="2.38842">
        <ele>265</ele>
        <time>1970-01-01T00:50:20.000Z</time>
      </trkpt>
      <trkpt lat="43.16135" lon="2.38839">
        <ele>264.9</ele>
        <time>1970-01-01T00:50:21.000Z</time>
      </trkpt>
      <trkpt lat="43.16135" lon="2.38837">
        <ele>264.9</ele>
        <time>1970-01-01T00:50:22.000Z</time>
      </trkpt>
      <trkpt lat="43.16137" lon="2.38835">
        <ele>264.9</ele>
        <time>1970-01-01T00:50:23.000Z</time>
      </trkpt>
      <trkpt lat="43.16138" lon="2.38833">
        <ele>264.8</ele>
        <time>1970-01-01T00:50:25.000Z</time>
      </trkpt>
      <trkpt lat="43.1614" lon="2.38831">
        <ele>264.8</ele>
        <time>1970-01-01T00:50:26.000Z</time>
      </trkpt>
      <trkpt lat="43.16142" lon="2.38828">
        <ele>264.5</ele>
        <time>1970-01-01T00:50:28.000Z</time>
      </trkpt>
      <trkpt lat="43.16143" lon="2.38827">
        <ele>264.4</ele>
        <time>1970-01-01T00:50:29.000Z</time>
      </trkpt>
      <trkpt lat="43.16144" lon="2.38826">
        <ele>264.2</ele>
        <time>1970-01-01T00:50:30.000Z</time>
      </trkpt>
      <trkpt lat="43.16145" lon="2.38825">
        <ele>264.1</ele>
        <time>1970-01-01T00:50:31.000Z</time>
      </trkpt>
      <trkpt lat="43.16148" lon="2.38824">
        <ele>263.8</ele>
        <time>1970-01-01T00:50:33.000Z</time>
      </trkpt>
      <trkpt lat="43.16151" lon="2.38826">
        <ele>263.4</ele>
        <time>1970-01-01T00:50:34.000Z</time>
      </trkpt>
      <trkpt lat="43.16151" lon="2.38826">
        <ele>263.2</ele>
        <time>1970-01-01T00:50:35.000Z</time>
      </trkpt>
      <trkpt lat="43.16154" lon="2.38828">
        <ele>262.8</ele>
        <time>1970-01-01T00:50:37.000Z</time>
      </trkpt>
      <trkpt lat="43.16156" lon="2.38828">
        <ele>262.4</ele>
        <time>1970-01-01T00:50:38.000Z</time>
      </trkpt>
      <trkpt lat="43.16157" lon="2.38828">
        <ele>262.1</ele>
        <time>1970-01-01T00:50:40.000Z</time>
      </trkpt>
      <trkpt lat="43.16159" lon="2.38828">
        <ele>261.8</ele>
        <time>1970-01-01T00:50:41.000Z</time>
      </trkpt>
      <trkpt lat="43.1616" lon="2.38828">
        <ele>261.5</ele>
        <time>1970-01-01T00:50:42.000Z</time>
      </trkpt>
      <trkpt lat="43.16161" lon="2.38828">
        <ele>261.2</ele>
        <time>1970-01-01T00:50:43.000Z</time>
      </trkpt>
      <trkpt lat="43.16164" lon="2.38828">
        <ele>260.6</ele>
        <time>1970-01-01T00:50:45.000Z</time>
      </trkpt>
      <trkpt lat="43.16166" lon="2.38828">
        <ele>260.1</ele>
        <time>1970-01-01T00:50:46.000Z</time>
      </trkpt>
      <trkpt lat="43.16168" lon="2.38828">
        <ele>259.3</ele>
        <time>1970-01-01T00:50:48.000Z</time>
      </trkpt>
      <trkpt lat="43.16171" lon="2.38827">
        <ele>258.5</ele>
        <time>1970-01-01T00:50:49.000Z</time>
      </trkpt>
      <trkpt lat="43.16173" lon="2.38827">
        <ele>258</ele>
        <time>1970-01-01T00:50:50.000Z</time>
      </trkpt>
      <trkpt lat="43.16176" lon="2.38825">
        <ele>257.1</ele>
        <time>1970-01-01T00:50:52.000Z</time>
      </trkpt>
      <trkpt lat="43.16179" lon="2.38823">
        <ele>255.9</ele>
        <time>1970-01-01T00:50:53.000Z</time>
      </trkpt>
      <trkpt lat="43.1618" lon="2.38822">
        <ele>255.6</ele>
        <time>1970-01-01T00:50:54.000Z</time>
      </trkpt>
      <trkpt lat="43.16182" lon="2.3882">
        <ele>254.8</ele>
        <time>1970-01-01T00:50:55.000Z</time>
      </trkpt>
      <trkpt lat="43.16184" lon="2.38819">
        <ele>254.2</ele>
        <time>1970-01-01T00:50:57.000Z</time>
      </trkpt>
      <trkpt lat="43.16186" lon="2.38817">
        <ele>253.4</ele>
        <time>1970-01-01T00:50:58.000Z</time>
      </trkpt>
      <trkpt lat="43.16189" lon="2.38815">
        <ele>252.6</ele>
        <time>1970-01-01T00:50:59.000Z</time>
      </trkpt>
      <trkpt lat="43.16192" lon="2.38812">
        <ele>251.8</ele>
        <time>1970-01-01T00:51:00.000Z</time>
      </trkpt>
      <trkpt lat="43.16193" lon="2.38811">
        <ele>251.5</ele>
        <time>1970-01-01T00:51:01.000Z</time>
      </trkpt>
      <trkpt lat="43.16197" lon="2.38808">
        <ele>250.7</ele>
        <time>1970-01-01T00:51:02.000Z</time>
      </trkpt>
      <trkpt lat="43.16198" lon="2.38807">
        <ele>250.4</ele>
        <time>1970-01-01T00:51:03.000Z</time>
      </trkpt>
      <trkpt lat="43.16202" lon="2.38804">
        <ele>249.9</ele>
        <time>1970-01-01T00:51:05.000Z</time>
      </trkpt>
      <trkpt lat="43.16204" lon="2.38802">
        <ele>249.5</ele>
        <time>1970-01-01T00:51:06.000Z</time>
      </trkpt>
      <trkpt lat="43.16207" lon="2.388">
        <ele>249.2</ele>
        <time>1970-01-01T00:51:07.000Z</time>
      </trkpt>
      <trkpt lat="43.16211" lon="2.38799">
        <ele>249</ele>
        <time>1970-01-01T00:51:08.000Z</time>
      </trkpt>
      <trkpt lat="43.16214" lon="2.38797">
        <ele>248.8</ele>
        <time>1970-01-01T00:51:09.000Z</time>
      </trkpt>
      <trkpt lat="43.16217" lon="2.38796">
        <ele>248.6</ele>
        <time>1970-01-01T00:51:10.000Z</time>
      </trkpt>
      <trkpt lat="43.16221" lon="2.38794">
        <ele>248.4</ele>
        <time>1970-01-01T00:51:12.000Z</time>
      </trkpt>
      <trkpt lat="43.16223" lon="2.38793">
        <ele>248.4</ele>
        <time>1970-01-01T00:51:13.000Z</time>
      </trkpt>
      <trkpt lat="43.16224" lon="2.38793">
        <ele>248.4</ele>
        <time>1970-01-01T00:51:14.000Z</time>
      </trkpt>
      <trkpt lat="43.16227" lon="2.38791">
        <ele>248.3</ele>
        <time>1970-01-01T00:51:15.000Z</time>
      </trkpt>
      <trkpt lat="43.1623" lon="2.38789">
        <ele>248.3</ele>
        <time>1970-01-01T00:51:16.000Z</time>
      </trkpt>
      <trkpt lat="43.16231" lon="2.38788">
        <ele>248.3</ele>
        <time>1970-01-01T00:51:17.000Z</time>
      </trkpt>
      <trkpt lat="43.16235" lon="2.38785">
        <ele>248.4</ele>
        <time>1970-01-01T00:51:18.000Z</time>
      </trkpt>
      <trkpt lat="43.16236" lon="2.38785">
        <ele>248.4</ele>
        <time>1970-01-01T00:51:19.000Z</time>
      </trkpt>
      <trkpt lat="43.1624" lon="2.38782">
        <ele>248.6</ele>
        <time>1970-01-01T00:51:21.000Z</time>
      </trkpt>
      <trkpt lat="43.16241" lon="2.38782">
        <ele>248.6</ele>
        <time>1970-01-01T00:51:22.000Z</time>
      </trkpt>
      <trkpt lat="43.16244" lon="2.38783">
        <ele>248.8</ele>
        <time>1970-01-01T00:51:23.000Z</time>
      </trkpt>
      <trkpt lat="43.16246" lon="2.38783">
        <ele>249</ele>
        <time>1970-01-01T00:51:25.000Z</time>
      </trkpt>
      <trkpt lat="43.1625" lon="2.38783">
        <ele>249.2</ele>
        <time>1970-01-01T00:51:26.000Z</time>
      </trkpt>
      <trkpt lat="43.16251" lon="2.38782">
        <ele>249.3</ele>
        <time>1970-01-01T00:51:28.000Z</time>
      </trkpt>
      <trkpt lat="43.16252" lon="2.38781">
        <ele>249.4</ele>
        <time>1970-01-01T00:51:29.000Z</time>
      </trkpt>
      <trkpt lat="43.16253" lon="2.38779">
        <ele>249.5</ele>
        <time>1970-01-01T00:51:30.000Z</time>
      </trkpt>
      <trkpt lat="43.16253" lon="2.38776">
        <ele>249.7</ele>
        <time>1970-01-01T00:51:32.000Z</time>
      </trkpt>
      <trkpt lat="43.16254" lon="2.38775">
        <ele>249.8</ele>
        <time>1970-01-01T00:51:33.000Z</time>
      </trkpt>
      <trkpt lat="43.16254" lon="2.38773">
        <ele>249.9</ele>
        <time>1970-01-01T00:51:34.000Z</time>
      </trkpt>
      <trkpt lat="43.16254" lon="2.38771">
        <ele>250</ele>
        <time>1970-01-01T00:51:36.000Z</time>
      </trkpt>
      <trkpt lat="43.16253" lon="2.38769">
        <ele>250.1</ele>
        <time>1970-01-01T00:51:37.000Z</time>
      </trkpt>
      <trkpt lat="43.16253" lon="2.38767">
        <ele>250.2</ele>
        <time>1970-01-01T00:51:39.000Z</time>
      </trkpt>
      <trkpt lat="43.16253" lon="2.38765">
        <ele>250.3</ele>
        <time>1970-01-01T00:51:40.000Z</time>
      </trkpt>
      <trkpt lat="43.16253" lon="2.38764">
        <ele>250.4</ele>
        <time>1970-01-01T00:51:41.000Z</time>
      </trkpt>
      <trkpt lat="43.16254" lon="2.38762">
        <ele>250.4</ele>
        <time>1970-01-01T00:51:42.000Z</time>
      </trkpt>
      <trkpt lat="43.16254" lon="2.3876">
        <ele>250.5</ele>
        <time>1970-01-01T00:51:43.000Z</time>
      </trkpt>
      <trkpt lat="43.16255" lon="2.38759">
        <ele>250.6</ele>
        <time>1970-01-01T00:51:45.000Z</time>
      </trkpt>
      <trkpt lat="43.16255" lon="2.38757">
        <ele>250.7</ele>
        <time>1970-01-01T00:51:46.000Z</time>
      </trkpt>
      <trkpt lat="43.16257" lon="2.38754">
        <ele>250.8</ele>
        <time>1970-01-01T00:51:47.000Z</time>
      </trkpt>
      <trkpt lat="43.16258" lon="2.38753">
        <ele>250.9</ele>
        <time>1970-01-01T00:51:48.000Z</time>
      </trkpt>
      <trkpt lat="43.16262" lon="2.38749">
        <ele>251</ele>
        <time>1970-01-01T00:51:50.000Z</time>
      </trkpt>
      <trkpt lat="43.16264" lon="2.38748">
        <ele>251.1</ele>
        <time>1970-01-01T00:51:51.000Z</time>
      </trkpt>
      <trkpt lat="43.16265" lon="2.38746">
        <ele>251.1</ele>
        <time>1970-01-01T00:51:52.000Z</time>
      </trkpt>
      <trkpt lat="43.16269" lon="2.38744">
        <ele>251.1</ele>
        <time>1970-01-01T00:51:54.000Z</time>
      </trkpt>
      <trkpt lat="43.16271" lon="2.38742">
        <ele>251</ele>
        <time>1970-01-01T00:51:55.000Z</time>
      </trkpt>
      <trkpt lat="43.16273" lon="2.3874">
        <ele>251</ele>
        <time>1970-01-01T00:51:56.000Z</time>
      </trkpt>
      <trkpt lat="43.16275" lon="2.38736">
        <ele>250.8</ele>
        <time>1970-01-01T00:51:58.000Z</time>
      </trkpt>
      <trkpt lat="43.16277" lon="2.38733">
        <ele>250.7</ele>
        <time>1970-01-01T00:51:59.000Z</time>
      </trkpt>
      <trkpt lat="43.16279" lon="2.38731">
        <ele>250.5</ele>
        <time>1970-01-01T00:52:00.000Z</time>
      </trkpt>
      <trkpt lat="43.16282" lon="2.38728">
        <ele>250.2</ele>
        <time>1970-01-01T00:52:01.000Z</time>
      </trkpt>
      <trkpt lat="43.16283" lon="2.38727">
        <ele>250.1</ele>
        <time>1970-01-01T00:52:02.000Z</time>
      </trkpt>
      <trkpt lat="43.16286" lon="2.38724">
        <ele>249.7</ele>
        <time>1970-01-01T00:52:04.000Z</time>
      </trkpt>
      <trkpt lat="43.16289" lon="2.38722">
        <ele>249.4</ele>
        <time>1970-01-01T00:52:06.000Z</time>
      </trkpt>
      <trkpt lat="43.16291" lon="2.38719">
        <ele>249.1</ele>
        <time>1970-01-01T00:52:07.000Z</time>
      </trkpt>
      <trkpt lat="43.16293" lon="2.38716">
        <ele>248.6</ele>
        <time>1970-01-01T00:52:09.000Z</time>
      </trkpt>
      <trkpt lat="43.16294" lon="2.38714">
        <ele>248.4</ele>
        <time>1970-01-01T00:52:10.000Z</time>
      </trkpt>
      <trkpt lat="43.16296" lon="2.38713">
        <ele>248.2</ele>
        <time>1970-01-01T00:52:11.000Z</time>
      </trkpt>
      <trkpt lat="43.16297" lon="2.38711">
        <ele>247.9</ele>
        <time>1970-01-01T00:52:12.000Z</time>
      </trkpt>
      <trkpt lat="43.163" lon="2.38708">
        <ele>247.5</ele>
        <time>1970-01-01T00:52:14.000Z</time>
      </trkpt>
      <trkpt lat="43.16302" lon="2.38705">
        <ele>247</ele>
        <time>1970-01-01T00:52:15.000Z</time>
      </trkpt>
      <trkpt lat="43.16303" lon="2.38704">
        <ele>246.9</ele>
        <time>1970-01-01T00:52:16.000Z</time>
      </trkpt>
      <trkpt lat="43.16307" lon="2.38702">
        <ele>246.4</ele>
        <time>1970-01-01T00:52:18.000Z</time>
      </trkpt>
      <trkpt lat="43.16307" lon="2.387">
        <ele>246.2</ele>
        <time>1970-01-01T00:52:19.000Z</time>
      </trkpt>
      <trkpt lat="43.16309" lon="2.38696">
        <ele>245.8</ele>
        <time>1970-01-01T00:52:21.000Z</time>
      </trkpt>
      <trkpt lat="43.1631" lon="2.38693">
        <ele>245.5</ele>
        <time>1970-01-01T00:52:22.000Z</time>
      </trkpt>
      <trkpt lat="43.16311" lon="2.3869">
        <ele>245.3</ele>
        <time>1970-01-01T00:52:23.000Z</time>
      </trkpt>
      <trkpt lat="43.16312" lon="2.38687">
        <ele>245</ele>
        <time>1970-01-01T00:52:25.000Z</time>
      </trkpt>
      <trkpt lat="43.16314" lon="2.38684">
        <ele>244.7</ele>
        <time>1970-01-01T00:52:26.000Z</time>
      </trkpt>
      <trkpt lat="43.16315" lon="2.38681">
        <ele>244.5</ele>
        <time>1970-01-01T00:52:27.000Z</time>
      </trkpt>
      <trkpt lat="43.16317" lon="2.38679">
        <ele>244.2</ele>
        <time>1970-01-01T00:52:29.000Z</time>
      </trkpt>
      <trkpt lat="43.16319" lon="2.38675">
        <ele>244</ele>
        <time>1970-01-01T00:52:30.000Z</time>
      </trkpt>
      <trkpt lat="43.1632" lon="2.38674">
        <ele>243.9</ele>
        <time>1970-01-01T00:52:31.000Z</time>
      </trkpt>
      <trkpt lat="43.16323" lon="2.3867">
        <ele>243.6</ele>
        <time>1970-01-01T00:52:33.000Z</time>
      </trkpt>
      <trkpt lat="43.16324" lon="2.38668">
        <ele>243.5</ele>
        <time>1970-01-01T00:52:34.000Z</time>
      </trkpt>
      <trkpt lat="43.16325" lon="2.38667">
        <ele>243.4</ele>
        <time>1970-01-01T00:52:35.000Z</time>
      </trkpt>
      <trkpt lat="43.16327" lon="2.38663">
        <ele>243.2</ele>
        <time>1970-01-01T00:52:36.000Z</time>
      </trkpt>
      <trkpt lat="43.16328" lon="2.38661">
        <ele>243.1</ele>
        <time>1970-01-01T00:52:37.000Z</time>
      </trkpt>
      <trkpt lat="43.1633" lon="2.38657">
        <ele>242.9</ele>
        <time>1970-01-01T00:52:39.000Z</time>
      </trkpt>
      <trkpt lat="43.16331" lon="2.38653">
        <ele>242.7</ele>
        <time>1970-01-01T00:52:40.000Z</time>
      </trkpt>
      <trkpt lat="43.16331" lon="2.38651">
        <ele>242.7</ele>
        <time>1970-01-01T00:52:41.000Z</time>
      </trkpt>
      <trkpt lat="43.1633" lon="2.38647">
        <ele>242.5</ele>
        <time>1970-01-01T00:52:43.000Z</time>
      </trkpt>
      <trkpt lat="43.1633" lon="2.38645">
        <ele>242.4</ele>
        <time>1970-01-01T00:52:44.000Z</time>
      </trkpt>
      <trkpt lat="43.1633" lon="2.38641">
        <ele>242.3</ele>
        <time>1970-01-01T00:52:45.000Z</time>
      </trkpt>
      <trkpt lat="43.1633" lon="2.3864">
        <ele>242.3</ele>
        <time>1970-01-01T00:52:46.000Z</time>
      </trkpt>
      <trkpt lat="43.1633" lon="2.38637">
        <ele>242.2</ele>
        <time>1970-01-01T00:52:47.000Z</time>
      </trkpt>
      <trkpt lat="43.16331" lon="2.38632">
        <ele>242.1</ele>
        <time>1970-01-01T00:52:49.000Z</time>
      </trkpt>
      <trkpt lat="43.16332" lon="2.38628">
        <ele>242</ele>
        <time>1970-01-01T00:52:50.000Z</time>
      </trkpt>
      <trkpt lat="43.16332" lon="2.38627">
        <ele>242</ele>
        <time>1970-01-01T00:52:51.000Z</time>
      </trkpt>
      <trkpt lat="43.16333" lon="2.38623">
        <ele>241.9</ele>
        <time>1970-01-01T00:52:52.000Z</time>
      </trkpt>
      <trkpt lat="43.16333" lon="2.38622">
        <ele>241.9</ele>
        <time>1970-01-01T00:52:53.000Z</time>
      </trkpt>
      <trkpt lat="43.16334" lon="2.38618">
        <ele>241.9</ele>
        <time>1970-01-01T00:52:54.000Z</time>
      </trkpt>
      <trkpt lat="43.16336" lon="2.38616">
        <ele>241.9</ele>
        <time>1970-01-01T00:52:56.000Z</time>
      </trkpt>
      <trkpt lat="43.16338" lon="2.38614">
        <ele>242</ele>
        <time>1970-01-01T00:52:57.000Z</time>
      </trkpt>
      <trkpt lat="43.16341" lon="2.38612">
        <ele>242</ele>
        <time>1970-01-01T00:52:59.000Z</time>
      </trkpt>
      <trkpt lat="43.16344" lon="2.38609">
        <ele>242.1</ele>
        <time>1970-01-01T00:53:00.000Z</time>
      </trkpt>
      <trkpt lat="43.16345" lon="2.38608">
        <ele>242.1</ele>
        <time>1970-01-01T00:53:01.000Z</time>
      </trkpt>
      <trkpt lat="43.16347" lon="2.38606">
        <ele>242.2</ele>
        <time>1970-01-01T00:53:02.000Z</time>
      </trkpt>
      <trkpt lat="43.16349" lon="2.38603">
        <ele>242.3</ele>
        <time>1970-01-01T00:53:04.000Z</time>
      </trkpt>
      <trkpt lat="43.1635" lon="2.38598">
        <ele>242.5</ele>
        <time>1970-01-01T00:53:05.000Z</time>
      </trkpt>
      <trkpt lat="43.1635" lon="2.38596">
        <ele>242.6</ele>
        <time>1970-01-01T00:53:06.000Z</time>
      </trkpt>
      <trkpt lat="43.16351" lon="2.38591">
        <ele>242.7</ele>
        <time>1970-01-01T00:53:08.000Z</time>
      </trkpt>
      <trkpt lat="43.16352" lon="2.3859">
        <ele>242.8</ele>
        <time>1970-01-01T00:53:09.000Z</time>
      </trkpt>
      <trkpt lat="43.16353" lon="2.38585">
        <ele>242.9</ele>
        <time>1970-01-01T00:53:10.000Z</time>
      </trkpt>
      <trkpt lat="43.16353" lon="2.38584">
        <ele>243</ele>
        <time>1970-01-01T00:53:11.000Z</time>
      </trkpt>
      <trkpt lat="43.16353" lon="2.38578">
        <ele>243.1</ele>
        <time>1970-01-01T00:53:13.000Z</time>
      </trkpt>
      <trkpt lat="43.16353" lon="2.38576">
        <ele>243.2</ele>
        <time>1970-01-01T00:53:14.000Z</time>
      </trkpt>
      <trkpt lat="43.16353" lon="2.38574">
        <ele>243.2</ele>
        <time>1970-01-01T00:53:15.000Z</time>
      </trkpt>
      <trkpt lat="43.16353" lon="2.3857">
        <ele>243.3</ele>
        <time>1970-01-01T00:53:16.000Z</time>
      </trkpt>
      <trkpt lat="43.16353" lon="2.38569">
        <ele>243.3</ele>
        <time>1970-01-01T00:53:17.000Z</time>
      </trkpt>
      <trkpt lat="43.16353" lon="2.38565">
        <ele>243.4</ele>
        <time>1970-01-01T00:53:18.000Z</time>
      </trkpt>
      <trkpt lat="43.16353" lon="2.38562">
        <ele>243.4</ele>
        <time>1970-01-01T00:53:20.000Z</time>
      </trkpt>
      <trkpt lat="43.16353" lon="2.38558">
        <ele>243.5</ele>
        <time>1970-01-01T00:53:21.000Z</time>
      </trkpt>
      <trkpt lat="43.16354" lon="2.38556">
        <ele>243.5</ele>
        <time>1970-01-01T00:53:22.000Z</time>
      </trkpt>
      <trkpt lat="43.16355" lon="2.38552">
        <ele>243.5</ele>
        <time>1970-01-01T00:53:23.000Z</time>
      </trkpt>
      <trkpt lat="43.16355" lon="2.38551">
        <ele>243.5</ele>
        <time>1970-01-01T00:53:24.000Z</time>
      </trkpt>
      <trkpt lat="43.16356" lon="2.38546">
        <ele>243.4</ele>
        <time>1970-01-01T00:53:26.000Z</time>
      </trkpt>
      <trkpt lat="43.16356" lon="2.38545">
        <ele>243.4</ele>
        <time>1970-01-01T00:53:27.000Z</time>
      </trkpt>
      <trkpt lat="43.16357" lon="2.38542">
        <ele>243.4</ele>
        <time>1970-01-01T00:53:28.000Z</time>
      </trkpt>
      <trkpt lat="43.16358" lon="2.38538">
        <ele>243.2</ele>
        <time>1970-01-01T00:53:30.000Z</time>
      </trkpt>
      <trkpt lat="43.16358" lon="2.38535">
        <ele>243.2</ele>
        <time>1970-01-01T00:53:31.000Z</time>
      </trkpt>
      <trkpt lat="43.16358" lon="2.3853">
        <ele>242.9</ele>
        <time>1970-01-01T00:53:33.000Z</time>
      </trkpt>
      <trkpt lat="43.16359" lon="2.38528">
        <ele>242.8</ele>
        <time>1970-01-01T00:53:34.000Z</time>
      </trkpt>
      <trkpt lat="43.1636" lon="2.38524">
        <ele>242.6</ele>
        <time>1970-01-01T00:53:36.000Z</time>
      </trkpt>
      <trkpt lat="43.1636" lon="2.3852">
        <ele>242.3</ele>
        <time>1970-01-01T00:53:37.000Z</time>
      </trkpt>
      <trkpt lat="43.16361" lon="2.38518">
        <ele>242.2</ele>
        <time>1970-01-01T00:53:38.000Z</time>
      </trkpt>
      <trkpt lat="43.16361" lon="2.38515">
        <ele>241.9</ele>
        <time>1970-01-01T00:53:40.000Z</time>
      </trkpt>
      <trkpt lat="43.16362" lon="2.3851">
        <ele>241.6</ele>
        <time>1970-01-01T00:53:41.000Z</time>
      </trkpt>
      <trkpt lat="43.16363" lon="2.38508">
        <ele>241.5</ele>
        <time>1970-01-01T00:53:42.000Z</time>
      </trkpt>
      <trkpt lat="43.16363" lon="2.38505">
        <ele>241.3</ele>
        <time>1970-01-01T00:53:43.000Z</time>
      </trkpt>
      <trkpt lat="43.16365" lon="2.38501">
        <ele>241</ele>
        <time>1970-01-01T00:53:45.000Z</time>
      </trkpt>
      <trkpt lat="43.16366" lon="2.38497">
        <ele>240.7</ele>
        <time>1970-01-01T00:53:46.000Z</time>
      </trkpt>
      <trkpt lat="43.16367" lon="2.38496">
        <ele>240.6</ele>
        <time>1970-01-01T00:53:47.000Z</time>
      </trkpt>
      <trkpt lat="43.16368" lon="2.38494">
        <ele>240.5</ele>
        <time>1970-01-01T00:53:48.000Z</time>
      </trkpt>
      <trkpt lat="43.16372" lon="2.38492">
        <ele>240.2</ele>
        <time>1970-01-01T00:53:50.000Z</time>
      </trkpt>
      <trkpt lat="43.16375" lon="2.38492">
        <ele>239.5</ele>
        <time>1970-01-01T00:53:51.000Z</time>
      </trkpt>
      <trkpt lat="43.16376" lon="2.38492">
        <ele>239.4</ele>
        <time>1970-01-01T00:53:52.000Z</time>
      </trkpt>
      <trkpt lat="43.16379" lon="2.38493">
        <ele>239.3</ele>
        <time>1970-01-01T00:53:54.000Z</time>
      </trkpt>
      <trkpt lat="43.1638" lon="2.38493">
        <ele>239.3</ele>
        <time>1970-01-01T00:53:55.000Z</time>
      </trkpt>
      <trkpt lat="43.16384" lon="2.38492">
        <ele>239.2</ele>
        <time>1970-01-01T00:53:56.000Z</time>
      </trkpt>
      <trkpt lat="43.16385" lon="2.38492">
        <ele>239.2</ele>
        <time>1970-01-01T00:53:57.000Z</time>
      </trkpt>
      <trkpt lat="43.16386" lon="2.38491">
        <ele>239.2</ele>
        <time>1970-01-01T00:53:58.000Z</time>
      </trkpt>
      <trkpt lat="43.16388" lon="2.38489">
        <ele>239.1</ele>
        <time>1970-01-01T00:54:00.000Z</time>
      </trkpt>
      <trkpt lat="43.16391" lon="2.38485">
        <ele>239.1</ele>
        <time>1970-01-01T00:54:01.000Z</time>
      </trkpt>
      <trkpt lat="43.16391" lon="2.38483">
        <ele>239.1</ele>
        <time>1970-01-01T00:54:02.000Z</time>
      </trkpt>
      <trkpt lat="43.16394" lon="2.38479">
        <ele>239.1</ele>
        <time>1970-01-01T00:54:04.000Z</time>
      </trkpt>
      <trkpt lat="43.16395" lon="2.38477">
        <ele>239.1</ele>
        <time>1970-01-01T00:54:05.000Z</time>
      </trkpt>
      <trkpt lat="43.16396" lon="2.38476">
        <ele>239.1</ele>
        <time>1970-01-01T00:54:06.000Z</time>
      </trkpt>
      <trkpt lat="43.16399" lon="2.38473">
        <ele>239.1</ele>
        <time>1970-01-01T00:54:07.000Z</time>
      </trkpt>
      <trkpt lat="43.164" lon="2.38472">
        <ele>239.1</ele>
        <time>1970-01-01T00:54:08.000Z</time>
      </trkpt>
      <trkpt lat="43.16402" lon="2.38471">
        <ele>239.1</ele>
        <time>1970-01-01T00:54:09.000Z</time>
      </trkpt>
      <trkpt lat="43.16404" lon="2.38467">
        <ele>239.2</ele>
        <time>1970-01-01T00:54:11.000Z</time>
      </trkpt>
      <trkpt lat="43.16405" lon="2.38462">
        <ele>239.3</ele>
        <time>1970-01-01T00:54:12.000Z</time>
      </trkpt>
      <trkpt lat="43.16405" lon="2.38461">
        <ele>239.3</ele>
        <time>1970-01-01T00:54:13.000Z</time>
      </trkpt>
      <trkpt lat="43.16407" lon="2.38455">
        <ele>239.4</ele>
        <time>1970-01-01T00:54:15.000Z</time>
      </trkpt>
      <trkpt lat="43.16408" lon="2.38452">
        <ele>239.5</ele>
        <time>1970-01-01T00:54:16.000Z</time>
      </trkpt>
      <trkpt lat="43.16409" lon="2.3845">
        <ele>239.5</ele>
        <time>1970-01-01T00:54:17.000Z</time>
      </trkpt>
      <trkpt lat="43.16409" lon="2.38446">
        <ele>239.6</ele>
        <time>1970-01-01T00:54:19.000Z</time>
      </trkpt>
      <trkpt lat="43.16409" lon="2.38442">
        <ele>239.6</ele>
        <time>1970-01-01T00:54:20.000Z</time>
      </trkpt>
      <trkpt lat="43.1641" lon="2.38438">
        <ele>239.6</ele>
        <time>1970-01-01T00:54:22.000Z</time>
      </trkpt>
      <trkpt lat="43.16409" lon="2.38435">
        <ele>239.6</ele>
        <time>1970-01-01T00:54:23.000Z</time>
      </trkpt>
      <trkpt lat="43.16409" lon="2.38433">
        <ele>239.6</ele>
        <time>1970-01-01T00:54:24.000Z</time>
      </trkpt>
      <trkpt lat="43.16408" lon="2.38428">
        <ele>239.5</ele>
        <time>1970-01-01T00:54:26.000Z</time>
      </trkpt>
      <trkpt lat="43.16407" lon="2.38426">
        <ele>239.5</ele>
        <time>1970-01-01T00:54:27.000Z</time>
      </trkpt>
      <trkpt lat="43.16407" lon="2.38425">
        <ele>239.4</ele>
        <time>1970-01-01T00:54:28.000Z</time>
      </trkpt>
      <trkpt lat="43.16408" lon="2.38423">
        <ele>239.4</ele>
        <time>1970-01-01T00:54:29.000Z</time>
      </trkpt>
      <trkpt lat="43.1641" lon="2.38421">
        <ele>239.3</ele>
        <time>1970-01-01T00:54:30.000Z</time>
      </trkpt>
      <trkpt lat="43.16413" lon="2.3842">
        <ele>239.1</ele>
        <time>1970-01-01T00:54:32.000Z</time>
      </trkpt>
      <trkpt lat="43.16414" lon="2.3842">
        <ele>239.1</ele>
        <time>1970-01-01T00:54:33.000Z</time>
      </trkpt>
      <trkpt lat="43.16417" lon="2.38418">
        <ele>238.9</ele>
        <time>1970-01-01T00:54:34.000Z</time>
      </trkpt>
      <trkpt lat="43.1642" lon="2.38416">
        <ele>238.7</ele>
        <time>1970-01-01T00:54:36.000Z</time>
      </trkpt>
      <trkpt lat="43.16423" lon="2.38414">
        <ele>238.5</ele>
        <time>1970-01-01T00:54:37.000Z</time>
      </trkpt>
      <trkpt lat="43.16426" lon="2.38412">
        <ele>238.2</ele>
        <time>1970-01-01T00:54:39.000Z</time>
      </trkpt>
      <trkpt lat="43.16429" lon="2.38412">
        <ele>237.9</ele>
        <time>1970-01-01T00:54:40.000Z</time>
      </trkpt>
      <trkpt lat="43.16432" lon="2.38411">
        <ele>237.6</ele>
        <time>1970-01-01T00:54:41.000Z</time>
      </trkpt>
      <trkpt lat="43.16433" lon="2.38411">
        <ele>237.5</ele>
        <time>1970-01-01T00:54:42.000Z</time>
      </trkpt>
      <trkpt lat="43.16436" lon="2.38408">
        <ele>237.2</ele>
        <time>1970-01-01T00:54:44.000Z</time>
      </trkpt>
      <trkpt lat="43.16437" lon="2.38406">
        <ele>237</ele>
        <time>1970-01-01T00:54:45.000Z</time>
      </trkpt>
      <trkpt lat="43.16438" lon="2.38404">
        <ele>236.7</ele>
        <time>1970-01-01T00:54:47.000Z</time>
      </trkpt>
      <trkpt lat="43.1644" lon="2.38401">
        <ele>236.4</ele>
        <time>1970-01-01T00:54:48.000Z</time>
      </trkpt>
      <trkpt lat="43.16441" lon="2.384">
        <ele>236.2</ele>
        <time>1970-01-01T00:54:49.000Z</time>
      </trkpt>
      <trkpt lat="43.16443" lon="2.38396">
        <ele>235.7</ele>
        <time>1970-01-01T00:54:51.000Z</time>
      </trkpt>
      <trkpt lat="43.16446" lon="2.38393">
        <ele>235.2</ele>
        <time>1970-01-01T00:54:52.000Z</time>
      </trkpt>
      <trkpt lat="43.16447" lon="2.38392">
        <ele>235</ele>
        <time>1970-01-01T00:54:53.000Z</time>
      </trkpt>
      <trkpt lat="43.16449" lon="2.3839">
        <ele>234.7</ele>
        <time>1970-01-01T00:54:54.000Z</time>
      </trkpt>
      <trkpt lat="43.16452" lon="2.38388">
        <ele>234.2</ele>
        <time>1970-01-01T00:54:56.000Z</time>
      </trkpt>
      <trkpt lat="43.16455" lon="2.38386">
        <ele>233.7</ele>
        <time>1970-01-01T00:54:57.000Z</time>
      </trkpt>
      <trkpt lat="43.16456" lon="2.38385">
        <ele>233.6</ele>
        <time>1970-01-01T00:54:58.000Z</time>
      </trkpt>
      <trkpt lat="43.16457" lon="2.38385">
        <ele>233.4</ele>
        <time>1970-01-01T00:54:59.000Z</time>
      </trkpt>
      <trkpt lat="43.1646" lon="2.38384">
        <ele>233</ele>
        <time>1970-01-01T00:55:01.000Z</time>
      </trkpt>
      <trkpt lat="43.16462" lon="2.38382">
        <ele>232.7</ele>
        <time>1970-01-01T00:55:02.000Z</time>
      </trkpt>
      <trkpt lat="43.16463" lon="2.38378">
        <ele>232.3</ele>
        <time>1970-01-01T00:55:04.000Z</time>
      </trkpt>
      <trkpt lat="43.16461" lon="2.38373">
        <ele>232.3</ele>
        <time>1970-01-01T00:55:06.000Z</time>
      </trkpt>
      <trkpt lat="43.16461" lon="2.38372">
        <ele>232.3</ele>
        <time>1970-01-01T00:55:07.000Z</time>
      </trkpt>
      <trkpt lat="43.1646" lon="2.3837">
        <ele>232.3</ele>
        <time>1970-01-01T00:55:08.000Z</time>
      </trkpt>
      <trkpt lat="43.1646" lon="2.38367">
        <ele>232.3</ele>
        <time>1970-01-01T00:55:10.000Z</time>
      </trkpt>
      <trkpt lat="43.1646" lon="2.38363">
        <ele>232.3</ele>
        <time>1970-01-01T00:55:11.000Z</time>
      </trkpt>
      <trkpt lat="43.1646" lon="2.3836">
        <ele>232.3</ele>
        <time>1970-01-01T00:55:13.000Z</time>
      </trkpt>
      <trkpt lat="43.1646" lon="2.38357">
        <ele>232.3</ele>
        <time>1970-01-01T00:55:14.000Z</time>
      </trkpt>
      <trkpt lat="43.1646" lon="2.38356">
        <ele>232.4</ele>
        <time>1970-01-01T00:55:15.000Z</time>
      </trkpt>
      <trkpt lat="43.16459" lon="2.38353">
        <ele>232.4</ele>
        <time>1970-01-01T00:55:17.000Z</time>
      </trkpt>
      <trkpt lat="43.16459" lon="2.38351">
        <ele>232.4</ele>
        <time>1970-01-01T00:55:18.000Z</time>
      </trkpt>
      <trkpt lat="43.16458" lon="2.38349">
        <ele>232.4</ele>
        <time>1970-01-01T00:55:19.000Z</time>
      </trkpt>
      <trkpt lat="43.16458" lon="2.38347">
        <ele>232.4</ele>
        <time>1970-01-01T00:55:20.000Z</time>
      </trkpt>
      <trkpt lat="43.16459" lon="2.38342">
        <ele>232.3</ele>
        <time>1970-01-01T00:55:22.000Z</time>
      </trkpt>
      <trkpt lat="43.1646" lon="2.3834">
        <ele>232.3</ele>
        <time>1970-01-01T00:55:23.000Z</time>
      </trkpt>
      <trkpt lat="43.16464" lon="2.38335">
        <ele>232.1</ele>
        <time>1970-01-01T00:55:25.000Z</time>
      </trkpt>
      <trkpt lat="43.16464" lon="2.38334">
        <ele>232.1</ele>
        <time>1970-01-01T00:55:26.000Z</time>
      </trkpt>
      <trkpt lat="43.16465" lon="2.38332">
        <ele>232</ele>
        <time>1970-01-01T00:55:27.000Z</time>
      </trkpt>
      <trkpt lat="43.16468" lon="2.38329">
        <ele>231.8</ele>
        <time>1970-01-01T00:55:29.000Z</time>
      </trkpt>
      <trkpt lat="43.1647" lon="2.38327">
        <ele>231.6</ele>
        <time>1970-01-01T00:55:30.000Z</time>
      </trkpt>
      <trkpt lat="43.16473" lon="2.38324">
        <ele>231.4</ele>
        <time>1970-01-01T00:55:32.000Z</time>
      </trkpt>
      <trkpt lat="43.16475" lon="2.38321">
        <ele>231.1</ele>
        <time>1970-01-01T00:55:33.000Z</time>
      </trkpt>
      <trkpt lat="43.16477" lon="2.38319">
        <ele>230.9</ele>
        <time>1970-01-01T00:55:34.000Z</time>
      </trkpt>
      <trkpt lat="43.16478" lon="2.38315">
        <ele>230.6</ele>
        <time>1970-01-01T00:55:36.000Z</time>
      </trkpt>
      <trkpt lat="43.16479" lon="2.38311">
        <ele>230.3</ele>
        <time>1970-01-01T00:55:37.000Z</time>
      </trkpt>
      <trkpt lat="43.16479" lon="2.38304">
        <ele>229.8</ele>
        <time>1970-01-01T00:55:39.000Z</time>
      </trkpt>
      <trkpt lat="43.16479" lon="2.38302">
        <ele>229.7</ele>
        <time>1970-01-01T00:55:40.000Z</time>
      </trkpt>
      <trkpt lat="43.16479" lon="2.383">
        <ele>229.5</ele>
        <time>1970-01-01T00:55:41.000Z</time>
      </trkpt>
      <trkpt lat="43.16478" lon="2.38296">
        <ele>229.3</ele>
        <time>1970-01-01T00:55:43.000Z</time>
      </trkpt>
      <trkpt lat="43.16478" lon="2.38292">
        <ele>229</ele>
        <time>1970-01-01T00:55:44.000Z</time>
      </trkpt>
      <trkpt lat="43.16478" lon="2.38289">
        <ele>228.9</ele>
        <time>1970-01-01T00:55:45.000Z</time>
      </trkpt>
      <trkpt lat="43.16478" lon="2.38283">
        <ele>228.6</ele>
        <time>1970-01-01T00:55:47.000Z</time>
      </trkpt>
      <trkpt lat="43.16479" lon="2.3828">
        <ele>228.4</ele>
        <time>1970-01-01T00:55:48.000Z</time>
      </trkpt>
      <trkpt lat="43.16479" lon="2.38277">
        <ele>228.3</ele>
        <time>1970-01-01T00:55:49.000Z</time>
      </trkpt>
      <trkpt lat="43.1648" lon="2.38272">
        <ele>228</ele>
        <time>1970-01-01T00:55:51.000Z</time>
      </trkpt>
      <trkpt lat="43.16481" lon="2.38268">
        <ele>227.7</ele>
        <time>1970-01-01T00:55:52.000Z</time>
      </trkpt>
      <trkpt lat="43.16482" lon="2.38266">
        <ele>227.6</ele>
        <time>1970-01-01T00:55:53.000Z</time>
      </trkpt>
      <trkpt lat="43.16483" lon="2.38264">
        <ele>227.4</ele>
        <time>1970-01-01T00:55:54.000Z</time>
      </trkpt>
      <trkpt lat="43.16485" lon="2.38261">
        <ele>227</ele>
        <time>1970-01-01T00:55:56.000Z</time>
      </trkpt>
      <trkpt lat="43.16488" lon="2.38259">
        <ele>226.4</ele>
        <time>1970-01-01T00:55:57.000Z</time>
      </trkpt>
      <trkpt lat="43.16489" lon="2.38259">
        <ele>226.3</ele>
        <time>1970-01-01T00:55:58.000Z</time>
      </trkpt>
      <trkpt lat="43.16494" lon="2.3826">
        <ele>225.4</ele>
        <time>1970-01-01T00:56:00.000Z</time>
      </trkpt>
      <trkpt lat="43.16496" lon="2.3826">
        <ele>225.1</ele>
        <time>1970-01-01T00:56:01.000Z</time>
      </trkpt>
      <trkpt lat="43.16497" lon="2.38261">
        <ele>224.8</ele>
        <time>1970-01-01T00:56:02.000Z</time>
      </trkpt>
      <trkpt lat="43.16499" lon="2.38262">
        <ele>224.4</ele>
        <time>1970-01-01T00:56:03.000Z</time>
      </trkpt>
      <trkpt lat="43.16501" lon="2.38264">
        <ele>224.1</ele>
        <time>1970-01-01T00:56:05.000Z</time>
      </trkpt>
      <trkpt lat="43.16504" lon="2.38268">
        <ele>223.4</ele>
        <time>1970-01-01T00:56:06.000Z</time>
      </trkpt>
      <trkpt lat="43.16504" lon="2.3827">
        <ele>223.2</ele>
        <time>1970-01-01T00:56:07.000Z</time>
      </trkpt>
      <trkpt lat="43.16505" lon="2.38272">
        <ele>222.9</ele>
        <time>1970-01-01T00:56:08.000Z</time>
      </trkpt>
      <trkpt lat="43.16506" lon="2.38274">
        <ele>222.6</ele>
        <time>1970-01-01T00:56:10.000Z</time>
      </trkpt>
      <trkpt lat="43.16508" lon="2.38279">
        <ele>222.1</ele>
        <time>1970-01-01T00:56:11.000Z</time>
      </trkpt>
      <trkpt lat="43.16508" lon="2.38281">
        <ele>222</ele>
        <time>1970-01-01T00:56:12.000Z</time>
      </trkpt>
      <trkpt lat="43.16507" lon="2.38285">
        <ele>221.6</ele>
        <time>1970-01-01T00:56:14.000Z</time>
      </trkpt>
      <trkpt lat="43.16507" lon="2.38287">
        <ele>221.4</ele>
        <time>1970-01-01T00:56:15.000Z</time>
      </trkpt>
      <trkpt lat="43.16507" lon="2.38292">
        <ele>221</ele>
        <time>1970-01-01T00:56:16.000Z</time>
      </trkpt>
      <trkpt lat="43.16508" lon="2.38294">
        <ele>220.8</ele>
        <time>1970-01-01T00:56:17.000Z</time>
      </trkpt>
      <trkpt lat="43.1651" lon="2.38298">
        <ele>220.3</ele>
        <time>1970-01-01T00:56:19.000Z</time>
      </trkpt>
      <trkpt lat="43.16512" lon="2.38299">
        <ele>220.1</ele>
        <time>1970-01-01T00:56:20.000Z</time>
      </trkpt>
      <trkpt lat="43.16513" lon="2.38303">
        <ele>219.6</ele>
        <time>1970-01-01T00:56:22.000Z</time>
      </trkpt>
      <trkpt lat="43.16514" lon="2.38304">
        <ele>219.4</ele>
        <time>1970-01-01T00:56:23.000Z</time>
      </trkpt>
      <trkpt lat="43.16517" lon="2.38306">
        <ele>219</ele>
        <time>1970-01-01T00:56:25.000Z</time>
      </trkpt>
      <trkpt lat="43.16518" lon="2.38305">
        <ele>218.7</ele>
        <time>1970-01-01T00:56:26.000Z</time>
      </trkpt>
      <trkpt lat="43.1652" lon="2.38304">
        <ele>218.4</ele>
        <time>1970-01-01T00:56:27.000Z</time>
      </trkpt>
      <trkpt lat="43.16523" lon="2.38303">
        <ele>217.8</ele>
        <time>1970-01-01T00:56:29.000Z</time>
      </trkpt>
      <trkpt lat="43.16523" lon="2.38302">
        <ele>217.6</ele>
        <time>1970-01-01T00:56:30.000Z</time>
      </trkpt>
      <trkpt lat="43.16525" lon="2.38301">
        <ele>217.2</ele>
        <time>1970-01-01T00:56:31.000Z</time>
      </trkpt>
      <trkpt lat="43.16527" lon="2.38299">
        <ele>216.7</ele>
        <time>1970-01-01T00:56:33.000Z</time>
      </trkpt>
      <trkpt lat="43.16528" lon="2.38297">
        <ele>216.4</ele>
        <time>1970-01-01T00:56:34.000Z</time>
      </trkpt>
      <trkpt lat="43.16528" lon="2.38295">
        <ele>216.2</ele>
        <time>1970-01-01T00:56:36.000Z</time>
      </trkpt>
      <trkpt lat="43.16529" lon="2.38292">
        <ele>215.7</ele>
        <time>1970-01-01T00:56:37.000Z</time>
      </trkpt>
      <trkpt lat="43.16531" lon="2.38291">
        <ele>215.3</ele>
        <time>1970-01-01T00:56:39.000Z</time>
      </trkpt>
      <trkpt lat="43.16534" lon="2.38291">
        <ele>214.6</ele>
        <time>1970-01-01T00:56:41.000Z</time>
      </trkpt>
      <trkpt lat="43.16535" lon="2.38292">
        <ele>214.5</ele>
        <time>1970-01-01T00:56:42.000Z</time>
      </trkpt>
      <trkpt lat="43.16537" lon="2.38292">
        <ele>214.1</ele>
        <time>1970-01-01T00:56:43.000Z</time>
      </trkpt>
      <trkpt lat="43.16539" lon="2.38292">
        <ele>213.7</ele>
        <time>1970-01-01T00:56:45.000Z</time>
      </trkpt>
      <trkpt lat="43.16541" lon="2.38292">
        <ele>213.4</ele>
        <time>1970-01-01T00:56:46.000Z</time>
      </trkpt>
      <trkpt lat="43.16542" lon="2.3829">
        <ele>213.2</ele>
        <time>1970-01-01T00:56:47.000Z</time>
      </trkpt>
      <trkpt lat="43.16543" lon="2.38289">
        <ele>213</ele>
        <time>1970-01-01T00:56:48.000Z</time>
      </trkpt>
      <trkpt lat="43.16544" lon="2.38287">
        <ele>212.7</ele>
        <time>1970-01-01T00:56:49.000Z</time>
      </trkpt>
      <trkpt lat="43.16546" lon="2.38284">
        <ele>212.3</ele>
        <time>1970-01-01T00:56:51.000Z</time>
      </trkpt>
      <trkpt lat="43.16546" lon="2.38283">
        <ele>212.1</ele>
        <time>1970-01-01T00:56:52.000Z</time>
      </trkpt>
      <trkpt lat="43.16548" lon="2.3828">
        <ele>211.7</ele>
        <time>1970-01-01T00:56:53.000Z</time>
      </trkpt>
      <trkpt lat="43.16549" lon="2.38278">
        <ele>211.6</ele>
        <time>1970-01-01T00:56:54.000Z</time>
      </trkpt>
      <trkpt lat="43.1655" lon="2.38275">
        <ele>211.2</ele>
        <time>1970-01-01T00:56:56.000Z</time>
      </trkpt>
      <trkpt lat="43.1655" lon="2.38273">
        <ele>211.1</ele>
        <time>1970-01-01T00:56:57.000Z</time>
      </trkpt>
      <trkpt lat="43.16552" lon="2.3827">
        <ele>210.6</ele>
        <time>1970-01-01T00:56:58.000Z</time>
      </trkpt>
      <trkpt lat="43.16553" lon="2.38268">
        <ele>210.5</ele>
        <time>1970-01-01T00:56:59.000Z</time>
      </trkpt>
      <trkpt lat="43.16553" lon="2.38263">
        <ele>209.7</ele>
        <time>1970-01-01T00:57:01.000Z</time>
      </trkpt>
      <trkpt lat="43.16553" lon="2.38262">
        <ele>209.6</ele>
        <time>1970-01-01T00:57:02.000Z</time>
      </trkpt>
      <trkpt lat="43.16553" lon="2.38259">
        <ele>209.5</ele>
        <time>1970-01-01T00:57:03.000Z</time>
      </trkpt>
      <trkpt lat="43.16554" lon="2.38255">
        <ele>209.3</ele>
        <time>1970-01-01T00:57:05.000Z</time>
      </trkpt>
      <trkpt lat="43.16555" lon="2.38252">
        <ele>209.1</ele>
        <time>1970-01-01T00:57:06.000Z</time>
      </trkpt>
      <trkpt lat="43.16556" lon="2.38248">
        <ele>208.9</ele>
        <time>1970-01-01T00:57:08.000Z</time>
      </trkpt>
      <trkpt lat="43.16558" lon="2.38245">
        <ele>208.7</ele>
        <time>1970-01-01T00:57:09.000Z</time>
      </trkpt>
      <trkpt lat="43.16559" lon="2.38244">
        <ele>208.6</ele>
        <time>1970-01-01T00:57:10.000Z</time>
      </trkpt>
      <trkpt lat="43.1656" lon="2.3824">
        <ele>208.4</ele>
        <time>1970-01-01T00:57:11.000Z</time>
      </trkpt>
      <trkpt lat="43.16561" lon="2.3824">
        <ele>208.4</ele>
        <time>1970-01-01T00:57:12.000Z</time>
      </trkpt>
      <trkpt lat="43.16564" lon="2.38236">
        <ele>208.1</ele>
        <time>1970-01-01T00:57:14.000Z</time>
      </trkpt>
      <trkpt lat="43.16564" lon="2.38235">
        <ele>208.1</ele>
        <time>1970-01-01T00:57:15.000Z</time>
      </trkpt>
      <trkpt lat="43.16566" lon="2.38231">
        <ele>207.9</ele>
        <time>1970-01-01T00:57:16.000Z</time>
      </trkpt>
      <trkpt lat="43.16567" lon="2.3823">
        <ele>207.8</ele>
        <time>1970-01-01T00:57:17.000Z</time>
      </trkpt>
      <trkpt lat="43.1657" lon="2.38225">
        <ele>207.5</ele>
        <time>1970-01-01T00:57:19.000Z</time>
      </trkpt>
      <trkpt lat="43.16571" lon="2.38223">
        <ele>207.5</ele>
        <time>1970-01-01T00:57:20.000Z</time>
      </trkpt>
      <trkpt lat="43.16572" lon="2.38222">
        <ele>207.4</ele>
        <time>1970-01-01T00:57:21.000Z</time>
      </trkpt>
      <trkpt lat="43.16573" lon="2.38218">
        <ele>207.2</ele>
        <time>1970-01-01T00:57:22.000Z</time>
      </trkpt>
      <trkpt lat="43.16574" lon="2.38217">
        <ele>207.1</ele>
        <time>1970-01-01T00:57:23.000Z</time>
      </trkpt>
      <trkpt lat="43.16575" lon="2.38214">
        <ele>207</ele>
        <time>1970-01-01T00:57:24.000Z</time>
      </trkpt>
      <trkpt lat="43.16576" lon="2.38211">
        <ele>206.8</ele>
        <time>1970-01-01T00:57:26.000Z</time>
      </trkpt>
      <trkpt lat="43.16578" lon="2.38207">
        <ele>206.6</ele>
        <time>1970-01-01T00:57:27.000Z</time>
      </trkpt>
      <trkpt lat="43.16578" lon="2.38206">
        <ele>206.5</ele>
        <time>1970-01-01T00:57:28.000Z</time>
      </trkpt>
      <trkpt lat="43.1658" lon="2.38202">
        <ele>206.2</ele>
        <time>1970-01-01T00:57:29.000Z</time>
      </trkpt>
      <trkpt lat="43.1658" lon="2.382">
        <ele>206.1</ele>
        <time>1970-01-01T00:57:30.000Z</time>
      </trkpt>
      <trkpt lat="43.1658" lon="2.38195">
        <ele>205.8</ele>
        <time>1970-01-01T00:57:32.000Z</time>
      </trkpt>
      <trkpt lat="43.1658" lon="2.38193">
        <ele>205.7</ele>
        <time>1970-01-01T00:57:33.000Z</time>
      </trkpt>
      <trkpt lat="43.16582" lon="2.38188">
        <ele>205.3</ele>
        <time>1970-01-01T00:57:34.000Z</time>
      </trkpt>
      <trkpt lat="43.16582" lon="2.38187">
        <ele>205.2</ele>
        <time>1970-01-01T00:57:35.000Z</time>
      </trkpt>
      <trkpt lat="43.16583" lon="2.38182">
        <ele>204.9</ele>
        <time>1970-01-01T00:57:36.000Z</time>
      </trkpt>
      <trkpt lat="43.16583" lon="2.38181">
        <ele>204.8</ele>
        <time>1970-01-01T00:57:37.000Z</time>
      </trkpt>
      <trkpt lat="43.16584" lon="2.38177">
        <ele>204.5</ele>
        <time>1970-01-01T00:57:38.000Z</time>
      </trkpt>
      <trkpt lat="43.16584" lon="2.38174">
        <ele>204.3</ele>
        <time>1970-01-01T00:57:40.000Z</time>
      </trkpt>
      <trkpt lat="43.16584" lon="2.3817">
        <ele>204</ele>
        <time>1970-01-01T00:57:41.000Z</time>
      </trkpt>
      <trkpt lat="43.16584" lon="2.38166">
        <ele>203.7</ele>
        <time>1970-01-01T00:57:42.000Z</time>
      </trkpt>
      <trkpt lat="43.16584" lon="2.38162">
        <ele>203.5</ele>
        <time>1970-01-01T00:57:43.000Z</time>
      </trkpt>
      <trkpt lat="43.16585" lon="2.38157">
        <ele>203.2</ele>
        <time>1970-01-01T00:57:45.000Z</time>
      </trkpt>
      <trkpt lat="43.16585" lon="2.38152">
        <ele>202.9</ele>
        <time>1970-01-01T00:57:46.000Z</time>
      </trkpt>
      <trkpt lat="43.16586" lon="2.38151">
        <ele>202.8</ele>
        <time>1970-01-01T00:57:47.000Z</time>
      </trkpt>
      <trkpt lat="43.16586" lon="2.38147">
        <ele>202.6</ele>
        <time>1970-01-01T00:57:48.000Z</time>
      </trkpt>
      <trkpt lat="43.16584" lon="2.38142">
        <ele>202.3</ele>
        <time>1970-01-01T00:57:50.000Z</time>
      </trkpt>
      <trkpt lat="43.16583" lon="2.38138">
        <ele>202.1</ele>
        <time>1970-01-01T00:57:51.000Z</time>
      </trkpt>
      <trkpt lat="43.16583" lon="2.38134">
        <ele>201.8</ele>
        <time>1970-01-01T00:57:53.000Z</time>
      </trkpt>
      <trkpt lat="43.16583" lon="2.3813">
        <ele>201.7</ele>
        <time>1970-01-01T00:57:54.000Z</time>
      </trkpt>
      <trkpt lat="43.16584" lon="2.38125">
        <ele>201.4</ele>
        <time>1970-01-01T00:57:55.000Z</time>
      </trkpt>
      <trkpt lat="43.16584" lon="2.38124">
        <ele>201.3</ele>
        <time>1970-01-01T00:57:56.000Z</time>
      </trkpt>
      <trkpt lat="43.16585" lon="2.38121">
        <ele>201.2</ele>
        <time>1970-01-01T00:57:57.000Z</time>
      </trkpt>
      <trkpt lat="43.16585" lon="2.38118">
        <ele>201.1</ele>
        <time>1970-01-01T00:57:59.000Z</time>
      </trkpt>
      <trkpt lat="43.16586" lon="2.38113">
        <ele>200.9</ele>
        <time>1970-01-01T00:58:00.000Z</time>
      </trkpt>
      <trkpt lat="43.16587" lon="2.38111">
        <ele>200.9</ele>
        <time>1970-01-01T00:58:01.000Z</time>
      </trkpt>
      <trkpt lat="43.16588" lon="2.38108">
        <ele>200.7</ele>
        <time>1970-01-01T00:58:02.000Z</time>
      </trkpt>
      <trkpt lat="43.16589" lon="2.38105">
        <ele>200.6</ele>
        <time>1970-01-01T00:58:03.000Z</time>
      </trkpt>
      <trkpt lat="43.1659" lon="2.381">
        <ele>200.4</ele>
        <time>1970-01-01T00:58:05.000Z</time>
      </trkpt>
      <trkpt lat="43.16592" lon="2.38096">
        <ele>200.3</ele>
        <time>1970-01-01T00:58:06.000Z</time>
      </trkpt>
      <trkpt lat="43.16593" lon="2.38092">
        <ele>200.1</ele>
        <time>1970-01-01T00:58:07.000Z</time>
      </trkpt>
      <trkpt lat="43.16595" lon="2.38087">
        <ele>200</ele>
        <time>1970-01-01T00:58:09.000Z</time>
      </trkpt>
      <trkpt lat="43.16597" lon="2.38083">
        <ele>199.8</ele>
        <time>1970-01-01T00:58:10.000Z</time>
      </trkpt>
      <trkpt lat="43.16598" lon="2.38079">
        <ele>199.6</ele>
        <time>1970-01-01T00:58:12.000Z</time>
      </trkpt>
      <trkpt lat="43.166" lon="2.38075">
        <ele>199.4</ele>
        <time>1970-01-01T00:58:13.000Z</time>
      </trkpt>
      <trkpt lat="43.16601" lon="2.38071">
        <ele>199.2</ele>
        <time>1970-01-01T00:58:14.000Z</time>
      </trkpt>
      <trkpt lat="43.16602" lon="2.38064">
        <ele>198.9</ele>
        <time>1970-01-01T00:58:16.000Z</time>
      </trkpt>
      <trkpt lat="43.16603" lon="2.38062">
        <ele>198.7</ele>
        <time>1970-01-01T00:58:17.000Z</time>
      </trkpt>
      <trkpt lat="43.16603" lon="2.38059">
        <ele>198.6</ele>
        <time>1970-01-01T00:58:18.000Z</time>
      </trkpt>
      <trkpt lat="43.16603" lon="2.38054">
        <ele>198.3</ele>
        <time>1970-01-01T00:58:20.000Z</time>
      </trkpt>
      <trkpt lat="43.16603" lon="2.38051">
        <ele>198.1</ele>
        <time>1970-01-01T00:58:21.000Z</time>
      </trkpt>
      <trkpt lat="43.16603" lon="2.38046">
        <ele>197.8</ele>
        <time>1970-01-01T00:58:22.000Z</time>
      </trkpt>
      <trkpt lat="43.16603" lon="2.38043">
        <ele>197.6</ele>
        <time>1970-01-01T00:58:24.000Z</time>
      </trkpt>
      <trkpt lat="43.16603" lon="2.38039">
        <ele>197.3</ele>
        <time>1970-01-01T00:58:25.000Z</time>
      </trkpt>
      <trkpt lat="43.16603" lon="2.38034">
        <ele>197</ele>
        <time>1970-01-01T00:58:26.000Z</time>
      </trkpt>
      <trkpt lat="43.16603" lon="2.38029">
        <ele>196.6</ele>
        <time>1970-01-01T00:58:28.000Z</time>
      </trkpt>
      <trkpt lat="43.16603" lon="2.38025">
        <ele>196.2</ele>
        <time>1970-01-01T00:58:29.000Z</time>
      </trkpt>
      <trkpt lat="43.16602" lon="2.38018">
        <ele>195.6</ele>
        <time>1970-01-01T00:58:31.000Z</time>
      </trkpt>
      <trkpt lat="43.16602" lon="2.38015">
        <ele>195.3</ele>
        <time>1970-01-01T00:58:32.000Z</time>
      </trkpt>
      <trkpt lat="43.16602" lon="2.38013">
        <ele>195.1</ele>
        <time>1970-01-01T00:58:33.000Z</time>
      </trkpt>
      <trkpt lat="43.16601" lon="2.38005">
        <ele>194.4</ele>
        <time>1970-01-01T00:58:35.000Z</time>
      </trkpt>
      <trkpt lat="43.16601" lon="2.38">
        <ele>193.9</ele>
        <time>1970-01-01T00:58:36.000Z</time>
      </trkpt>
      <trkpt lat="43.166" lon="2.37999">
        <ele>193.7</ele>
        <time>1970-01-01T00:58:37.000Z</time>
      </trkpt>
      <trkpt lat="43.166" lon="2.37995">
        <ele>193.4</ele>
        <time>1970-01-01T00:58:38.000Z</time>
      </trkpt>
      <trkpt lat="43.16598" lon="2.3799">
        <ele>192.9</ele>
        <time>1970-01-01T00:58:40.000Z</time>
      </trkpt>
      <trkpt lat="43.16598" lon="2.37988">
        <ele>192.7</ele>
        <time>1970-01-01T00:58:41.000Z</time>
      </trkpt>
      <trkpt lat="43.16595" lon="2.37985">
        <ele>192.3</ele>
        <time>1970-01-01T00:58:42.000Z</time>
      </trkpt>
      <trkpt lat="43.16594" lon="2.37985">
        <ele>192.2</ele>
        <time>1970-01-01T00:58:43.000Z</time>
      </trkpt>
      <trkpt lat="43.16592" lon="2.37984">
        <ele>192</ele>
        <time>1970-01-01T00:58:44.000Z</time>
      </trkpt>
      <trkpt lat="43.1659" lon="2.37983">
        <ele>191.8</ele>
        <time>1970-01-01T00:58:46.000Z</time>
      </trkpt>
      <trkpt lat="43.16587" lon="2.37982">
        <ele>191.5</ele>
        <time>1970-01-01T00:58:47.000Z</time>
      </trkpt>
      <trkpt lat="43.16586" lon="2.37982">
        <ele>191.4</ele>
        <time>1970-01-01T00:58:48.000Z</time>
      </trkpt>
      <trkpt lat="43.16584" lon="2.37981">
        <ele>191.2</ele>
        <time>1970-01-01T00:58:49.000Z</time>
      </trkpt>
      <trkpt lat="43.16583" lon="2.3798">
        <ele>191.1</ele>
        <time>1970-01-01T00:58:50.000Z</time>
      </trkpt>
      <trkpt lat="43.16579" lon="2.37979">
        <ele>190.8</ele>
        <time>1970-01-01T00:58:52.000Z</time>
      </trkpt>
      <trkpt lat="43.16578" lon="2.37978">
        <ele>190.8</ele>
        <time>1970-01-01T00:58:53.000Z</time>
      </trkpt>
      <trkpt lat="43.16576" lon="2.37977">
        <ele>190.7</ele>
        <time>1970-01-01T00:58:54.000Z</time>
      </trkpt>
      <trkpt lat="43.16573" lon="2.37975">
        <ele>190.5</ele>
        <time>1970-01-01T00:58:56.000Z</time>
      </trkpt>
      <trkpt lat="43.16572" lon="2.37975">
        <ele>190.4</ele>
        <time>1970-01-01T00:58:57.000Z</time>
      </trkpt>
      <trkpt lat="43.1657" lon="2.37971">
        <ele>190.2</ele>
        <time>1970-01-01T00:58:58.000Z</time>
      </trkpt>
      <trkpt lat="43.16568" lon="2.37966">
        <ele>190</ele>
        <time>1970-01-01T00:59:00.000Z</time>
      </trkpt>
      <trkpt lat="43.16567" lon="2.37964">
        <ele>189.9</ele>
        <time>1970-01-01T00:59:01.000Z</time>
      </trkpt>
      <trkpt lat="43.16567" lon="2.37963">
        <ele>189.9</ele>
        <time>1970-01-01T00:59:02.000Z</time>
      </trkpt>
      <trkpt lat="43.16568" lon="2.37959">
        <ele>189.8</ele>
        <time>1970-01-01T00:59:04.000Z</time>
      </trkpt>
      <trkpt lat="43.16568" lon="2.37958">
        <ele>189.7</ele>
        <time>1970-01-01T00:59:05.000Z</time>
      </trkpt>
      <trkpt lat="43.16569" lon="2.37954">
        <ele>189.6</ele>
        <time>1970-01-01T00:59:07.000Z</time>
      </trkpt>
      <trkpt lat="43.16569" lon="2.37952">
        <ele>189.5</ele>
        <time>1970-01-01T00:59:08.000Z</time>
      </trkpt>
      <trkpt lat="43.1657" lon="2.37949">
        <ele>189.5</ele>
        <time>1970-01-01T00:59:10.000Z</time>
      </trkpt>
      <trkpt lat="43.16571" lon="2.37947">
        <ele>189.4</ele>
        <time>1970-01-01T00:59:11.000Z</time>
      </trkpt>
      <trkpt lat="43.16573" lon="2.37944">
        <ele>189.3</ele>
        <time>1970-01-01T00:59:13.000Z</time>
      </trkpt>
      <trkpt lat="43.16576" lon="2.37942">
        <ele>189.2</ele>
        <time>1970-01-01T00:59:15.000Z</time>
      </trkpt>
      <trkpt lat="43.16577" lon="2.37941">
        <ele>189.2</ele>
        <time>1970-01-01T00:59:16.000Z</time>
      </trkpt>
      <trkpt lat="43.16578" lon="2.37942">
        <ele>189.2</ele>
        <time>1970-01-01T00:59:17.000Z</time>
      </trkpt>
      <trkpt lat="43.16581" lon="2.37942">
        <ele>189.1</ele>
        <time>1970-01-01T00:59:19.000Z</time>
      </trkpt>
      <trkpt lat="43.16583" lon="2.37941">
        <ele>189.1</ele>
        <time>1970-01-01T00:59:20.000Z</time>
      </trkpt>
      <trkpt lat="43.16586" lon="2.37941">
        <ele>189</ele>
        <time>1970-01-01T00:59:22.000Z</time>
      </trkpt>
      <trkpt lat="43.16589" lon="2.37941">
        <ele>189</ele>
        <time>1970-01-01T00:59:23.000Z</time>
      </trkpt>
      <trkpt lat="43.1659" lon="2.37941">
        <ele>189</ele>
        <time>1970-01-01T00:59:24.000Z</time>
      </trkpt>
      <trkpt lat="43.16592" lon="2.37941">
        <ele>189</ele>
        <time>1970-01-01T00:59:26.000Z</time>
      </trkpt>
      <trkpt lat="43.16593" lon="2.37941">
        <ele>189</ele>
        <time>1970-01-01T00:59:27.000Z</time>
      </trkpt>
      <trkpt lat="43.16597" lon="2.3794">
        <ele>189</ele>
        <time>1970-01-01T00:59:28.000Z</time>
      </trkpt>
      <trkpt lat="43.16598" lon="2.37941">
        <ele>189</ele>
        <time>1970-01-01T00:59:29.000Z</time>
      </trkpt>
      <trkpt lat="43.166" lon="2.37941">
        <ele>189</ele>
        <time>1970-01-01T00:59:31.000Z</time>
      </trkpt>
      <trkpt lat="43.16602" lon="2.37941">
        <ele>189</ele>
        <time>1970-01-01T00:59:32.000Z</time>
      </trkpt>
      <trkpt lat="43.16603" lon="2.37942">
        <ele>189</ele>
        <time>1970-01-01T00:59:33.000Z</time>
      </trkpt>
      <trkpt lat="43.16607" lon="2.37943">
        <ele>189.1</ele>
        <time>1970-01-01T00:59:35.000Z</time>
      </trkpt>
      <trkpt lat="43.16608" lon="2.37943">
        <ele>189.1</ele>
        <time>1970-01-01T00:59:36.000Z</time>
      </trkpt>
      <trkpt lat="43.16612" lon="2.37943">
        <ele>189.1</ele>
        <time>1970-01-01T00:59:38.000Z</time>
      </trkpt>
      <trkpt lat="43.16613" lon="2.37943">
        <ele>189.2</ele>
        <time>1970-01-01T00:59:39.000Z</time>
      </trkpt>
      <trkpt lat="43.16616" lon="2.37944">
        <ele>189.2</ele>
        <time>1970-01-01T00:59:40.000Z</time>
      </trkpt>
      <trkpt lat="43.16621" lon="2.37944">
        <ele>189.4</ele>
        <time>1970-01-01T00:59:42.000Z</time>
      </trkpt>
      <trkpt lat="43.16622" lon="2.37945">
        <ele>189.4</ele>
        <time>1970-01-01T00:59:43.000Z</time>
      </trkpt>
      <trkpt lat="43.16624" lon="2.37945">
        <ele>189.5</ele>
        <time>1970-01-01T00:59:44.000Z</time>
      </trkpt>
      <trkpt lat="43.16628" lon="2.37946">
        <ele>189.6</ele>
        <time>1970-01-01T00:59:46.000Z</time>
      </trkpt>
      <trkpt lat="43.1663" lon="2.37947">
        <ele>189.7</ele>
        <time>1970-01-01T00:59:47.000Z</time>
      </trkpt>
      <trkpt lat="43.16634" lon="2.37948">
        <ele>189.8</ele>
        <time>1970-01-01T00:59:49.000Z</time>
      </trkpt>
      <trkpt lat="43.16638" lon="2.37949">
        <ele>190</ele>
        <time>1970-01-01T00:59:50.000Z</time>
      </trkpt>
      <trkpt lat="43.16643" lon="2.37951">
        <ele>190.3</ele>
        <time>1970-01-01T00:59:52.000Z</time>
      </trkpt>
      <trkpt lat="43.16647" lon="2.37952">
        <ele>190.5</ele>
        <time>1970-01-01T00:59:53.000Z</time>
      </trkpt>
      <trkpt lat="43.16649" lon="2.37953">
        <ele>190.6</ele>
        <time>1970-01-01T00:59:54.000Z</time>
      </trkpt>
      <trkpt lat="43.16654" lon="2.37953">
        <ele>190.9</ele>
        <time>1970-01-01T00:59:56.000Z</time>
      </trkpt>
      <trkpt lat="43.16655" lon="2.37953">
        <ele>190.9</ele>
        <time>1970-01-01T00:59:57.000Z</time>
      </trkpt>
      <trkpt lat="43.16657" lon="2.37953">
        <ele>191</ele>
        <time>1970-01-01T00:59:58.000Z</time>
      </trkpt>
      <trkpt lat="43.16659" lon="2.37953">
        <ele>191.1</ele>
        <time>1970-01-01T00:59:59.000Z</time>
      </trkpt>
      <trkpt lat="43.16662" lon="2.37953">
        <ele>191.3</ele>
        <time>1970-01-01T01:00:01.000Z</time>
      </trkpt>
      <trkpt lat="43.16665" lon="2.37953">
        <ele>191.5</ele>
        <time>1970-01-01T01:00:02.000Z</time>
      </trkpt>
      <trkpt lat="43.16666" lon="2.37953">
        <ele>191.5</ele>
        <time>1970-01-01T01:00:03.000Z</time>
      </trkpt>
      <trkpt lat="43.1667" lon="2.37952">
        <ele>191.8</ele>
        <time>1970-01-01T01:00:05.000Z</time>
      </trkpt>
      <trkpt lat="43.16672" lon="2.37953">
        <ele>191.8</ele>
        <time>1970-01-01T01:00:06.000Z</time>
      </trkpt>
      <trkpt lat="43.16673" lon="2.37953">
        <ele>191.9</ele>
        <time>1970-01-01T01:00:07.000Z</time>
      </trkpt>
      <trkpt lat="43.16675" lon="2.37953">
        <ele>192</ele>
        <time>1970-01-01T01:00:08.000Z</time>
      </trkpt>
      <trkpt lat="43.16678" lon="2.37953">
        <ele>192.2</ele>
        <time>1970-01-01T01:00:10.000Z</time>
      </trkpt>
      <trkpt lat="43.1668" lon="2.37952">
        <ele>192.3</ele>
        <time>1970-01-01T01:00:11.000Z</time>
      </trkpt>
      <trkpt lat="43.16682" lon="2.37952">
        <ele>192.4</ele>
        <time>1970-01-01T01:00:13.000Z</time>
      </trkpt>
      <trkpt lat="43.16685" lon="2.37951">
        <ele>192.5</ele>
        <time>1970-01-01T01:00:14.000Z</time>
      </trkpt>
      <trkpt lat="43.16688" lon="2.3795">
        <ele>192.7</ele>
        <time>1970-01-01T01:00:16.000Z</time>
      </trkpt>
      <trkpt lat="43.16691" lon="2.37949">
        <ele>192.8</ele>
        <time>1970-01-01T01:00:18.000Z</time>
      </trkpt>
      <trkpt lat="43.16693" lon="2.37948">
        <ele>192.9</ele>
        <time>1970-01-01T01:00:19.000Z</time>
      </trkpt>
      <trkpt lat="43.16696" lon="2.37947">
        <ele>193.1</ele>
        <time>1970-01-01T01:00:21.000Z</time>
      </trkpt>
      <trkpt lat="43.16698" lon="2.37947">
        <ele>193.2</ele>
        <time>1970-01-01T01:00:22.000Z</time>
      </trkpt>
      <trkpt lat="43.16701" lon="2.37946">
        <ele>193.3</ele>
        <time>1970-01-01T01:00:24.000Z</time>
      </trkpt>
      <trkpt lat="43.16703" lon="2.37945">
        <ele>193.4</ele>
        <time>1970-01-01T01:00:25.000Z</time>
      </trkpt>
      <trkpt lat="43.16706" lon="2.37944">
        <ele>193.6</ele>
        <time>1970-01-01T01:00:27.000Z</time>
      </trkpt>
      <trkpt lat="43.16708" lon="2.37944">
        <ele>193.6</ele>
        <time>1970-01-01T01:00:28.000Z</time>
      </trkpt>
      <trkpt lat="43.16711" lon="2.37943">
        <ele>193.8</ele>
        <time>1970-01-01T01:00:30.000Z</time>
      </trkpt>
      <trkpt lat="43.16714" lon="2.37942">
        <ele>193.9</ele>
        <time>1970-01-01T01:00:31.000Z</time>
      </trkpt>
      <trkpt lat="43.16715" lon="2.37942">
        <ele>193.9</ele>
        <time>1970-01-01T01:00:32.000Z</time>
      </trkpt>
      <trkpt lat="43.16717" lon="2.37941">
        <ele>194</ele>
        <time>1970-01-01T01:00:33.000Z</time>
      </trkpt>
      <trkpt lat="43.16719" lon="2.3794">
        <ele>194.1</ele>
        <time>1970-01-01T01:00:35.000Z</time>
      </trkpt>
      <trkpt lat="43.16721" lon="2.37939">
        <ele>194.3</ele>
        <time>1970-01-01T01:00:36.000Z</time>
      </trkpt>
      <trkpt lat="43.16724" lon="2.37938">
        <ele>194.6</ele>
        <time>1970-01-01T01:00:38.000Z</time>
      </trkpt>
      <trkpt lat="43.16726" lon="2.37937">
        <ele>194.6</ele>
        <time>1970-01-01T01:00:39.000Z</time>
      </trkpt>
      <trkpt lat="43.16729" lon="2.37936">
        <ele>194.9</ele>
        <time>1970-01-01T01:00:40.000Z</time>
      </trkpt>
      <trkpt lat="43.1673" lon="2.37935">
        <ele>195</ele>
        <time>1970-01-01T01:00:41.000Z</time>
      </trkpt>
      <trkpt lat="43.16733" lon="2.37935">
        <ele>195.2</ele>
        <time>1970-01-01T01:00:43.000Z</time>
      </trkpt>
      <trkpt lat="43.16734" lon="2.37935">
        <ele>195.3</ele>
        <time>1970-01-01T01:00:44.000Z</time>
      </trkpt>
      <trkpt lat="43.16736" lon="2.37934">
        <ele>195.5</ele>
        <time>1970-01-01T01:00:45.000Z</time>
      </trkpt>
      <trkpt lat="43.16739" lon="2.37933">
        <ele>195.7</ele>
        <time>1970-01-01T01:00:47.000Z</time>
      </trkpt>
      <trkpt lat="43.1674" lon="2.37933">
        <ele>195.8</ele>
        <time>1970-01-01T01:00:48.000Z</time>
      </trkpt>
      <trkpt lat="43.16743" lon="2.37932">
        <ele>196</ele>
        <time>1970-01-01T01:00:50.000Z</time>
      </trkpt>
      <trkpt lat="43.16745" lon="2.37931">
        <ele>196.2</ele>
        <time>1970-01-01T01:00:51.000Z</time>
      </trkpt>
      <trkpt lat="43.16747" lon="2.3793">
        <ele>196.3</ele>
        <time>1970-01-01T01:00:53.000Z</time>
      </trkpt>
      <trkpt lat="43.16748" lon="2.3793">
        <ele>196.4</ele>
        <time>1970-01-01T01:00:54.000Z</time>
      </trkpt>
      <trkpt lat="43.16751" lon="2.37929">
        <ele>196.6</ele>
        <time>1970-01-01T01:00:56.000Z</time>
      </trkpt>
      <trkpt lat="43.16754" lon="2.37928">
        <ele>196.8</ele>
        <time>1970-01-01T01:00:58.000Z</time>
      </trkpt>
      <trkpt lat="43.16755" lon="2.37928">
        <ele>196.8</ele>
        <time>1970-01-01T01:00:59.000Z</time>
      </trkpt>
      <trkpt lat="43.16758" lon="2.37928">
        <ele>196.9</ele>
        <time>1970-01-01T01:01:00.000Z</time>
      </trkpt>
      <trkpt lat="43.16759" lon="2.37927">
        <ele>197</ele>
        <time>1970-01-01T01:01:01.000Z</time>
      </trkpt>
      <trkpt lat="43.16762" lon="2.37927">
        <ele>197.1</ele>
        <time>1970-01-01T01:01:03.000Z</time>
      </trkpt>
      <trkpt lat="43.16763" lon="2.37927">
        <ele>197.1</ele>
        <time>1970-01-01T01:01:04.000Z</time>
      </trkpt>
      <trkpt lat="43.16764" lon="2.37927">
        <ele>197.1</ele>
        <time>1970-01-01T01:01:05.000Z</time>
      </trkpt>
      <trkpt lat="43.16767" lon="2.37926">
        <ele>197.1</ele>
        <time>1970-01-01T01:01:07.000Z</time>
      </trkpt>
      <trkpt lat="43.16771" lon="2.37926">
        <ele>197.1</ele>
        <time>1970-01-01T01:01:08.000Z</time>
      </trkpt>
      <trkpt lat="43.16771" lon="2.37926">
        <ele>197.1</ele>
        <time>1970-01-01T01:01:09.000Z</time>
      </trkpt>
      <trkpt lat="43.16773" lon="2.37927">
        <ele>197.1</ele>
        <time>1970-01-01T01:01:10.000Z</time>
      </trkpt>
      <trkpt lat="43.16775" lon="2.37926">
        <ele>197</ele>
        <time>1970-01-01T01:01:12.000Z</time>
      </trkpt>
      <trkpt lat="43.16778" lon="2.37926">
        <ele>197</ele>
        <time>1970-01-01T01:01:13.000Z</time>
      </trkpt>
      <trkpt lat="43.16781" lon="2.37926">
        <ele>196.9</ele>
        <time>1970-01-01T01:01:14.000Z</time>
      </trkpt>
      <trkpt lat="43.16782" lon="2.37926">
        <ele>196.8</ele>
        <time>1970-01-01T01:01:15.000Z</time>
      </trkpt>
      <trkpt lat="43.16786" lon="2.37925">
        <ele>196.7</ele>
        <time>1970-01-01T01:01:17.000Z</time>
      </trkpt>
      <trkpt lat="43.16787" lon="2.37925">
        <ele>196.6</ele>
        <time>1970-01-01T01:01:18.000Z</time>
      </trkpt>
      <trkpt lat="43.1679" lon="2.37925">
        <ele>196.5</ele>
        <time>1970-01-01T01:01:19.000Z</time>
      </trkpt>
      <trkpt lat="43.16792" lon="2.37924">
        <ele>196.3</ele>
        <time>1970-01-01T01:01:21.000Z</time>
      </trkpt>
      <trkpt lat="43.16795" lon="2.37924">
        <ele>196.2</ele>
        <time>1970-01-01T01:01:22.000Z</time>
      </trkpt>
      <trkpt lat="43.16796" lon="2.37924">
        <ele>196.1</ele>
        <time>1970-01-01T01:01:23.000Z</time>
      </trkpt>
      <trkpt lat="43.168" lon="2.37922">
        <ele>195.9</ele>
        <time>1970-01-01T01:01:25.000Z</time>
      </trkpt>
      <trkpt lat="43.16801" lon="2.37922">
        <ele>195.8</ele>
        <time>1970-01-01T01:01:26.000Z</time>
      </trkpt>
      <trkpt lat="43.16804" lon="2.37921">
        <ele>195.6</ele>
        <time>1970-01-01T01:01:28.000Z</time>
      </trkpt>
      <trkpt lat="43.16805" lon="2.37921">
        <ele>195.5</ele>
        <time>1970-01-01T01:01:29.000Z</time>
      </trkpt>
      <trkpt lat="43.16808" lon="2.3792">
        <ele>195.3</ele>
        <time>1970-01-01T01:01:30.000Z</time>
      </trkpt>
      <trkpt lat="43.16809" lon="2.3792">
        <ele>195.3</ele>
        <time>1970-01-01T01:01:31.000Z</time>
      </trkpt>
      <trkpt lat="43.16811" lon="2.37919">
        <ele>195.1</ele>
        <time>1970-01-01T01:01:32.000Z</time>
      </trkpt>
      <trkpt lat="43.16814" lon="2.37919">
        <ele>195</ele>
        <time>1970-01-01T01:01:34.000Z</time>
      </trkpt>
      <trkpt lat="43.16817" lon="2.37918">
        <ele>194.8</ele>
        <time>1970-01-01T01:01:35.000Z</time>
      </trkpt>
      <trkpt lat="43.16818" lon="2.37918">
        <ele>194.7</ele>
        <time>1970-01-01T01:01:36.000Z</time>
      </trkpt>
      <trkpt lat="43.16821" lon="2.37917">
        <ele>194.5</ele>
        <time>1970-01-01T01:01:37.000Z</time>
      </trkpt>
      <trkpt lat="43.16823" lon="2.37917">
        <ele>194.4</ele>
        <time>1970-01-01T01:01:38.000Z</time>
      </trkpt>
      <trkpt lat="43.16826" lon="2.37916">
        <ele>194.3</ele>
        <time>1970-01-01T01:01:40.000Z</time>
      </trkpt>
      <trkpt lat="43.16829" lon="2.37914">
        <ele>194.1</ele>
        <time>1970-01-01T01:01:41.000Z</time>
      </trkpt>
      <trkpt lat="43.16833" lon="2.37912">
        <ele>193.9</ele>
        <time>1970-01-01T01:01:43.000Z</time>
      </trkpt>
      <trkpt lat="43.16836" lon="2.37911">
        <ele>193.7</ele>
        <time>1970-01-01T01:01:45.000Z</time>
      </trkpt>
      <trkpt lat="43.1684" lon="2.3791">
        <ele>193.5</ele>
        <time>1970-01-01T01:01:46.000Z</time>
      </trkpt>
      <trkpt lat="43.16844" lon="2.37909">
        <ele>193.3</ele>
        <time>1970-01-01T01:01:47.000Z</time>
      </trkpt>
      <trkpt lat="43.16845" lon="2.37909">
        <ele>193.3</ele>
        <time>1970-01-01T01:01:48.000Z</time>
      </trkpt>
      <trkpt lat="43.16849" lon="2.37908">
        <ele>193.2</ele>
        <time>1970-01-01T01:01:50.000Z</time>
      </trkpt>
      <trkpt lat="43.1685" lon="2.37908">
        <ele>193.1</ele>
        <time>1970-01-01T01:01:51.000Z</time>
      </trkpt>
      <trkpt lat="43.16854" lon="2.37907">
        <ele>193</ele>
        <time>1970-01-01T01:01:52.000Z</time>
      </trkpt>
      <trkpt lat="43.16855" lon="2.37907">
        <ele>192.9</ele>
        <time>1970-01-01T01:01:53.000Z</time>
      </trkpt>
      <trkpt lat="43.16858" lon="2.37907">
        <ele>192.8</ele>
        <time>1970-01-01T01:01:54.000Z</time>
      </trkpt>
      <trkpt lat="43.1686" lon="2.37907">
        <ele>192.8</ele>
        <time>1970-01-01T01:01:55.000Z</time>
      </trkpt>
      <trkpt lat="43.16863" lon="2.37905">
        <ele>192.7</ele>
        <time>1970-01-01T01:01:57.000Z</time>
      </trkpt>
      <trkpt lat="43.16864" lon="2.37905">
        <ele>192.7</ele>
        <time>1970-01-01T01:01:58.000Z</time>
      </trkpt>
      <trkpt lat="43.16867" lon="2.37904">
        <ele>192.6</ele>
        <time>1970-01-01T01:01:59.000Z</time>
      </trkpt>
      <trkpt lat="43.16868" lon="2.37903">
        <ele>192.6</ele>
        <time>1970-01-01T01:02:00.000Z</time>
      </trkpt>
      <trkpt lat="43.16871" lon="2.37902">
        <ele>192.5</ele>
        <time>1970-01-01T01:02:01.000Z</time>
      </trkpt>
      <trkpt lat="43.16872" lon="2.37901">
        <ele>192.5</ele>
        <time>1970-01-01T01:02:02.000Z</time>
      </trkpt>
      <trkpt lat="43.16876" lon="2.379">
        <ele>192.4</ele>
        <time>1970-01-01T01:02:04.000Z</time>
      </trkpt>
      <trkpt lat="43.16877" lon="2.379">
        <ele>192.4</ele>
        <time>1970-01-01T01:02:05.000Z</time>
      </trkpt>
      <trkpt lat="43.16879" lon="2.37899">
        <ele>192.3</ele>
        <time>1970-01-01T01:02:06.000Z</time>
      </trkpt>
      <trkpt lat="43.16881" lon="2.37898">
        <ele>192.3</ele>
        <time>1970-01-01T01:02:07.000Z</time>
      </trkpt>
      <trkpt lat="43.16883" lon="2.37898">
        <ele>192.2</ele>
        <time>1970-01-01T01:02:09.000Z</time>
      </trkpt>
      <trkpt lat="43.16886" lon="2.37897">
        <ele>192.1</ele>
        <time>1970-01-01T01:02:10.000Z</time>
      </trkpt>
      <trkpt lat="43.16888" lon="2.37896">
        <ele>192.1</ele>
        <time>1970-01-01T01:02:11.000Z</time>
      </trkpt>
      <trkpt lat="43.16891" lon="2.37895">
        <ele>192</ele>
        <time>1970-01-01T01:02:12.000Z</time>
      </trkpt>
      <trkpt lat="43.16892" lon="2.37894">
        <ele>192</ele>
        <time>1970-01-01T01:02:13.000Z</time>
      </trkpt>
      <trkpt lat="43.16895" lon="2.37893">
        <ele>191.9</ele>
        <time>1970-01-01T01:02:14.000Z</time>
      </trkpt>
      <trkpt lat="43.16896" lon="2.37893">
        <ele>191.9</ele>
        <time>1970-01-01T01:02:15.000Z</time>
      </trkpt>
      <trkpt lat="43.16901" lon="2.37891">
        <ele>191.8</ele>
        <time>1970-01-01T01:02:17.000Z</time>
      </trkpt>
      <trkpt lat="43.16903" lon="2.3789">
        <ele>191.7</ele>
        <time>1970-01-01T01:02:19.000Z</time>
      </trkpt>
      <trkpt lat="43.16905" lon="2.37889">
        <ele>191.7</ele>
        <time>1970-01-01T01:02:20.000Z</time>
      </trkpt>
      <trkpt lat="43.16906" lon="2.37888">
        <ele>191.6</ele>
        <time>1970-01-01T01:02:21.000Z</time>
      </trkpt>
      <trkpt lat="43.16909" lon="2.37888">
        <ele>191.6</ele>
        <time>1970-01-01T01:02:22.000Z</time>
      </trkpt>
      <trkpt lat="43.16911" lon="2.37887">
        <ele>191.5</ele>
        <time>1970-01-01T01:02:24.000Z</time>
      </trkpt>
      <trkpt lat="43.16913" lon="2.37887">
        <ele>191.4</ele>
        <time>1970-01-01T01:02:25.000Z</time>
      </trkpt>
      <trkpt lat="43.16916" lon="2.37886">
        <ele>191.4</ele>
        <time>1970-01-01T01:02:27.000Z</time>
      </trkpt>
      <trkpt lat="43.16919" lon="2.37886">
        <ele>191.3</ele>
        <time>1970-01-01T01:02:28.000Z</time>
      </trkpt>
      <trkpt lat="43.1692" lon="2.37886">
        <ele>191.2</ele>
        <time>1970-01-01T01:02:29.000Z</time>
      </trkpt>
      <trkpt lat="43.16924" lon="2.37886">
        <ele>191.1</ele>
        <time>1970-01-01T01:02:31.000Z</time>
      </trkpt>
      <trkpt lat="43.16925" lon="2.37886">
        <ele>191.1</ele>
        <time>1970-01-01T01:02:32.000Z</time>
      </trkpt>
      <trkpt lat="43.16928" lon="2.37885">
        <ele>190.9</ele>
        <time>1970-01-01T01:02:33.000Z</time>
      </trkpt>
      <trkpt lat="43.16929" lon="2.37885">
        <ele>190.9</ele>
        <time>1970-01-01T01:02:34.000Z</time>
      </trkpt>
      <trkpt lat="43.16933" lon="2.37885">
        <ele>190.7</ele>
        <time>1970-01-01T01:02:36.000Z</time>
      </trkpt>
      <trkpt lat="43.16934" lon="2.37885">
        <ele>190.7</ele>
        <time>1970-01-01T01:02:37.000Z</time>
      </trkpt>
      <trkpt lat="43.16937" lon="2.37885">
        <ele>190.5</ele>
        <time>1970-01-01T01:02:38.000Z</time>
      </trkpt>
      <trkpt lat="43.16938" lon="2.37885">
        <ele>190.5</ele>
        <time>1970-01-01T01:02:39.000Z</time>
      </trkpt>
      <trkpt lat="43.16942" lon="2.37885">
        <ele>190.4</ele>
        <time>1970-01-01T01:02:40.000Z</time>
      </trkpt>
      <trkpt lat="43.16943" lon="2.37885">
        <ele>190.3</ele>
        <time>1970-01-01T01:02:41.000Z</time>
      </trkpt>
      <trkpt lat="43.16947" lon="2.37885">
        <ele>190.2</ele>
        <time>1970-01-01T01:02:43.000Z</time>
      </trkpt>
      <trkpt lat="43.16948" lon="2.37885">
        <ele>190.1</ele>
        <time>1970-01-01T01:02:44.000Z</time>
      </trkpt>
      <trkpt lat="43.16952" lon="2.37884">
        <ele>190</ele>
        <time>1970-01-01T01:02:45.000Z</time>
      </trkpt>
      <trkpt lat="43.16953" lon="2.37884">
        <ele>189.9</ele>
        <time>1970-01-01T01:02:46.000Z</time>
      </trkpt>
      <trkpt lat="43.16957" lon="2.37884">
        <ele>189.8</ele>
        <time>1970-01-01T01:02:47.000Z</time>
      </trkpt>
      <trkpt lat="43.16958" lon="2.37884">
        <ele>189.7</ele>
        <time>1970-01-01T01:02:48.000Z</time>
      </trkpt>
      <trkpt lat="43.16962" lon="2.37883">
        <ele>189.6</ele>
        <time>1970-01-01T01:02:49.000Z</time>
      </trkpt>
      <trkpt lat="43.16963" lon="2.37883">
        <ele>189.5</ele>
        <time>1970-01-01T01:02:50.000Z</time>
      </trkpt>
      <trkpt lat="43.16966" lon="2.37883">
        <ele>189.4</ele>
        <time>1970-01-01T01:02:51.000Z</time>
      </trkpt>
      <trkpt lat="43.16971" lon="2.37882">
        <ele>189.2</ele>
        <time>1970-01-01T01:02:53.000Z</time>
      </trkpt>
      <trkpt lat="43.16973" lon="2.37882">
        <ele>189.1</ele>
        <time>1970-01-01T01:02:54.000Z</time>
      </trkpt>
      <trkpt lat="43.16975" lon="2.37882">
        <ele>189</ele>
        <time>1970-01-01T01:02:55.000Z</time>
      </trkpt>
      <trkpt lat="43.16978" lon="2.37882">
        <ele>188.8</ele>
        <time>1970-01-01T01:02:57.000Z</time>
      </trkpt>
      <trkpt lat="43.16982" lon="2.37882">
        <ele>188.7</ele>
        <time>1970-01-01T01:02:58.000Z</time>
      </trkpt>
      <trkpt lat="43.16985" lon="2.37882">
        <ele>188.5</ele>
        <time>1970-01-01T01:02:59.000Z</time>
      </trkpt>
      <trkpt lat="43.16988" lon="2.37882">
        <ele>188.4</ele>
        <time>1970-01-01T01:03:00.000Z</time>
      </trkpt>
      <trkpt lat="43.16991" lon="2.3788">
        <ele>188.3</ele>
        <time>1970-01-01T01:03:01.000Z</time>
      </trkpt>
      <trkpt lat="43.16994" lon="2.37879">
        <ele>188.1</ele>
        <time>1970-01-01T01:03:03.000Z</time>
      </trkpt>
      <trkpt lat="43.16996" lon="2.37879">
        <ele>188.1</ele>
        <time>1970-01-01T01:03:04.000Z</time>
      </trkpt>
      <trkpt lat="43.16999" lon="2.37877">
        <ele>188</ele>
        <time>1970-01-01T01:03:05.000Z</time>
      </trkpt>
      <trkpt lat="43.17" lon="2.37876">
        <ele>187.9</ele>
        <time>1970-01-01T01:03:06.000Z</time>
      </trkpt>
      <trkpt lat="43.17004" lon="2.37874">
        <ele>187.8</ele>
        <time>1970-01-01T01:03:07.000Z</time>
      </trkpt>
      <trkpt lat="43.17005" lon="2.37873">
        <ele>187.7</ele>
        <time>1970-01-01T01:03:08.000Z</time>
      </trkpt>
      <trkpt lat="43.17009" lon="2.37871">
        <ele>187.6</ele>
        <time>1970-01-01T01:03:10.000Z</time>
      </trkpt>
      <trkpt lat="43.1701" lon="2.3787">
        <ele>187.5</ele>
        <time>1970-01-01T01:03:11.000Z</time>
      </trkpt>
      <trkpt lat="43.17014" lon="2.37868">
        <ele>187.4</ele>
        <time>1970-01-01T01:03:12.000Z</time>
      </trkpt>
      <trkpt lat="43.17015" lon="2.37867">
        <ele>187.3</ele>
        <time>1970-01-01T01:03:13.000Z</time>
      </trkpt>
      <trkpt lat="43.17017" lon="2.37866">
        <ele>187.2</ele>
        <time>1970-01-01T01:03:14.000Z</time>
      </trkpt>
      <trkpt lat="43.17021" lon="2.37863">
        <ele>187.1</ele>
        <time>1970-01-01T01:03:15.000Z</time>
      </trkpt>
      <trkpt lat="43.17022" lon="2.37862">
        <ele>187.1</ele>
        <time>1970-01-01T01:03:16.000Z</time>
      </trkpt>
      <trkpt lat="43.17025" lon="2.3786">
        <ele>186.9</ele>
        <time>1970-01-01T01:03:18.000Z</time>
      </trkpt>
      <trkpt lat="43.17027" lon="2.37859">
        <ele>186.9</ele>
        <time>1970-01-01T01:03:19.000Z</time>
      </trkpt>
      <trkpt lat="43.1703" lon="2.37857">
        <ele>186.7</ele>
        <time>1970-01-01T01:03:20.000Z</time>
      </trkpt>
      <trkpt lat="43.17031" lon="2.37857">
        <ele>186.7</ele>
        <time>1970-01-01T01:03:21.000Z</time>
      </trkpt>
      <trkpt lat="43.17035" lon="2.37854">
        <ele>186.5</ele>
        <time>1970-01-01T01:03:22.000Z</time>
      </trkpt>
      <trkpt lat="43.17036" lon="2.37853">
        <ele>186.5</ele>
        <time>1970-01-01T01:03:23.000Z</time>
      </trkpt>
      <trkpt lat="43.1704" lon="2.37851">
        <ele>186.3</ele>
        <time>1970-01-01T01:03:25.000Z</time>
      </trkpt>
      <trkpt lat="43.17041" lon="2.3785">
        <ele>186.3</ele>
        <time>1970-01-01T01:03:26.000Z</time>
      </trkpt>
      <trkpt lat="43.17045" lon="2.37849">
        <ele>186.1</ele>
        <time>1970-01-01T01:03:27.000Z</time>
      </trkpt>
      <trkpt lat="43.17046" lon="2.37848">
        <ele>186.1</ele>
        <time>1970-01-01T01:03:28.000Z</time>
      </trkpt>
      <trkpt lat="43.17048" lon="2.37846">
        <ele>186</ele>
        <time>1970-01-01T01:03:29.000Z</time>
      </trkpt>
      <trkpt lat="43.17052" lon="2.37844">
        <ele>185.9</ele>
        <time>1970-01-01T01:03:30.000Z</time>
      </trkpt>
      <trkpt lat="43.17053" lon="2.37843">
        <ele>185.8</ele>
        <time>1970-01-01T01:03:31.000Z</time>
      </trkpt>
      <trkpt lat="43.17056" lon="2.37841">
        <ele>185.7</ele>
        <time>1970-01-01T01:03:33.000Z</time>
      </trkpt>
      <trkpt lat="43.17057" lon="2.37841">
        <ele>185.7</ele>
        <time>1970-01-01T01:03:34.000Z</time>
      </trkpt>
      <trkpt lat="43.17061" lon="2.37839">
        <ele>185.5</ele>
        <time>1970-01-01T01:03:35.000Z</time>
      </trkpt>
      <trkpt lat="43.17062" lon="2.37838">
        <ele>185.5</ele>
        <time>1970-01-01T01:03:36.000Z</time>
      </trkpt>
      <trkpt lat="43.17065" lon="2.37836">
        <ele>185.4</ele>
        <time>1970-01-01T01:03:37.000Z</time>
      </trkpt>
      <trkpt lat="43.17066" lon="2.37836">
        <ele>185.4</ele>
        <time>1970-01-01T01:03:38.000Z</time>
      </trkpt>
      <trkpt lat="43.17069" lon="2.37834">
        <ele>185.3</ele>
        <time>1970-01-01T01:03:39.000Z</time>
      </trkpt>
      <trkpt lat="43.17071" lon="2.37833">
        <ele>185.2</ele>
        <time>1970-01-01T01:03:41.000Z</time>
      </trkpt>
      <trkpt lat="43.17074" lon="2.3783">
        <ele>185.1</ele>
        <time>1970-01-01T01:03:42.000Z</time>
      </trkpt>
      <trkpt lat="43.17075" lon="2.37829">
        <ele>185.1</ele>
        <time>1970-01-01T01:03:43.000Z</time>
      </trkpt>
      <trkpt lat="43.17078" lon="2.37827">
        <ele>185</ele>
        <time>1970-01-01T01:03:44.000Z</time>
      </trkpt>
      <trkpt lat="43.17079" lon="2.37826">
        <ele>185</ele>
        <time>1970-01-01T01:03:45.000Z</time>
      </trkpt>
      <trkpt lat="43.17081" lon="2.37824">
        <ele>184.9</ele>
        <time>1970-01-01T01:03:46.000Z</time>
      </trkpt>
      <trkpt lat="43.17083" lon="2.37823">
        <ele>184.8</ele>
        <time>1970-01-01T01:03:48.000Z</time>
      </trkpt>
      <trkpt lat="43.17086" lon="2.37821">
        <ele>184.7</ele>
        <time>1970-01-01T01:03:49.000Z</time>
      </trkpt>
      <trkpt lat="43.1709" lon="2.37819">
        <ele>184.6</ele>
        <time>1970-01-01T01:03:50.000Z</time>
      </trkpt>
      <trkpt lat="43.17091" lon="2.37818">
        <ele>184.6</ele>
        <time>1970-01-01T01:03:51.000Z</time>
      </trkpt>
      <trkpt lat="43.17094" lon="2.37816">
        <ele>184.4</ele>
        <time>1970-01-01T01:03:52.000Z</time>
      </trkpt>
      <trkpt lat="43.17095" lon="2.37815">
        <ele>184.4</ele>
        <time>1970-01-01T01:03:53.000Z</time>
      </trkpt>
      <trkpt lat="43.17097" lon="2.37814">
        <ele>184.3</ele>
        <time>1970-01-01T01:03:54.000Z</time>
      </trkpt>
      <trkpt lat="43.17099" lon="2.37812">
        <ele>184.3</ele>
        <time>1970-01-01T01:03:56.000Z</time>
      </trkpt>
      <trkpt lat="43.17103" lon="2.3781">
        <ele>184.1</ele>
        <time>1970-01-01T01:03:57.000Z</time>
      </trkpt>
      <trkpt lat="43.17104" lon="2.37809">
        <ele>184.1</ele>
        <time>1970-01-01T01:03:58.000Z</time>
      </trkpt>
      <trkpt lat="43.17107" lon="2.37807">
        <ele>184</ele>
        <time>1970-01-01T01:03:59.000Z</time>
      </trkpt>
      <trkpt lat="43.17108" lon="2.37806">
        <ele>183.9</ele>
        <time>1970-01-01T01:04:00.000Z</time>
      </trkpt>
      <trkpt lat="43.17111" lon="2.37804">
        <ele>183.8</ele>
        <time>1970-01-01T01:04:01.000Z</time>
      </trkpt>
      <trkpt lat="43.17114" lon="2.37803">
        <ele>183.7</ele>
        <time>1970-01-01T01:04:02.000Z</time>
      </trkpt>
      <trkpt lat="43.17116" lon="2.37801">
        <ele>183.6</ele>
        <time>1970-01-01T01:04:04.000Z</time>
      </trkpt>
      <trkpt lat="43.17119" lon="2.378">
        <ele>183.5</ele>
        <time>1970-01-01T01:04:05.000Z</time>
      </trkpt>
      <trkpt lat="43.17123" lon="2.37799">
        <ele>183.4</ele>
        <time>1970-01-01T01:04:06.000Z</time>
      </trkpt>
      <trkpt lat="43.17125" lon="2.37798">
        <ele>183.3</ele>
        <time>1970-01-01T01:04:07.000Z</time>
      </trkpt>
      <trkpt lat="43.17129" lon="2.37797">
        <ele>183.2</ele>
        <time>1970-01-01T01:04:09.000Z</time>
      </trkpt>
      <trkpt lat="43.17132" lon="2.37796">
        <ele>183.1</ele>
        <time>1970-01-01T01:04:10.000Z</time>
      </trkpt>
      <trkpt lat="43.17134" lon="2.37796">
        <ele>183</ele>
        <time>1970-01-01T01:04:11.000Z</time>
      </trkpt>
      <trkpt lat="43.17136" lon="2.37795">
        <ele>182.9</ele>
        <time>1970-01-01T01:04:12.000Z</time>
      </trkpt>
      <trkpt lat="43.1714" lon="2.37794">
        <ele>182.8</ele>
        <time>1970-01-01T01:04:14.000Z</time>
      </trkpt>
      <trkpt lat="43.17144" lon="2.37792">
        <ele>182.7</ele>
        <time>1970-01-01T01:04:15.000Z</time>
      </trkpt>
      <trkpt lat="43.17145" lon="2.37792">
        <ele>182.6</ele>
        <time>1970-01-01T01:04:16.000Z</time>
      </trkpt>
      <trkpt lat="43.17149" lon="2.3779">
        <ele>182.5</ele>
        <time>1970-01-01T01:04:17.000Z</time>
      </trkpt>
      <trkpt lat="43.1715" lon="2.37789">
        <ele>182.4</ele>
        <time>1970-01-01T01:04:18.000Z</time>
      </trkpt>
      <trkpt lat="43.17152" lon="2.37788">
        <ele>182.4</ele>
        <time>1970-01-01T01:04:19.000Z</time>
      </trkpt>
      <trkpt lat="43.17154" lon="2.37788">
        <ele>182.3</ele>
        <time>1970-01-01T01:04:21.000Z</time>
      </trkpt>
      <trkpt lat="43.17157" lon="2.37786">
        <ele>182.1</ele>
        <time>1970-01-01T01:04:22.000Z</time>
      </trkpt>
      <trkpt lat="43.17159" lon="2.37786">
        <ele>182.1</ele>
        <time>1970-01-01T01:04:23.000Z</time>
      </trkpt>
      <trkpt lat="43.17162" lon="2.37785">
        <ele>181.9</ele>
        <time>1970-01-01T01:04:24.000Z</time>
      </trkpt>
      <trkpt lat="43.17164" lon="2.37784">
        <ele>181.9</ele>
        <time>1970-01-01T01:04:25.000Z</time>
      </trkpt>
      <trkpt lat="43.17167" lon="2.37783">
        <ele>181.7</ele>
        <time>1970-01-01T01:04:26.000Z</time>
      </trkpt>
      <trkpt lat="43.17169" lon="2.37783">
        <ele>181.7</ele>
        <time>1970-01-01T01:04:27.000Z</time>
      </trkpt>
      <trkpt lat="43.17173" lon="2.37782">
        <ele>181.6</ele>
        <time>1970-01-01T01:04:29.000Z</time>
      </trkpt>
      <trkpt lat="43.17174" lon="2.37782">
        <ele>181.5</ele>
        <time>1970-01-01T01:04:30.000Z</time>
      </trkpt>
      <trkpt lat="43.17179" lon="2.37781">
        <ele>181.3</ele>
        <time>1970-01-01T01:04:32.000Z</time>
      </trkpt>
      <trkpt lat="43.17181" lon="2.3778">
        <ele>181.3</ele>
        <time>1970-01-01T01:04:33.000Z</time>
      </trkpt>
      <trkpt lat="43.17183" lon="2.3778">
        <ele>181.2</ele>
        <time>1970-01-01T01:04:34.000Z</time>
      </trkpt>
      <trkpt lat="43.17186" lon="2.37779">
        <ele>181.1</ele>
        <time>1970-01-01T01:04:35.000Z</time>
      </trkpt>
      <trkpt lat="43.17189" lon="2.37779">
        <ele>181</ele>
        <time>1970-01-01T01:04:36.000Z</time>
      </trkpt>
      <trkpt lat="43.1719" lon="2.37779">
        <ele>180.9</ele>
        <time>1970-01-01T01:04:37.000Z</time>
      </trkpt>
      <trkpt lat="43.17194" lon="2.37779">
        <ele>180.8</ele>
        <time>1970-01-01T01:04:39.000Z</time>
      </trkpt>
      <trkpt lat="43.17198" lon="2.37779">
        <ele>180.7</ele>
        <time>1970-01-01T01:04:40.000Z</time>
      </trkpt>
      <trkpt lat="43.17199" lon="2.37779">
        <ele>180.6</ele>
        <time>1970-01-01T01:04:41.000Z</time>
      </trkpt>
      <trkpt lat="43.17203" lon="2.37779">
        <ele>180.5</ele>
        <time>1970-01-01T01:04:43.000Z</time>
      </trkpt>
      <trkpt lat="43.17207" lon="2.37779">
        <ele>180.4</ele>
        <time>1970-01-01T01:04:44.000Z</time>
      </trkpt>
      <trkpt lat="43.17208" lon="2.37779">
        <ele>180.3</ele>
        <time>1970-01-01T01:04:45.000Z</time>
      </trkpt>
      <trkpt lat="43.17211" lon="2.37779">
        <ele>180.2</ele>
        <time>1970-01-01T01:04:47.000Z</time>
      </trkpt>
      <trkpt lat="43.17213" lon="2.37779">
        <ele>180.2</ele>
        <time>1970-01-01T01:04:48.000Z</time>
      </trkpt>
      <trkpt lat="43.17216" lon="2.37779">
        <ele>180.1</ele>
        <time>1970-01-01T01:04:49.000Z</time>
      </trkpt>
      <trkpt lat="43.1722" lon="2.37779">
        <ele>180.1</ele>
        <time>1970-01-01T01:04:50.000Z</time>
      </trkpt>
      <trkpt lat="43.17222" lon="2.37779">
        <ele>180.1</ele>
        <time>1970-01-01T01:04:51.000Z</time>
      </trkpt>
      <trkpt lat="43.17226" lon="2.37779">
        <ele>179.9</ele>
        <time>1970-01-01T01:04:53.000Z</time>
      </trkpt>
      <trkpt lat="43.17227" lon="2.37779">
        <ele>179.8</ele>
        <time>1970-01-01T01:04:54.000Z</time>
      </trkpt>
      <trkpt lat="43.1723" lon="2.37778">
        <ele>179.7</ele>
        <time>1970-01-01T01:04:55.000Z</time>
      </trkpt>
      <trkpt lat="43.17233" lon="2.37778">
        <ele>179.6</ele>
        <time>1970-01-01T01:04:57.000Z</time>
      </trkpt>
      <trkpt lat="43.17237" lon="2.37777">
        <ele>179.4</ele>
        <time>1970-01-01T01:04:58.000Z</time>
      </trkpt>
      <trkpt lat="43.17238" lon="2.37777">
        <ele>179.3</ele>
        <time>1970-01-01T01:04:59.000Z</time>
      </trkpt>
      <trkpt lat="43.17241" lon="2.37776">
        <ele>179.2</ele>
        <time>1970-01-01T01:05:00.000Z</time>
      </trkpt>
      <trkpt lat="43.17242" lon="2.37775">
        <ele>179.1</ele>
        <time>1970-01-01T01:05:01.000Z</time>
      </trkpt>
      <trkpt lat="43.17245" lon="2.37774">
        <ele>179</ele>
        <time>1970-01-01T01:05:03.000Z</time>
      </trkpt>
      <trkpt lat="43.17249" lon="2.37773">
        <ele>178.8</ele>
        <time>1970-01-01T01:05:04.000Z</time>
      </trkpt>
      <trkpt lat="43.1725" lon="2.37772">
        <ele>178.8</ele>
        <time>1970-01-01T01:05:05.000Z</time>
      </trkpt>
      <trkpt lat="43.17253" lon="2.37772">
        <ele>178.7</ele>
        <time>1970-01-01T01:05:06.000Z</time>
      </trkpt>
      <trkpt lat="43.17257" lon="2.3777">
        <ele>178.5</ele>
        <time>1970-01-01T01:05:08.000Z</time>
      </trkpt>
      <trkpt lat="43.17258" lon="2.3777">
        <ele>178.5</ele>
        <time>1970-01-01T01:05:09.000Z</time>
      </trkpt>
      <trkpt lat="43.17261" lon="2.37769">
        <ele>178.4</ele>
        <time>1970-01-01T01:05:10.000Z</time>
      </trkpt>
      <trkpt lat="43.17265" lon="2.37768">
        <ele>178.2</ele>
        <time>1970-01-01T01:05:12.000Z</time>
      </trkpt>
      <trkpt lat="43.17268" lon="2.37767">
        <ele>178.2</ele>
        <time>1970-01-01T01:05:13.000Z</time>
      </trkpt>
      <trkpt lat="43.17271" lon="2.37766">
        <ele>178</ele>
        <time>1970-01-01T01:05:14.000Z</time>
      </trkpt>
      <trkpt lat="43.17276" lon="2.37765">
        <ele>177.9</ele>
        <time>1970-01-01T01:05:16.000Z</time>
      </trkpt>
      <trkpt lat="43.17278" lon="2.37764">
        <ele>177.9</ele>
        <time>1970-01-01T01:05:17.000Z</time>
      </trkpt>
      <trkpt lat="43.17281" lon="2.37762">
        <ele>177.7</ele>
        <time>1970-01-01T01:05:19.000Z</time>
      </trkpt>
      <trkpt lat="43.17284" lon="2.37761">
        <ele>177.7</ele>
        <time>1970-01-01T01:05:20.000Z</time>
      </trkpt>
      <trkpt lat="43.17288" lon="2.37759">
        <ele>177.5</ele>
        <time>1970-01-01T01:05:21.000Z</time>
      </trkpt>
      <trkpt lat="43.17289" lon="2.37759">
        <ele>177.5</ele>
        <time>1970-01-01T01:05:22.000Z</time>
      </trkpt>
      <trkpt lat="43.17293" lon="2.37757">
        <ele>177.3</ele>
        <time>1970-01-01T01:05:23.000Z</time>
      </trkpt>
      <trkpt lat="43.17295" lon="2.37757">
        <ele>177.3</ele>
        <time>1970-01-01T01:05:24.000Z</time>
      </trkpt>
      <trkpt lat="43.17297" lon="2.37756">
        <ele>177.2</ele>
        <time>1970-01-01T01:05:26.000Z</time>
      </trkpt>
      <trkpt lat="43.173" lon="2.37755">
        <ele>177.1</ele>
        <time>1970-01-01T01:05:27.000Z</time>
      </trkpt>
      <trkpt lat="43.17303" lon="2.37754">
        <ele>177</ele>
        <time>1970-01-01T01:05:28.000Z</time>
      </trkpt>
      <trkpt lat="43.17306" lon="2.37753">
        <ele>176.9</ele>
        <time>1970-01-01T01:05:29.000Z</time>
      </trkpt>
      <trkpt lat="43.17308" lon="2.37752">
        <ele>176.8</ele>
        <time>1970-01-01T01:05:30.000Z</time>
      </trkpt>
      <trkpt lat="43.17312" lon="2.37752">
        <ele>176.7</ele>
        <time>1970-01-01T01:05:31.000Z</time>
      </trkpt>
      <trkpt lat="43.17314" lon="2.37752">
        <ele>176.6</ele>
        <time>1970-01-01T01:05:32.000Z</time>
      </trkpt>
      <trkpt lat="43.17318" lon="2.37752">
        <ele>176.5</ele>
        <time>1970-01-01T01:05:34.000Z</time>
      </trkpt>
      <trkpt lat="43.1732" lon="2.37752">
        <ele>176.5</ele>
        <time>1970-01-01T01:05:35.000Z</time>
      </trkpt>
      <trkpt lat="43.17321" lon="2.37752">
        <ele>176.4</ele>
        <time>1970-01-01T01:05:36.000Z</time>
      </trkpt>
      <trkpt lat="43.17325" lon="2.37752">
        <ele>176.3</ele>
        <time>1970-01-01T01:05:37.000Z</time>
      </trkpt>
      <trkpt lat="43.17326" lon="2.37752">
        <ele>176.3</ele>
        <time>1970-01-01T01:05:38.000Z</time>
      </trkpt>
      <trkpt lat="43.17328" lon="2.37752">
        <ele>176.3</ele>
        <time>1970-01-01T01:05:39.000Z</time>
      </trkpt>
      <trkpt lat="43.17331" lon="2.37753">
        <ele>176.2</ele>
        <time>1970-01-01T01:05:41.000Z</time>
      </trkpt>
      <trkpt lat="43.17334" lon="2.37754">
        <ele>176.1</ele>
        <time>1970-01-01T01:05:42.000Z</time>
      </trkpt>
      <trkpt lat="43.17335" lon="2.37755">
        <ele>176.1</ele>
        <time>1970-01-01T01:05:43.000Z</time>
      </trkpt>
      <trkpt lat="43.17339" lon="2.37756">
        <ele>176</ele>
        <time>1970-01-01T01:05:44.000Z</time>
      </trkpt>
      <trkpt lat="43.1734" lon="2.37757">
        <ele>175.9</ele>
        <time>1970-01-01T01:05:45.000Z</time>
      </trkpt>
      <trkpt lat="43.17342" lon="2.37758">
        <ele>175.9</ele>
        <time>1970-01-01T01:05:46.000Z</time>
      </trkpt>
      <trkpt lat="43.17344" lon="2.37759">
        <ele>175.8</ele>
        <time>1970-01-01T01:05:48.000Z</time>
      </trkpt>
      <trkpt lat="43.17348" lon="2.37761">
        <ele>175.7</ele>
        <time>1970-01-01T01:05:49.000Z</time>
      </trkpt>
      <trkpt lat="43.1735" lon="2.37762">
        <ele>175.6</ele>
        <time>1970-01-01T01:05:50.000Z</time>
      </trkpt>
      <trkpt lat="43.17352" lon="2.37763">
        <ele>175.6</ele>
        <time>1970-01-01T01:05:51.000Z</time>
      </trkpt>
      <trkpt lat="43.17354" lon="2.37764">
        <ele>175.5</ele>
        <time>1970-01-01T01:05:53.000Z</time>
      </trkpt>
      <trkpt lat="43.17358" lon="2.37766">
        <ele>175.4</ele>
        <time>1970-01-01T01:05:54.000Z</time>
      </trkpt>
      <trkpt lat="43.17359" lon="2.37766">
        <ele>175.3</ele>
        <time>1970-01-01T01:05:55.000Z</time>
      </trkpt>
      <trkpt lat="43.17363" lon="2.37768">
        <ele>175.3</ele>
        <time>1970-01-01T01:05:56.000Z</time>
      </trkpt>
      <trkpt lat="43.17364" lon="2.37768">
        <ele>175.2</ele>
        <time>1970-01-01T01:05:57.000Z</time>
      </trkpt>
      <trkpt lat="43.17366" lon="2.37769">
        <ele>175.2</ele>
        <time>1970-01-01T01:05:58.000Z</time>
      </trkpt>
      <trkpt lat="43.17368" lon="2.3777">
        <ele>175.1</ele>
        <time>1970-01-01T01:06:00.000Z</time>
      </trkpt>
      <trkpt lat="43.17371" lon="2.37771">
        <ele>175.1</ele>
        <time>1970-01-01T01:06:01.000Z</time>
      </trkpt>
      <trkpt lat="43.17372" lon="2.37771">
        <ele>175</ele>
        <time>1970-01-01T01:06:02.000Z</time>
      </trkpt>
      <trkpt lat="43.17376" lon="2.37773">
        <ele>175</ele>
        <time>1970-01-01T01:06:03.000Z</time>
      </trkpt>
      <trkpt lat="43.17378" lon="2.37773">
        <ele>174.9</ele>
        <time>1970-01-01T01:06:04.000Z</time>
      </trkpt>
      <trkpt lat="43.17381" lon="2.37775">
        <ele>174.8</ele>
        <time>1970-01-01T01:06:06.000Z</time>
      </trkpt>
      <trkpt lat="43.17382" lon="2.37775">
        <ele>174.8</ele>
        <time>1970-01-01T01:06:07.000Z</time>
      </trkpt>
      <trkpt lat="43.17384" lon="2.37777">
        <ele>174.8</ele>
        <time>1970-01-01T01:06:08.000Z</time>
      </trkpt>
      <trkpt lat="43.17388" lon="2.37778">
        <ele>174.7</ele>
        <time>1970-01-01T01:06:10.000Z</time>
      </trkpt>
      <trkpt lat="43.17391" lon="2.3778">
        <ele>174.6</ele>
        <time>1970-01-01T01:06:11.000Z</time>
      </trkpt>
      <trkpt lat="43.17392" lon="2.3778">
        <ele>174.6</ele>
        <time>1970-01-01T01:06:12.000Z</time>
      </trkpt>
      <trkpt lat="43.17394" lon="2.37781">
        <ele>174.5</ele>
        <time>1970-01-01T01:06:13.000Z</time>
      </trkpt>
      <trkpt lat="43.17396" lon="2.37782">
        <ele>174.4</ele>
        <time>1970-01-01T01:06:15.000Z</time>
      </trkpt>
      <trkpt lat="43.17399" lon="2.37783">
        <ele>174.4</ele>
        <time>1970-01-01T01:06:16.000Z</time>
      </trkpt>
      <trkpt lat="43.174" lon="2.37784">
        <ele>174.3</ele>
        <time>1970-01-01T01:06:17.000Z</time>
      </trkpt>
      <trkpt lat="43.17404" lon="2.37785">
        <ele>174.2</ele>
        <time>1970-01-01T01:06:18.000Z</time>
      </trkpt>
      <trkpt lat="43.17405" lon="2.37786">
        <ele>174.2</ele>
        <time>1970-01-01T01:06:19.000Z</time>
      </trkpt>
      <trkpt lat="43.17409" lon="2.37787">
        <ele>174</ele>
        <time>1970-01-01T01:06:21.000Z</time>
      </trkpt>
      <trkpt lat="43.17411" lon="2.37788">
        <ele>174</ele>
        <time>1970-01-01T01:06:22.000Z</time>
      </trkpt>
      <trkpt lat="43.17412" lon="2.37788">
        <ele>174</ele>
        <time>1970-01-01T01:06:23.000Z</time>
      </trkpt>
      <trkpt lat="43.17415" lon="2.37789">
        <ele>173.8</ele>
        <time>1970-01-01T01:06:24.000Z</time>
      </trkpt>
      <trkpt lat="43.17416" lon="2.37789">
        <ele>173.8</ele>
        <time>1970-01-01T01:06:25.000Z</time>
      </trkpt>
      <trkpt lat="43.1742" lon="2.37791">
        <ele>173.6</ele>
        <time>1970-01-01T01:06:27.000Z</time>
      </trkpt>
      <trkpt lat="43.17421" lon="2.37791">
        <ele>173.6</ele>
        <time>1970-01-01T01:06:28.000Z</time>
      </trkpt>
      <trkpt lat="43.17425" lon="2.37793">
        <ele>173.5</ele>
        <time>1970-01-01T01:06:29.000Z</time>
      </trkpt>
      <trkpt lat="43.17426" lon="2.37793">
        <ele>173.4</ele>
        <time>1970-01-01T01:06:30.000Z</time>
      </trkpt>
      <trkpt lat="43.17428" lon="2.37794">
        <ele>173.3</ele>
        <time>1970-01-01T01:06:31.000Z</time>
      </trkpt>
      <trkpt lat="43.17431" lon="2.37795">
        <ele>173.3</ele>
        <time>1970-01-01T01:06:33.000Z</time>
      </trkpt>
      <trkpt lat="43.17434" lon="2.37796">
        <ele>173.1</ele>
        <time>1970-01-01T01:06:34.000Z</time>
      </trkpt>
      <trkpt lat="43.17435" lon="2.37796">
        <ele>173.1</ele>
        <time>1970-01-01T01:06:35.000Z</time>
      </trkpt>
      <trkpt lat="43.17438" lon="2.37797">
        <ele>173</ele>
        <time>1970-01-01T01:06:36.000Z</time>
      </trkpt>
      <trkpt lat="43.17441" lon="2.37798">
        <ele>172.9</ele>
        <time>1970-01-01T01:06:38.000Z</time>
      </trkpt>
      <trkpt lat="43.17444" lon="2.378">
        <ele>172.7</ele>
        <time>1970-01-01T01:06:39.000Z</time>
      </trkpt>
      <trkpt lat="43.17447" lon="2.37801">
        <ele>172.6</ele>
        <time>1970-01-01T01:06:41.000Z</time>
      </trkpt>
      <trkpt lat="43.17448" lon="2.37801">
        <ele>172.6</ele>
        <time>1970-01-01T01:06:42.000Z</time>
      </trkpt>
      <trkpt lat="43.17451" lon="2.37802">
        <ele>172.5</ele>
        <time>1970-01-01T01:06:43.000Z</time>
      </trkpt>
      <trkpt lat="43.17453" lon="2.37803">
        <ele>172.4</ele>
        <time>1970-01-01T01:06:45.000Z</time>
      </trkpt>
      <trkpt lat="43.17457" lon="2.37804">
        <ele>172.3</ele>
        <time>1970-01-01T01:06:46.000Z</time>
      </trkpt>
      <trkpt lat="43.17458" lon="2.37804">
        <ele>172.2</ele>
        <time>1970-01-01T01:06:47.000Z</time>
      </trkpt>
      <trkpt lat="43.1746" lon="2.37805">
        <ele>172.1</ele>
        <time>1970-01-01T01:06:48.000Z</time>
      </trkpt>
      <trkpt lat="43.17463" lon="2.37805">
        <ele>172</ele>
        <time>1970-01-01T01:06:50.000Z</time>
      </trkpt>
      <trkpt lat="43.17465" lon="2.37805">
        <ele>171.9</ele>
        <time>1970-01-01T01:06:51.000Z</time>
      </trkpt>
      <trkpt lat="43.17469" lon="2.37806">
        <ele>171.8</ele>
        <time>1970-01-01T01:06:53.000Z</time>
      </trkpt>
      <trkpt lat="43.17472" lon="2.37805">
        <ele>171.6</ele>
        <time>1970-01-01T01:06:54.000Z</time>
      </trkpt>
      <trkpt lat="43.17472" lon="2.37805">
        <ele>171.6</ele>
        <time>1970-01-01T01:06:55.000Z</time>
      </trkpt>
      <trkpt lat="43.17476" lon="2.378">
        <ele>171.5</ele>
        <time>1970-01-01T01:06:57.000Z</time>
      </trkpt>
      <trkpt lat="43.17476" lon="2.37798">
        <ele>171.5</ele>
        <time>1970-01-01T01:06:58.000Z</time>
      </trkpt>
      <trkpt lat="43.17477" lon="2.37796">
        <ele>171.5</ele>
        <time>1970-01-01T01:06:59.000Z</time>
      </trkpt>
      <trkpt lat="43.17479" lon="2.37793">
        <ele>171.4</ele>
        <time>1970-01-01T01:07:01.000Z</time>
      </trkpt>
      <trkpt lat="43.17479" lon="2.37791">
        <ele>171.4</ele>
        <time>1970-01-01T01:07:02.000Z</time>
      </trkpt>
      <trkpt lat="43.17481" lon="2.37789">
        <ele>171.4</ele>
        <time>1970-01-01T01:07:03.000Z</time>
      </trkpt>
      <trkpt lat="43.17482" lon="2.37784">
        <ele>171.3</ele>
        <time>1970-01-01T01:07:05.000Z</time>
      </trkpt>
      <trkpt lat="43.17483" lon="2.37782">
        <ele>171.3</ele>
        <time>1970-01-01T01:07:06.000Z</time>
      </trkpt>
      <trkpt lat="43.17484" lon="2.37779">
        <ele>171.2</ele>
        <time>1970-01-01T01:07:07.000Z</time>
      </trkpt>
      <trkpt lat="43.17485" lon="2.37772">
        <ele>171.2</ele>
        <time>1970-01-01T01:07:09.000Z</time>
      </trkpt>
      <trkpt lat="43.17485" lon="2.3777">
        <ele>171.2</ele>
        <time>1970-01-01T01:07:10.000Z</time>
      </trkpt>
      <trkpt lat="43.17486" lon="2.37768">
        <ele>171.1</ele>
        <time>1970-01-01T01:07:11.000Z</time>
      </trkpt>
      <trkpt lat="43.17486" lon="2.37762">
        <ele>171.1</ele>
        <time>1970-01-01T01:07:13.000Z</time>
      </trkpt>
      <trkpt lat="43.17487" lon="2.3776">
        <ele>171</ele>
        <time>1970-01-01T01:07:14.000Z</time>
      </trkpt>
      <trkpt lat="43.17488" lon="2.37754">
        <ele>171</ele>
        <time>1970-01-01T01:07:16.000Z</time>
      </trkpt>
      <trkpt lat="43.17488" lon="2.37752">
        <ele>171</ele>
        <time>1970-01-01T01:07:17.000Z</time>
      </trkpt>
      <trkpt lat="43.17489" lon="2.3775">
        <ele>170.9</ele>
        <time>1970-01-01T01:07:18.000Z</time>
      </trkpt>
      <trkpt lat="43.17489" lon="2.37747">
        <ele>170.9</ele>
        <time>1970-01-01T01:07:19.000Z</time>
      </trkpt>
      <trkpt lat="43.17491" lon="2.37742">
        <ele>170.9</ele>
        <time>1970-01-01T01:07:21.000Z</time>
      </trkpt>
      <trkpt lat="43.17492" lon="2.37738">
        <ele>170.8</ele>
        <time>1970-01-01T01:07:22.000Z</time>
      </trkpt>
      <trkpt lat="43.17492" lon="2.37736">
        <ele>170.8</ele>
        <time>1970-01-01T01:07:23.000Z</time>
      </trkpt>
      <trkpt lat="43.17493" lon="2.37732">
        <ele>170.8</ele>
        <time>1970-01-01T01:07:25.000Z</time>
      </trkpt>
      <trkpt lat="43.17495" lon="2.37727">
        <ele>170.8</ele>
        <time>1970-01-01T01:07:26.000Z</time>
      </trkpt>
      <trkpt lat="43.17495" lon="2.37725">
        <ele>170.8</ele>
        <time>1970-01-01T01:07:27.000Z</time>
      </trkpt>
      <trkpt lat="43.17496" lon="2.37721">
        <ele>170.8</ele>
        <time>1970-01-01T01:07:28.000Z</time>
      </trkpt>
      <trkpt lat="43.17496" lon="2.37719">
        <ele>170.8</ele>
        <time>1970-01-01T01:07:29.000Z</time>
      </trkpt>
      <trkpt lat="43.17497" lon="2.37715">
        <ele>170.8</ele>
        <time>1970-01-01T01:07:31.000Z</time>
      </trkpt>
      <trkpt lat="43.17497" lon="2.37714">
        <ele>170.7</ele>
        <time>1970-01-01T01:07:32.000Z</time>
      </trkpt>
      <trkpt lat="43.17498" lon="2.37709">
        <ele>170.7</ele>
        <time>1970-01-01T01:07:33.000Z</time>
      </trkpt>
      <trkpt lat="43.17498" lon="2.37708">
        <ele>170.7</ele>
        <time>1970-01-01T01:07:34.000Z</time>
      </trkpt>
      <trkpt lat="43.175" lon="2.37703">
        <ele>170.7</ele>
        <time>1970-01-01T01:07:35.000Z</time>
      </trkpt>
      <trkpt lat="43.175" lon="2.37702">
        <ele>170.7</ele>
        <time>1970-01-01T01:07:36.000Z</time>
      </trkpt>
      <trkpt lat="43.17501" lon="2.37697">
        <ele>170.7</ele>
        <time>1970-01-01T01:07:38.000Z</time>
      </trkpt>
      <trkpt lat="43.17502" lon="2.37696">
        <ele>170.7</ele>
        <time>1970-01-01T01:07:39.000Z</time>
      </trkpt>
      <trkpt lat="43.17503" lon="2.37693">
        <ele>170.7</ele>
        <time>1970-01-01T01:07:40.000Z</time>
      </trkpt>
      <trkpt lat="43.17503" lon="2.3769">
        <ele>170.7</ele>
        <time>1970-01-01T01:07:42.000Z</time>
      </trkpt>
      <trkpt lat="43.17504" lon="2.37685">
        <ele>170.7</ele>
        <time>1970-01-01T01:07:43.000Z</time>
      </trkpt>
      <trkpt lat="43.17505" lon="2.37683">
        <ele>170.7</ele>
        <time>1970-01-01T01:07:44.000Z</time>
      </trkpt>
      <trkpt lat="43.17505" lon="2.3768">
        <ele>170.7</ele>
        <time>1970-01-01T01:07:46.000Z</time>
      </trkpt>
      <trkpt lat="43.17506" lon="2.37678">
        <ele>170.6</ele>
        <time>1970-01-01T01:07:47.000Z</time>
      </trkpt>
      <trkpt lat="43.17507" lon="2.37675">
        <ele>170.6</ele>
        <time>1970-01-01T01:07:48.000Z</time>
      </trkpt>
      <trkpt lat="43.17507" lon="2.37674">
        <ele>170.6</ele>
        <time>1970-01-01T01:07:49.000Z</time>
      </trkpt>
      <trkpt lat="43.17509" lon="2.3767">
        <ele>170.6</ele>
        <time>1970-01-01T01:07:50.000Z</time>
      </trkpt>
      <trkpt lat="43.17509" lon="2.37668">
        <ele>170.5</ele>
        <time>1970-01-01T01:07:51.000Z</time>
      </trkpt>
      <trkpt lat="43.17511" lon="2.37664">
        <ele>170.5</ele>
        <time>1970-01-01T01:07:53.000Z</time>
      </trkpt>
      <trkpt lat="43.17513" lon="2.3766">
        <ele>170.5</ele>
        <time>1970-01-01T01:07:54.000Z</time>
      </trkpt>
      <trkpt lat="43.17514" lon="2.37659">
        <ele>170.4</ele>
        <time>1970-01-01T01:07:55.000Z</time>
      </trkpt>
      <trkpt lat="43.17514" lon="2.37656">
        <ele>170.4</ele>
        <time>1970-01-01T01:07:56.000Z</time>
      </trkpt>
      <trkpt lat="43.17515" lon="2.37653">
        <ele>170.4</ele>
        <time>1970-01-01T01:07:58.000Z</time>
      </trkpt>
      <trkpt lat="43.17517" lon="2.37648">
        <ele>170.3</ele>
        <time>1970-01-01T01:07:59.000Z</time>
      </trkpt>
      <trkpt lat="43.17517" lon="2.37647">
        <ele>170.3</ele>
        <time>1970-01-01T01:08:00.000Z</time>
      </trkpt>
      <trkpt lat="43.17519" lon="2.37643">
        <ele>170.3</ele>
        <time>1970-01-01T01:08:01.000Z</time>
      </trkpt>
      <trkpt lat="43.17519" lon="2.37642">
        <ele>170.2</ele>
        <time>1970-01-01T01:08:02.000Z</time>
      </trkpt>
      <trkpt lat="43.17521" lon="2.37636">
        <ele>170.2</ele>
        <time>1970-01-01T01:08:04.000Z</time>
      </trkpt>
      <trkpt lat="43.17521" lon="2.37634">
        <ele>170.1</ele>
        <time>1970-01-01T01:08:05.000Z</time>
      </trkpt>
      <trkpt lat="43.17522" lon="2.37632">
        <ele>170.1</ele>
        <time>1970-01-01T01:08:06.000Z</time>
      </trkpt>
      <trkpt lat="43.17523" lon="2.37629">
        <ele>170.1</ele>
        <time>1970-01-01T01:08:07.000Z</time>
      </trkpt>
      <trkpt lat="43.17524" lon="2.37625">
        <ele>170</ele>
        <time>1970-01-01T01:08:09.000Z</time>
      </trkpt>
      <trkpt lat="43.17525" lon="2.3762">
        <ele>169.9</ele>
        <time>1970-01-01T01:08:10.000Z</time>
      </trkpt>
      <trkpt lat="43.17525" lon="2.37619">
        <ele>169.9</ele>
        <time>1970-01-01T01:08:11.000Z</time>
      </trkpt>
      <trkpt lat="43.17524" lon="2.37617">
        <ele>169.9</ele>
        <time>1970-01-01T01:08:12.000Z</time>
      </trkpt>
      <trkpt lat="43.17523" lon="2.37615">
        <ele>169.8</ele>
        <time>1970-01-01T01:08:14.000Z</time>
      </trkpt>
      <trkpt lat="43.17523" lon="2.37613">
        <ele>169.8</ele>
        <time>1970-01-01T01:08:15.000Z</time>
      </trkpt>
      <trkpt lat="43.17523" lon="2.37611">
        <ele>169.7</ele>
        <time>1970-01-01T01:08:16.000Z</time>
      </trkpt>
      <trkpt lat="43.17524" lon="2.37609">
        <ele>169.7</ele>
        <time>1970-01-01T01:08:17.000Z</time>
      </trkpt>
      <trkpt lat="43.17524" lon="2.37607">
        <ele>169.7</ele>
        <time>1970-01-01T01:08:18.000Z</time>
      </trkpt>
      <trkpt lat="43.17525" lon="2.37605">
        <ele>169.7</ele>
        <time>1970-01-01T01:08:19.000Z</time>
      </trkpt>
      <trkpt lat="43.17526" lon="2.37601">
        <ele>169.6</ele>
        <time>1970-01-01T01:08:21.000Z</time>
      </trkpt>
      <trkpt lat="43.17527" lon="2.37597">
        <ele>169.5</ele>
        <time>1970-01-01T01:08:22.000Z</time>
      </trkpt>
      <trkpt lat="43.17528" lon="2.37595">
        <ele>169.5</ele>
        <time>1970-01-01T01:08:23.000Z</time>
      </trkpt>
      <trkpt lat="43.17529" lon="2.37592">
        <ele>169.4</ele>
        <time>1970-01-01T01:08:24.000Z</time>
      </trkpt>
      <trkpt lat="43.17531" lon="2.37588">
        <ele>169.3</ele>
        <time>1970-01-01T01:08:26.000Z</time>
      </trkpt>
      <trkpt lat="43.17532" lon="2.37583">
        <ele>169.3</ele>
        <time>1970-01-01T01:08:27.000Z</time>
      </trkpt>
      <trkpt lat="43.17532" lon="2.37581">
        <ele>169.2</ele>
        <time>1970-01-01T01:08:28.000Z</time>
      </trkpt>
      <trkpt lat="43.17533" lon="2.37578">
        <ele>169.2</ele>
        <time>1970-01-01T01:08:29.000Z</time>
      </trkpt>
      <trkpt lat="43.17534" lon="2.37575">
        <ele>169.1</ele>
        <time>1970-01-01T01:08:31.000Z</time>
      </trkpt>
      <trkpt lat="43.17535" lon="2.37572">
        <ele>169</ele>
        <time>1970-01-01T01:08:32.000Z</time>
      </trkpt>
      <trkpt lat="43.17536" lon="2.37569">
        <ele>168.9</ele>
        <time>1970-01-01T01:08:34.000Z</time>
      </trkpt>
      <trkpt lat="43.17538" lon="2.37564">
        <ele>168.8</ele>
        <time>1970-01-01T01:08:35.000Z</time>
      </trkpt>
      <trkpt lat="43.17538" lon="2.37563">
        <ele>168.8</ele>
        <time>1970-01-01T01:08:36.000Z</time>
      </trkpt>
      <trkpt lat="43.1754" lon="2.37558">
        <ele>168.6</ele>
        <time>1970-01-01T01:08:37.000Z</time>
      </trkpt>
      <trkpt lat="43.1754" lon="2.37557">
        <ele>168.6</ele>
        <time>1970-01-01T01:08:38.000Z</time>
      </trkpt>
      <trkpt lat="43.17542" lon="2.37553">
        <ele>168.5</ele>
        <time>1970-01-01T01:08:39.000Z</time>
      </trkpt>
      <trkpt lat="43.17543" lon="2.37552">
        <ele>168.5</ele>
        <time>1970-01-01T01:08:40.000Z</time>
      </trkpt>
      <trkpt lat="43.17544" lon="2.37551">
        <ele>168.4</ele>
        <time>1970-01-01T01:08:41.000Z</time>
      </trkpt>
      <trkpt lat="43.17546" lon="2.37549">
        <ele>168.4</ele>
        <time>1970-01-01T01:08:43.000Z</time>
      </trkpt>
      <trkpt lat="43.17546" lon="2.37547">
        <ele>168.3</ele>
        <time>1970-01-01T01:08:44.000Z</time>
      </trkpt>
      <trkpt lat="43.17547" lon="2.37545">
        <ele>168.3</ele>
        <time>1970-01-01T01:08:45.000Z</time>
      </trkpt>
      <trkpt lat="43.17547" lon="2.37543">
        <ele>168.3</ele>
        <time>1970-01-01T01:08:46.000Z</time>
      </trkpt>
      <trkpt lat="43.17547" lon="2.37541">
        <ele>168.2</ele>
        <time>1970-01-01T01:08:47.000Z</time>
      </trkpt>
      <trkpt lat="43.17548" lon="2.37538">
        <ele>168.2</ele>
        <time>1970-01-01T01:08:48.000Z</time>
      </trkpt>
      <trkpt lat="43.17548" lon="2.37534">
        <ele>168.1</ele>
        <time>1970-01-01T01:08:50.000Z</time>
      </trkpt>
      <trkpt lat="43.17549" lon="2.3753">
        <ele>168</ele>
        <time>1970-01-01T01:08:51.000Z</time>
      </trkpt>
      <trkpt lat="43.1755" lon="2.37528">
        <ele>168</ele>
        <time>1970-01-01T01:08:52.000Z</time>
      </trkpt>
      <trkpt lat="43.17551" lon="2.37524">
        <ele>167.9</ele>
        <time>1970-01-01T01:08:53.000Z</time>
      </trkpt>
      <trkpt lat="43.17552" lon="2.3752">
        <ele>167.9</ele>
        <time>1970-01-01T01:08:54.000Z</time>
      </trkpt>
      <trkpt lat="43.17552" lon="2.37518">
        <ele>167.8</ele>
        <time>1970-01-01T01:08:55.000Z</time>
      </trkpt>
      <trkpt lat="43.17553" lon="2.37515">
        <ele>167.8</ele>
        <time>1970-01-01T01:08:56.000Z</time>
      </trkpt>
      <trkpt lat="43.17554" lon="2.37512">
        <ele>167.7</ele>
        <time>1970-01-01T01:08:58.000Z</time>
      </trkpt>
      <trkpt lat="43.17555" lon="2.37508">
        <ele>167.7</ele>
        <time>1970-01-01T01:08:59.000Z</time>
      </trkpt>
      <trkpt lat="43.17555" lon="2.37507">
        <ele>167.6</ele>
        <time>1970-01-01T01:09:00.000Z</time>
      </trkpt>
      <trkpt lat="43.17556" lon="2.37502">
        <ele>167.6</ele>
        <time>1970-01-01T01:09:01.000Z</time>
      </trkpt>
      <trkpt lat="43.17556" lon="2.37501">
        <ele>167.6</ele>
        <time>1970-01-01T01:09:02.000Z</time>
      </trkpt>
      <trkpt lat="43.17557" lon="2.37498">
        <ele>167.5</ele>
        <time>1970-01-01T01:09:03.000Z</time>
      </trkpt>
      <trkpt lat="43.17557" lon="2.37496">
        <ele>167.5</ele>
        <time>1970-01-01T01:09:04.000Z</time>
      </trkpt>
      <trkpt lat="43.17558" lon="2.37493">
        <ele>167.4</ele>
        <time>1970-01-01T01:09:06.000Z</time>
      </trkpt>
      <trkpt lat="43.17558" lon="2.37491">
        <ele>167.4</ele>
        <time>1970-01-01T01:09:07.000Z</time>
      </trkpt>
      <trkpt lat="43.17559" lon="2.37487">
        <ele>167.4</ele>
        <time>1970-01-01T01:09:09.000Z</time>
      </trkpt>
      <trkpt lat="43.17559" lon="2.37485">
        <ele>167.3</ele>
        <time>1970-01-01T01:09:10.000Z</time>
      </trkpt>
      <trkpt lat="43.1756" lon="2.37481">
        <ele>167.3</ele>
        <time>1970-01-01T01:09:11.000Z</time>
      </trkpt>
      <trkpt lat="43.17561" lon="2.37475">
        <ele>167.2</ele>
        <time>1970-01-01T01:09:13.000Z</time>
      </trkpt>
      <trkpt lat="43.17561" lon="2.37473">
        <ele>167.2</ele>
        <time>1970-01-01T01:09:14.000Z</time>
      </trkpt>
      <trkpt lat="43.17561" lon="2.37471">
        <ele>167.1</ele>
        <time>1970-01-01T01:09:15.000Z</time>
      </trkpt>
      <trkpt lat="43.17562" lon="2.37466">
        <ele>167.1</ele>
        <time>1970-01-01T01:09:16.000Z</time>
      </trkpt>
      <trkpt lat="43.17563" lon="2.37465">
        <ele>167</ele>
        <time>1970-01-01T01:09:17.000Z</time>
      </trkpt>
      <trkpt lat="43.17563" lon="2.37462">
        <ele>167</ele>
        <time>1970-01-01T01:09:18.000Z</time>
      </trkpt>
      <trkpt lat="43.17564" lon="2.37457">
        <ele>166.9</ele>
        <time>1970-01-01T01:09:20.000Z</time>
      </trkpt>
      <trkpt lat="43.17565" lon="2.37454">
        <ele>166.8</ele>
        <time>1970-01-01T01:09:21.000Z</time>
      </trkpt>
      <trkpt lat="43.17566" lon="2.3745">
        <ele>166.8</ele>
        <time>1970-01-01T01:09:22.000Z</time>
      </trkpt>
      <trkpt lat="43.17567" lon="2.37444">
        <ele>166.7</ele>
        <time>1970-01-01T01:09:24.000Z</time>
      </trkpt>
      <trkpt lat="43.17568" lon="2.37441">
        <ele>166.6</ele>
        <time>1970-01-01T01:09:25.000Z</time>
      </trkpt>
      <trkpt lat="43.1757" lon="2.37435">
        <ele>166.5</ele>
        <time>1970-01-01T01:09:27.000Z</time>
      </trkpt>
      <trkpt lat="43.1757" lon="2.37432">
        <ele>166.5</ele>
        <time>1970-01-01T01:09:28.000Z</time>
      </trkpt>
      <trkpt lat="43.17571" lon="2.3743">
        <ele>166.4</ele>
        <time>1970-01-01T01:09:29.000Z</time>
      </trkpt>
      <trkpt lat="43.17571" lon="2.37425">
        <ele>166.4</ele>
        <time>1970-01-01T01:09:31.000Z</time>
      </trkpt>
      <trkpt lat="43.17571" lon="2.37423">
        <ele>166.3</ele>
        <time>1970-01-01T01:09:32.000Z</time>
      </trkpt>
      <trkpt lat="43.17572" lon="2.37418">
        <ele>166.3</ele>
        <time>1970-01-01T01:09:33.000Z</time>
      </trkpt>
      <trkpt lat="43.17573" lon="2.37417">
        <ele>166.2</ele>
        <time>1970-01-01T01:09:34.000Z</time>
      </trkpt>
      <trkpt lat="43.17574" lon="2.37411">
        <ele>166.1</ele>
        <time>1970-01-01T01:09:36.000Z</time>
      </trkpt>
      <trkpt lat="43.17575" lon="2.37409">
        <ele>166.1</ele>
        <time>1970-01-01T01:09:37.000Z</time>
      </trkpt>
      <trkpt lat="43.17575" lon="2.37406">
        <ele>166</ele>
        <time>1970-01-01T01:09:38.000Z</time>
      </trkpt>
      <trkpt lat="43.17576" lon="2.37402">
        <ele>166</ele>
        <time>1970-01-01T01:09:40.000Z</time>
      </trkpt>
      <trkpt lat="43.17577" lon="2.37398">
        <ele>165.9</ele>
        <time>1970-01-01T01:09:41.000Z</time>
      </trkpt>
      <trkpt lat="43.17578" lon="2.37397">
        <ele>165.8</ele>
        <time>1970-01-01T01:09:42.000Z</time>
      </trkpt>
      <trkpt lat="43.17579" lon="2.37393">
        <ele>165.7</ele>
        <time>1970-01-01T01:09:43.000Z</time>
      </trkpt>
      <trkpt lat="43.17579" lon="2.37391">
        <ele>165.7</ele>
        <time>1970-01-01T01:09:44.000Z</time>
      </trkpt>
      <trkpt lat="43.1758" lon="2.37386">
        <ele>165.6</ele>
        <time>1970-01-01T01:09:46.000Z</time>
      </trkpt>
      <trkpt lat="43.1758" lon="2.37385">
        <ele>165.5</ele>
        <time>1970-01-01T01:09:47.000Z</time>
      </trkpt>
      <trkpt lat="43.17581" lon="2.37383">
        <ele>165.5</ele>
        <time>1970-01-01T01:09:48.000Z</time>
      </trkpt>
      <trkpt lat="43.17581" lon="2.3738">
        <ele>165.4</ele>
        <time>1970-01-01T01:09:49.000Z</time>
      </trkpt>
      <trkpt lat="43.17582" lon="2.37378">
        <ele>165.3</ele>
        <time>1970-01-01T01:09:50.000Z</time>
      </trkpt>
      <trkpt lat="43.17582" lon="2.37375">
        <ele>165.3</ele>
        <time>1970-01-01T01:09:52.000Z</time>
      </trkpt>
      <trkpt lat="43.17583" lon="2.37371">
        <ele>165.2</ele>
        <time>1970-01-01T01:09:53.000Z</time>
      </trkpt>
      <trkpt lat="43.17584" lon="2.3737">
        <ele>165.2</ele>
        <time>1970-01-01T01:09:54.000Z</time>
      </trkpt>
      <trkpt lat="43.17585" lon="2.37365">
        <ele>165.1</ele>
        <time>1970-01-01T01:09:55.000Z</time>
      </trkpt>
      <trkpt lat="43.17585" lon="2.37364">
        <ele>165.1</ele>
        <time>1970-01-01T01:09:56.000Z</time>
      </trkpt>
      <trkpt lat="43.17585" lon="2.37361">
        <ele>165</ele>
        <time>1970-01-01T01:09:57.000Z</time>
      </trkpt>
      <trkpt lat="43.17587" lon="2.37355">
        <ele>164.9</ele>
        <time>1970-01-01T01:09:59.000Z</time>
      </trkpt>
      <trkpt lat="43.17588" lon="2.37352">
        <ele>164.9</ele>
        <time>1970-01-01T01:10:00.000Z</time>
      </trkpt>
      <trkpt lat="43.17589" lon="2.37347">
        <ele>164.8</ele>
        <time>1970-01-01T01:10:02.000Z</time>
      </trkpt>
      <trkpt lat="43.1759" lon="2.37343">
        <ele>164.8</ele>
        <time>1970-01-01T01:10:03.000Z</time>
      </trkpt>
      <trkpt lat="43.1759" lon="2.37341">
        <ele>164.8</ele>
        <time>1970-01-01T01:10:04.000Z</time>
      </trkpt>
      <trkpt lat="43.1759" lon="2.37338">
        <ele>164.7</ele>
        <time>1970-01-01T01:10:05.000Z</time>
      </trkpt>
      <trkpt lat="43.17591" lon="2.37335">
        <ele>164.7</ele>
        <time>1970-01-01T01:10:07.000Z</time>
      </trkpt>
      <trkpt lat="43.17591" lon="2.3733">
        <ele>164.6</ele>
        <time>1970-01-01T01:10:08.000Z</time>
      </trkpt>
      <trkpt lat="43.17591" lon="2.37328">
        <ele>164.6</ele>
        <time>1970-01-01T01:10:09.000Z</time>
      </trkpt>
      <trkpt lat="43.17592" lon="2.37324">
        <ele>164.5</ele>
        <time>1970-01-01T01:10:10.000Z</time>
      </trkpt>
      <trkpt lat="43.17592" lon="2.37322">
        <ele>164.5</ele>
        <time>1970-01-01T01:10:11.000Z</time>
      </trkpt>
      <trkpt lat="43.17593" lon="2.37317">
        <ele>164.5</ele>
        <time>1970-01-01T01:10:13.000Z</time>
      </trkpt>
      <trkpt lat="43.17593" lon="2.37316">
        <ele>164.5</ele>
        <time>1970-01-01T01:10:14.000Z</time>
      </trkpt>
      <trkpt lat="43.17594" lon="2.37311">
        <ele>164.4</ele>
        <time>1970-01-01T01:10:15.000Z</time>
      </trkpt>
      <trkpt lat="43.17594" lon="2.3731">
        <ele>164.4</ele>
        <time>1970-01-01T01:10:16.000Z</time>
      </trkpt>
      <trkpt lat="43.17595" lon="2.37308">
        <ele>164.4</ele>
        <time>1970-01-01T01:10:17.000Z</time>
      </trkpt>
      <trkpt lat="43.17595" lon="2.37304">
        <ele>164.4</ele>
        <time>1970-01-01T01:10:19.000Z</time>
      </trkpt>
      <trkpt lat="43.17596" lon="2.373">
        <ele>164.3</ele>
        <time>1970-01-01T01:10:20.000Z</time>
      </trkpt>
      <trkpt lat="43.17596" lon="2.37298">
        <ele>164.3</ele>
        <time>1970-01-01T01:10:21.000Z</time>
      </trkpt>
      <trkpt lat="43.17597" lon="2.37296">
        <ele>164.3</ele>
        <time>1970-01-01T01:10:22.000Z</time>
      </trkpt>
      <trkpt lat="43.17598" lon="2.37292">
        <ele>164.3</ele>
        <time>1970-01-01T01:10:24.000Z</time>
      </trkpt>
      <trkpt lat="43.17599" lon="2.37288">
        <ele>164.3</ele>
        <time>1970-01-01T01:10:25.000Z</time>
      </trkpt>
      <trkpt lat="43.176" lon="2.37282">
        <ele>164.2</ele>
        <time>1970-01-01T01:10:27.000Z</time>
      </trkpt>
      <trkpt lat="43.176" lon="2.3728">
        <ele>164.2</ele>
        <time>1970-01-01T01:10:28.000Z</time>
      </trkpt>
      <trkpt lat="43.17601" lon="2.37278">
        <ele>164.2</ele>
        <time>1970-01-01T01:10:29.000Z</time>
      </trkpt>
      <trkpt lat="43.17601" lon="2.37275">
        <ele>164.1</ele>
        <time>1970-01-01T01:10:30.000Z</time>
      </trkpt>
      <trkpt lat="43.17602" lon="2.3727">
        <ele>164.1</ele>
        <time>1970-01-01T01:10:32.000Z</time>
      </trkpt>
      <trkpt lat="43.17602" lon="2.37266">
        <ele>164.1</ele>
        <time>1970-01-01T01:10:33.000Z</time>
      </trkpt>
      <trkpt lat="43.17602" lon="2.37265">
        <ele>164</ele>
        <time>1970-01-01T01:10:34.000Z</time>
      </trkpt>
      <trkpt lat="43.17603" lon="2.37261">
        <ele>164</ele>
        <time>1970-01-01T01:10:35.000Z</time>
      </trkpt>
      <trkpt lat="43.17603" lon="2.37259">
        <ele>163.9</ele>
        <time>1970-01-01T01:10:36.000Z</time>
      </trkpt>
      <trkpt lat="43.17604" lon="2.37256">
        <ele>163.9</ele>
        <time>1970-01-01T01:10:38.000Z</time>
      </trkpt>
      <trkpt lat="43.17605" lon="2.3725">
        <ele>163.8</ele>
        <time>1970-01-01T01:10:40.000Z</time>
      </trkpt>
      <trkpt lat="43.17606" lon="2.37247">
        <ele>163.7</ele>
        <time>1970-01-01T01:10:41.000Z</time>
      </trkpt>
      <trkpt lat="43.17608" lon="2.37243">
        <ele>163.7</ele>
        <time>1970-01-01T01:10:42.000Z</time>
      </trkpt>
      <trkpt lat="43.17609" lon="2.37242">
        <ele>163.6</ele>
        <time>1970-01-01T01:10:43.000Z</time>
      </trkpt>
      <trkpt lat="43.17611" lon="2.37238">
        <ele>163.6</ele>
        <time>1970-01-01T01:10:45.000Z</time>
      </trkpt>
      <trkpt lat="43.17612" lon="2.37237">
        <ele>163.5</ele>
        <time>1970-01-01T01:10:46.000Z</time>
      </trkpt>
      <trkpt lat="43.17614" lon="2.37233">
        <ele>163.4</ele>
        <time>1970-01-01T01:10:47.000Z</time>
      </trkpt>
      <trkpt lat="43.17614" lon="2.37232">
        <ele>163.4</ele>
        <time>1970-01-01T01:10:48.000Z</time>
      </trkpt>
      <trkpt lat="43.17616" lon="2.37229">
        <ele>163.3</ele>
        <time>1970-01-01T01:10:49.000Z</time>
      </trkpt>
      <trkpt lat="43.17618" lon="2.37226">
        <ele>163.2</ele>
        <time>1970-01-01T01:10:51.000Z</time>
      </trkpt>
      <trkpt lat="43.1762" lon="2.37222">
        <ele>163.2</ele>
        <time>1970-01-01T01:10:52.000Z</time>
      </trkpt>
      <trkpt lat="43.17621" lon="2.37221">
        <ele>163.1</ele>
        <time>1970-01-01T01:10:53.000Z</time>
      </trkpt>
      <trkpt lat="43.17622" lon="2.37218">
        <ele>163.1</ele>
        <time>1970-01-01T01:10:54.000Z</time>
      </trkpt>
      <trkpt lat="43.17624" lon="2.37213">
        <ele>163</ele>
        <time>1970-01-01T01:10:56.000Z</time>
      </trkpt>
      <trkpt lat="43.17626" lon="2.37209">
        <ele>162.9</ele>
        <time>1970-01-01T01:10:57.000Z</time>
      </trkpt>
      <trkpt lat="43.17626" lon="2.37208">
        <ele>162.9</ele>
        <time>1970-01-01T01:10:58.000Z</time>
      </trkpt>
      <trkpt lat="43.17628" lon="2.37204">
        <ele>162.8</ele>
        <time>1970-01-01T01:10:59.000Z</time>
      </trkpt>
      <trkpt lat="43.17628" lon="2.37203">
        <ele>162.8</ele>
        <time>1970-01-01T01:11:00.000Z</time>
      </trkpt>
      <trkpt lat="43.17629" lon="2.37198">
        <ele>162.7</ele>
        <time>1970-01-01T01:11:02.000Z</time>
      </trkpt>
      <trkpt lat="43.17629" lon="2.37197">
        <ele>162.7</ele>
        <time>1970-01-01T01:11:03.000Z</time>
      </trkpt>
      <trkpt lat="43.17631" lon="2.37194">
        <ele>162.7</ele>
        <time>1970-01-01T01:11:04.000Z</time>
      </trkpt>
      <trkpt lat="43.17632" lon="2.37191">
        <ele>162.6</ele>
        <time>1970-01-01T01:11:06.000Z</time>
      </trkpt>
      <trkpt lat="43.17633" lon="2.37186">
        <ele>162.5</ele>
        <time>1970-01-01T01:11:07.000Z</time>
      </trkpt>
      <trkpt lat="43.17634" lon="2.37184">
        <ele>162.5</ele>
        <time>1970-01-01T01:11:08.000Z</time>
      </trkpt>
      <trkpt lat="43.17635" lon="2.3718">
        <ele>162.4</ele>
        <time>1970-01-01T01:11:09.000Z</time>
      </trkpt>
      <trkpt lat="43.17636" lon="2.37178">
        <ele>162.3</ele>
        <time>1970-01-01T01:11:10.000Z</time>
      </trkpt>
      <trkpt lat="43.17637" lon="2.37174">
        <ele>162.3</ele>
        <time>1970-01-01T01:11:11.000Z</time>
      </trkpt>
      <trkpt lat="43.17637" lon="2.37173">
        <ele>162.3</ele>
        <time>1970-01-01T01:11:12.000Z</time>
      </trkpt>
      <trkpt lat="43.17639" lon="2.37169">
        <ele>162.2</ele>
        <time>1970-01-01T01:11:13.000Z</time>
      </trkpt>
      <trkpt lat="43.17639" lon="2.37167">
        <ele>162.2</ele>
        <time>1970-01-01T01:11:14.000Z</time>
      </trkpt>
      <trkpt lat="43.1764" lon="2.37163">
        <ele>162.1</ele>
        <time>1970-01-01T01:11:16.000Z</time>
      </trkpt>
      <trkpt lat="43.17641" lon="2.37161">
        <ele>162.1</ele>
        <time>1970-01-01T01:11:17.000Z</time>
      </trkpt>
      <trkpt lat="43.17643" lon="2.37156">
        <ele>162</ele>
        <time>1970-01-01T01:11:18.000Z</time>
      </trkpt>
      <trkpt lat="43.17643" lon="2.37155">
        <ele>162</ele>
        <time>1970-01-01T01:11:19.000Z</time>
      </trkpt>
      <trkpt lat="43.17645" lon="2.37151">
        <ele>161.9</ele>
        <time>1970-01-01T01:11:21.000Z</time>
      </trkpt>
      <trkpt lat="43.17645" lon="2.37149">
        <ele>161.9</ele>
        <time>1970-01-01T01:11:22.000Z</time>
      </trkpt>
      <trkpt lat="43.17646" lon="2.37145">
        <ele>161.8</ele>
        <time>1970-01-01T01:11:23.000Z</time>
      </trkpt>
      <trkpt lat="43.17647" lon="2.37144">
        <ele>161.8</ele>
        <time>1970-01-01T01:11:24.000Z</time>
      </trkpt>
      <trkpt lat="43.17647" lon="2.37142">
        <ele>161.8</ele>
        <time>1970-01-01T01:11:25.000Z</time>
      </trkpt>
      <trkpt lat="43.17648" lon="2.3714">
        <ele>161.7</ele>
        <time>1970-01-01T01:11:26.000Z</time>
      </trkpt>
      <trkpt lat="43.17649" lon="2.37136">
        <ele>161.7</ele>
        <time>1970-01-01T01:11:28.000Z</time>
      </trkpt>
      <trkpt lat="43.17649" lon="2.37134">
        <ele>161.6</ele>
        <time>1970-01-01T01:11:29.000Z</time>
      </trkpt>
      <trkpt lat="43.17651" lon="2.3713">
        <ele>161.5</ele>
        <time>1970-01-01T01:11:30.000Z</time>
      </trkpt>
      <trkpt lat="43.17652" lon="2.37129">
        <ele>161.5</ele>
        <time>1970-01-01T01:11:31.000Z</time>
      </trkpt>
      <trkpt lat="43.17653" lon="2.37126">
        <ele>161.4</ele>
        <time>1970-01-01T01:11:32.000Z</time>
      </trkpt>
      <trkpt lat="43.17655" lon="2.37123">
        <ele>161.4</ele>
        <time>1970-01-01T01:11:34.000Z</time>
      </trkpt>
      <trkpt lat="43.17655" lon="2.37119">
        <ele>161.3</ele>
        <time>1970-01-01T01:11:35.000Z</time>
      </trkpt>
      <trkpt lat="43.17655" lon="2.37118">
        <ele>161.3</ele>
        <time>1970-01-01T01:11:36.000Z</time>
      </trkpt>
      <trkpt lat="43.17655" lon="2.37114">
        <ele>161.2</ele>
        <time>1970-01-01T01:11:37.000Z</time>
      </trkpt>
      <trkpt lat="43.17655" lon="2.37113">
        <ele>161.2</ele>
        <time>1970-01-01T01:11:38.000Z</time>
      </trkpt>
      <trkpt lat="43.17655" lon="2.3711">
        <ele>161.2</ele>
        <time>1970-01-01T01:11:39.000Z</time>
      </trkpt>
      <trkpt lat="43.17655" lon="2.37107">
        <ele>161.1</ele>
        <time>1970-01-01T01:11:41.000Z</time>
      </trkpt>
      <trkpt lat="43.17656" lon="2.37102">
        <ele>161.1</ele>
        <time>1970-01-01T01:11:42.000Z</time>
      </trkpt>
      <trkpt lat="43.17656" lon="2.37101">
        <ele>161.1</ele>
        <time>1970-01-01T01:11:43.000Z</time>
      </trkpt>
      <trkpt lat="43.17657" lon="2.37096">
        <ele>161</ele>
        <time>1970-01-01T01:11:44.000Z</time>
      </trkpt>
      <trkpt lat="43.17657" lon="2.37094">
        <ele>161</ele>
        <time>1970-01-01T01:11:45.000Z</time>
      </trkpt>
      <trkpt lat="43.17657" lon="2.37092">
        <ele>161</ele>
        <time>1970-01-01T01:11:46.000Z</time>
      </trkpt>
      <trkpt lat="43.17658" lon="2.37089">
        <ele>161</ele>
        <time>1970-01-01T01:11:48.000Z</time>
      </trkpt>
      <trkpt lat="43.17659" lon="2.37085">
        <ele>161</ele>
        <time>1970-01-01T01:11:49.000Z</time>
      </trkpt>
      <trkpt lat="43.1766" lon="2.37084">
        <ele>161</ele>
        <time>1970-01-01T01:11:50.000Z</time>
      </trkpt>
      <trkpt lat="43.1766" lon="2.37081">
        <ele>161</ele>
        <time>1970-01-01T01:11:51.000Z</time>
      </trkpt>
      <trkpt lat="43.17662" lon="2.37077">
        <ele>160.9</ele>
        <time>1970-01-01T01:11:53.000Z</time>
      </trkpt>
      <trkpt lat="43.17663" lon="2.37073">
        <ele>160.9</ele>
        <time>1970-01-01T01:11:54.000Z</time>
      </trkpt>
      <trkpt lat="43.17663" lon="2.37071">
        <ele>160.9</ele>
        <time>1970-01-01T01:11:55.000Z</time>
      </trkpt>
      <trkpt lat="43.17664" lon="2.37068">
        <ele>160.8</ele>
        <time>1970-01-01T01:11:56.000Z</time>
      </trkpt>
      <trkpt lat="43.17666" lon="2.37062">
        <ele>160.8</ele>
        <time>1970-01-01T01:11:58.000Z</time>
      </trkpt>
      <trkpt lat="43.17667" lon="2.3706">
        <ele>160.8</ele>
        <time>1970-01-01T01:11:59.000Z</time>
      </trkpt>
      <trkpt lat="43.17667" lon="2.37058">
        <ele>160.7</ele>
        <time>1970-01-01T01:12:00.000Z</time>
      </trkpt>
      <trkpt lat="43.17669" lon="2.37054">
        <ele>160.7</ele>
        <time>1970-01-01T01:12:01.000Z</time>
      </trkpt>
      <trkpt lat="43.1767" lon="2.37052">
        <ele>160.7</ele>
        <time>1970-01-01T01:12:02.000Z</time>
      </trkpt>
      <trkpt lat="43.17671" lon="2.37047">
        <ele>160.6</ele>
        <time>1970-01-01T01:12:04.000Z</time>
      </trkpt>
      <trkpt lat="43.17671" lon="2.37045">
        <ele>160.6</ele>
        <time>1970-01-01T01:12:05.000Z</time>
      </trkpt>
      <trkpt lat="43.17672" lon="2.37041">
        <ele>160.6</ele>
        <time>1970-01-01T01:12:06.000Z</time>
      </trkpt>
      <trkpt lat="43.17673" lon="2.3704">
        <ele>160.6</ele>
        <time>1970-01-01T01:12:07.000Z</time>
      </trkpt>
      <trkpt lat="43.17674" lon="2.37036">
        <ele>160.6</ele>
        <time>1970-01-01T01:12:08.000Z</time>
      </trkpt>
      <trkpt lat="43.17675" lon="2.37035">
        <ele>160.5</ele>
        <time>1970-01-01T01:12:09.000Z</time>
      </trkpt>
      <trkpt lat="43.17676" lon="2.37033">
        <ele>160.5</ele>
        <time>1970-01-01T01:12:10.000Z</time>
      </trkpt>
      <trkpt lat="43.17676" lon="2.37029">
        <ele>160.5</ele>
        <time>1970-01-01T01:12:12.000Z</time>
      </trkpt>
      <trkpt lat="43.17678" lon="2.37025">
        <ele>160.5</ele>
        <time>1970-01-01T01:12:13.000Z</time>
      </trkpt>
      <trkpt lat="43.17679" lon="2.37023">
        <ele>160.5</ele>
        <time>1970-01-01T01:12:14.000Z</time>
      </trkpt>
      <trkpt lat="43.1768" lon="2.3702">
        <ele>160.4</ele>
        <time>1970-01-01T01:12:15.000Z</time>
      </trkpt>
      <trkpt lat="43.17682" lon="2.37018">
        <ele>160.4</ele>
        <time>1970-01-01T01:12:16.000Z</time>
      </trkpt>
      <trkpt lat="43.17686" lon="2.37016">
        <ele>160.4</ele>
        <time>1970-01-01T01:12:18.000Z</time>
      </trkpt>
      <trkpt lat="43.17689" lon="2.37018">
        <ele>160.3</ele>
        <time>1970-01-01T01:12:19.000Z</time>
      </trkpt>
      <trkpt lat="43.1769" lon="2.37019">
        <ele>160.3</ele>
        <time>1970-01-01T01:12:20.000Z</time>
      </trkpt>
      <trkpt lat="43.17692" lon="2.37021">
        <ele>160.2</ele>
        <time>1970-01-01T01:12:21.000Z</time>
      </trkpt>
      <trkpt lat="43.17695" lon="2.37025">
        <ele>160.1</ele>
        <time>1970-01-01T01:12:23.000Z</time>
      </trkpt>
      <trkpt lat="43.17696" lon="2.37026">
        <ele>160.1</ele>
        <time>1970-01-01T01:12:24.000Z</time>
      </trkpt>
      <trkpt lat="43.17699" lon="2.37028">
        <ele>160</ele>
        <time>1970-01-01T01:12:25.000Z</time>
      </trkpt>
      <trkpt lat="43.17702" lon="2.37029">
        <ele>160</ele>
        <time>1970-01-01T01:12:26.000Z</time>
      </trkpt>
      <trkpt lat="43.17703" lon="2.3703">
        <ele>159.9</ele>
        <time>1970-01-01T01:12:27.000Z</time>
      </trkpt>
      <trkpt lat="43.17705" lon="2.37031">
        <ele>159.9</ele>
        <time>1970-01-01T01:12:28.000Z</time>
      </trkpt>
      <trkpt lat="43.17708" lon="2.37032">
        <ele>159.8</ele>
        <time>1970-01-01T01:12:30.000Z</time>
      </trkpt>
      <trkpt lat="43.17711" lon="2.37032">
        <ele>159.8</ele>
        <time>1970-01-01T01:12:31.000Z</time>
      </trkpt>
      <trkpt lat="43.17712" lon="2.37032">
        <ele>159.8</ele>
        <time>1970-01-01T01:12:32.000Z</time>
      </trkpt>
      <trkpt lat="43.17716" lon="2.37033">
        <ele>159.7</ele>
        <time>1970-01-01T01:12:33.000Z</time>
      </trkpt>
      <trkpt lat="43.17717" lon="2.37033">
        <ele>159.7</ele>
        <time>1970-01-01T01:12:34.000Z</time>
      </trkpt>
      <trkpt lat="43.17719" lon="2.37033">
        <ele>159.7</ele>
        <time>1970-01-01T01:12:35.000Z</time>
      </trkpt>
      <trkpt lat="43.17722" lon="2.37033">
        <ele>159.6</ele>
        <time>1970-01-01T01:12:37.000Z</time>
      </trkpt>
      <trkpt lat="43.17725" lon="2.37033">
        <ele>159.6</ele>
        <time>1970-01-01T01:12:38.000Z</time>
      </trkpt>
      <trkpt lat="43.17727" lon="2.37033">
        <ele>159.5</ele>
        <time>1970-01-01T01:12:39.000Z</time>
      </trkpt>
      <trkpt lat="43.1773" lon="2.37032">
        <ele>159.5</ele>
        <time>1970-01-01T01:12:40.000Z</time>
      </trkpt>
      <trkpt lat="43.17731" lon="2.37032">
        <ele>159.5</ele>
        <time>1970-01-01T01:12:41.000Z</time>
      </trkpt>
      <trkpt lat="43.17734" lon="2.37031">
        <ele>159.4</ele>
        <time>1970-01-01T01:12:43.000Z</time>
      </trkpt>
      <trkpt lat="43.17735" lon="2.37031">
        <ele>159.4</ele>
        <time>1970-01-01T01:12:44.000Z</time>
      </trkpt>
      <trkpt lat="43.17738" lon="2.37029">
        <ele>159.3</ele>
        <time>1970-01-01T01:12:45.000Z</time>
      </trkpt>
      <trkpt lat="43.1774" lon="2.37029">
        <ele>159.3</ele>
        <time>1970-01-01T01:12:46.000Z</time>
      </trkpt>
      <trkpt lat="43.17742" lon="2.37025">
        <ele>159.3</ele>
        <time>1970-01-01T01:12:47.000Z</time>
      </trkpt>
      <trkpt lat="43.17743" lon="2.37023">
        <ele>159.2</ele>
        <time>1970-01-01T01:12:48.000Z</time>
      </trkpt>
      <trkpt lat="43.17744" lon="2.37019">
        <ele>159.2</ele>
        <time>1970-01-01T01:12:50.000Z</time>
      </trkpt>
      <trkpt lat="43.17746" lon="2.37014">
        <ele>159.1</ele>
        <time>1970-01-01T01:12:51.000Z</time>
      </trkpt>
      <trkpt lat="43.17746" lon="2.37012">
        <ele>159.1</ele>
        <time>1970-01-01T01:12:52.000Z</time>
      </trkpt>
      <trkpt lat="43.17747" lon="2.37011">
        <ele>159.1</ele>
        <time>1970-01-01T01:12:53.000Z</time>
      </trkpt>
      <trkpt lat="43.17748" lon="2.37008">
        <ele>159</ele>
        <time>1970-01-01T01:12:55.000Z</time>
      </trkpt>
      <trkpt lat="43.17749" lon="2.37004">
        <ele>159</ele>
        <time>1970-01-01T01:12:56.000Z</time>
      </trkpt>
      <trkpt lat="43.17749" lon="2.37003">
        <ele>159</ele>
        <time>1970-01-01T01:12:57.000Z</time>
      </trkpt>
      <trkpt lat="43.1775" lon="2.36997">
        <ele>158.9</ele>
        <time>1970-01-01T01:12:59.000Z</time>
      </trkpt>
      <trkpt lat="43.17751" lon="2.36995">
        <ele>158.8</ele>
        <time>1970-01-01T01:13:00.000Z</time>
      </trkpt>
      <trkpt lat="43.17751" lon="2.36993">
        <ele>158.8</ele>
        <time>1970-01-01T01:13:01.000Z</time>
      </trkpt>
      <trkpt lat="43.17753" lon="2.36988">
        <ele>158.7</ele>
        <time>1970-01-01T01:13:02.000Z</time>
      </trkpt>
      <trkpt lat="43.17753" lon="2.36987">
        <ele>158.7</ele>
        <time>1970-01-01T01:13:03.000Z</time>
      </trkpt>
      <trkpt lat="43.17754" lon="2.36984">
        <ele>158.6</ele>
        <time>1970-01-01T01:13:04.000Z</time>
      </trkpt>
      <trkpt lat="43.17754" lon="2.36981">
        <ele>158.6</ele>
        <time>1970-01-01T01:13:06.000Z</time>
      </trkpt>
      <trkpt lat="43.17756" lon="2.36977">
        <ele>158.5</ele>
        <time>1970-01-01T01:13:07.000Z</time>
      </trkpt>
      <trkpt lat="43.17756" lon="2.36975">
        <ele>158.4</ele>
        <time>1970-01-01T01:13:08.000Z</time>
      </trkpt>
      <trkpt lat="43.17757" lon="2.36973">
        <ele>158.4</ele>
        <time>1970-01-01T01:13:09.000Z</time>
      </trkpt>
      <trkpt lat="43.17758" lon="2.3697">
        <ele>158.3</ele>
        <time>1970-01-01T01:13:11.000Z</time>
      </trkpt>
      <trkpt lat="43.1776" lon="2.36966">
        <ele>158.2</ele>
        <time>1970-01-01T01:13:13.000Z</time>
      </trkpt>
      <trkpt lat="43.17761" lon="2.36962">
        <ele>158.2</ele>
        <time>1970-01-01T01:13:14.000Z</time>
      </trkpt>
      <trkpt lat="43.17762" lon="2.36959">
        <ele>158.1</ele>
        <time>1970-01-01T01:13:15.000Z</time>
      </trkpt>
      <trkpt lat="43.17764" lon="2.36956">
        <ele>158</ele>
        <time>1970-01-01T01:13:17.000Z</time>
      </trkpt>
      <trkpt lat="43.17765" lon="2.36952">
        <ele>158</ele>
        <time>1970-01-01T01:13:18.000Z</time>
      </trkpt>
      <trkpt lat="43.17766" lon="2.3695">
        <ele>157.9</ele>
        <time>1970-01-01T01:13:19.000Z</time>
      </trkpt>
      <trkpt lat="43.17767" lon="2.36947">
        <ele>157.9</ele>
        <time>1970-01-01T01:13:21.000Z</time>
      </trkpt>
      <trkpt lat="43.17769" lon="2.36944">
        <ele>157.8</ele>
        <time>1970-01-01T01:13:22.000Z</time>
      </trkpt>
      <trkpt lat="43.1777" lon="2.3694">
        <ele>157.8</ele>
        <time>1970-01-01T01:13:24.000Z</time>
      </trkpt>
      <trkpt lat="43.17772" lon="2.36935">
        <ele>157.7</ele>
        <time>1970-01-01T01:13:25.000Z</time>
      </trkpt>
      <trkpt lat="43.17772" lon="2.36934">
        <ele>157.7</ele>
        <time>1970-01-01T01:13:26.000Z</time>
      </trkpt>
      <trkpt lat="43.17775" lon="2.36928">
        <ele>157.6</ele>
        <time>1970-01-01T01:13:28.000Z</time>
      </trkpt>
      <trkpt lat="43.17776" lon="2.36926">
        <ele>157.6</ele>
        <time>1970-01-01T01:13:29.000Z</time>
      </trkpt>
      <trkpt lat="43.17777" lon="2.36923">
        <ele>157.5</ele>
        <time>1970-01-01T01:13:30.000Z</time>
      </trkpt>
      <trkpt lat="43.17779" lon="2.36919">
        <ele>157.4</ele>
        <time>1970-01-01T01:13:32.000Z</time>
      </trkpt>
      <trkpt lat="43.1778" lon="2.36917">
        <ele>157.4</ele>
        <time>1970-01-01T01:13:33.000Z</time>
      </trkpt>
      <trkpt lat="43.17781" lon="2.36913">
        <ele>157.3</ele>
        <time>1970-01-01T01:13:34.000Z</time>
      </trkpt>
      <trkpt lat="43.17781" lon="2.36912">
        <ele>157.3</ele>
        <time>1970-01-01T01:13:35.000Z</time>
      </trkpt>
      <trkpt lat="43.17784" lon="2.36906">
        <ele>157.2</ele>
        <time>1970-01-01T01:13:37.000Z</time>
      </trkpt>
      <trkpt lat="43.17784" lon="2.36903">
        <ele>157.2</ele>
        <time>1970-01-01T01:13:38.000Z</time>
      </trkpt>
      <trkpt lat="43.17785" lon="2.36901">
        <ele>157.1</ele>
        <time>1970-01-01T01:13:39.000Z</time>
      </trkpt>
      <trkpt lat="43.17787" lon="2.36897">
        <ele>157.1</ele>
        <time>1970-01-01T01:13:41.000Z</time>
      </trkpt>
      <trkpt lat="43.17787" lon="2.36895">
        <ele>157</ele>
        <time>1970-01-01T01:13:42.000Z</time>
      </trkpt>
      <trkpt lat="43.17788" lon="2.36891">
        <ele>157</ele>
        <time>1970-01-01T01:13:43.000Z</time>
      </trkpt>
      <trkpt lat="43.17789" lon="2.36889">
        <ele>157</ele>
        <time>1970-01-01T01:13:44.000Z</time>
      </trkpt>
      <trkpt lat="43.1779" lon="2.36886">
        <ele>157</ele>
        <time>1970-01-01T01:13:45.000Z</time>
      </trkpt>
      <trkpt lat="43.17791" lon="2.36882">
        <ele>156.9</ele>
        <time>1970-01-01T01:13:47.000Z</time>
      </trkpt>
      <trkpt lat="43.17792" lon="2.36878">
        <ele>156.9</ele>
        <time>1970-01-01T01:13:48.000Z</time>
      </trkpt>
      <trkpt lat="43.17793" lon="2.36876">
        <ele>156.9</ele>
        <time>1970-01-01T01:13:49.000Z</time>
      </trkpt>
      <trkpt lat="43.17794" lon="2.36873">
        <ele>156.8</ele>
        <time>1970-01-01T01:13:50.000Z</time>
      </trkpt>
      <trkpt lat="43.17795" lon="2.36869">
        <ele>156.8</ele>
        <time>1970-01-01T01:13:52.000Z</time>
      </trkpt>
      <trkpt lat="43.17796" lon="2.36866">
        <ele>156.8</ele>
        <time>1970-01-01T01:13:53.000Z</time>
      </trkpt>
      <trkpt lat="43.17797" lon="2.36862">
        <ele>156.8</ele>
        <time>1970-01-01T01:13:54.000Z</time>
      </trkpt>
      <trkpt lat="43.17799" lon="2.36857">
        <ele>156.7</ele>
        <time>1970-01-01T01:13:56.000Z</time>
      </trkpt>
      <trkpt lat="43.178" lon="2.36853">
        <ele>156.7</ele>
        <time>1970-01-01T01:13:57.000Z</time>
      </trkpt>
      <trkpt lat="43.17801" lon="2.36848">
        <ele>156.6</ele>
        <time>1970-01-01T01:13:58.000Z</time>
      </trkpt>
      <trkpt lat="43.17802" lon="2.36846">
        <ele>156.6</ele>
        <time>1970-01-01T01:13:59.000Z</time>
      </trkpt>
      <trkpt lat="43.17802" lon="2.36842">
        <ele>156.6</ele>
        <time>1970-01-01T01:14:01.000Z</time>
      </trkpt>
      <trkpt lat="43.17803" lon="2.36838">
        <ele>156.5</ele>
        <time>1970-01-01T01:14:02.000Z</time>
      </trkpt>
      <trkpt lat="43.17803" lon="2.36834">
        <ele>156.5</ele>
        <time>1970-01-01T01:14:03.000Z</time>
      </trkpt>
      <trkpt lat="43.17803" lon="2.36831">
        <ele>156.5</ele>
        <time>1970-01-01T01:14:04.000Z</time>
      </trkpt>
      <trkpt lat="43.17803" lon="2.36825">
        <ele>156.5</ele>
        <time>1970-01-01T01:14:05.000Z</time>
      </trkpt>
      <trkpt lat="43.17803" lon="2.36823">
        <ele>156.5</ele>
        <time>1970-01-01T01:14:06.000Z</time>
      </trkpt>
      <trkpt lat="43.17804" lon="2.36819">
        <ele>156.4</ele>
        <time>1970-01-01T01:14:08.000Z</time>
      </trkpt>
      <trkpt lat="43.17806" lon="2.36818">
        <ele>156.4</ele>
        <time>1970-01-01T01:14:09.000Z</time>
      </trkpt>
      <trkpt lat="43.17808" lon="2.36816">
        <ele>156.4</ele>
        <time>1970-01-01T01:14:11.000Z</time>
      </trkpt>
      <trkpt lat="43.1781" lon="2.36814">
        <ele>156.4</ele>
        <time>1970-01-01T01:14:12.000Z</time>
      </trkpt>
      <trkpt lat="43.17811" lon="2.36813">
        <ele>156.4</ele>
        <time>1970-01-01T01:14:13.000Z</time>
      </trkpt>
      <trkpt lat="43.17813" lon="2.36808">
        <ele>156.4</ele>
        <time>1970-01-01T01:14:15.000Z</time>
      </trkpt>
      <trkpt lat="43.17814" lon="2.36806">
        <ele>156.4</ele>
        <time>1970-01-01T01:14:16.000Z</time>
      </trkpt>
      <trkpt lat="43.17814" lon="2.36804">
        <ele>156.4</ele>
        <time>1970-01-01T01:14:17.000Z</time>
      </trkpt>
      <trkpt lat="43.17814" lon="2.36801">
        <ele>156.4</ele>
        <time>1970-01-01T01:14:18.000Z</time>
      </trkpt>
      <trkpt lat="43.17815" lon="2.36795">
        <ele>156.3</ele>
        <time>1970-01-01T01:14:20.000Z</time>
      </trkpt>
      <trkpt lat="43.17815" lon="2.36791">
        <ele>156.3</ele>
        <time>1970-01-01T01:14:21.000Z</time>
      </trkpt>
      <trkpt lat="43.17815" lon="2.36786">
        <ele>156.3</ele>
        <time>1970-01-01T01:14:23.000Z</time>
      </trkpt>
      <trkpt lat="43.17816" lon="2.36782">
        <ele>156.3</ele>
        <time>1970-01-01T01:14:24.000Z</time>
      </trkpt>
      <trkpt lat="43.17819" lon="2.36777">
        <ele>156.3</ele>
        <time>1970-01-01T01:14:26.000Z</time>
      </trkpt>
      <trkpt lat="43.17821" lon="2.36775">
        <ele>156.3</ele>
        <time>1970-01-01T01:14:27.000Z</time>
      </trkpt>
      <trkpt lat="43.17822" lon="2.36774">
        <ele>156.3</ele>
        <time>1970-01-01T01:14:28.000Z</time>
      </trkpt>
      <trkpt lat="43.17825" lon="2.36774">
        <ele>156.3</ele>
        <time>1970-01-01T01:14:29.000Z</time>
      </trkpt>
      <trkpt lat="43.17827" lon="2.36774">
        <ele>156.3</ele>
        <time>1970-01-01T01:14:31.000Z</time>
      </trkpt>
      <trkpt lat="43.1783" lon="2.36773">
        <ele>156.3</ele>
        <time>1970-01-01T01:14:32.000Z</time>
      </trkpt>
      <trkpt lat="43.17832" lon="2.36773">
        <ele>156.3</ele>
        <time>1970-01-01T01:14:34.000Z</time>
      </trkpt>
      <trkpt lat="43.17833" lon="2.36773">
        <ele>156.3</ele>
        <time>1970-01-01T01:14:35.000Z</time>
      </trkpt>
      <trkpt lat="43.17835" lon="2.36773">
        <ele>156.3</ele>
        <time>1970-01-01T01:14:37.000Z</time>
      </trkpt>
      <trkpt lat="43.17838" lon="2.36774">
        <ele>156.3</ele>
        <time>1970-01-01T01:14:38.000Z</time>
      </trkpt>
      <trkpt lat="43.17839" lon="2.36775">
        <ele>156.3</ele>
        <time>1970-01-01T01:14:39.000Z</time>
      </trkpt>
      <trkpt lat="43.17842" lon="2.36776">
        <ele>156.3</ele>
        <time>1970-01-01T01:14:40.000Z</time>
      </trkpt>
      <trkpt lat="43.17843" lon="2.36776">
        <ele>156.3</ele>
        <time>1970-01-01T01:14:41.000Z</time>
      </trkpt>
      <trkpt lat="43.17846" lon="2.3678">
        <ele>156.3</ele>
        <time>1970-01-01T01:14:44.000Z</time>
      </trkpt>
      <trkpt lat="43.17847" lon="2.3678">
        <ele>156.3</ele>
        <time>1970-01-01T01:14:45.000Z</time>
      </trkpt>
      <trkpt lat="43.17847" lon="2.36783">
        <ele>156.3</ele>
        <time>1970-01-01T01:14:47.000Z</time>
      </trkpt>
      <trkpt lat="43.17848" lon="2.36783">
        <ele>156.3</ele>
        <time>1970-01-01T01:14:48.000Z</time>
      </trkpt>
      <trkpt lat="43.17848" lon="2.36783">
        <ele>156.3</ele>
        <time>1970-01-01T01:14:50.000Z</time>
      </trkpt>
    </trkseg>
  </trk>
</gpx>